<?xml version="1.0" encoding="UTF-8"?><gpx xmlns="http://www.topografix.com/GPX/1/1" version="1.1" creator="iOrient"><trk><name>Большая прогулка. Первая гонка</name><trkseg><trkpt lat="55.8345135" lon="48.9582170"><time>2021-04-17T07:10:21.373</time></trkpt><trkpt lat="55.8345610" lon="48.9582146"><time>2021-04-17T07:10:23.333</time></trkpt><trkpt lat="55.8346077" lon="48.9582041"><time>2021-04-17T07:10:25.367</time></trkpt><trkpt lat="55.8346639" lon="48.9581869"><time>2021-04-17T07:10:27.337</time></trkpt><trkpt lat="55.8347120" lon="48.9581622"><time>2021-04-17T07:10:29.330</time></trkpt><trkpt lat="55.8347436" lon="48.9580971"><time>2021-04-17T07:10:31.330</time></trkpt><trkpt lat="55.8347726" lon="48.9580320"><time>2021-04-17T07:10:33.337</time></trkpt><trkpt lat="55.8348307" lon="48.9579950"><time>2021-04-17T07:10:36.327</time></trkpt><trkpt lat="55.8348949" lon="48.9579896"><time>2021-04-17T07:10:39.357</time></trkpt><trkpt lat="55.8349569" lon="48.9579440"><time>2021-04-17T07:10:42.347</time></trkpt><trkpt lat="55.8350062" lon="48.9578626"><time>2021-04-17T07:10:45.327</time></trkpt><trkpt lat="55.8350472" lon="48.9577990"><time>2021-04-17T07:10:47.357</time></trkpt><trkpt lat="55.8351009" lon="48.9577641"><time>2021-04-17T07:10:49.363</time></trkpt><trkpt lat="55.8351645" lon="48.9577673"><time>2021-04-17T07:10:51.353</time></trkpt><trkpt lat="55.8352273" lon="48.9578115"><time>2021-04-17T07:10:53.357</time></trkpt><trkpt lat="55.8352787" lon="48.9578576"><time>2021-04-17T07:10:55.347</time></trkpt><trkpt lat="55.8353216" lon="48.9578953"><time>2021-04-17T07:10:57.387</time></trkpt><trkpt lat="55.8353665" lon="48.9579348"><time>2021-04-17T07:10:59.357</time></trkpt><trkpt lat="55.8354277" lon="48.9579746"><time>2021-04-17T07:11:02.357</time></trkpt><trkpt lat="55.8354758" lon="48.9579702"><time>2021-04-17T07:11:04.350</time></trkpt><trkpt lat="55.8355206" lon="48.9579641"><time>2021-04-17T07:11:06.327</time></trkpt><trkpt lat="55.8355890" lon="48.9579386"><time>2021-04-17T07:11:09.370</time></trkpt><trkpt lat="55.8356417" lon="48.9579340"><time>2021-04-17T07:11:11.360</time></trkpt><trkpt lat="55.8356960" lon="48.9579514"><time>2021-04-17T07:11:13.360</time></trkpt><trkpt lat="55.8357616" lon="48.9579761"><time>2021-04-17T07:11:15.360</time></trkpt><trkpt lat="55.8358228" lon="48.9579849"><time>2021-04-17T07:11:17.363</time></trkpt><trkpt lat="55.8358760" lon="48.9580032"><time>2021-04-17T07:11:19.347</time></trkpt><trkpt lat="55.8359246" lon="48.9580283"><time>2021-04-17T07:11:21.350</time></trkpt><trkpt lat="55.8359738" lon="48.9580609"><time>2021-04-17T07:11:23.353</time></trkpt><trkpt lat="55.8360265" lon="48.9580739"><time>2021-04-17T07:11:25.327</time></trkpt><trkpt lat="55.8360833" lon="48.9580858"><time>2021-04-17T07:11:27.357</time></trkpt><trkpt lat="55.8361361" lon="48.9581124"><time>2021-04-17T07:11:29.370</time></trkpt><trkpt lat="55.8361917" lon="48.9581325"><time>2021-04-17T07:11:31.350</time></trkpt><trkpt lat="55.8362455" lon="48.9581414"><time>2021-04-17T07:11:33.357</time></trkpt><trkpt lat="55.8363016" lon="48.9581507"><time>2021-04-17T07:11:35.327</time></trkpt><trkpt lat="55.8363569" lon="48.9581516"><time>2021-04-17T07:11:37.350</time></trkpt><trkpt lat="55.8364144" lon="48.9581606"><time>2021-04-17T07:11:39.363</time></trkpt><trkpt lat="55.8364648" lon="48.9581772"><time>2021-04-17T07:11:41.373</time></trkpt><trkpt lat="55.8365224" lon="48.9582032"><time>2021-04-17T07:11:43.353</time></trkpt><trkpt lat="55.8365738" lon="48.9582099"><time>2021-04-17T07:11:45.353</time></trkpt><trkpt lat="55.8366411" lon="48.9581971"><time>2021-04-17T07:11:48.367</time></trkpt><trkpt lat="55.8366882" lon="48.9581285"><time>2021-04-17T07:11:50.360</time></trkpt><trkpt lat="55.8367438" lon="48.9580675"><time>2021-04-17T07:11:52.357</time></trkpt><trkpt lat="55.8368036" lon="48.9580015"><time>2021-04-17T07:11:54.360</time></trkpt><trkpt lat="55.8368617" lon="48.9579687"><time>2021-04-17T07:11:56.377</time></trkpt><trkpt lat="55.8369093" lon="48.9579543"><time>2021-04-17T07:11:58.357</time></trkpt><trkpt lat="55.8369580" lon="48.9579579"><time>2021-04-17T07:12:00.357</time></trkpt><trkpt lat="55.8370235" lon="48.9579996"><time>2021-04-17T07:12:02.347</time></trkpt><trkpt lat="55.8370818" lon="48.9580450"><time>2021-04-17T07:12:04.360</time></trkpt><trkpt lat="55.8371318" lon="48.9580696"><time>2021-04-17T07:12:06.350</time></trkpt><trkpt lat="55.8371917" lon="48.9580631"><time>2021-04-17T07:12:09.363</time></trkpt><trkpt lat="55.8372173" lon="48.9580692"><time>2021-04-17T07:12:17.003</time></trkpt><trkpt lat="55.8372388" lon="48.9580553"><time>2021-04-17T07:12:38.340</time></trkpt><trkpt lat="55.8372736" lon="48.9580014"><time>2021-04-17T07:12:40.350</time></trkpt><trkpt lat="55.8373345" lon="48.9579886"><time>2021-04-17T07:12:42.340</time></trkpt><trkpt lat="55.8373790" lon="48.9579443"><time>2021-04-17T07:12:44.350</time></trkpt><trkpt lat="55.8373949" lon="48.9578513"><time>2021-04-17T07:12:46.367</time></trkpt><trkpt lat="55.8374256" lon="48.9577638"><time>2021-04-17T07:12:48.330</time></trkpt><trkpt lat="55.8374585" lon="48.9576622"><time>2021-04-17T07:12:50.333</time></trkpt><trkpt lat="55.8374979" lon="48.9575683"><time>2021-04-17T07:12:52.340</time></trkpt><trkpt lat="55.8375458" lon="48.9574767"><time>2021-04-17T07:12:54.340</time></trkpt><trkpt lat="55.8375838" lon="48.9573856"><time>2021-04-17T07:12:56.343</time></trkpt><trkpt lat="55.8376094" lon="48.9572718"><time>2021-04-17T07:12:58.330</time></trkpt><trkpt lat="55.8376311" lon="48.9571679"><time>2021-04-17T07:13:00.333</time></trkpt><trkpt lat="55.8376496" lon="48.9570662"><time>2021-04-17T07:13:02.340</time></trkpt><trkpt lat="55.8376738" lon="48.9569792"><time>2021-04-17T07:13:04.357</time></trkpt><trkpt lat="55.8377032" lon="48.9569051"><time>2021-04-17T07:13:06.360</time></trkpt><trkpt lat="55.8377451" lon="48.9568357"><time>2021-04-17T07:13:08.337</time></trkpt><trkpt lat="55.8377877" lon="48.9567597"><time>2021-04-17T07:13:10.327</time></trkpt><trkpt lat="55.8378502" lon="48.9566842"><time>2021-04-17T07:13:12.367</time></trkpt><trkpt lat="55.8379010" lon="48.9566124"><time>2021-04-17T07:13:14.357</time></trkpt><trkpt lat="55.8379464" lon="48.9565294"><time>2021-04-17T07:13:17.353</time></trkpt><trkpt lat="55.8379867" lon="48.9564578"><time>2021-04-17T07:13:20.387</time></trkpt><trkpt lat="55.8380384" lon="48.9563829"><time>2021-04-17T07:13:23.357</time></trkpt><trkpt lat="55.8380722" lon="48.9563263"><time>2021-04-17T07:13:25.357</time></trkpt><trkpt lat="55.8381131" lon="48.9562368"><time>2021-04-17T07:13:28.357</time></trkpt><trkpt lat="55.8381465" lon="48.9561723"><time>2021-04-17T07:13:30.370</time></trkpt><trkpt lat="55.8381873" lon="48.9561235"><time>2021-04-17T07:13:32.357</time></trkpt><trkpt lat="55.8382284" lon="48.9560623"><time>2021-04-17T07:13:34.357</time></trkpt><trkpt lat="55.8382698" lon="48.9560029"><time>2021-04-17T07:13:36.393</time></trkpt><trkpt lat="55.8383095" lon="48.9559302"><time>2021-04-17T07:13:38.357</time></trkpt><trkpt lat="55.8383481" lon="48.9558709"><time>2021-04-17T07:13:40.330</time></trkpt><trkpt lat="55.8383868" lon="48.9558048"><time>2021-04-17T07:13:42.330</time></trkpt><trkpt lat="55.8384147" lon="48.9557289"><time>2021-04-17T07:13:44.327</time></trkpt><trkpt lat="55.8384447" lon="48.9556559"><time>2021-04-17T07:13:46.357</time></trkpt><trkpt lat="55.8384686" lon="48.9555608"><time>2021-04-17T07:13:48.357</time></trkpt><trkpt lat="55.8385050" lon="48.9554883"><time>2021-04-17T07:13:50.357</time></trkpt><trkpt lat="55.8385640" lon="48.9554427"><time>2021-04-17T07:13:52.330</time></trkpt><trkpt lat="55.8386288" lon="48.9554081"><time>2021-04-17T07:13:54.323</time></trkpt><trkpt lat="55.8386852" lon="48.9553678"><time>2021-04-17T07:13:56.357</time></trkpt><trkpt lat="55.8387318" lon="48.9553231"><time>2021-04-17T07:13:58.360</time></trkpt><trkpt lat="55.8387724" lon="48.9552829"><time>2021-04-17T07:14:00.360</time></trkpt><trkpt lat="55.8388145" lon="48.9552331"><time>2021-04-17T07:14:03.350</time></trkpt><trkpt lat="55.8388791" lon="48.9552141"><time>2021-04-17T07:14:06.360</time></trkpt><trkpt lat="55.8389280" lon="48.9552286"><time>2021-04-17T07:14:08.367</time></trkpt><trkpt lat="55.8389796" lon="48.9552134"><time>2021-04-17T07:14:10.360</time></trkpt><trkpt lat="55.8390386" lon="48.9552151"><time>2021-04-17T07:14:13.373</time></trkpt><trkpt lat="55.8390774" lon="48.9553099"><time>2021-04-17T07:14:16.350</time></trkpt><trkpt lat="55.8391075" lon="48.9553939"><time>2021-04-17T07:14:18.350</time></trkpt><trkpt lat="55.8391515" lon="48.9554566"><time>2021-04-17T07:14:20.333</time></trkpt><trkpt lat="55.8392038" lon="48.9555200"><time>2021-04-17T07:14:23.347</time></trkpt><trkpt lat="55.8392456" lon="48.9555619"><time>2021-04-17T07:14:25.347</time></trkpt><trkpt lat="55.8392862" lon="48.9556301"><time>2021-04-17T07:14:28.327</time></trkpt><trkpt lat="55.8392873" lon="48.9557410"><time>2021-04-17T07:14:31.370</time></trkpt><trkpt lat="55.8392582" lon="48.9558334"><time>2021-04-17T07:14:33.343</time></trkpt><trkpt lat="55.8392120" lon="48.9559050"><time>2021-04-17T07:14:35.367</time></trkpt><trkpt lat="55.8391789" lon="48.9559706"><time>2021-04-17T07:14:37.347</time></trkpt><trkpt lat="55.8391746" lon="48.9560784"><time>2021-04-17T07:14:40.350</time></trkpt><trkpt lat="55.8391561" lon="48.9561555"><time>2021-04-17T07:14:42.367</time></trkpt><trkpt lat="55.8391168" lon="48.9562360"><time>2021-04-17T07:14:44.360</time></trkpt><trkpt lat="55.8390803" lon="48.9563096"><time>2021-04-17T07:14:46.367</time></trkpt><trkpt lat="55.8390437" lon="48.9563724"><time>2021-04-17T07:14:48.363</time></trkpt><trkpt lat="55.8390060" lon="48.9564375"><time>2021-04-17T07:14:50.363</time></trkpt><trkpt lat="55.8389671" lon="48.9565037"><time>2021-04-17T07:14:52.327</time></trkpt><trkpt lat="55.8389192" lon="48.9565581"><time>2021-04-17T07:14:54.357</time></trkpt><trkpt lat="55.8388646" lon="48.9566073"><time>2021-04-17T07:14:56.327</time></trkpt><trkpt lat="55.8388170" lon="48.9566610"><time>2021-04-17T07:14:58.353</time></trkpt><trkpt lat="55.8387777" lon="48.9567296"><time>2021-04-17T07:15:00.367</time></trkpt><trkpt lat="55.8387444" lon="48.9568074"><time>2021-04-17T07:15:02.350</time></trkpt><trkpt lat="55.8386989" lon="48.9568679"><time>2021-04-17T07:15:04.370</time></trkpt><trkpt lat="55.8386496" lon="48.9569217"><time>2021-04-17T07:15:06.363</time></trkpt><trkpt lat="55.8386113" lon="48.9569851"><time>2021-04-17T07:15:08.347</time></trkpt><trkpt lat="55.8385819" lon="48.9570492"><time>2021-04-17T07:15:10.350</time></trkpt><trkpt lat="55.8385542" lon="48.9571123"><time>2021-04-17T07:15:12.350</time></trkpt><trkpt lat="55.8385271" lon="48.9571790"><time>2021-04-17T07:15:14.363</time></trkpt><trkpt lat="55.8385023" lon="48.9572481"><time>2021-04-17T07:15:16.353</time></trkpt><trkpt lat="55.8384779" lon="48.9573185"><time>2021-04-17T07:15:18.347</time></trkpt><trkpt lat="55.8384374" lon="48.9574040"><time>2021-04-17T07:15:21.360</time></trkpt><trkpt lat="55.8383943" lon="48.9575000"><time>2021-04-17T07:15:24.357</time></trkpt><trkpt lat="55.8383638" lon="48.9575753"><time>2021-04-17T07:15:26.353</time></trkpt><trkpt lat="55.8383435" lon="48.9576572"><time>2021-04-17T07:15:28.367</time></trkpt><trkpt lat="55.8383322" lon="48.9577492"><time>2021-04-17T07:15:30.350</time></trkpt><trkpt lat="55.8383123" lon="48.9578349"><time>2021-04-17T07:15:32.330</time></trkpt><trkpt lat="55.8382927" lon="48.9579093"><time>2021-04-17T07:15:34.353</time></trkpt><trkpt lat="55.8382741" lon="48.9579910"><time>2021-04-17T07:15:36.357</time></trkpt><trkpt lat="55.8382580" lon="48.9580771"><time>2021-04-17T07:15:38.367</time></trkpt><trkpt lat="55.8382436" lon="48.9581885"><time>2021-04-17T07:15:41.370</time></trkpt><trkpt lat="55.8382212" lon="48.9582640"><time>2021-04-17T07:15:43.357</time></trkpt><trkpt lat="55.8381948" lon="48.9583291"><time>2021-04-17T07:15:45.353</time></trkpt><trkpt lat="55.8381614" lon="48.9584086"><time>2021-04-17T07:15:48.367</time></trkpt><trkpt lat="55.8381446" lon="48.9584880"><time>2021-04-17T07:15:50.377</time></trkpt><trkpt lat="55.8381294" lon="48.9585706"><time>2021-04-17T07:15:52.350</time></trkpt><trkpt lat="55.8381064" lon="48.9586742"><time>2021-04-17T07:15:55.357</time></trkpt><trkpt lat="55.8380782" lon="48.9587483"><time>2021-04-17T07:15:57.357</time></trkpt><trkpt lat="55.8380376" lon="48.9588271"><time>2021-04-17T07:15:59.373</time></trkpt><trkpt lat="55.8379885" lon="48.9588959"><time>2021-04-17T07:16:01.347</time></trkpt><trkpt lat="55.8379510" lon="48.9589514"><time>2021-04-17T07:16:03.347</time></trkpt><trkpt lat="55.8379039" lon="48.9590184"><time>2021-04-17T07:16:06.337</time></trkpt><trkpt lat="55.8378752" lon="48.9590442"><time>2021-04-17T07:16:10.197</time></trkpt><trkpt lat="55.8379389" lon="48.9589571"><time>2021-04-17T07:16:19.330</time></trkpt><trkpt lat="55.8379857" lon="48.9589228"><time>2021-04-17T07:16:22.353</time></trkpt><trkpt lat="55.8380290" lon="48.9588872"><time>2021-04-17T07:16:26.353</time></trkpt><trkpt lat="55.8380804" lon="48.9588265"><time>2021-04-17T07:16:29.337</time></trkpt><trkpt lat="55.8381101" lon="48.9587623"><time>2021-04-17T07:16:31.353</time></trkpt><trkpt lat="55.8381316" lon="48.9586879"><time>2021-04-17T07:16:33.357</time></trkpt><trkpt lat="55.8381449" lon="48.9586107"><time>2021-04-17T07:16:35.353</time></trkpt><trkpt lat="55.8381627" lon="48.9584938"><time>2021-04-17T07:16:38.343</time></trkpt><trkpt lat="55.8381791" lon="48.9584046"><time>2021-04-17T07:16:40.357</time></trkpt><trkpt lat="55.8382041" lon="48.9583124"><time>2021-04-17T07:16:42.350</time></trkpt><trkpt lat="55.8382267" lon="48.9582194"><time>2021-04-17T07:16:44.400</time></trkpt><trkpt lat="55.8382436" lon="48.9581277"><time>2021-04-17T07:16:46.367</time></trkpt><trkpt lat="55.8382591" lon="48.9580318"><time>2021-04-17T07:16:48.353</time></trkpt><trkpt lat="55.8382738" lon="48.9579430"><time>2021-04-17T07:16:50.353</time></trkpt><trkpt lat="55.8382861" lon="48.9578576"><time>2021-04-17T07:16:52.357</time></trkpt><trkpt lat="55.8383119" lon="48.9577722"><time>2021-04-17T07:16:54.357</time></trkpt><trkpt lat="55.8383468" lon="48.9576885"><time>2021-04-17T07:16:56.357</time></trkpt><trkpt lat="55.8383789" lon="48.9576036"><time>2021-04-17T07:16:58.353</time></trkpt><trkpt lat="55.8384162" lon="48.9575287"><time>2021-04-17T07:17:00.357</time></trkpt><trkpt lat="55.8384589" lon="48.9574496"><time>2021-04-17T07:17:02.357</time></trkpt><trkpt lat="55.8384944" lon="48.9573800"><time>2021-04-17T07:17:04.353</time></trkpt><trkpt lat="55.8385290" lon="48.9573116"><time>2021-04-17T07:17:06.350</time></trkpt><trkpt lat="55.8385691" lon="48.9572342"><time>2021-04-17T07:17:08.353</time></trkpt><trkpt lat="55.8386101" lon="48.9571492"><time>2021-04-17T07:17:10.357</time></trkpt><trkpt lat="55.8386487" lon="48.9570655"><time>2021-04-17T07:17:12.357</time></trkpt><trkpt lat="55.8386884" lon="48.9569878"><time>2021-04-17T07:17:14.357</time></trkpt><trkpt lat="55.8387326" lon="48.9569192"><time>2021-04-17T07:17:16.357</time></trkpt><trkpt lat="55.8387783" lon="48.9568667"><time>2021-04-17T07:17:18.357</time></trkpt><trkpt lat="55.8388097" lon="48.9568005"><time>2021-04-17T07:17:20.357</time></trkpt><trkpt lat="55.8388452" lon="48.9567297"><time>2021-04-17T07:17:22.357</time></trkpt><trkpt lat="55.8388827" lon="48.9566685"><time>2021-04-17T07:17:24.333</time></trkpt><trkpt lat="55.8389217" lon="48.9566265"><time>2021-04-17T07:17:26.343</time></trkpt><trkpt lat="55.8389669" lon="48.9565836"><time>2021-04-17T07:17:28.327</time></trkpt><trkpt lat="55.8390091" lon="48.9565387"><time>2021-04-17T07:17:30.357</time></trkpt><trkpt lat="55.8390501" lon="48.9564910"><time>2021-04-17T07:17:32.357</time></trkpt><trkpt lat="55.8390894" lon="48.9564123"><time>2021-04-17T07:17:35.357</time></trkpt><trkpt lat="55.8391310" lon="48.9563335"><time>2021-04-17T07:17:38.343</time></trkpt><trkpt lat="55.8391619" lon="48.9562674"><time>2021-04-17T07:17:40.347</time></trkpt><trkpt lat="55.8391849" lon="48.9561960"><time>2021-04-17T07:17:42.363</time></trkpt><trkpt lat="55.8392202" lon="48.9560977"><time>2021-04-17T07:17:45.360</time></trkpt><trkpt lat="55.8392468" lon="48.9560304"><time>2021-04-17T07:17:47.360</time></trkpt><trkpt lat="55.8392784" lon="48.9559717"><time>2021-04-17T07:17:49.377</time></trkpt><trkpt lat="55.8393152" lon="48.9558946"><time>2021-04-17T07:17:52.377</time></trkpt><trkpt lat="55.8393098" lon="48.9558073"><time>2021-04-17T07:17:55.367</time></trkpt><trkpt lat="55.8392905" lon="48.9557260"><time>2021-04-17T07:18:00.380</time></trkpt><trkpt lat="55.8392769" lon="48.9556371"><time>2021-04-17T07:18:04.377</time></trkpt><trkpt lat="55.8392477" lon="48.9555307"><time>2021-04-17T07:18:07.353</time></trkpt><trkpt lat="55.8392108" lon="48.9554500"><time>2021-04-17T07:18:10.360</time></trkpt><trkpt lat="55.8391779" lon="48.9553903"><time>2021-04-17T07:18:12.347</time></trkpt><trkpt lat="55.8391446" lon="48.9552970"><time>2021-04-17T07:18:15.347</time></trkpt><trkpt lat="55.8391301" lon="48.9552112"><time>2021-04-17T07:18:17.353</time></trkpt><trkpt lat="55.8391060" lon="48.9551186"><time>2021-04-17T07:18:19.363</time></trkpt><trkpt lat="55.8390894" lon="48.9550303"><time>2021-04-17T07:18:21.360</time></trkpt><trkpt lat="55.8390744" lon="48.9549269"><time>2021-04-17T07:18:23.363</time></trkpt><trkpt lat="55.8390787" lon="48.9548348"><time>2021-04-17T07:18:25.353</time></trkpt><trkpt lat="55.8390996" lon="48.9547528"><time>2021-04-17T07:18:27.357</time></trkpt><trkpt lat="55.8391275" lon="48.9546600"><time>2021-04-17T07:18:30.363</time></trkpt><trkpt lat="55.8391545" lon="48.9545768"><time>2021-04-17T07:18:33.363</time></trkpt><trkpt lat="55.8391974" lon="48.9544982"><time>2021-04-17T07:18:36.367</time></trkpt><trkpt lat="55.8392221" lon="48.9544269"><time>2021-04-17T07:18:38.350</time></trkpt><trkpt lat="55.8392202" lon="48.9543375"><time>2021-04-17T07:18:41.400</time></trkpt><trkpt lat="55.8392123" lon="48.9542331"><time>2021-04-17T07:18:45.353</time></trkpt><trkpt lat="55.8392008" lon="48.9541166"><time>2021-04-17T07:18:48.350</time></trkpt><trkpt lat="55.8391945" lon="48.9540361"><time>2021-04-17T07:18:50.403</time></trkpt><trkpt lat="55.8392118" lon="48.9539363"><time>2021-04-17T07:18:53.357</time></trkpt><trkpt lat="55.8392020" lon="48.9538307"><time>2021-04-17T07:18:56.367</time></trkpt><trkpt lat="55.8391812" lon="48.9537568"><time>2021-04-17T07:18:58.367</time></trkpt><trkpt lat="55.8391675" lon="48.9536686"><time>2021-04-17T07:19:00.350</time></trkpt><trkpt lat="55.8391493" lon="48.9535610"><time>2021-04-17T07:19:02.347</time></trkpt><trkpt lat="55.8391172" lon="48.9534345"><time>2021-04-17T07:19:04.600</time></trkpt><trkpt lat="55.8390857" lon="48.9533432"><time>2021-04-17T07:19:06.353</time></trkpt><trkpt lat="55.8390624" lon="48.9532743"><time>2021-04-17T07:19:08.337</time></trkpt><trkpt lat="55.8390487" lon="48.9532527"><time>2021-04-17T07:19:10.277</time></trkpt><trkpt lat="55.8390253" lon="48.9532176"><time>2021-04-17T07:19:11.333</time></trkpt><trkpt lat="55.8390682" lon="48.9532544"><time>2021-04-17T07:19:16.333</time></trkpt><trkpt lat="55.8390180" lon="48.9533221"><time>2021-04-17T07:19:27.337</time></trkpt><trkpt lat="55.8390235" lon="48.9534283"><time>2021-04-17T07:19:48.340</time></trkpt><trkpt lat="55.8390342" lon="48.9533307"><time>2021-04-17T07:19:57.333</time></trkpt><trkpt lat="55.8390288" lon="48.9532068"><time>2021-04-17T07:20:00.353</time></trkpt><trkpt lat="55.8390126" lon="48.9531039"><time>2021-04-17T07:20:03.350</time></trkpt><trkpt lat="55.8390126" lon="48.9530112"><time>2021-04-17T07:20:08.350</time></trkpt><trkpt lat="55.8390028" lon="48.9529130"><time>2021-04-17T07:20:10.350</time></trkpt><trkpt lat="55.8389920" lon="48.9528131"><time>2021-04-17T07:20:12.350</time></trkpt><trkpt lat="55.8389824" lon="48.9527212"><time>2021-04-17T07:20:14.350</time></trkpt><trkpt lat="55.8389821" lon="48.9526197"><time>2021-04-17T07:20:16.350</time></trkpt><trkpt lat="55.8389729" lon="48.9525132"><time>2021-04-17T07:20:19.353</time></trkpt><trkpt lat="55.8389403" lon="48.9524156"><time>2021-04-17T07:20:22.363</time></trkpt><trkpt lat="55.8389238" lon="48.9523224"><time>2021-04-17T07:20:24.350</time></trkpt><trkpt lat="55.8388999" lon="48.9522390"><time>2021-04-17T07:20:26.350</time></trkpt><trkpt lat="55.8388785" lon="48.9521680"><time>2021-04-17T07:20:28.353</time></trkpt><trkpt lat="55.8388641" lon="48.9520904"><time>2021-04-17T07:20:30.353</time></trkpt><trkpt lat="55.8388588" lon="48.9519854"><time>2021-04-17T07:20:32.347</time></trkpt><trkpt lat="55.8388609" lon="48.9518975"><time>2021-04-17T07:20:34.350</time></trkpt><trkpt lat="55.8388660" lon="48.9517858"><time>2021-04-17T07:20:37.353</time></trkpt><trkpt lat="55.8388596" lon="48.9516995"><time>2021-04-17T07:20:39.347</time></trkpt><trkpt lat="55.8388652" lon="48.9516027"><time>2021-04-17T07:20:42.350</time></trkpt><trkpt lat="55.8388717" lon="48.9514988"><time>2021-04-17T07:20:45.350</time></trkpt><trkpt lat="55.8388736" lon="48.9514150"><time>2021-04-17T07:20:47.367</time></trkpt><trkpt lat="55.8388721" lon="48.9513199"><time>2021-04-17T07:20:49.353</time></trkpt><trkpt lat="55.8388713" lon="48.9512352"><time>2021-04-17T07:20:51.353</time></trkpt><trkpt lat="55.8388805" lon="48.9511256"><time>2021-04-17T07:20:54.350</time></trkpt><trkpt lat="55.8388897" lon="48.9510341"><time>2021-04-17T07:20:56.330</time></trkpt><trkpt lat="55.8388930" lon="48.9509124"><time>2021-04-17T07:20:58.350</time></trkpt><trkpt lat="55.8389051" lon="48.9507608"><time>2021-04-17T07:21:00.350</time></trkpt><trkpt lat="55.8389087" lon="48.9506751"><time>2021-04-17T07:21:01.367</time></trkpt><trkpt lat="55.8388952" lon="48.9505626"><time>2021-04-17T07:21:03.353</time></trkpt><trkpt lat="55.8388871" lon="48.9504813"><time>2021-04-17T07:21:05.363</time></trkpt><trkpt lat="55.8388866" lon="48.9503901"><time>2021-04-17T07:21:07.353</time></trkpt><trkpt lat="55.8388840" lon="48.9502987"><time>2021-04-17T07:21:09.353</time></trkpt><trkpt lat="55.8388799" lon="48.9502013"><time>2021-04-17T07:21:11.377</time></trkpt><trkpt lat="55.8388763" lon="48.9500962"><time>2021-04-17T07:21:13.357</time></trkpt><trkpt lat="55.8388775" lon="48.9499973"><time>2021-04-17T07:21:15.353</time></trkpt><trkpt lat="55.8388727" lon="48.9499005"><time>2021-04-17T07:21:17.367</time></trkpt><trkpt lat="55.8388854" lon="48.9498226"><time>2021-04-17T07:21:19.353</time></trkpt><trkpt lat="55.8389123" lon="48.9497510"><time>2021-04-17T07:21:21.353</time></trkpt><trkpt lat="55.8388889" lon="48.9496498"><time>2021-04-17T07:21:25.350</time></trkpt><trkpt lat="55.8388402" lon="48.9495941"><time>2021-04-17T07:21:27.357</time></trkpt><trkpt lat="55.8387930" lon="48.9495175"><time>2021-04-17T07:21:29.350</time></trkpt><trkpt lat="55.8387463" lon="48.9494696"><time>2021-04-17T07:21:31.333</time></trkpt><trkpt lat="55.8386955" lon="48.9494220"><time>2021-04-17T07:21:33.373</time></trkpt><trkpt lat="55.8386438" lon="48.9493677"><time>2021-04-17T07:21:35.323</time></trkpt><trkpt lat="55.8385904" lon="48.9493230"><time>2021-04-17T07:21:37.347</time></trkpt><trkpt lat="55.8385448" lon="48.9492993"><time>2021-04-17T07:21:39.383</time></trkpt><trkpt lat="55.8384965" lon="48.9492600"><time>2021-04-17T07:21:41.357</time></trkpt><trkpt lat="55.8384491" lon="48.9492141"><time>2021-04-17T07:21:43.340</time></trkpt><trkpt lat="55.8383923" lon="48.9491757"><time>2021-04-17T07:21:45.340</time></trkpt><trkpt lat="55.8383315" lon="48.9491430"><time>2021-04-17T07:21:47.353</time></trkpt><trkpt lat="55.8382722" lon="48.9491154"><time>2021-04-17T07:21:49.357</time></trkpt><trkpt lat="55.8382272" lon="48.9490918"><time>2021-04-17T07:21:51.357</time></trkpt><trkpt lat="55.8381819" lon="48.9490437"><time>2021-04-17T07:21:53.357</time></trkpt><trkpt lat="55.8381409" lon="48.9490042"><time>2021-04-17T07:21:55.357</time></trkpt><trkpt lat="55.8381004" lon="48.9489654"><time>2021-04-17T07:21:57.360</time></trkpt><trkpt lat="55.8380473" lon="48.9489366"><time>2021-04-17T07:21:59.357</time></trkpt><trkpt lat="55.8379908" lon="48.9489049"><time>2021-04-17T07:22:01.400</time></trkpt><trkpt lat="55.8379466" lon="48.9488826"><time>2021-04-17T07:22:03.370</time></trkpt><trkpt lat="55.8378951" lon="48.9488571"><time>2021-04-17T07:22:05.370</time></trkpt><trkpt lat="55.8378388" lon="48.9488327"><time>2021-04-17T07:22:07.330</time></trkpt><trkpt lat="55.8377697" lon="48.9488107"><time>2021-04-17T07:22:10.367</time></trkpt><trkpt lat="55.8377104" lon="48.9487812"><time>2021-04-17T07:22:12.367</time></trkpt><trkpt lat="55.8376602" lon="48.9487574"><time>2021-04-17T07:22:14.360</time></trkpt><trkpt lat="55.8376075" lon="48.9487168"><time>2021-04-17T07:22:16.353</time></trkpt><trkpt lat="55.8375585" lon="48.9486918"><time>2021-04-17T07:22:18.347</time></trkpt><trkpt lat="55.8375095" lon="48.9486625"><time>2021-04-17T07:22:20.357</time></trkpt><trkpt lat="55.8374582" lon="48.9486261"><time>2021-04-17T07:22:22.373</time></trkpt><trkpt lat="55.8373957" lon="48.9485755"><time>2021-04-17T07:22:24.360</time></trkpt><trkpt lat="55.8373311" lon="48.9485209"><time>2021-04-17T07:22:26.363</time></trkpt><trkpt lat="55.8372849" lon="48.9484615"><time>2021-04-17T07:22:28.387</time></trkpt><trkpt lat="55.8372512" lon="48.9483826"><time>2021-04-17T07:22:30.330</time></trkpt><trkpt lat="55.8372203" lon="48.9483194"><time>2021-04-17T07:22:32.350</time></trkpt><trkpt lat="55.8371923" lon="48.9482422"><time>2021-04-17T07:22:35.347</time></trkpt><trkpt lat="55.8371904" lon="48.9481576"><time>2021-04-17T07:22:38.370</time></trkpt><trkpt lat="55.8372044" lon="48.9480615"><time>2021-04-17T07:22:41.353</time></trkpt><trkpt lat="55.8372286" lon="48.9479816"><time>2021-04-17T07:22:44.363</time></trkpt><trkpt lat="55.8372439" lon="48.9478875"><time>2021-04-17T07:22:48.353</time></trkpt><trkpt lat="55.8372392" lon="48.9478056"><time>2021-04-17T07:22:51.373</time></trkpt><trkpt lat="55.8372236" lon="48.9477094"><time>2021-04-17T07:22:55.350</time></trkpt><trkpt lat="55.8372215" lon="48.9476057"><time>2021-04-17T07:22:59.347</time></trkpt><trkpt lat="55.8372406" lon="48.9474980"><time>2021-04-17T07:23:02.363</time></trkpt><trkpt lat="55.8372455" lon="48.9473948"><time>2021-04-17T07:23:04.360</time></trkpt><trkpt lat="55.8372673" lon="48.9473075"><time>2021-04-17T07:23:06.347</time></trkpt><trkpt lat="55.8372910" lon="48.9472303"><time>2021-04-17T07:23:08.357</time></trkpt><trkpt lat="55.8373206" lon="48.9471574"><time>2021-04-17T07:23:11.357</time></trkpt><trkpt lat="55.8373625" lon="48.9471033"><time>2021-04-17T07:23:14.347</time></trkpt><trkpt lat="55.8373672" lon="48.9470805"><time>2021-04-17T07:23:15.560</time></trkpt><trkpt lat="55.8373855" lon="48.9470094"><time>2021-04-17T07:23:17.333</time></trkpt><trkpt lat="55.8373920" lon="48.9469245"><time>2021-04-17T07:23:19.360</time></trkpt><trkpt lat="55.8373626" lon="48.9468372"><time>2021-04-17T07:23:22.327</time></trkpt><trkpt lat="55.8373479" lon="48.9467503"><time>2021-04-17T07:23:25.337</time></trkpt><trkpt lat="55.8373233" lon="48.9466623"><time>2021-04-17T07:23:27.333</time></trkpt><trkpt lat="55.8372996" lon="48.9465666"><time>2021-04-17T07:23:30.333</time></trkpt><trkpt lat="55.8373102" lon="48.9464880"><time>2021-04-17T07:23:34.333</time></trkpt><trkpt lat="55.8373233" lon="48.9465678"><time>2021-04-17T07:23:35.327</time></trkpt><trkpt lat="55.8373175" lon="48.9467073"><time>2021-04-17T07:23:37.333</time></trkpt><trkpt lat="55.8372670" lon="48.9468404"><time>2021-04-17T07:23:38.340</time></trkpt><trkpt lat="55.8372208" lon="48.9469305"><time>2021-04-17T07:23:39.360</time></trkpt><trkpt lat="55.8372832" lon="48.9469063"><time>2021-04-17T07:23:53.343</time></trkpt><trkpt lat="55.8373432" lon="48.9468722"><time>2021-04-17T07:23:58.330</time></trkpt><trkpt lat="55.8372974" lon="48.9468359"><time>2021-04-17T07:25:05.347</time></trkpt><trkpt lat="55.8372357" lon="48.9468249"><time>2021-04-17T07:25:08.347</time></trkpt><trkpt lat="55.8371927" lon="48.9468487"><time>2021-04-17T07:25:10.350</time></trkpt><trkpt lat="55.8371499" lon="48.9468933"><time>2021-04-17T07:25:12.367</time></trkpt><trkpt lat="55.8371024" lon="48.9469272"><time>2021-04-17T07:25:14.363</time></trkpt><trkpt lat="55.8370525" lon="48.9469395"><time>2021-04-17T07:25:16.363</time></trkpt><trkpt lat="55.8369986" lon="48.9469636"><time>2021-04-17T07:25:18.367</time></trkpt><trkpt lat="55.8369470" lon="48.9469985"><time>2021-04-17T07:25:20.367</time></trkpt><trkpt lat="55.8368890" lon="48.9470202"><time>2021-04-17T07:25:23.367</time></trkpt><trkpt lat="55.8368430" lon="48.9470862"><time>2021-04-17T07:25:26.367</time></trkpt><trkpt lat="55.8368116" lon="48.9471437"><time>2021-04-17T07:25:28.363</time></trkpt><trkpt lat="55.8367841" lon="48.9472194"><time>2021-04-17T07:25:31.350</time></trkpt><trkpt lat="55.8367299" lon="48.9472733"><time>2021-04-17T07:25:34.377</time></trkpt><trkpt lat="55.8366779" lon="48.9473069"><time>2021-04-17T07:25:36.360</time></trkpt><trkpt lat="55.8366209" lon="48.9473344"><time>2021-04-17T07:25:38.327</time></trkpt><trkpt lat="55.8365563" lon="48.9473546"><time>2021-04-17T07:25:41.350</time></trkpt><trkpt lat="55.8365094" lon="48.9473816"><time>2021-04-17T07:25:44.337</time></trkpt><trkpt lat="55.8364665" lon="48.9474467"><time>2021-04-17T07:25:47.350</time></trkpt><trkpt lat="55.8364355" lon="48.9475075"><time>2021-04-17T07:25:49.353</time></trkpt><trkpt lat="55.8363988" lon="48.9475711"><time>2021-04-17T07:25:51.350</time></trkpt><trkpt lat="55.8363603" lon="48.9476237"><time>2021-04-17T07:25:53.360</time></trkpt><trkpt lat="55.8363119" lon="48.9476878"><time>2021-04-17T07:25:55.367</time></trkpt><trkpt lat="55.8362741" lon="48.9477449"><time>2021-04-17T07:25:57.367</time></trkpt><trkpt lat="55.8362258" lon="48.9477594"><time>2021-04-17T07:25:59.367</time></trkpt><trkpt lat="55.8361627" lon="48.9477499"><time>2021-04-17T07:26:01.333</time></trkpt><trkpt lat="55.8361012" lon="48.9477407"><time>2021-04-17T07:26:03.353</time></trkpt><trkpt lat="55.8360339" lon="48.9477313"><time>2021-04-17T07:26:05.357</time></trkpt><trkpt lat="55.8359666" lon="48.9477094"><time>2021-04-17T07:26:07.337</time></trkpt><trkpt lat="55.8359194" lon="48.9476853"><time>2021-04-17T07:26:09.357</time></trkpt><trkpt lat="55.8358625" lon="48.9476467"><time>2021-04-17T07:26:11.353</time></trkpt><trkpt lat="55.8358142" lon="48.9475968"><time>2021-04-17T07:26:13.357</time></trkpt><trkpt lat="55.8357741" lon="48.9475513"><time>2021-04-17T07:26:15.363</time></trkpt><trkpt lat="55.8357117" lon="48.9475039"><time>2021-04-17T07:26:18.357</time></trkpt><trkpt lat="55.8356685" lon="48.9474600"><time>2021-04-17T07:26:20.357</time></trkpt><trkpt lat="55.8356169" lon="48.9474235"><time>2021-04-17T07:26:22.370</time></trkpt><trkpt lat="55.8355578" lon="48.9473949"><time>2021-04-17T07:26:24.350</time></trkpt><trkpt lat="55.8355020" lon="48.9473719"><time>2021-04-17T07:26:26.357</time></trkpt><trkpt lat="55.8354510" lon="48.9473552"><time>2021-04-17T07:26:28.333</time></trkpt><trkpt lat="55.8354047" lon="48.9473416"><time>2021-04-17T07:26:30.357</time></trkpt><trkpt lat="55.8353394" lon="48.9473151"><time>2021-04-17T07:26:33.360</time></trkpt><trkpt lat="55.8352882" lon="48.9472851"><time>2021-04-17T07:26:35.357</time></trkpt><trkpt lat="55.8352424" lon="48.9472500"><time>2021-04-17T07:26:37.360</time></trkpt><trkpt lat="55.8351937" lon="48.9472139"><time>2021-04-17T07:26:39.357</time></trkpt><trkpt lat="55.8351455" lon="48.9472016"><time>2021-04-17T07:26:41.360</time></trkpt><trkpt lat="55.8350873" lon="48.9472452"><time>2021-04-17T07:26:44.357</time></trkpt><trkpt lat="55.8350470" lon="48.9473069"><time>2021-04-17T07:26:47.350</time></trkpt><trkpt lat="55.8350135" lon="48.9473751"><time>2021-04-17T07:26:49.363</time></trkpt><trkpt lat="55.8349843" lon="48.9474491"><time>2021-04-17T07:26:51.353</time></trkpt><trkpt lat="55.8349515" lon="48.9475156"><time>2021-04-17T07:26:53.363</time></trkpt><trkpt lat="55.8349171" lon="48.9475754"><time>2021-04-17T07:26:55.370</time></trkpt><trkpt lat="55.8348646" lon="48.9476455"><time>2021-04-17T07:26:57.357</time></trkpt><trkpt lat="55.8348254" lon="48.9476896"><time>2021-04-17T07:26:58.357</time></trkpt><trkpt lat="55.8347836" lon="48.9477229"><time>2021-04-17T07:26:59.360</time></trkpt><trkpt lat="55.8347340" lon="48.9477675"><time>2021-04-17T07:27:01.333</time></trkpt><trkpt lat="55.8346730" lon="48.9478140"><time>2021-04-17T07:27:03.330</time></trkpt><trkpt lat="55.8346162" lon="48.9478496"><time>2021-04-17T07:27:05.360</time></trkpt><trkpt lat="55.8345674" lon="48.9478584"><time>2021-04-17T07:27:07.363</time></trkpt><trkpt lat="55.8345201" lon="48.9478590"><time>2021-04-17T07:27:09.367</time></trkpt><trkpt lat="55.8344705" lon="48.9478800"><time>2021-04-17T07:27:12.367</time></trkpt><trkpt lat="55.8344150" lon="48.9479327"><time>2021-04-17T07:27:15.373</time></trkpt><trkpt lat="55.8343692" lon="48.9479878"><time>2021-04-17T07:27:17.350</time></trkpt><trkpt lat="55.8343597" lon="48.9480734"><time>2021-04-17T07:27:20.363</time></trkpt><trkpt lat="55.8343206" lon="48.9481568"><time>2021-04-17T07:27:23.363</time></trkpt><trkpt lat="55.8342727" lon="48.9481794"><time>2021-04-17T07:27:25.350</time></trkpt><trkpt lat="55.8342275" lon="48.9482611"><time>2021-04-17T07:27:28.350</time></trkpt><trkpt lat="55.8342032" lon="48.9483329"><time>2021-04-17T07:27:30.350</time></trkpt><trkpt lat="55.8341573" lon="48.9484078"><time>2021-04-17T07:27:33.357</time></trkpt><trkpt lat="55.8341151" lon="48.9484638"><time>2021-04-17T07:27:36.353</time></trkpt><trkpt lat="55.8340742" lon="48.9485234"><time>2021-04-17T07:27:38.327</time></trkpt><trkpt lat="55.8340329" lon="48.9486207"><time>2021-04-17T07:27:40.350</time></trkpt><trkpt lat="55.8340206" lon="48.9487325"><time>2021-04-17T07:27:42.367</time></trkpt><trkpt lat="55.8340259" lon="48.9488273"><time>2021-04-17T07:27:44.377</time></trkpt><trkpt lat="55.8340279" lon="48.9489184"><time>2021-04-17T07:27:46.370</time></trkpt><trkpt lat="55.8340191" lon="48.9490108"><time>2021-04-17T07:27:48.367</time></trkpt><trkpt lat="55.8340440" lon="48.9491275"><time>2021-04-17T07:27:51.357</time></trkpt><trkpt lat="55.8340398" lon="48.9492211"><time>2021-04-17T07:27:53.387</time></trkpt><trkpt lat="55.8340244" lon="48.9493084"><time>2021-04-17T07:27:55.360</time></trkpt><trkpt lat="55.8340133" lon="48.9493860"><time>2021-04-17T07:27:57.353</time></trkpt><trkpt lat="55.8340009" lon="48.9494873"><time>2021-04-17T07:28:00.353</time></trkpt><trkpt lat="55.8340134" lon="48.9495798"><time>2021-04-17T07:28:03.357</time></trkpt><trkpt lat="55.8340367" lon="48.9496642"><time>2021-04-17T07:28:06.367</time></trkpt><trkpt lat="55.8340261" lon="48.9497865"><time>2021-04-17T07:28:09.633</time></trkpt><trkpt lat="55.8340374" lon="48.9498700"><time>2021-04-17T07:28:14.340</time></trkpt><trkpt lat="55.8340623" lon="48.9499422"><time>2021-04-17T07:28:18.347</time></trkpt><trkpt lat="55.8340623" lon="48.9499422"><time>2021-04-17T07:28:18.723</time></trkpt><trkpt lat="55.8340289" lon="48.9498677"><time>2021-04-17T07:28:34.337</time></trkpt><trkpt lat="55.8339911" lon="48.9498138"><time>2021-04-17T07:28:38.340</time></trkpt><trkpt lat="55.8339944" lon="48.9497276"><time>2021-04-17T07:28:42.330</time></trkpt><trkpt lat="55.8340177" lon="48.9496562"><time>2021-04-17T07:28:46.363</time></trkpt><trkpt lat="55.8340160" lon="48.9495500"><time>2021-04-17T07:28:51.367</time></trkpt><trkpt lat="55.8340204" lon="48.9494646"><time>2021-04-17T07:28:53.347</time></trkpt><trkpt lat="55.8340155" lon="48.9493556"><time>2021-04-17T07:28:56.350</time></trkpt><trkpt lat="55.8339982" lon="48.9492785"><time>2021-04-17T07:28:58.367</time></trkpt><trkpt lat="55.8339703" lon="48.9492119"><time>2021-04-17T07:29:00.343</time></trkpt><trkpt lat="55.8339600" lon="48.9491118"><time>2021-04-17T07:29:02.357</time></trkpt><trkpt lat="55.8339756" lon="48.9490114"><time>2021-04-17T07:29:04.357</time></trkpt><trkpt lat="55.8339937" lon="48.9489161"><time>2021-04-17T07:29:06.350</time></trkpt><trkpt lat="55.8339988" lon="48.9488181"><time>2021-04-17T07:29:08.357</time></trkpt><trkpt lat="55.8339845" lon="48.9487346"><time>2021-04-17T07:29:10.353</time></trkpt><trkpt lat="55.8339446" lon="48.9486577"><time>2021-04-17T07:29:12.387</time></trkpt><trkpt lat="55.8339134" lon="48.9485657"><time>2021-04-17T07:29:14.357</time></trkpt><trkpt lat="55.8338878" lon="48.9484678"><time>2021-04-17T07:29:16.353</time></trkpt><trkpt lat="55.8338604" lon="48.9483859"><time>2021-04-17T07:29:18.357</time></trkpt><trkpt lat="55.8338138" lon="48.9483151"><time>2021-04-17T07:29:20.357</time></trkpt><trkpt lat="55.8337750" lon="48.9482202"><time>2021-04-17T07:29:22.357</time></trkpt><trkpt lat="55.8337347" lon="48.9481326"><time>2021-04-17T07:29:24.327</time></trkpt><trkpt lat="55.8336909" lon="48.9480848"><time>2021-04-17T07:29:26.357</time></trkpt><trkpt lat="55.8336437" lon="48.9480439"><time>2021-04-17T07:29:28.357</time></trkpt><trkpt lat="55.8335999" lon="48.9479970"><time>2021-04-17T07:29:30.357</time></trkpt><trkpt lat="55.8335553" lon="48.9479493"><time>2021-04-17T07:29:32.357</time></trkpt><trkpt lat="55.8335155" lon="48.9478833"><time>2021-04-17T07:29:34.357</time></trkpt><trkpt lat="55.8334979" lon="48.9477759"><time>2021-04-17T07:29:37.363</time></trkpt><trkpt lat="55.8334707" lon="48.9476993"><time>2021-04-17T07:29:40.413</time></trkpt><trkpt lat="55.8334128" lon="48.9476278"><time>2021-04-17T07:29:43.357</time></trkpt><trkpt lat="55.8333746" lon="48.9475680"><time>2021-04-17T07:29:45.353</time></trkpt><trkpt lat="55.8333462" lon="48.9474847"><time>2021-04-17T07:29:47.333</time></trkpt><trkpt lat="55.8333242" lon="48.9474058"><time>2021-04-17T07:29:49.377</time></trkpt><trkpt lat="55.8333026" lon="48.9473144"><time>2021-04-17T07:29:51.337</time></trkpt><trkpt lat="55.8332761" lon="48.9472178"><time>2021-04-17T07:29:53.377</time></trkpt><trkpt lat="55.8332513" lon="48.9471199"><time>2021-04-17T07:29:55.347</time></trkpt><trkpt lat="55.8332297" lon="48.9470230"><time>2021-04-17T07:29:57.367</time></trkpt><trkpt lat="55.8332187" lon="48.9469373"><time>2021-04-17T07:29:59.353</time></trkpt><trkpt lat="55.8332120" lon="48.9468435"><time>2021-04-17T07:30:02.363</time></trkpt><trkpt lat="55.8332082" lon="48.9467238"><time>2021-04-17T07:30:05.363</time></trkpt><trkpt lat="55.8332137" lon="48.9466416"><time>2021-04-17T07:30:07.363</time></trkpt><trkpt lat="55.8332145" lon="48.9465582"><time>2021-04-17T07:30:09.363</time></trkpt><trkpt lat="55.8332131" lon="48.9464713"><time>2021-04-17T07:30:12.403</time></trkpt><trkpt lat="55.8332174" lon="48.9463850"><time>2021-04-17T07:30:15.360</time></trkpt><trkpt lat="55.8331698" lon="48.9463075"><time>2021-04-17T07:30:19.367</time></trkpt><trkpt lat="55.8331099" lon="48.9463095"><time>2021-04-17T07:30:22.357</time></trkpt><trkpt lat="55.8330572" lon="48.9463164"><time>2021-04-17T07:30:25.353</time></trkpt><trkpt lat="55.8330002" lon="48.9462996"><time>2021-04-17T07:30:28.357</time></trkpt><trkpt lat="55.8329482" lon="48.9462624"><time>2021-04-17T07:30:31.353</time></trkpt><trkpt lat="55.8328908" lon="48.9462435"><time>2021-04-17T07:30:34.353</time></trkpt><trkpt lat="55.8328396" lon="48.9462317"><time>2021-04-17T07:30:36.353</time></trkpt><trkpt lat="55.8327835" lon="48.9462152"><time>2021-04-17T07:30:38.353</time></trkpt><trkpt lat="55.8327375" lon="48.9461876"><time>2021-04-17T07:30:41.333</time></trkpt><trkpt lat="55.8326890" lon="48.9461957"><time>2021-04-17T07:30:46.370</time></trkpt><trkpt lat="55.8326374" lon="48.9461962"><time>2021-04-17T07:30:48.357</time></trkpt><trkpt lat="55.8325712" lon="48.9461832"><time>2021-04-17T07:30:51.357</time></trkpt><trkpt lat="55.8325209" lon="48.9461884"><time>2021-04-17T07:30:53.357</time></trkpt><trkpt lat="55.8324760" lon="48.9461674"><time>2021-04-17T07:30:56.357</time></trkpt><trkpt lat="55.8324607" lon="48.9460767"><time>2021-04-17T07:31:01.360</time></trkpt><trkpt lat="55.8324635" lon="48.9460622"><time>2021-04-17T07:31:05.017</time></trkpt><trkpt lat="55.8324346" lon="48.9459539"><time>2021-04-17T07:31:19.333</time></trkpt><trkpt lat="55.8324750" lon="48.9459082"><time>2021-04-17T07:31:32.353</time></trkpt><trkpt lat="55.8325227" lon="48.9459013"><time>2021-04-17T07:31:35.327</time></trkpt><trkpt lat="55.8325760" lon="48.9459302"><time>2021-04-17T07:31:37.343</time></trkpt><trkpt lat="55.8326386" lon="48.9458913"><time>2021-04-17T07:31:46.333</time></trkpt><trkpt lat="55.8327017" lon="48.9459028"><time>2021-04-17T07:31:49.333</time></trkpt><trkpt lat="55.8327500" lon="48.9459033"><time>2021-04-17T07:31:51.337</time></trkpt><trkpt lat="55.8328139" lon="48.9458943"><time>2021-04-17T07:31:54.340</time></trkpt><trkpt lat="55.8328618" lon="48.9458953"><time>2021-04-17T07:31:56.337</time></trkpt><trkpt lat="55.8329317" lon="48.9459131"><time>2021-04-17T07:31:58.337</time></trkpt><trkpt lat="55.8330062" lon="48.9459277"><time>2021-04-17T07:32:00.327</time></trkpt><trkpt lat="55.8330790" lon="48.9459141"><time>2021-04-17T07:32:02.357</time></trkpt><trkpt lat="55.8331506" lon="48.9459215"><time>2021-04-17T07:32:04.350</time></trkpt><trkpt lat="55.8331846" lon="48.9460114"><time>2021-04-17T07:32:06.370</time></trkpt><trkpt lat="55.8332300" lon="48.9460695"><time>2021-04-17T07:32:08.357</time></trkpt><trkpt lat="55.8332815" lon="48.9461259"><time>2021-04-17T07:32:11.377</time></trkpt><trkpt lat="55.8333329" lon="48.9461774"><time>2021-04-17T07:32:14.360</time></trkpt><trkpt lat="55.8333898" lon="48.9462411"><time>2021-04-17T07:32:17.357</time></trkpt><trkpt lat="55.8334376" lon="48.9462895"><time>2021-04-17T07:32:19.357</time></trkpt><trkpt lat="55.8334871" lon="48.9463286"><time>2021-04-17T07:32:21.357</time></trkpt><trkpt lat="55.8335337" lon="48.9463691"><time>2021-04-17T07:32:23.357</time></trkpt><trkpt lat="55.8335878" lon="48.9464033"><time>2021-04-17T07:32:25.360</time></trkpt><trkpt lat="55.8336430" lon="48.9464374"><time>2021-04-17T07:32:27.370</time></trkpt><trkpt lat="55.8336951" lon="48.9464776"><time>2021-04-17T07:32:29.357</time></trkpt><trkpt lat="55.8337558" lon="48.9465146"><time>2021-04-17T07:32:31.357</time></trkpt><trkpt lat="55.8338127" lon="48.9465612"><time>2021-04-17T07:32:33.333</time></trkpt><trkpt lat="55.8338661" lon="48.9466082"><time>2021-04-17T07:32:35.373</time></trkpt><trkpt lat="55.8339139" lon="48.9466415"><time>2021-04-17T07:32:37.370</time></trkpt><trkpt lat="55.8339646" lon="48.9466555"><time>2021-04-17T07:32:39.357</time></trkpt><trkpt lat="55.8340126" lon="48.9466132"><time>2021-04-17T07:32:41.377</time></trkpt><trkpt lat="55.8340554" lon="48.9465298"><time>2021-04-17T07:32:43.330</time></trkpt><trkpt lat="55.8340784" lon="48.9464528"><time>2021-04-17T07:32:45.373</time></trkpt><trkpt lat="55.8341101" lon="48.9463898"><time>2021-04-17T07:32:47.377</time></trkpt><trkpt lat="55.8341474" lon="48.9463251"><time>2021-04-17T07:32:49.373</time></trkpt><trkpt lat="55.8341744" lon="48.9462435"><time>2021-04-17T07:32:51.360</time></trkpt><trkpt lat="55.8341918" lon="48.9461499"><time>2021-04-17T07:32:53.377</time></trkpt><trkpt lat="55.8342105" lon="48.9460452"><time>2021-04-17T07:32:55.333</time></trkpt><trkpt lat="55.8342306" lon="48.9459378"><time>2021-04-17T07:32:57.353</time></trkpt><trkpt lat="55.8342502" lon="48.9458433"><time>2021-04-17T07:32:59.360</time></trkpt><trkpt lat="55.8342780" lon="48.9457497"><time>2021-04-17T07:33:01.397</time></trkpt><trkpt lat="55.8343049" lon="48.9456477"><time>2021-04-17T07:33:03.350</time></trkpt><trkpt lat="55.8343225" lon="48.9455573"><time>2021-04-17T07:33:05.373</time></trkpt><trkpt lat="55.8343274" lon="48.9454695"><time>2021-04-17T07:33:07.363</time></trkpt><trkpt lat="55.8343283" lon="48.9453575"><time>2021-04-17T07:33:10.363</time></trkpt><trkpt lat="55.8343676" lon="48.9452687"><time>2021-04-17T07:33:12.360</time></trkpt><trkpt lat="55.8344156" lon="48.9451888"><time>2021-04-17T07:33:14.343</time></trkpt><trkpt lat="55.8344549" lon="48.9451199"><time>2021-04-17T07:33:16.367</time></trkpt><trkpt lat="55.8344739" lon="48.9450227"><time>2021-04-17T07:33:18.350</time></trkpt><trkpt lat="55.8344843" lon="48.9449273"><time>2021-04-17T07:33:20.353</time></trkpt><trkpt lat="55.8345000" lon="48.9448502"><time>2021-04-17T07:33:22.363</time></trkpt><trkpt lat="55.8345225" lon="48.9447346"><time>2021-04-17T07:33:25.353</time></trkpt><trkpt lat="55.8345445" lon="48.9446256"><time>2021-04-17T07:33:28.353</time></trkpt><trkpt lat="55.8345533" lon="48.9445187"><time>2021-04-17T07:33:31.353</time></trkpt><trkpt lat="55.8345643" lon="48.9444121"><time>2021-04-17T07:33:34.353</time></trkpt><trkpt lat="55.8345863" lon="48.9442982"><time>2021-04-17T07:33:37.353</time></trkpt><trkpt lat="55.8346094" lon="48.9442146"><time>2021-04-17T07:33:39.353</time></trkpt><trkpt lat="55.8346328" lon="48.9441377"><time>2021-04-17T07:33:41.340</time></trkpt><trkpt lat="55.8346718" lon="48.9440583"><time>2021-04-17T07:33:43.353</time></trkpt><trkpt lat="55.8347011" lon="48.9439774"><time>2021-04-17T07:33:45.357</time></trkpt><trkpt lat="55.8347291" lon="48.9438920"><time>2021-04-17T07:33:47.363</time></trkpt><trkpt lat="55.8347593" lon="48.9437781"><time>2021-04-17T07:33:49.373</time></trkpt><trkpt lat="55.8347602" lon="48.9436805"><time>2021-04-17T07:33:51.357</time></trkpt><trkpt lat="55.8347805" lon="48.9435732"><time>2021-04-17T07:33:53.370</time></trkpt><trkpt lat="55.8348086" lon="48.9434563"><time>2021-04-17T07:33:55.370</time></trkpt><trkpt lat="55.8348118" lon="48.9433447"><time>2021-04-17T07:33:57.373</time></trkpt><trkpt lat="55.8348263" lon="48.9432541"><time>2021-04-17T07:33:59.357</time></trkpt><trkpt lat="55.8348482" lon="48.9431731"><time>2021-04-17T07:34:01.360</time></trkpt><trkpt lat="55.8348769" lon="48.9430893"><time>2021-04-17T07:34:03.333</time></trkpt><trkpt lat="55.8348975" lon="48.9430038"><time>2021-04-17T07:34:05.360</time></trkpt><trkpt lat="55.8349158" lon="48.9429077"><time>2021-04-17T07:34:07.363</time></trkpt><trkpt lat="55.8349383" lon="48.9428145"><time>2021-04-17T07:34:09.373</time></trkpt><trkpt lat="55.8349564" lon="48.9427265"><time>2021-04-17T07:34:11.343</time></trkpt><trkpt lat="55.8349739" lon="48.9426397"><time>2021-04-17T07:34:13.347</time></trkpt><trkpt lat="55.8349973" lon="48.9425608"><time>2021-04-17T07:34:15.360</time></trkpt><trkpt lat="55.8350220" lon="48.9424796"><time>2021-04-17T07:34:17.373</time></trkpt><trkpt lat="55.8350319" lon="48.9423940"><time>2021-04-17T07:34:19.377</time></trkpt><trkpt lat="55.8350489" lon="48.9423093"><time>2021-04-17T07:34:21.363</time></trkpt><trkpt lat="55.8350600" lon="48.9422209"><time>2021-04-17T07:34:23.353</time></trkpt><trkpt lat="55.8350798" lon="48.9421405"><time>2021-04-17T07:34:25.377</time></trkpt><trkpt lat="55.8350940" lon="48.9420568"><time>2021-04-17T07:34:27.347</time></trkpt><trkpt lat="55.8351039" lon="48.9419444"><time>2021-04-17T07:34:30.347</time></trkpt><trkpt lat="55.8351216" lon="48.9418671"><time>2021-04-17T07:34:32.360</time></trkpt><trkpt lat="55.8351531" lon="48.9417797"><time>2021-04-17T07:34:34.367</time></trkpt><trkpt lat="55.8351804" lon="48.9416952"><time>2021-04-17T07:34:36.360</time></trkpt><trkpt lat="55.8352045" lon="48.9416134"><time>2021-04-17T07:34:38.360</time></trkpt><trkpt lat="55.8352232" lon="48.9415282"><time>2021-04-17T07:34:40.377</time></trkpt><trkpt lat="55.8352436" lon="48.9414375"><time>2021-04-17T07:34:42.350</time></trkpt><trkpt lat="55.8352656" lon="48.9413427"><time>2021-04-17T07:34:44.347</time></trkpt><trkpt lat="55.8352863" lon="48.9412523"><time>2021-04-17T07:34:46.367</time></trkpt><trkpt lat="55.8353095" lon="48.9411721"><time>2021-04-17T07:34:48.363</time></trkpt><trkpt lat="55.8353314" lon="48.9410960"><time>2021-04-17T07:34:50.367</time></trkpt><trkpt lat="55.8353559" lon="48.9410084"><time>2021-04-17T07:34:52.363</time></trkpt><trkpt lat="55.8353712" lon="48.9409236"><time>2021-04-17T07:34:54.347</time></trkpt><trkpt lat="55.8353953" lon="48.9408488"><time>2021-04-17T07:34:56.367</time></trkpt><trkpt lat="55.8354165" lon="48.9407724"><time>2021-04-17T07:34:58.347</time></trkpt><trkpt lat="55.8354387" lon="48.9407007"><time>2021-04-17T07:35:00.370</time></trkpt><trkpt lat="55.8354535" lon="48.9406168"><time>2021-04-17T07:35:02.347</time></trkpt><trkpt lat="55.8354744" lon="48.9405321"><time>2021-04-17T07:35:04.343</time></trkpt><trkpt lat="55.8355029" lon="48.9404499"><time>2021-04-17T07:35:07.347</time></trkpt><trkpt lat="55.8355418" lon="48.9403771"><time>2021-04-17T07:35:10.347</time></trkpt><trkpt lat="55.8355678" lon="48.9403061"><time>2021-04-17T07:35:15.363</time></trkpt><trkpt lat="55.8355428" lon="48.9401999"><time>2021-04-17T07:35:22.350</time></trkpt><trkpt lat="55.8355508" lon="48.9401009"><time>2021-04-17T07:35:24.347</time></trkpt><trkpt lat="55.8355628" lon="48.9400211"><time>2021-04-17T07:35:26.363</time></trkpt><trkpt lat="55.8355788" lon="48.9399090"><time>2021-04-17T07:35:29.347</time></trkpt><trkpt lat="55.8356217" lon="48.9399656"><time>2021-04-17T07:35:54.360</time></trkpt><trkpt lat="55.8356322" lon="48.9400532"><time>2021-04-17T07:35:58.350</time></trkpt><trkpt lat="55.8356413" lon="48.9401385"><time>2021-04-17T07:36:11.353</time></trkpt><trkpt lat="55.8356934" lon="48.9401229"><time>2021-04-17T07:36:21.350</time></trkpt><trkpt lat="55.8357466" lon="48.9401106"><time>2021-04-17T07:36:24.363</time></trkpt><trkpt lat="55.8357933" lon="48.9401056"><time>2021-04-17T07:36:27.367</time></trkpt><trkpt lat="55.8358341" lon="48.9401538"><time>2021-04-17T07:36:34.323</time></trkpt><trkpt lat="55.8357870" lon="48.9402029"><time>2021-04-17T07:36:46.370</time></trkpt><trkpt lat="55.8357303" lon="48.9401962"><time>2021-04-17T07:36:51.353</time></trkpt><trkpt lat="55.8356777" lon="48.9402020"><time>2021-04-17T07:36:53.343</time></trkpt><trkpt lat="55.8356264" lon="48.9402330"><time>2021-04-17T07:36:55.353</time></trkpt><trkpt lat="55.8355775" lon="48.9402687"><time>2021-04-17T07:36:57.357</time></trkpt><trkpt lat="55.8355330" lon="48.9402888"><time>2021-04-17T07:36:59.347</time></trkpt><trkpt lat="55.8355052" lon="48.9402885"><time>2021-04-17T07:37:01.967</time></trkpt><trkpt lat="55.8354841" lon="48.9402891"><time>2021-04-17T07:37:03.337</time></trkpt><trkpt lat="55.8354494" lon="48.9403427"><time>2021-04-17T07:37:08.337</time></trkpt><trkpt lat="55.8354397" lon="48.9404277"><time>2021-04-17T07:37:14.333</time></trkpt><trkpt lat="55.8354512" lon="48.9405171"><time>2021-04-17T07:37:18.333</time></trkpt><trkpt lat="55.8354873" lon="48.9405797"><time>2021-04-17T07:37:20.347</time></trkpt><trkpt lat="55.8355354" lon="48.9406515"><time>2021-04-17T07:37:22.357</time></trkpt><trkpt lat="55.8355840" lon="48.9407159"><time>2021-04-17T07:37:24.343</time></trkpt><trkpt lat="55.8356420" lon="48.9407625"><time>2021-04-17T07:37:26.353</time></trkpt><trkpt lat="55.8357024" lon="48.9407814"><time>2021-04-17T07:37:28.350</time></trkpt><trkpt lat="55.8357584" lon="48.9407986"><time>2021-04-17T07:37:30.333</time></trkpt><trkpt lat="55.8358101" lon="48.9408170"><time>2021-04-17T07:37:32.367</time></trkpt><trkpt lat="55.8358586" lon="48.9408625"><time>2021-04-17T07:37:37.363</time></trkpt><trkpt lat="55.8359062" lon="48.9408842"><time>2021-04-17T07:37:39.353</time></trkpt><trkpt lat="55.8359672" lon="48.9408697"><time>2021-04-17T07:37:42.350</time></trkpt><trkpt lat="55.8360361" lon="48.9408755"><time>2021-04-17T07:37:45.330</time></trkpt><trkpt lat="55.8361014" lon="48.9408880"><time>2021-04-17T07:37:48.347</time></trkpt><trkpt lat="55.8361649" lon="48.9409128"><time>2021-04-17T07:37:51.377</time></trkpt><trkpt lat="55.8362119" lon="48.9409209"><time>2021-04-17T07:37:53.367</time></trkpt><trkpt lat="55.8362623" lon="48.9409111"><time>2021-04-17T07:37:55.350</time></trkpt><trkpt lat="55.8363330" lon="48.9409132"><time>2021-04-17T07:37:58.360</time></trkpt><trkpt lat="55.8363903" lon="48.9409280"><time>2021-04-17T07:38:00.353</time></trkpt><trkpt lat="55.8364534" lon="48.9409444"><time>2021-04-17T07:38:02.350</time></trkpt><trkpt lat="55.8365070" lon="48.9409685"><time>2021-04-17T07:38:04.363</time></trkpt><trkpt lat="55.8365706" lon="48.9409860"><time>2021-04-17T07:38:07.377</time></trkpt><trkpt lat="55.8366252" lon="48.9409453"><time>2021-04-17T07:38:10.367</time></trkpt><trkpt lat="55.8366953" lon="48.9409082"><time>2021-04-17T07:38:13.367</time></trkpt><trkpt lat="55.8367388" lon="48.9408770"><time>2021-04-17T07:38:15.350</time></trkpt><trkpt lat="55.8367919" lon="48.9408603"><time>2021-04-17T07:38:17.370</time></trkpt><trkpt lat="55.8368512" lon="48.9408608"><time>2021-04-17T07:38:19.363</time></trkpt><trkpt lat="55.8369116" lon="48.9408456"><time>2021-04-17T07:38:21.377</time></trkpt><trkpt lat="55.8369735" lon="48.9407853"><time>2021-04-17T07:38:24.353</time></trkpt><trkpt lat="55.8370195" lon="48.9407069"><time>2021-04-17T07:38:27.357</time></trkpt><trkpt lat="55.8370625" lon="48.9406524"><time>2021-04-17T07:38:29.350</time></trkpt><trkpt lat="55.8370971" lon="48.9405830"><time>2021-04-17T07:38:31.333</time></trkpt><trkpt lat="55.8371275" lon="48.9404882"><time>2021-04-17T07:38:33.367</time></trkpt><trkpt lat="55.8371785" lon="48.9404377"><time>2021-04-17T07:38:35.367</time></trkpt><trkpt lat="55.8372287" lon="48.9404217"><time>2021-04-17T07:38:37.363</time></trkpt><trkpt lat="55.8372865" lon="48.9404203"><time>2021-04-17T07:38:39.363</time></trkpt><trkpt lat="55.8373357" lon="48.9404161"><time>2021-04-17T07:38:41.347</time></trkpt><trkpt lat="55.8373975" lon="48.9404414"><time>2021-04-17T07:38:44.350</time></trkpt><trkpt lat="55.8374436" lon="48.9404568"><time>2021-04-17T07:38:47.350</time></trkpt><trkpt lat="55.8374971" lon="48.9404961"><time>2021-04-17T07:38:50.333</time></trkpt><trkpt lat="55.8375532" lon="48.9405469"><time>2021-04-17T07:38:53.370</time></trkpt><trkpt lat="55.8376098" lon="48.9406013"><time>2021-04-17T07:38:56.357</time></trkpt><trkpt lat="55.8376504" lon="48.9406585"><time>2021-04-17T07:38:58.360</time></trkpt><trkpt lat="55.8376869" lon="48.9407067"><time>2021-04-17T07:39:00.353</time></trkpt><trkpt lat="55.8377268" lon="48.9407634"><time>2021-04-17T07:39:02.373</time></trkpt><trkpt lat="55.8377686" lon="48.9408307"><time>2021-04-17T07:39:05.357</time></trkpt><trkpt lat="55.8378098" lon="48.9408786"><time>2021-04-17T07:39:09.393</time></trkpt><trkpt lat="55.8378437" lon="48.9409466"><time>2021-04-17T07:39:12.413</time></trkpt><trkpt lat="55.8378878" lon="48.9410041"><time>2021-04-17T07:39:14.357</time></trkpt><trkpt lat="55.8379280" lon="48.9410569"><time>2021-04-17T07:39:16.373</time></trkpt><trkpt lat="55.8379751" lon="48.9411318"><time>2021-04-17T07:39:19.370</time></trkpt><trkpt lat="55.8380092" lon="48.9412013"><time>2021-04-17T07:39:21.353</time></trkpt><trkpt lat="55.8380497" lon="48.9412825"><time>2021-04-17T07:39:23.373</time></trkpt><trkpt lat="55.8380954" lon="48.9413686"><time>2021-04-17T07:39:25.353</time></trkpt><trkpt lat="55.8381249" lon="48.9414472"><time>2021-04-17T07:39:28.333</time></trkpt><trkpt lat="55.8381663" lon="48.9414793"><time>2021-04-17T07:39:32.340</time></trkpt><trkpt lat="55.8381806" lon="48.9413984"><time>2021-04-17T07:39:39.333</time></trkpt><trkpt lat="55.8381556" lon="48.9413483"><time>2021-04-17T07:39:42.990</time></trkpt><trkpt lat="55.8382275" lon="48.9413741"><time>2021-04-17T07:40:00.353</time></trkpt><trkpt lat="55.8382281" lon="48.9412913"><time>2021-04-17T07:40:27.343</time></trkpt><trkpt lat="55.8381809" lon="48.9412560"><time>2021-04-17T07:40:28.333</time></trkpt><trkpt lat="55.8381736" lon="48.9411685"><time>2021-04-17T07:40:34.347</time></trkpt><trkpt lat="55.8382133" lon="48.9412329"><time>2021-04-17T07:40:50.367</time></trkpt><trkpt lat="55.8382259" lon="48.9413113"><time>2021-04-17T07:40:52.357</time></trkpt><trkpt lat="55.8381814" lon="48.9412674"><time>2021-04-17T07:40:56.347</time></trkpt><trkpt lat="55.8381516" lon="48.9411681"><time>2021-04-17T07:40:59.350</time></trkpt><trkpt lat="55.8381995" lon="48.9411072"><time>2021-04-17T07:41:10.340</time></trkpt><trkpt lat="55.8382619" lon="48.9411055"><time>2021-04-17T07:41:13.363</time></trkpt><trkpt lat="55.8383115" lon="48.9411312"><time>2021-04-17T07:41:15.363</time></trkpt><trkpt lat="55.8383563" lon="48.9411665"><time>2021-04-17T07:41:17.333</time></trkpt><trkpt lat="55.8384159" lon="48.9411852"><time>2021-04-17T07:41:21.330</time></trkpt><trkpt lat="55.8384804" lon="48.9411685"><time>2021-04-17T07:41:23.327</time></trkpt><trkpt lat="55.8385256" lon="48.9411457"><time>2021-04-17T07:41:26.333</time></trkpt><trkpt lat="55.8385655" lon="48.9411878"><time>2021-04-17T07:41:34.327</time></trkpt><trkpt lat="55.8385970" lon="48.9411183"><time>2021-04-17T07:41:50.357</time></trkpt><trkpt lat="55.8386415" lon="48.9411055"><time>2021-04-17T07:41:54.367</time></trkpt><trkpt lat="55.8386998" lon="48.9411032"><time>2021-04-17T07:42:02.353</time></trkpt><trkpt lat="55.8387224" lon="48.9410319"><time>2021-04-17T07:42:04.360</time></trkpt><trkpt lat="55.8387383" lon="48.9409460"><time>2021-04-17T07:42:08.353</time></trkpt><trkpt lat="55.8387677" lon="48.9408791"><time>2021-04-17T07:42:11.357</time></trkpt><trkpt lat="55.8387825" lon="48.9408035"><time>2021-04-17T07:42:13.357</time></trkpt><trkpt lat="55.8388123" lon="48.9407213"><time>2021-04-17T07:42:15.343</time></trkpt><trkpt lat="55.8388618" lon="48.9406754"><time>2021-04-17T07:42:17.357</time></trkpt><trkpt lat="55.8389186" lon="48.9406523"><time>2021-04-17T07:42:19.347</time></trkpt><trkpt lat="55.8389785" lon="48.9406332"><time>2021-04-17T07:42:21.357</time></trkpt><trkpt lat="55.8390245" lon="48.9406210"><time>2021-04-17T07:42:23.357</time></trkpt><trkpt lat="55.8390694" lon="48.9405676"><time>2021-04-17T07:42:26.360</time></trkpt><trkpt lat="55.8391146" lon="48.9405201"><time>2021-04-17T07:42:29.373</time></trkpt><trkpt lat="55.8391646" lon="48.9404789"><time>2021-04-17T07:42:33.370</time></trkpt><trkpt lat="55.8392053" lon="48.9403922"><time>2021-04-17T07:42:36.373</time></trkpt><trkpt lat="55.8392446" lon="48.9403299"><time>2021-04-17T07:42:39.357</time></trkpt><trkpt lat="55.8392957" lon="48.9402731"><time>2021-04-17T07:42:42.353</time></trkpt><trkpt lat="55.8393464" lon="48.9402141"><time>2021-04-17T07:42:45.357</time></trkpt><trkpt lat="55.8393917" lon="48.9401778"><time>2021-04-17T07:42:47.373</time></trkpt><trkpt lat="55.8394366" lon="48.9401555"><time>2021-04-17T07:42:49.347</time></trkpt><trkpt lat="55.8394961" lon="48.9401136"><time>2021-04-17T07:42:52.347</time></trkpt><trkpt lat="55.8395403" lon="48.9400742"><time>2021-04-17T07:42:54.347</time></trkpt><trkpt lat="55.8395914" lon="48.9400408"><time>2021-04-17T07:42:56.347</time></trkpt><trkpt lat="55.8396501" lon="48.9400066"><time>2021-04-17T07:42:58.343</time></trkpt><trkpt lat="55.8397067" lon="48.9399647"><time>2021-04-17T07:43:00.360</time></trkpt><trkpt lat="55.8397440" lon="48.9399179"><time>2021-04-17T07:43:02.360</time></trkpt><trkpt lat="55.8397653" lon="48.9398460"><time>2021-04-17T07:43:04.360</time></trkpt><trkpt lat="55.8397857" lon="48.9397719"><time>2021-04-17T07:43:06.357</time></trkpt><trkpt lat="55.8398163" lon="48.9396973"><time>2021-04-17T07:43:08.373</time></trkpt><trkpt lat="55.8398535" lon="48.9396315"><time>2021-04-17T07:43:10.363</time></trkpt><trkpt lat="55.8399064" lon="48.9395751"><time>2021-04-17T07:43:12.367</time></trkpt><trkpt lat="55.8399254" lon="48.9394879"><time>2021-04-17T07:43:14.347</time></trkpt><trkpt lat="55.8399463" lon="48.9394006"><time>2021-04-17T07:43:16.377</time></trkpt><trkpt lat="55.8399769" lon="48.9393130"><time>2021-04-17T07:43:18.363</time></trkpt><trkpt lat="55.8400063" lon="48.9392193"><time>2021-04-17T07:43:20.350</time></trkpt><trkpt lat="55.8400447" lon="48.9391256"><time>2021-04-17T07:43:22.350</time></trkpt><trkpt lat="55.8400793" lon="48.9390544"><time>2021-04-17T07:43:24.343</time></trkpt><trkpt lat="55.8401244" lon="48.9389628"><time>2021-04-17T07:43:27.350</time></trkpt><trkpt lat="55.8401702" lon="48.9388967"><time>2021-04-17T07:43:29.347</time></trkpt><trkpt lat="55.8402221" lon="48.9388379"><time>2021-04-17T07:43:31.350</time></trkpt><trkpt lat="55.8402599" lon="48.9387893"><time>2021-04-17T07:43:33.353</time></trkpt><trkpt lat="55.8402891" lon="48.9386918"><time>2021-04-17T07:43:37.370</time></trkpt><trkpt lat="55.8402872" lon="48.9385877"><time>2021-04-17T07:43:41.480</time></trkpt><trkpt lat="55.8402471" lon="48.9385199"><time>2021-04-17T07:43:46.347</time></trkpt><trkpt lat="55.8402169" lon="48.9384567"><time>2021-04-17T07:43:49.333</time></trkpt><trkpt lat="55.8402037" lon="48.9384238"><time>2021-04-17T07:43:50.723</time></trkpt><trkpt lat="55.8401875" lon="48.9383763"><time>2021-04-17T07:43:52.337</time></trkpt><trkpt lat="55.8401585" lon="48.9382756"><time>2021-04-17T07:43:54.330</time></trkpt><trkpt lat="55.8401411" lon="48.9381865"><time>2021-04-17T07:43:56.337</time></trkpt><trkpt lat="55.8400894" lon="48.9381986"><time>2021-04-17T07:44:06.367</time></trkpt><trkpt lat="55.8400426" lon="48.9382142"><time>2021-04-17T07:44:09.333</time></trkpt><trkpt lat="55.8399953" lon="48.9382579"><time>2021-04-17T07:44:23.367</time></trkpt><trkpt lat="55.8400442" lon="48.9382835"><time>2021-04-17T07:44:31.357</time></trkpt><trkpt lat="55.8400877" lon="48.9382610"><time>2021-04-17T07:44:36.357</time></trkpt><trkpt lat="55.8401329" lon="48.9382369"><time>2021-04-17T07:45:04.360</time></trkpt><trkpt lat="55.8401433" lon="48.9381542"><time>2021-04-17T07:45:15.377</time></trkpt><trkpt lat="55.8401918" lon="48.9381180"><time>2021-04-17T07:45:18.343</time></trkpt><trkpt lat="55.8402331" lon="48.9381602"><time>2021-04-17T07:45:22.350</time></trkpt><trkpt lat="55.8402841" lon="48.9381961"><time>2021-04-17T07:45:27.327</time></trkpt><trkpt lat="55.8402779" lon="48.9381148"><time>2021-04-17T07:45:31.377</time></trkpt><trkpt lat="55.8402666" lon="48.9380076"><time>2021-04-17T07:45:35.340</time></trkpt><trkpt lat="55.8402726" lon="48.9379129"><time>2021-04-17T07:45:37.360</time></trkpt><trkpt lat="55.8402913" lon="48.9378163"><time>2021-04-17T07:45:39.330</time></trkpt><trkpt lat="55.8402960" lon="48.9377238"><time>2021-04-17T07:45:41.350</time></trkpt><trkpt lat="55.8402934" lon="48.9376275"><time>2021-04-17T07:45:43.387</time></trkpt><trkpt lat="55.8402529" lon="48.9375315"><time>2021-04-17T07:45:45.370</time></trkpt><trkpt lat="55.8402981" lon="48.9374757"><time>2021-04-17T07:45:49.360</time></trkpt><trkpt lat="55.8403326" lon="48.9374214"><time>2021-04-17T07:45:51.370</time></trkpt><trkpt lat="55.8403580" lon="48.9373435"><time>2021-04-17T07:45:55.363</time></trkpt><trkpt lat="55.8403475" lon="48.9372199"><time>2021-04-17T07:45:58.340</time></trkpt><trkpt lat="55.8403525" lon="48.9371291"><time>2021-04-17T07:46:00.327</time></trkpt><trkpt lat="55.8403812" lon="48.9370291"><time>2021-04-17T07:46:03.367</time></trkpt><trkpt lat="55.8404047" lon="48.9369583"><time>2021-04-17T07:46:05.357</time></trkpt><trkpt lat="55.8404336" lon="48.9368694"><time>2021-04-17T07:46:09.343</time></trkpt><trkpt lat="55.8404511" lon="48.9367854"><time>2021-04-17T07:46:12.347</time></trkpt><trkpt lat="55.8404724" lon="48.9367058"><time>2021-04-17T07:46:15.373</time></trkpt><trkpt lat="55.8404794" lon="48.9366081"><time>2021-04-17T07:46:18.370</time></trkpt><trkpt lat="55.8405116" lon="48.9365124"><time>2021-04-17T07:46:26.380</time></trkpt><trkpt lat="55.8405302" lon="48.9363992"><time>2021-04-17T07:46:28.383</time></trkpt><trkpt lat="55.8405705" lon="48.9362886"><time>2021-04-17T07:46:30.357</time></trkpt><trkpt lat="55.8406062" lon="48.9361989"><time>2021-04-17T07:46:32.343</time></trkpt><trkpt lat="55.8406521" lon="48.9361068"><time>2021-04-17T07:46:34.363</time></trkpt><trkpt lat="55.8406799" lon="48.9360002"><time>2021-04-17T07:46:36.340</time></trkpt><trkpt lat="55.8407102" lon="48.9359173"><time>2021-04-17T07:46:38.343</time></trkpt><trkpt lat="55.8407426" lon="48.9358185"><time>2021-04-17T07:46:41.347</time></trkpt><trkpt lat="55.8407616" lon="48.9357422"><time>2021-04-17T07:46:43.360</time></trkpt><trkpt lat="55.8407508" lon="48.9356636"><time>2021-04-17T07:46:45.377</time></trkpt><trkpt lat="55.8407478" lon="48.9355458"><time>2021-04-17T07:46:48.350</time></trkpt><trkpt lat="55.8407305" lon="48.9354670"><time>2021-04-17T07:46:50.370</time></trkpt><trkpt lat="55.8407147" lon="48.9353912"><time>2021-04-17T07:46:52.350</time></trkpt><trkpt lat="55.8407133" lon="48.9353069"><time>2021-04-17T07:46:54.347</time></trkpt><trkpt lat="55.8407327" lon="48.9352027"><time>2021-04-17T07:46:57.363</time></trkpt><trkpt lat="55.8407411" lon="48.9351217"><time>2021-04-17T07:46:59.377</time></trkpt><trkpt lat="55.8407328" lon="48.9350334"><time>2021-04-17T07:47:01.350</time></trkpt><trkpt lat="55.8407188" lon="48.9349415"><time>2021-04-17T07:47:03.350</time></trkpt><trkpt lat="55.8407201" lon="48.9348315"><time>2021-04-17T07:47:06.350</time></trkpt><trkpt lat="55.8407474" lon="48.9347245"><time>2021-04-17T07:47:09.400</time></trkpt><trkpt lat="55.8407762" lon="48.9346548"><time>2021-04-17T07:47:11.347</time></trkpt><trkpt lat="55.8408014" lon="48.9345859"><time>2021-04-17T07:47:13.367</time></trkpt><trkpt lat="55.8408327" lon="48.9345104"><time>2021-04-17T07:47:15.353</time></trkpt><trkpt lat="55.8408441" lon="48.9344003"><time>2021-04-17T07:47:18.353</time></trkpt><trkpt lat="55.8408473" lon="48.9343159"><time>2021-04-17T07:47:20.370</time></trkpt><trkpt lat="55.8408606" lon="48.9342142"><time>2021-04-17T07:47:22.353</time></trkpt><trkpt lat="55.8408794" lon="48.9341320"><time>2021-04-17T07:47:24.367</time></trkpt><trkpt lat="55.8409243" lon="48.9340582"><time>2021-04-17T07:47:27.373</time></trkpt><trkpt lat="55.8409831" lon="48.9340345"><time>2021-04-17T07:47:30.353</time></trkpt><trkpt lat="55.8410430" lon="48.9340342"><time>2021-04-17T07:47:33.353</time></trkpt><trkpt lat="55.8410913" lon="48.9339818"><time>2021-04-17T07:47:37.343</time></trkpt><trkpt lat="55.8411333" lon="48.9339104"><time>2021-04-17T07:47:40.347</time></trkpt><trkpt lat="55.8411769" lon="48.9338360"><time>2021-04-17T07:47:43.360</time></trkpt><trkpt lat="55.8411989" lon="48.9337564"><time>2021-04-17T07:47:46.357</time></trkpt><trkpt lat="55.8412321" lon="48.9336699"><time>2021-04-17T07:47:49.353</time></trkpt><trkpt lat="55.8412710" lon="48.9336107"><time>2021-04-17T07:47:52.400</time></trkpt><trkpt lat="55.8413204" lon="48.9335752"><time>2021-04-17T07:47:55.353</time></trkpt><trkpt lat="55.8413667" lon="48.9335386"><time>2021-04-17T07:47:57.330</time></trkpt><trkpt lat="55.8414174" lon="48.9335161"><time>2021-04-17T07:47:59.360</time></trkpt><trkpt lat="55.8414561" lon="48.9334452"><time>2021-04-17T07:48:02.327</time></trkpt><trkpt lat="55.8414986" lon="48.9333506"><time>2021-04-17T07:48:05.557</time></trkpt><trkpt lat="55.8415170" lon="48.9332770"><time>2021-04-17T07:48:07.370</time></trkpt><trkpt lat="55.8415487" lon="48.9332083"><time>2021-04-17T07:48:09.333</time></trkpt><trkpt lat="55.8415995" lon="48.9331406"><time>2021-04-17T07:48:12.333</time></trkpt><trkpt lat="55.8415995" lon="48.9331406"><time>2021-04-17T07:48:13.267</time></trkpt><trkpt lat="55.8416298" lon="48.9330722"><time>2021-04-17T07:48:14.330</time></trkpt><trkpt lat="55.8416747" lon="48.9331267"><time>2021-04-17T07:48:30.347</time></trkpt><trkpt lat="55.8416938" lon="48.9332235"><time>2021-04-17T07:48:37.377</time></trkpt><trkpt lat="55.8417334" lon="48.9332769"><time>2021-04-17T07:48:39.363</time></trkpt><trkpt lat="55.8417538" lon="48.9333600"><time>2021-04-17T07:48:45.353</time></trkpt><trkpt lat="55.8417745" lon="48.9334507"><time>2021-04-17T07:48:53.367</time></trkpt><trkpt lat="55.8418062" lon="48.9335258"><time>2021-04-17T07:48:56.370</time></trkpt><trkpt lat="55.8418601" lon="48.9335816"><time>2021-04-17T07:48:59.353</time></trkpt><trkpt lat="55.8419127" lon="48.9336370"><time>2021-04-17T07:49:01.370</time></trkpt><trkpt lat="55.8419522" lon="48.9336802"><time>2021-04-17T07:49:05.360</time></trkpt><trkpt lat="55.8419930" lon="48.9337506"><time>2021-04-17T07:49:13.330</time></trkpt><trkpt lat="55.8420470" lon="48.9337953"><time>2021-04-17T07:49:16.350</time></trkpt><trkpt lat="55.8421015" lon="48.9338357"><time>2021-04-17T07:49:19.367</time></trkpt><trkpt lat="55.8421479" lon="48.9338773"><time>2021-04-17T07:49:21.327</time></trkpt><trkpt lat="55.8421968" lon="48.9339283"><time>2021-04-17T07:49:24.367</time></trkpt><trkpt lat="55.8422444" lon="48.9339510"><time>2021-04-17T07:49:26.353</time></trkpt><trkpt lat="55.8423025" lon="48.9339768"><time>2021-04-17T07:49:28.367</time></trkpt><trkpt lat="55.8423506" lon="48.9340193"><time>2021-04-17T07:49:30.333</time></trkpt><trkpt lat="55.8423963" lon="48.9340615"><time>2021-04-17T07:49:32.353</time></trkpt><trkpt lat="55.8424451" lon="48.9341037"><time>2021-04-17T07:49:35.357</time></trkpt><trkpt lat="55.8425008" lon="48.9341250"><time>2021-04-17T07:49:38.370</time></trkpt><trkpt lat="55.8425575" lon="48.9341394"><time>2021-04-17T07:49:41.353</time></trkpt><trkpt lat="55.8426038" lon="48.9340757"><time>2021-04-17T07:49:46.370</time></trkpt><trkpt lat="55.8426370" lon="48.9339725"><time>2021-04-17T07:49:49.350</time></trkpt><trkpt lat="55.8426712" lon="48.9339009"><time>2021-04-17T07:49:51.350</time></trkpt><trkpt lat="55.8426990" lon="48.9338323"><time>2021-04-17T07:49:53.363</time></trkpt><trkpt lat="55.8427310" lon="48.9337300"><time>2021-04-17T07:49:56.343</time></trkpt><trkpt lat="55.8427615" lon="48.9336509"><time>2021-04-17T07:49:58.370</time></trkpt><trkpt lat="55.8427912" lon="48.9335394"><time>2021-04-17T07:50:01.373</time></trkpt><trkpt lat="55.8427908" lon="48.9334560"><time>2021-04-17T07:50:03.363</time></trkpt><trkpt lat="55.8427929" lon="48.9333473"><time>2021-04-17T07:50:06.323</time></trkpt><trkpt lat="55.8427994" lon="48.9332639"><time>2021-04-17T07:50:08.347</time></trkpt><trkpt lat="55.8428056" lon="48.9331513"><time>2021-04-17T07:50:11.343</time></trkpt><trkpt lat="55.8428299" lon="48.9330819"><time>2021-04-17T07:50:14.360</time></trkpt><trkpt lat="55.8428579" lon="48.9330118"><time>2021-04-17T07:50:17.360</time></trkpt><trkpt lat="55.8428763" lon="48.9329337"><time>2021-04-17T07:50:19.373</time></trkpt><trkpt lat="55.8429003" lon="48.9328514"><time>2021-04-17T07:50:21.347</time></trkpt><trkpt lat="55.8429338" lon="48.9327651"><time>2021-04-17T07:50:24.357</time></trkpt><trkpt lat="55.8429589" lon="48.9326741"><time>2021-04-17T07:50:26.357</time></trkpt><trkpt lat="55.8429583" lon="48.9325922"><time>2021-04-17T07:50:28.347</time></trkpt><trkpt lat="55.8429519" lon="48.9325095"><time>2021-04-17T07:50:30.347</time></trkpt><trkpt lat="55.8429583" lon="48.9324265"><time>2021-04-17T07:50:32.347</time></trkpt><trkpt lat="55.8429660" lon="48.9323311"><time>2021-04-17T07:50:34.350</time></trkpt><trkpt lat="55.8429818" lon="48.9322208"><time>2021-04-17T07:50:37.350</time></trkpt><trkpt lat="55.8429896" lon="48.9321026"><time>2021-04-17T07:50:40.367</time></trkpt><trkpt lat="55.8430046" lon="48.9320228"><time>2021-04-17T07:50:42.380</time></trkpt><trkpt lat="55.8430230" lon="48.9319152"><time>2021-04-17T07:50:45.367</time></trkpt><trkpt lat="55.8430243" lon="48.9318282"><time>2021-04-17T07:50:47.360</time></trkpt><trkpt lat="55.8430235" lon="48.9317171"><time>2021-04-17T07:50:50.367</time></trkpt><trkpt lat="55.8430155" lon="48.9316291"><time>2021-04-17T07:50:52.350</time></trkpt><trkpt lat="55.8430262" lon="48.9315398"><time>2021-04-17T07:50:54.367</time></trkpt><trkpt lat="55.8430260" lon="48.9314250"><time>2021-04-17T07:50:57.353</time></trkpt><trkpt lat="55.8430321" lon="48.9313154"><time>2021-04-17T07:51:00.350</time></trkpt><trkpt lat="55.8430632" lon="48.9312348"><time>2021-04-17T07:51:04.357</time></trkpt><trkpt lat="55.8431075" lon="48.9311659"><time>2021-04-17T07:51:07.370</time></trkpt><trkpt lat="55.8431528" lon="48.9310801"><time>2021-04-17T07:51:10.353</time></trkpt><trkpt lat="55.8431946" lon="48.9309917"><time>2021-04-17T07:51:13.357</time></trkpt><trkpt lat="55.8432353" lon="48.9309038"><time>2021-04-17T07:51:16.357</time></trkpt><trkpt lat="55.8432619" lon="48.9308383"><time>2021-04-17T07:51:18.350</time></trkpt><trkpt lat="55.8432753" lon="48.9307557"><time>2021-04-17T07:51:20.367</time></trkpt><trkpt lat="55.8432923" lon="48.9306568"><time>2021-04-17T07:51:23.357</time></trkpt><trkpt lat="55.8432972" lon="48.9305745"><time>2021-04-17T07:51:25.357</time></trkpt><trkpt lat="55.8432925" lon="48.9304907"><time>2021-04-17T07:51:27.363</time></trkpt><trkpt lat="55.8433049" lon="48.9304056"><time>2021-04-17T07:51:29.353</time></trkpt><trkpt lat="55.8433251" lon="48.9303298"><time>2021-04-17T07:51:31.357</time></trkpt><trkpt lat="55.8433449" lon="48.9302515"><time>2021-04-17T07:51:33.360</time></trkpt><trkpt lat="55.8433608" lon="48.9301735"><time>2021-04-17T07:51:36.373</time></trkpt><trkpt lat="55.8433628" lon="48.9300644"><time>2021-04-17T07:51:40.357</time></trkpt><trkpt lat="55.8433788" lon="48.9299568"><time>2021-04-17T07:51:43.360</time></trkpt><trkpt lat="55.8433949" lon="48.9298731"><time>2021-04-17T07:51:45.360</time></trkpt><trkpt lat="55.8434164" lon="48.9297864"><time>2021-04-17T07:51:47.370</time></trkpt><trkpt lat="55.8434606" lon="48.9297290"><time>2021-04-17T07:51:50.360</time></trkpt><trkpt lat="55.8435045" lon="48.9296590"><time>2021-04-17T07:51:53.363</time></trkpt><trkpt lat="55.8435335" lon="48.9295791"><time>2021-04-17T07:51:56.347</time></trkpt><trkpt lat="55.8435884" lon="48.9295121"><time>2021-04-17T07:51:59.357</time></trkpt><trkpt lat="55.8436279" lon="48.9294710"><time>2021-04-17T07:52:01.367</time></trkpt><trkpt lat="55.8436832" lon="48.9294027"><time>2021-04-17T07:52:04.350</time></trkpt><trkpt lat="55.8437159" lon="48.9293162"><time>2021-04-17T07:52:07.403</time></trkpt><trkpt lat="55.8437218" lon="48.9292121"><time>2021-04-17T07:52:10.347</time></trkpt><trkpt lat="55.8437601" lon="48.9291080"><time>2021-04-17T07:52:13.330</time></trkpt><trkpt lat="55.8438064" lon="48.9290370"><time>2021-04-17T07:52:15.353</time></trkpt><trkpt lat="55.8438420" lon="48.9289822"><time>2021-04-17T07:52:18.347</time></trkpt><trkpt lat="55.8438762" lon="48.9289104"><time>2021-04-17T07:52:22.350</time></trkpt><trkpt lat="55.8439230" lon="48.9288561"><time>2021-04-17T07:52:25.363</time></trkpt><trkpt lat="55.8439662" lon="48.9287903"><time>2021-04-17T07:52:28.383</time></trkpt><trkpt lat="55.8440111" lon="48.9287264"><time>2021-04-17T07:52:31.353</time></trkpt><trkpt lat="55.8440601" lon="48.9286355"><time>2021-04-17T07:52:34.347</time></trkpt><trkpt lat="55.8440963" lon="48.9285612"><time>2021-04-17T07:52:36.353</time></trkpt><trkpt lat="55.8441391" lon="48.9284923"><time>2021-04-17T07:52:39.357</time></trkpt><trkpt lat="55.8441845" lon="48.9284576"><time>2021-04-17T07:52:41.357</time></trkpt><trkpt lat="55.8442345" lon="48.9284207"><time>2021-04-17T07:52:43.357</time></trkpt><trkpt lat="55.8442892" lon="48.9283952"><time>2021-04-17T07:52:46.353</time></trkpt><trkpt lat="55.8443320" lon="48.9283685"><time>2021-04-17T07:52:49.353</time></trkpt><trkpt lat="55.8443787" lon="48.9282892"><time>2021-04-17T07:52:53.363</time></trkpt><trkpt lat="55.8444203" lon="48.9282171"><time>2021-04-17T07:52:56.353</time></trkpt><trkpt lat="55.8444633" lon="48.9281752"><time>2021-04-17T07:52:58.343</time></trkpt><trkpt lat="55.8445135" lon="48.9281359"><time>2021-04-17T07:53:00.383</time></trkpt><trkpt lat="55.8445563" lon="48.9280887"><time>2021-04-17T07:53:02.373</time></trkpt><trkpt lat="55.8446106" lon="48.9280763"><time>2021-04-17T07:53:04.367</time></trkpt><trkpt lat="55.8446645" lon="48.9280504"><time>2021-04-17T07:53:06.367</time></trkpt><trkpt lat="55.8447039" lon="48.9279877"><time>2021-04-17T07:53:09.367</time></trkpt><trkpt lat="55.8447201" lon="48.9279107"><time>2021-04-17T07:53:12.353</time></trkpt><trkpt lat="55.8447296" lon="48.9278224"><time>2021-04-17T07:53:16.357</time></trkpt><trkpt lat="55.8447113" lon="48.9277102"><time>2021-04-17T07:53:22.327</time></trkpt><trkpt lat="55.8447022" lon="48.9276721"><time>2021-04-17T07:54:29.317</time></trkpt><trkpt lat="55.8452431" lon="48.9264834"><time>2021-04-17T07:54:38.677</time></trkpt><trkpt lat="55.8451751" lon="48.9261831"><time>2021-04-17T07:54:39.650</time></trkpt><trkpt lat="55.8452646" lon="48.9261608"><time>2021-04-17T07:54:40.650</time></trkpt><trkpt lat="55.8451964" lon="48.9261456"><time>2021-04-17T07:54:41.623</time></trkpt><trkpt lat="55.8452296" lon="48.9259972"><time>2021-04-17T07:54:42.953</time></trkpt><trkpt lat="55.8453729" lon="48.9261024"><time>2021-04-17T07:54:43.967</time></trkpt><trkpt lat="55.8452828" lon="48.9260201"><time>2021-04-17T07:54:44.970</time></trkpt><trkpt lat="55.8453121" lon="48.9259283"><time>2021-04-17T07:54:46.950</time></trkpt><trkpt lat="55.8453105" lon="48.9258433"><time>2021-04-17T07:54:49.967</time></trkpt><trkpt lat="55.8452982" lon="48.9257470"><time>2021-04-17T07:54:52.970</time></trkpt><trkpt lat="55.8452667" lon="48.9256685"><time>2021-04-17T07:54:55.937</time></trkpt><trkpt lat="55.8452332" lon="48.9256142"><time>2021-04-17T07:54:57.977</time></trkpt><trkpt lat="55.8451876" lon="48.9255413"><time>2021-04-17T07:54:59.957</time></trkpt><trkpt lat="55.8451404" lon="48.9254631"><time>2021-04-17T07:55:02.957</time></trkpt><trkpt lat="55.8450986" lon="48.9254039"><time>2021-04-17T07:55:04.967</time></trkpt><trkpt lat="55.8450499" lon="48.9253440"><time>2021-04-17T07:55:07.967</time></trkpt><trkpt lat="55.8450024" lon="48.9252839"><time>2021-04-17T07:55:10.970</time></trkpt><trkpt lat="55.8449420" lon="48.9252257"><time>2021-04-17T07:55:13.947</time></trkpt><trkpt lat="55.8449045" lon="48.9251600"><time>2021-04-17T07:55:15.957</time></trkpt><trkpt lat="55.8448665" lon="48.9250924"><time>2021-04-17T07:55:17.943</time></trkpt><trkpt lat="55.8448224" lon="48.9250221"><time>2021-04-17T07:55:20.957</time></trkpt><trkpt lat="55.8447853" lon="48.9249769"><time>2021-04-17T07:55:23.960</time></trkpt><trkpt lat="55.8447443" lon="48.9248874"><time>2021-04-17T07:55:28.973</time></trkpt><trkpt lat="55.8447165" lon="48.9248226"><time>2021-04-17T07:55:31.957</time></trkpt><trkpt lat="55.8446784" lon="48.9247489"><time>2021-04-17T07:55:34.967</time></trkpt><trkpt lat="55.8446438" lon="48.9246918"><time>2021-04-17T07:55:37.977</time></trkpt><trkpt lat="55.8446135" lon="48.9246213"><time>2021-04-17T07:55:40.973</time></trkpt><trkpt lat="55.8445785" lon="48.9245619"><time>2021-04-17T07:55:43.957</time></trkpt><trkpt lat="55.8445520" lon="48.9244940"><time>2021-04-17T07:55:45.967</time></trkpt><trkpt lat="55.8445041" lon="48.9244108"><time>2021-04-17T07:55:48.960</time></trkpt><trkpt lat="55.8444624" lon="48.9243326"><time>2021-04-17T07:55:51.960</time></trkpt><trkpt lat="55.8444226" lon="48.9242568"><time>2021-04-17T07:55:55.953</time></trkpt><trkpt lat="55.8443822" lon="48.9242036"><time>2021-04-17T07:55:58.973</time></trkpt><trkpt lat="55.8443482" lon="48.9241485"><time>2021-04-17T07:56:01.960</time></trkpt><trkpt lat="55.8443147" lon="48.9240929"><time>2021-04-17T07:56:05.960</time></trkpt><trkpt lat="55.8442849" lon="48.9240319"><time>2021-04-17T07:56:09.973</time></trkpt><trkpt lat="55.8442338" lon="48.9239826"><time>2021-04-17T07:56:13.973</time></trkpt><trkpt lat="55.8441957" lon="48.9239393"><time>2021-04-17T07:56:16.963</time></trkpt><trkpt lat="55.8441521" lon="48.9238644"><time>2021-04-17T07:56:19.960</time></trkpt><trkpt lat="55.8441245" lon="48.9237994"><time>2021-04-17T07:56:22.960</time></trkpt><trkpt lat="55.8441018" lon="48.9237281"><time>2021-04-17T07:56:25.937</time></trkpt><trkpt lat="55.8440604" lon="48.9236277"><time>2021-04-17T07:56:28.957</time></trkpt><trkpt lat="55.8440190" lon="48.9235282"><time>2021-04-17T07:56:31.953</time></trkpt><trkpt lat="55.8440028" lon="48.9234493"><time>2021-04-17T07:56:33.993</time></trkpt><trkpt lat="55.8439659" lon="48.9233655"><time>2021-04-17T07:56:36.960</time></trkpt><trkpt lat="55.8439270" lon="48.9233080"><time>2021-04-17T07:56:39.967</time></trkpt><trkpt lat="55.8438857" lon="48.9232747"><time>2021-04-17T07:56:43.957</time></trkpt><trkpt lat="55.8438435" lon="48.9232332"><time>2021-04-17T07:56:47.967</time></trkpt><trkpt lat="55.8438086" lon="48.9231667"><time>2021-04-17T07:56:51.967</time></trkpt><trkpt lat="55.8437724" lon="48.9231104"><time>2021-04-17T07:56:54.957</time></trkpt><trkpt lat="55.8437339" lon="48.9230390"><time>2021-04-17T07:56:57.957</time></trkpt><trkpt lat="55.8437069" lon="48.9229714"><time>2021-04-17T07:57:00.967</time></trkpt><trkpt lat="55.8436749" lon="48.9229091"><time>2021-04-17T07:57:02.960</time></trkpt><trkpt lat="55.8436459" lon="48.9228381"><time>2021-04-17T07:57:04.970</time></trkpt><trkpt lat="55.8436193" lon="48.9227731"><time>2021-04-17T07:57:06.957</time></trkpt><trkpt lat="55.8435929" lon="48.9226886"><time>2021-04-17T07:57:08.973</time></trkpt><trkpt lat="55.8435484" lon="48.9226134"><time>2021-04-17T07:57:10.957</time></trkpt><trkpt lat="55.8435014" lon="48.9225399"><time>2021-04-17T07:57:12.933</time></trkpt><trkpt lat="55.8434542" lon="48.9224707"><time>2021-04-17T07:57:14.960</time></trkpt><trkpt lat="55.8434048" lon="48.9223879"><time>2021-04-17T07:57:16.967</time></trkpt><trkpt lat="55.8433666" lon="48.9223043"><time>2021-04-17T07:57:18.963</time></trkpt><trkpt lat="55.8433143" lon="48.9222088"><time>2021-04-17T07:57:20.970</time></trkpt><trkpt lat="55.8432799" lon="48.9221176"><time>2021-04-17T07:57:22.953</time></trkpt><trkpt lat="55.8432466" lon="48.9220437"><time>2021-04-17T07:57:24.957</time></trkpt><trkpt lat="55.8432151" lon="48.9219594"><time>2021-04-17T07:57:26.967</time></trkpt><trkpt lat="55.8431805" lon="48.9218982"><time>2021-04-17T07:57:28.973</time></trkpt><trkpt lat="55.8431258" lon="48.9218291"><time>2021-04-17T07:57:31.970</time></trkpt><trkpt lat="55.8430840" lon="48.9217616"><time>2021-04-17T07:57:33.933</time></trkpt><trkpt lat="55.8430380" lon="48.9217007"><time>2021-04-17T07:57:35.957</time></trkpt><trkpt lat="55.8429985" lon="48.9216509"><time>2021-04-17T07:57:38.003</time></trkpt><trkpt lat="55.8429555" lon="48.9216129"><time>2021-04-17T07:57:39.957</time></trkpt><trkpt lat="55.8429054" lon="48.9215560"><time>2021-04-17T07:57:41.963</time></trkpt><trkpt lat="55.8428595" lon="48.9214865"><time>2021-04-17T07:57:43.960</time></trkpt><trkpt lat="55.8428243" lon="48.9214287"><time>2021-04-17T07:57:45.970</time></trkpt><trkpt lat="55.8427873" lon="48.9213617"><time>2021-04-17T07:57:47.960</time></trkpt><trkpt lat="55.8427530" lon="48.9213059"><time>2021-04-17T07:57:49.950</time></trkpt><trkpt lat="55.8427130" lon="48.9212370"><time>2021-04-17T07:57:51.983</time></trkpt><trkpt lat="55.8426678" lon="48.9211507"><time>2021-04-17T07:57:53.957</time></trkpt><trkpt lat="55.8426233" lon="48.9210598"><time>2021-04-17T07:57:55.973</time></trkpt><trkpt lat="55.8425854" lon="48.9209948"><time>2021-04-17T07:57:57.960</time></trkpt><trkpt lat="55.8425346" lon="48.9209334"><time>2021-04-17T07:57:59.973</time></trkpt><trkpt lat="55.8424804" lon="48.9208690"><time>2021-04-17T07:58:01.963</time></trkpt><trkpt lat="55.8424363" lon="48.9208169"><time>2021-04-17T07:58:03.930</time></trkpt><trkpt lat="55.8423908" lon="48.9207475"><time>2021-04-17T07:58:05.937</time></trkpt><trkpt lat="55.8423482" lon="48.9206626"><time>2021-04-17T07:58:07.963</time></trkpt><trkpt lat="55.8423065" lon="48.9205932"><time>2021-04-17T07:58:09.967</time></trkpt><trkpt lat="55.8422529" lon="48.9205301"><time>2021-04-17T07:58:11.953</time></trkpt><trkpt lat="55.8422061" lon="48.9204567"><time>2021-04-17T07:58:13.953</time></trkpt><trkpt lat="55.8421681" lon="48.9203703"><time>2021-04-17T07:58:16.373</time></trkpt><trkpt lat="55.8421324" lon="48.9202659"><time>2021-04-17T07:58:17.937</time></trkpt><trkpt lat="55.8420926" lon="48.9201811"><time>2021-04-17T07:58:19.930</time></trkpt><trkpt lat="55.8420586" lon="48.9201002"><time>2021-04-17T07:58:21.933</time></trkpt><trkpt lat="55.8420384" lon="48.9200032"><time>2021-04-17T07:58:25.930</time></trkpt><trkpt lat="55.8419807" lon="48.9199664"><time>2021-04-17T07:58:29.937</time></trkpt><trkpt lat="55.8419404" lon="48.9198953"><time>2021-04-17T07:58:32.983</time></trkpt><trkpt lat="55.8419026" lon="48.9198224"><time>2021-04-17T07:58:35.940</time></trkpt><trkpt lat="55.8418609" lon="48.9197478"><time>2021-04-17T07:58:37.950</time></trkpt><trkpt lat="55.8418013" lon="48.9196706"><time>2021-04-17T07:58:39.980</time></trkpt><trkpt lat="55.8417432" lon="48.9196009"><time>2021-04-17T07:58:41.947</time></trkpt><trkpt lat="55.8416944" lon="48.9195389"><time>2021-04-17T07:58:43.953</time></trkpt><trkpt lat="55.8416393" lon="48.9194783"><time>2021-04-17T07:58:46.953</time></trkpt><trkpt lat="55.8416012" lon="48.9194208"><time>2021-04-17T07:58:48.963</time></trkpt><trkpt lat="55.8415540" lon="48.9193615"><time>2021-04-17T07:58:50.980</time></trkpt><trkpt lat="55.8415141" lon="48.9192887"><time>2021-04-17T07:58:52.963</time></trkpt><trkpt lat="55.8414746" lon="48.9192127"><time>2021-04-17T07:58:54.963</time></trkpt><trkpt lat="55.8414264" lon="48.9191364"><time>2021-04-17T07:58:56.957</time></trkpt><trkpt lat="55.8413841" lon="48.9190481"><time>2021-04-17T07:58:58.950</time></trkpt><trkpt lat="55.8413481" lon="48.9189822"><time>2021-04-17T07:59:00.967</time></trkpt><trkpt lat="55.8413018" lon="48.9189644"><time>2021-04-17T07:59:03.977</time></trkpt><trkpt lat="55.8412546" lon="48.9189887"><time>2021-04-17T07:59:07.967</time></trkpt><trkpt lat="55.8411862" lon="48.9190047"><time>2021-04-17T07:59:10.933</time></trkpt><trkpt lat="55.8411206" lon="48.9190176"><time>2021-04-17T07:59:13.937</time></trkpt><trkpt lat="55.8410688" lon="48.9190344"><time>2021-04-17T07:59:15.930</time></trkpt><trkpt lat="55.8410163" lon="48.9190466"><time>2021-04-17T07:59:17.937</time></trkpt><trkpt lat="55.8409680" lon="48.9190712"><time>2021-04-17T07:59:20.930</time></trkpt><trkpt lat="55.8409192" lon="48.9190994"><time>2021-04-17T07:59:22.933</time></trkpt><trkpt lat="55.8408683" lon="48.9191316"><time>2021-04-17T07:59:24.937</time></trkpt><trkpt lat="55.8408255" lon="48.9191678"><time>2021-04-17T07:59:26.930</time></trkpt><trkpt lat="55.8407771" lon="48.9192137"><time>2021-04-17T07:59:28.930</time></trkpt><trkpt lat="55.8407299" lon="48.9192427"><time>2021-04-17T07:59:30.930</time></trkpt><trkpt lat="55.8406723" lon="48.9192920"><time>2021-04-17T07:59:32.940</time></trkpt><trkpt lat="55.8406074" lon="48.9193309"><time>2021-04-17T07:59:34.927</time></trkpt><trkpt lat="55.8405586" lon="48.9193561"><time>2021-04-17T07:59:36.937</time></trkpt><trkpt lat="55.8405073" lon="48.9193510"><time>2021-04-17T07:59:38.930</time></trkpt><trkpt lat="55.8404605" lon="48.9193796"><time>2021-04-17T07:59:40.933</time></trkpt><trkpt lat="55.8404136" lon="48.9194271"><time>2021-04-17T07:59:42.930</time></trkpt><trkpt lat="55.8403698" lon="48.9194848"><time>2021-04-17T07:59:44.930</time></trkpt><trkpt lat="55.8403522" lon="48.9195630"><time>2021-04-17T07:59:46.947</time></trkpt><trkpt lat="55.8403585" lon="48.9196424"><time>2021-04-17T07:59:48.930</time></trkpt><trkpt lat="55.8403828" lon="48.9197271"><time>2021-04-17T07:59:50.930</time></trkpt><trkpt lat="55.8404103" lon="48.9198165"><time>2021-04-17T07:59:53.937</time></trkpt><trkpt lat="55.8404148" lon="48.9199180"><time>2021-04-17T07:59:56.937</time></trkpt><trkpt lat="55.8404055" lon="48.9200254"><time>2021-04-17T07:59:59.930</time></trkpt><trkpt lat="55.8403979" lon="48.9201159"><time>2021-04-17T08:00:01.930</time></trkpt><trkpt lat="55.8403628" lon="48.9202382"><time>2021-04-17T08:00:03.930</time></trkpt><trkpt lat="55.8403183" lon="48.9203514"><time>2021-04-17T08:00:05.930</time></trkpt><trkpt lat="55.8402922" lon="48.9204427"><time>2021-04-17T08:00:07.933</time></trkpt><trkpt lat="55.8402517" lon="48.9205289"><time>2021-04-17T08:00:10.930</time></trkpt><trkpt lat="55.8402479" lon="48.9206283"><time>2021-04-17T08:00:12.930</time></trkpt><trkpt lat="55.8402755" lon="48.9207278"><time>2021-04-17T08:00:14.933</time></trkpt><trkpt lat="55.8402722" lon="48.9208113"><time>2021-04-17T08:00:16.937</time></trkpt><trkpt lat="55.8402791" lon="48.9208960"><time>2021-04-17T08:00:23.937</time></trkpt><trkpt lat="55.8402540" lon="48.9209763"><time>2021-04-17T08:00:28.937</time></trkpt><trkpt lat="55.8402723" lon="48.9210531"><time>2021-04-17T08:00:33.940</time></trkpt><trkpt lat="55.8402798" lon="48.9211460"><time>2021-04-17T08:00:37.950</time></trkpt><trkpt lat="55.8402944" lon="48.9210587"><time>2021-04-17T08:00:42.973</time></trkpt><trkpt lat="55.8403042" lon="48.9210096"><time>2021-04-17T08:00:46.173</time></trkpt><trkpt lat="55.8403281" lon="48.9209656"><time>2021-04-17T08:00:56.930</time></trkpt><trkpt lat="55.8403172" lon="48.9208782"><time>2021-04-17T08:01:01.963</time></trkpt><trkpt lat="55.8402783" lon="48.9208238"><time>2021-04-17T08:01:03.930</time></trkpt><trkpt lat="55.8402543" lon="48.9207415"><time>2021-04-17T08:01:05.927</time></trkpt><trkpt lat="55.8402284" lon="48.9206198"><time>2021-04-17T08:01:07.930</time></trkpt><trkpt lat="55.8402032" lon="48.9204687"><time>2021-04-17T08:01:09.927</time></trkpt><trkpt lat="55.8401722" lon="48.9203666"><time>2021-04-17T08:01:11.930</time></trkpt><trkpt lat="55.8401392" lon="48.9202921"><time>2021-04-17T08:01:13.943</time></trkpt><trkpt lat="55.8401047" lon="48.9202030"><time>2021-04-17T08:01:16.933</time></trkpt><trkpt lat="55.8400509" lon="48.9201572"><time>2021-04-17T08:01:22.933</time></trkpt><trkpt lat="55.8400021" lon="48.9202106"><time>2021-04-17T08:01:24.933</time></trkpt><trkpt lat="55.8399577" lon="48.9202521"><time>2021-04-17T08:01:26.933</time></trkpt><trkpt lat="55.8399070" lon="48.9202936"><time>2021-04-17T08:01:28.937</time></trkpt><trkpt lat="55.8398451" lon="48.9203422"><time>2021-04-17T08:01:30.930</time></trkpt><trkpt lat="55.8398023" lon="48.9204100"><time>2021-04-17T08:01:32.927</time></trkpt><trkpt lat="55.8397486" lon="48.9204644"><time>2021-04-17T08:01:34.930</time></trkpt><trkpt lat="55.8397103" lon="48.9205171"><time>2021-04-17T08:01:36.930</time></trkpt><trkpt lat="55.8396657" lon="48.9206020"><time>2021-04-17T08:01:39.933</time></trkpt><trkpt lat="55.8396098" lon="48.9206847"><time>2021-04-17T08:01:41.930</time></trkpt><trkpt lat="55.8395730" lon="48.9207760"><time>2021-04-17T08:01:43.930</time></trkpt><trkpt lat="55.8395375" lon="48.9208774"><time>2021-04-17T08:01:45.933</time></trkpt><trkpt lat="55.8394979" lon="48.9209693"><time>2021-04-17T08:01:47.930</time></trkpt><trkpt lat="55.8394454" lon="48.9210912"><time>2021-04-17T08:01:49.930</time></trkpt><trkpt lat="55.8394090" lon="48.9211634"><time>2021-04-17T08:01:50.930</time></trkpt><trkpt lat="55.8393672" lon="48.9212297"><time>2021-04-17T08:01:51.930</time></trkpt><trkpt lat="55.8393020" lon="48.9213238"><time>2021-04-17T08:01:53.960</time></trkpt><trkpt lat="55.8392446" lon="48.9214113"><time>2021-04-17T08:01:55.930</time></trkpt><trkpt lat="55.8392075" lon="48.9214635"><time>2021-04-17T08:01:56.957</time></trkpt><trkpt lat="55.8391691" lon="48.9215074"><time>2021-04-17T08:01:57.930</time></trkpt><trkpt lat="55.8391033" lon="48.9215527"><time>2021-04-17T08:01:59.930</time></trkpt><trkpt lat="55.8390450" lon="48.9216078"><time>2021-04-17T08:02:01.930</time></trkpt><trkpt lat="55.8389941" lon="48.9216854"><time>2021-04-17T08:02:03.937</time></trkpt><trkpt lat="55.8389402" lon="48.9217574"><time>2021-04-17T08:02:05.933</time></trkpt><trkpt lat="55.8388826" lon="48.9218181"><time>2021-04-17T08:02:07.930</time></trkpt><trkpt lat="55.8388272" lon="48.9218715"><time>2021-04-17T08:02:09.933</time></trkpt><trkpt lat="55.8387667" lon="48.9219165"><time>2021-04-17T08:02:11.930</time></trkpt><trkpt lat="55.8387060" lon="48.9219624"><time>2021-04-17T08:02:13.937</time></trkpt><trkpt lat="55.8386352" lon="48.9219857"><time>2021-04-17T08:02:15.927</time></trkpt><trkpt lat="55.8385769" lon="48.9220140"><time>2021-04-17T08:02:17.930</time></trkpt><trkpt lat="55.8385252" lon="48.9220647"><time>2021-04-17T08:02:19.930</time></trkpt><trkpt lat="55.8384783" lon="48.9220938"><time>2021-04-17T08:02:21.930</time></trkpt><trkpt lat="55.8384337" lon="48.9221247"><time>2021-04-17T08:02:23.937</time></trkpt><trkpt lat="55.8383919" lon="48.9221656"><time>2021-04-17T08:02:25.930</time></trkpt><trkpt lat="55.8383320" lon="48.9221826"><time>2021-04-17T08:02:28.930</time></trkpt><trkpt lat="55.8382758" lon="48.9221391"><time>2021-04-17T08:02:31.930</time></trkpt><trkpt lat="55.8382317" lon="48.9220700"><time>2021-04-17T08:02:33.927</time></trkpt><trkpt lat="55.8381760" lon="48.9220258"><time>2021-04-17T08:02:36.937</time></trkpt><trkpt lat="55.8381277" lon="48.9219899"><time>2021-04-17T08:02:38.930</time></trkpt><trkpt lat="55.8380711" lon="48.9219640"><time>2021-04-17T08:02:40.937</time></trkpt><trkpt lat="55.8380172" lon="48.9219451"><time>2021-04-17T08:02:42.930</time></trkpt><trkpt lat="55.8379595" lon="48.9219020"><time>2021-04-17T08:02:44.930</time></trkpt><trkpt lat="55.8379135" lon="48.9218670"><time>2021-04-17T08:02:46.930</time></trkpt><trkpt lat="55.8378613" lon="48.9218526"><time>2021-04-17T08:02:48.930</time></trkpt><trkpt lat="55.8377948" lon="48.9218400"><time>2021-04-17T08:02:51.930</time></trkpt><trkpt lat="55.8377477" lon="48.9218268"><time>2021-04-17T08:02:53.933</time></trkpt><trkpt lat="55.8376958" lon="48.9217926"><time>2021-04-17T08:02:55.933</time></trkpt><trkpt lat="55.8376381" lon="48.9217592"><time>2021-04-17T08:02:57.930</time></trkpt><trkpt lat="55.8375909" lon="48.9217476"><time>2021-04-17T08:02:59.930</time></trkpt><trkpt lat="55.8375412" lon="48.9217199"><time>2021-04-17T08:03:01.930</time></trkpt><trkpt lat="55.8374912" lon="48.9217000"><time>2021-04-17T08:03:03.933</time></trkpt><trkpt lat="55.8374462" lon="48.9216694"><time>2021-04-17T08:03:05.930</time></trkpt><trkpt lat="55.8373889" lon="48.9216361"><time>2021-04-17T08:03:08.937</time></trkpt><trkpt lat="55.8373467" lon="48.9215996"><time>2021-04-17T08:03:10.937</time></trkpt><trkpt lat="55.8372936" lon="48.9215697"><time>2021-04-17T08:03:13.933</time></trkpt><trkpt lat="55.8372474" lon="48.9215268"><time>2021-04-17T08:03:16.937</time></trkpt><trkpt lat="55.8371975" lon="48.9214921"><time>2021-04-17T08:03:19.930</time></trkpt><trkpt lat="55.8371576" lon="48.9214433"><time>2021-04-17T08:03:22.933</time></trkpt><trkpt lat="55.8371194" lon="48.9213497"><time>2021-04-17T08:03:26.927</time></trkpt><trkpt lat="55.8370763" lon="48.9212752"><time>2021-04-17T08:03:29.940</time></trkpt><trkpt lat="55.8370742" lon="48.9211876"><time>2021-04-17T08:03:33.937</time></trkpt><trkpt lat="55.8370920" lon="48.9211089"><time>2021-04-17T08:03:39.020</time></trkpt><trkpt lat="55.8371102" lon="48.9210197"><time>2021-04-17T08:03:43.953</time></trkpt><trkpt lat="55.8371102" lon="48.9210197"><time>2021-04-17T08:03:44.590</time></trkpt><trkpt lat="55.8371450" lon="48.9209382"><time>2021-04-17T08:03:45.933</time></trkpt><trkpt lat="55.8371403" lon="48.9208556"><time>2021-04-17T08:03:54.940</time></trkpt><trkpt lat="55.8370892" lon="48.9208702"><time>2021-04-17T08:03:57.930</time></trkpt><trkpt lat="55.8370254" lon="48.9208751"><time>2021-04-17T08:03:59.940</time></trkpt><trkpt lat="55.8369776" lon="48.9208888"><time>2021-04-17T08:04:02.930</time></trkpt><trkpt lat="55.8369428" lon="48.9209611"><time>2021-04-17T08:04:07.943</time></trkpt><trkpt lat="55.8369257" lon="48.9210790"><time>2021-04-17T08:04:10.937</time></trkpt><trkpt lat="55.8369072" lon="48.9211851"><time>2021-04-17T08:04:13.943</time></trkpt><trkpt lat="55.8368933" lon="48.9212612"><time>2021-04-17T08:04:15.927</time></trkpt><trkpt lat="55.8368718" lon="48.9213358"><time>2021-04-17T08:04:18.937</time></trkpt><trkpt lat="55.8369002" lon="48.9214106"><time>2021-04-17T08:04:26.943</time></trkpt><trkpt lat="55.8369421" lon="48.9214834"><time>2021-04-17T08:05:04.957</time></trkpt><trkpt lat="55.8369993" lon="48.9215114"><time>2021-04-17T08:05:08.957</time></trkpt><trkpt lat="55.8370507" lon="48.9215402"><time>2021-04-17T08:05:11.953</time></trkpt><trkpt lat="55.8371048" lon="48.9215952"><time>2021-04-17T08:05:14.970</time></trkpt><trkpt lat="55.8371455" lon="48.9216576"><time>2021-04-17T08:05:16.967</time></trkpt><trkpt lat="55.8371887" lon="48.9217083"><time>2021-04-17T08:05:18.963</time></trkpt><trkpt lat="55.8372429" lon="48.9217368"><time>2021-04-17T08:05:20.953</time></trkpt><trkpt lat="55.8372937" lon="48.9217597"><time>2021-04-17T08:05:22.973</time></trkpt><trkpt lat="55.8373553" lon="48.9217749"><time>2021-04-17T08:05:24.970</time></trkpt><trkpt lat="55.8374182" lon="48.9218059"><time>2021-04-17T08:05:26.983</time></trkpt><trkpt lat="55.8374966" lon="48.9218811"><time>2021-04-17T08:05:28.970</time></trkpt><trkpt lat="55.8375588" lon="48.9219538"><time>2021-04-17T08:05:30.957</time></trkpt><trkpt lat="55.8375993" lon="48.9220122"><time>2021-04-17T08:05:32.953</time></trkpt><trkpt lat="55.8376399" lon="48.9220548"><time>2021-04-17T08:05:34.977</time></trkpt><trkpt lat="55.8376797" lon="48.9221008"><time>2021-04-17T08:05:36.950</time></trkpt><trkpt lat="55.8377195" lon="48.9221480"><time>2021-04-17T08:05:38.953</time></trkpt><trkpt lat="55.8377587" lon="48.9221908"><time>2021-04-17T08:05:40.957</time></trkpt><trkpt lat="55.8377980" lon="48.9222321"><time>2021-04-17T08:05:42.963</time></trkpt><trkpt lat="55.8378391" lon="48.9222691"><time>2021-04-17T08:05:44.957</time></trkpt><trkpt lat="55.8378847" lon="48.9223064"><time>2021-04-17T08:05:46.963</time></trkpt><trkpt lat="55.8379359" lon="48.9223470"><time>2021-04-17T08:05:48.960</time></trkpt><trkpt lat="55.8379949" lon="48.9223825"><time>2021-04-17T08:05:50.970</time></trkpt><trkpt lat="55.8380602" lon="48.9224212"><time>2021-04-17T08:05:52.983</time></trkpt><trkpt lat="55.8381003" lon="48.9224873"><time>2021-04-17T08:05:54.967</time></trkpt><trkpt lat="55.8381361" lon="48.9225781"><time>2021-04-17T08:05:56.957</time></trkpt><trkpt lat="55.8381742" lon="48.9226786"><time>2021-04-17T08:05:58.950</time></trkpt><trkpt lat="55.8382152" lon="48.9227458"><time>2021-04-17T08:06:00.933</time></trkpt><trkpt lat="55.8382657" lon="48.9228243"><time>2021-04-17T08:06:03.957</time></trkpt><trkpt lat="55.8382974" lon="48.9229094"><time>2021-04-17T08:06:06.960</time></trkpt><trkpt lat="55.8383174" lon="48.9229898"><time>2021-04-17T08:06:09.987</time></trkpt><trkpt lat="55.8383434" lon="48.9230698"><time>2021-04-17T08:06:12.970</time></trkpt><trkpt lat="55.8383654" lon="48.9231734"><time>2021-04-17T08:06:16.957</time></trkpt><trkpt lat="55.8383602" lon="48.9232627"><time>2021-04-17T08:06:19.970</time></trkpt><trkpt lat="55.8383335" lon="48.9233291"><time>2021-04-17T08:06:21.973</time></trkpt><trkpt lat="55.8383071" lon="48.9234015"><time>2021-04-17T08:06:23.957</time></trkpt><trkpt lat="55.8382750" lon="48.9234726"><time>2021-04-17T08:06:26.957</time></trkpt><trkpt lat="55.8382435" lon="48.9235465"><time>2021-04-17T08:06:28.957</time></trkpt><trkpt lat="55.8382163" lon="48.9236414"><time>2021-04-17T08:06:30.957</time></trkpt><trkpt lat="55.8381898" lon="48.9237136"><time>2021-04-17T08:06:32.957</time></trkpt><trkpt lat="55.8381694" lon="48.9238113"><time>2021-04-17T08:06:35.960</time></trkpt><trkpt lat="55.8381674" lon="48.9239185"><time>2021-04-17T08:06:38.977</time></trkpt><trkpt lat="55.8381550" lon="48.9240177"><time>2021-04-17T08:06:41.940</time></trkpt><trkpt lat="55.8381444" lon="48.9241001"><time>2021-04-17T08:06:43.970</time></trkpt><trkpt lat="55.8381384" lon="48.9241910"><time>2021-04-17T08:06:46.957</time></trkpt><trkpt lat="55.8381208" lon="48.9242888"><time>2021-04-17T08:06:49.933</time></trkpt><trkpt lat="55.8380885" lon="48.9243712"><time>2021-04-17T08:06:51.990</time></trkpt><trkpt lat="55.8380632" lon="48.9244705"><time>2021-04-17T08:06:53.957</time></trkpt><trkpt lat="55.8380433" lon="48.9245474"><time>2021-04-17T08:06:55.973</time></trkpt><trkpt lat="55.8380330" lon="48.9246609"><time>2021-04-17T08:06:58.937</time></trkpt><trkpt lat="55.8380161" lon="48.9247675"><time>2021-04-17T08:07:01.973</time></trkpt><trkpt lat="55.8380124" lon="48.9248513"><time>2021-04-17T08:07:03.970</time></trkpt><trkpt lat="55.8379936" lon="48.9249387"><time>2021-04-17T08:07:06.973</time></trkpt><trkpt lat="55.8379696" lon="48.9250134"><time>2021-04-17T08:07:08.960</time></trkpt><trkpt lat="55.8379504" lon="48.9251346"><time>2021-04-17T08:07:11.957</time></trkpt><trkpt lat="55.8379329" lon="48.9252595"><time>2021-04-17T08:07:14.960</time></trkpt><trkpt lat="55.8379066" lon="48.9253684"><time>2021-04-17T08:07:16.960</time></trkpt><trkpt lat="55.8378883" lon="48.9254655"><time>2021-04-17T08:07:18.967</time></trkpt><trkpt lat="55.8378683" lon="48.9255520"><time>2021-04-17T08:07:20.960</time></trkpt><trkpt lat="55.8378511" lon="48.9256424"><time>2021-04-17T08:07:22.973</time></trkpt><trkpt lat="55.8378310" lon="48.9257239"><time>2021-04-17T08:07:24.960</time></trkpt><trkpt lat="55.8378109" lon="48.9258415"><time>2021-04-17T08:07:27.960</time></trkpt><trkpt lat="55.8377956" lon="48.9259361"><time>2021-04-17T08:07:29.987</time></trkpt><trkpt lat="55.8377792" lon="48.9260176"><time>2021-04-17T08:07:31.967</time></trkpt><trkpt lat="55.8377650" lon="48.9260982"><time>2021-04-17T08:07:33.973</time></trkpt><trkpt lat="55.8377400" lon="48.9262071"><time>2021-04-17T08:07:36.960</time></trkpt><trkpt lat="55.8377088" lon="48.9262822"><time>2021-04-17T08:07:38.963</time></trkpt><trkpt lat="55.8376819" lon="48.9263840"><time>2021-04-17T08:07:41.973</time></trkpt><trkpt lat="55.8376503" lon="48.9264464"><time>2021-04-17T08:07:44.960</time></trkpt><trkpt lat="55.8376218" lon="48.9265191"><time>2021-04-17T08:07:46.960</time></trkpt><trkpt lat="55.8375981" lon="48.9266012"><time>2021-04-17T08:07:48.960</time></trkpt><trkpt lat="55.8375880" lon="48.9267082"><time>2021-04-17T08:07:51.960</time></trkpt><trkpt lat="55.8375537" lon="48.9268152"><time>2021-04-17T08:07:54.957</time></trkpt><trkpt lat="55.8375066" lon="48.9269017"><time>2021-04-17T08:07:56.960</time></trkpt><trkpt lat="55.8374962" lon="48.9270099"><time>2021-04-17T08:07:59.977</time></trkpt><trkpt lat="55.8374956" lon="48.9270941"><time>2021-04-17T08:08:01.963</time></trkpt><trkpt lat="55.8374819" lon="48.9271782"><time>2021-04-17T08:08:03.960</time></trkpt><trkpt lat="55.8374590" lon="48.9272697"><time>2021-04-17T08:08:05.960</time></trkpt><trkpt lat="55.8374289" lon="48.9273714"><time>2021-04-17T08:08:07.960</time></trkpt><trkpt lat="55.8373932" lon="48.9274650"><time>2021-04-17T08:08:09.933</time></trkpt><trkpt lat="55.8373662" lon="48.9275495"><time>2021-04-17T08:08:11.963</time></trkpt><trkpt lat="55.8373436" lon="48.9276308"><time>2021-04-17T08:08:13.967</time></trkpt><trkpt lat="55.8373211" lon="48.9277189"><time>2021-04-17T08:08:15.977</time></trkpt><trkpt lat="55.8372977" lon="48.9278127"><time>2021-04-17T08:08:17.960</time></trkpt><trkpt lat="55.8372847" lon="48.9278912"><time>2021-04-17T08:08:19.970</time></trkpt><trkpt lat="55.8372748" lon="48.9279752"><time>2021-04-17T08:08:22.960</time></trkpt><trkpt lat="55.8372723" lon="48.9280869"><time>2021-04-17T08:08:25.967</time></trkpt><trkpt lat="55.8372592" lon="48.9281750"><time>2021-04-17T08:08:27.963</time></trkpt><trkpt lat="55.8372381" lon="48.9282582"><time>2021-04-17T08:08:29.967</time></trkpt><trkpt lat="55.8372218" lon="48.9283560"><time>2021-04-17T08:08:32.013</time></trkpt><trkpt lat="55.8372143" lon="48.9284374"><time>2021-04-17T08:08:33.960</time></trkpt><trkpt lat="55.8371894" lon="48.9285317"><time>2021-04-17T08:08:36.967</time></trkpt><trkpt lat="55.8371646" lon="48.9286035"><time>2021-04-17T08:08:38.963</time></trkpt><trkpt lat="55.8371359" lon="48.9286733"><time>2021-04-17T08:08:40.960</time></trkpt><trkpt lat="55.8371071" lon="48.9287504"><time>2021-04-17T08:08:42.963</time></trkpt><trkpt lat="55.8370799" lon="48.9288223"><time>2021-04-17T08:08:44.963</time></trkpt><trkpt lat="55.8370587" lon="48.9288940"><time>2021-04-17T08:08:46.963</time></trkpt><trkpt lat="55.8370366" lon="48.9289766"><time>2021-04-17T08:08:48.967</time></trkpt><trkpt lat="55.8370168" lon="48.9290527"><time>2021-04-17T08:08:50.977</time></trkpt><trkpt lat="55.8369844" lon="48.9291289"><time>2021-04-17T08:08:53.977</time></trkpt><trkpt lat="55.8369466" lon="48.9291940"><time>2021-04-17T08:08:57.963</time></trkpt><trkpt lat="55.8369125" lon="48.9292599"><time>2021-04-17T08:09:00.967</time></trkpt><trkpt lat="55.8369009" lon="48.9293404"><time>2021-04-17T08:09:03.963</time></trkpt><trkpt lat="55.8369056" lon="48.9294277"><time>2021-04-17T08:09:07.963</time></trkpt><trkpt lat="55.8369013" lon="48.9295199"><time>2021-04-17T08:09:11.963</time></trkpt><trkpt lat="55.8368853" lon="48.9295989"><time>2021-04-17T08:09:14.963</time></trkpt><trkpt lat="55.8368838" lon="48.9297056"><time>2021-04-17T08:09:17.963</time></trkpt><trkpt lat="55.8368780" lon="48.9297991"><time>2021-04-17T08:09:19.977</time></trkpt><trkpt lat="55.8368594" lon="48.9298736"><time>2021-04-17T08:09:21.970</time></trkpt><trkpt lat="55.8368386" lon="48.9299533"><time>2021-04-17T08:09:23.963</time></trkpt><trkpt lat="55.8368194" lon="48.9300611"><time>2021-04-17T08:09:25.983</time></trkpt><trkpt lat="55.8368312" lon="48.9301470"><time>2021-04-17T08:09:28.400</time></trkpt><trkpt lat="55.8368564" lon="48.9302141"><time>2021-04-17T08:09:29.963</time></trkpt><trkpt lat="55.8368938" lon="48.9302802"><time>2021-04-17T08:09:31.963</time></trkpt><trkpt lat="55.8369391" lon="48.9303443"><time>2021-04-17T08:09:33.967</time></trkpt><trkpt lat="55.8369841" lon="48.9304158"><time>2021-04-17T08:09:35.977</time></trkpt><trkpt lat="55.8370212" lon="48.9304826"><time>2021-04-17T08:09:37.963</time></trkpt><trkpt lat="55.8370571" lon="48.9305616"><time>2021-04-17T08:09:39.980</time></trkpt><trkpt lat="55.8371121" lon="48.9306162"><time>2021-04-17T08:09:42.953</time></trkpt><trkpt lat="55.8371583" lon="48.9306568"><time>2021-04-17T08:09:44.963</time></trkpt><trkpt lat="55.8371954" lon="48.9307080"><time>2021-04-17T08:09:46.967</time></trkpt><trkpt lat="55.8372494" lon="48.9307600"><time>2021-04-17T08:09:48.967</time></trkpt><trkpt lat="55.8373011" lon="48.9308200"><time>2021-04-17T08:09:51.963</time></trkpt><trkpt lat="55.8373503" lon="48.9308706"><time>2021-04-17T08:09:54.980</time></trkpt><trkpt lat="55.8374161" lon="48.9309291"><time>2021-04-17T08:09:57.967</time></trkpt><trkpt lat="55.8374161" lon="48.9309291"><time>2021-04-17T08:12:17.450</time></trkpt><trkpt lat="55.8383823" lon="48.9317508"><time>2021-04-17T08:12:27.957</time></trkpt><trkpt lat="55.8386470" lon="48.9316314"><time>2021-04-17T08:12:28.970</time></trkpt><trkpt lat="55.8386027" lon="48.9316684"><time>2021-04-17T08:12:29.970</time></trkpt><trkpt lat="55.8385432" lon="48.9316084"><time>2021-04-17T08:12:30.930</time></trkpt><trkpt lat="55.8384889" lon="48.9315674"><time>2021-04-17T08:12:34.953</time></trkpt><trkpt lat="55.8384560" lon="48.9315062"><time>2021-04-17T08:12:39.937</time></trkpt><trkpt lat="55.8384146" lon="48.9314646"><time>2021-04-17T08:12:41.967</time></trkpt><trkpt lat="55.8383658" lon="48.9313864"><time>2021-04-17T08:12:43.950</time></trkpt><trkpt lat="55.8383265" lon="48.9313172"><time>2021-04-17T08:12:45.933</time></trkpt><trkpt lat="55.8382889" lon="48.9312321"><time>2021-04-17T08:12:47.960</time></trkpt><trkpt lat="55.8382580" lon="48.9311453"><time>2021-04-17T08:12:49.963</time></trkpt><trkpt lat="55.8382262" lon="48.9310674"><time>2021-04-17T08:12:51.967</time></trkpt><trkpt lat="55.8381892" lon="48.9309929"><time>2021-04-17T08:12:53.947</time></trkpt><trkpt lat="55.8381197" lon="48.9309454"><time>2021-04-17T08:12:55.960</time></trkpt><trkpt lat="55.8380592" lon="48.9309182"><time>2021-04-17T08:12:57.937</time></trkpt><trkpt lat="55.8380013" lon="48.9308805"><time>2021-04-17T08:12:59.933</time></trkpt><trkpt lat="55.8379500" lon="48.9308356"><time>2021-04-17T08:13:01.973</time></trkpt><trkpt lat="55.8378987" lon="48.9307940"><time>2021-04-17T08:13:03.967</time></trkpt><trkpt lat="55.8378501" lon="48.9307961"><time>2021-04-17T08:13:09.953</time></trkpt><trkpt lat="55.8378009" lon="48.9307589"><time>2021-04-17T08:13:12.967</time></trkpt><trkpt lat="55.8377462" lon="48.9307301"><time>2021-04-17T08:13:15.930</time></trkpt><trkpt lat="55.8376995" lon="48.9307009"><time>2021-04-17T08:13:17.967</time></trkpt><trkpt lat="55.8376527" lon="48.9306830"><time>2021-04-17T08:13:19.950</time></trkpt><trkpt lat="55.8375923" lon="48.9306623"><time>2021-04-17T08:13:21.957</time></trkpt><trkpt lat="55.8375431" lon="48.9306540"><time>2021-04-17T08:13:23.977</time></trkpt><trkpt lat="55.8374898" lon="48.9306449"><time>2021-04-17T08:13:25.963</time></trkpt><trkpt lat="55.8374271" lon="48.9306136"><time>2021-04-17T08:13:27.953</time></trkpt><trkpt lat="55.8373740" lon="48.9305817"><time>2021-04-17T08:13:29.967</time></trkpt><trkpt lat="55.8373224" lon="48.9305345"><time>2021-04-17T08:13:31.970</time></trkpt><trkpt lat="55.8372783" lon="48.9305068"><time>2021-04-17T08:13:33.953</time></trkpt><trkpt lat="55.8372118" lon="48.9304724"><time>2021-04-17T08:13:36.930</time></trkpt><trkpt lat="55.8371611" lon="48.9304331"><time>2021-04-17T08:13:38.970</time></trkpt><trkpt lat="55.8371136" lon="48.9303751"><time>2021-04-17T08:13:40.947</time></trkpt><trkpt lat="55.8370587" lon="48.9303268"><time>2021-04-17T08:13:42.930</time></trkpt><trkpt lat="55.8370066" lon="48.9302798"><time>2021-04-17T08:13:44.953</time></trkpt><trkpt lat="55.8369463" lon="48.9302281"><time>2021-04-17T08:13:46.957</time></trkpt><trkpt lat="55.8368827" lon="48.9301790"><time>2021-04-17T08:13:48.957</time></trkpt><trkpt lat="55.8368285" lon="48.9301385"><time>2021-04-17T08:13:50.933</time></trkpt><trkpt lat="55.8367701" lon="48.9301230"><time>2021-04-17T08:13:52.970</time></trkpt><trkpt lat="55.8367135" lon="48.9301166"><time>2021-04-17T08:13:54.980</time></trkpt><trkpt lat="55.8366639" lon="48.9301139"><time>2021-04-17T08:13:56.953</time></trkpt><trkpt lat="55.8365995" lon="48.9301008"><time>2021-04-17T08:13:59.937</time></trkpt><trkpt lat="55.8365426" lon="48.9300763"><time>2021-04-17T08:14:03.007</time></trkpt><trkpt lat="55.8365003" lon="48.9300482"><time>2021-04-17T08:14:04.957</time></trkpt><trkpt lat="55.8364555" lon="48.9300356"><time>2021-04-17T08:14:06.957</time></trkpt><trkpt lat="55.8364053" lon="48.9300293"><time>2021-04-17T08:14:08.943</time></trkpt><trkpt lat="55.8363475" lon="48.9300087"><time>2021-04-17T08:14:10.957</time></trkpt><trkpt lat="55.8362915" lon="48.9299689"><time>2021-04-17T08:14:12.957</time></trkpt><trkpt lat="55.8362441" lon="48.9299335"><time>2021-04-17T08:14:14.970</time></trkpt><trkpt lat="55.8361978" lon="48.9299072"><time>2021-04-17T08:14:16.933</time></trkpt><trkpt lat="55.8361404" lon="48.9298524"><time>2021-04-17T08:14:18.970</time></trkpt><trkpt lat="55.8360787" lon="48.9297946"><time>2021-04-17T08:14:20.960</time></trkpt><trkpt lat="55.8360215" lon="48.9297420"><time>2021-04-17T08:14:22.937</time></trkpt><trkpt lat="55.8359596" lon="48.9296933"><time>2021-04-17T08:14:24.953</time></trkpt><trkpt lat="55.8358998" lon="48.9296350"><time>2021-04-17T08:14:26.953</time></trkpt><trkpt lat="55.8358447" lon="48.9295661"><time>2021-04-17T08:14:28.957</time></trkpt><trkpt lat="55.8357949" lon="48.9295303"><time>2021-04-17T08:14:30.960</time></trkpt><trkpt lat="55.8357334" lon="48.9294938"><time>2021-04-17T08:14:32.973</time></trkpt><trkpt lat="55.8356758" lon="48.9294711"><time>2021-04-17T08:14:34.937</time></trkpt><trkpt lat="55.8356304" lon="48.9294341"><time>2021-04-17T08:14:36.957</time></trkpt><trkpt lat="55.8355814" lon="48.9293904"><time>2021-04-17T08:14:38.957</time></trkpt><trkpt lat="55.8355362" lon="48.9293595"><time>2021-04-17T08:14:40.957</time></trkpt><trkpt lat="55.8354907" lon="48.9293278"><time>2021-04-17T08:14:42.960</time></trkpt><trkpt lat="55.8354450" lon="48.9292994"><time>2021-04-17T08:14:44.960</time></trkpt><trkpt lat="55.8353919" lon="48.9292733"><time>2021-04-17T08:14:46.947</time></trkpt><trkpt lat="55.8353412" lon="48.9292753"><time>2021-04-17T08:14:48.947</time></trkpt><trkpt lat="55.8352844" lon="48.9292872"><time>2021-04-17T08:14:50.957</time></trkpt><trkpt lat="55.8352222" lon="48.9292724"><time>2021-04-17T08:14:53.960</time></trkpt><trkpt lat="55.8351596" lon="48.9292600"><time>2021-04-17T08:14:56.957</time></trkpt><trkpt lat="55.8351104" lon="48.9292524"><time>2021-04-17T08:14:59.957</time></trkpt><trkpt lat="55.8350628" lon="48.9292029"><time>2021-04-17T08:15:03.967</time></trkpt><trkpt lat="55.8350276" lon="48.9291242"><time>2021-04-17T08:15:08.007</time></trkpt><trkpt lat="55.8349666" lon="48.9290723"><time>2021-04-17T08:15:10.977</time></trkpt><trkpt lat="55.8348966" lon="48.9290455"><time>2021-04-17T08:15:12.957</time></trkpt><trkpt lat="55.8348281" lon="48.9290076"><time>2021-04-17T08:15:14.967</time></trkpt><trkpt lat="55.8347693" lon="48.9289793"><time>2021-04-17T08:15:16.960</time></trkpt><trkpt lat="55.8347073" lon="48.9289281"><time>2021-04-17T08:15:18.960</time></trkpt><trkpt lat="55.8346507" lon="48.9288820"><time>2021-04-17T08:15:20.957</time></trkpt><trkpt lat="55.8345831" lon="48.9288319"><time>2021-04-17T08:15:22.977</time></trkpt><trkpt lat="55.8345408" lon="48.9287770"><time>2021-04-17T08:15:24.977</time></trkpt><trkpt lat="55.8344913" lon="48.9287008"><time>2021-04-17T08:15:27.963</time></trkpt><trkpt lat="55.8344556" lon="48.9286436"><time>2021-04-17T08:15:29.977</time></trkpt><trkpt lat="55.8344241" lon="48.9285711"><time>2021-04-17T08:15:31.967</time></trkpt><trkpt lat="55.8344140" lon="48.9284926"><time>2021-04-17T08:15:33.960</time></trkpt><trkpt lat="55.8344143" lon="48.9284103"><time>2021-04-17T08:15:35.930</time></trkpt><trkpt lat="55.8344266" lon="48.9283130"><time>2021-04-17T08:15:38.977</time></trkpt><trkpt lat="55.8344855" lon="48.9283033"><time>2021-04-17T08:15:48.963</time></trkpt><trkpt lat="55.8345379" lon="48.9283321"><time>2021-04-17T08:15:52.963</time></trkpt><trkpt lat="55.8345799" lon="48.9283629"><time>2021-04-17T08:15:54.963</time></trkpt><trkpt lat="55.8346249" lon="48.9284137"><time>2021-04-17T08:15:57.960</time></trkpt><trkpt lat="55.8346631" lon="48.9284914"><time>2021-04-17T08:16:00.933</time></trkpt><trkpt lat="55.8347105" lon="48.9285593"><time>2021-04-17T08:16:03.973</time></trkpt><trkpt lat="55.8347499" lon="48.9286206"><time>2021-04-17T08:16:06.950</time></trkpt><trkpt lat="55.8347922" lon="48.9286653"><time>2021-04-17T08:16:09.977</time></trkpt><trkpt lat="55.8348036" lon="48.9286807"><time>2021-04-17T08:16:11.990</time></trkpt><trkpt lat="55.8347467" lon="48.9285962"><time>2021-04-17T08:16:29.963</time></trkpt><trkpt lat="55.8347108" lon="48.9285363"><time>2021-04-17T08:16:34.953</time></trkpt><trkpt lat="55.8346644" lon="48.9284876"><time>2021-04-17T08:16:38.930</time></trkpt><trkpt lat="55.8346602" lon="48.9284057"><time>2021-04-17T08:16:41.967</time></trkpt><trkpt lat="55.8346395" lon="48.9283200"><time>2021-04-17T08:16:44.963</time></trkpt><trkpt lat="55.8345960" lon="48.9282572"><time>2021-04-17T08:16:46.957</time></trkpt><trkpt lat="55.8345403" lon="48.9282015"><time>2021-04-17T08:16:48.953</time></trkpt><trkpt lat="55.8344905" lon="48.9281584"><time>2021-04-17T08:16:50.937</time></trkpt><trkpt lat="55.8344417" lon="48.9281381"><time>2021-04-17T08:16:52.963</time></trkpt><trkpt lat="55.8343834" lon="48.9280944"><time>2021-04-17T08:16:54.937</time></trkpt><trkpt lat="55.8343432" lon="48.9280387"><time>2021-04-17T08:16:56.950</time></trkpt><trkpt lat="55.8343023" lon="48.9279967"><time>2021-04-17T08:16:58.953</time></trkpt><trkpt lat="55.8342475" lon="48.9279617"><time>2021-04-17T08:17:01.967</time></trkpt><trkpt lat="55.8341917" lon="48.9279301"><time>2021-04-17T08:17:04.957</time></trkpt><trkpt lat="55.8341492" lon="48.9278640"><time>2021-04-17T08:17:07.947</time></trkpt><trkpt lat="55.8341028" lon="48.9278117"><time>2021-04-17T08:17:10.957</time></trkpt><trkpt lat="55.8340513" lon="48.9277597"><time>2021-04-17T08:17:13.963</time></trkpt><trkpt lat="55.8340090" lon="48.9277209"><time>2021-04-17T08:17:15.967</time></trkpt><trkpt lat="55.8339476" lon="48.9276779"><time>2021-04-17T08:17:18.953</time></trkpt><trkpt lat="55.8339077" lon="48.9276358"><time>2021-04-17T08:17:20.953</time></trkpt><trkpt lat="55.8338720" lon="48.9275727"><time>2021-04-17T08:17:22.953</time></trkpt><trkpt lat="55.8338359" lon="48.9274993"><time>2021-04-17T08:17:24.953</time></trkpt><trkpt lat="55.8337981" lon="48.9274239"><time>2021-04-17T08:17:26.967</time></trkpt><trkpt lat="55.8337545" lon="48.9273512"><time>2021-04-17T08:17:28.967</time></trkpt><trkpt lat="55.8337135" lon="48.9272909"><time>2021-04-17T08:17:30.967</time></trkpt><trkpt lat="55.8336716" lon="48.9272393"><time>2021-04-17T08:17:32.967</time></trkpt><trkpt lat="55.8336199" lon="48.9271997"><time>2021-04-17T08:17:34.967</time></trkpt><trkpt lat="55.8335778" lon="48.9271657"><time>2021-04-17T08:17:36.970</time></trkpt><trkpt lat="55.8335384" lon="48.9271066"><time>2021-04-17T08:17:39.967</time></trkpt><trkpt lat="55.8335034" lon="48.9270551"><time>2021-04-17T08:17:41.963</time></trkpt><trkpt lat="55.8334722" lon="48.9269972"><time>2021-04-17T08:17:43.967</time></trkpt><trkpt lat="55.8334493" lon="48.9269150"><time>2021-04-17T08:17:45.940</time></trkpt><trkpt lat="55.8334361" lon="48.9268306"><time>2021-04-17T08:17:48.953</time></trkpt><trkpt lat="55.8334088" lon="48.9267638"><time>2021-04-17T08:17:51.967</time></trkpt><trkpt lat="55.8333758" lon="48.9266779"><time>2021-04-17T08:17:54.953</time></trkpt><trkpt lat="55.8333587" lon="48.9265999"><time>2021-04-17T08:17:56.953</time></trkpt><trkpt lat="55.8333477" lon="48.9265109"><time>2021-04-17T08:17:58.960</time></trkpt><trkpt lat="55.8333294" lon="48.9264277"><time>2021-04-17T08:18:00.953</time></trkpt><trkpt lat="55.8333160" lon="48.9263300"><time>2021-04-17T08:18:02.937</time></trkpt><trkpt lat="55.8332955" lon="48.9262320"><time>2021-04-17T08:18:04.953</time></trkpt><trkpt lat="55.8332771" lon="48.9261471"><time>2021-04-17T08:18:06.953</time></trkpt><trkpt lat="55.8332471" lon="48.9260812"><time>2021-04-17T08:18:09.940</time></trkpt><trkpt lat="55.8331850" lon="48.9260459"><time>2021-04-17T08:18:12.953</time></trkpt><trkpt lat="55.8331337" lon="48.9260085"><time>2021-04-17T08:18:14.957</time></trkpt><trkpt lat="55.8330912" lon="48.9259378"><time>2021-04-17T08:18:17.970</time></trkpt><trkpt lat="55.8330855" lon="48.9258407"><time>2021-04-17T08:18:20.950</time></trkpt><trkpt lat="55.8331225" lon="48.9257523"><time>2021-04-17T08:18:23.967</time></trkpt><trkpt lat="55.8331748" lon="48.9256873"><time>2021-04-17T08:18:26.940</time></trkpt><trkpt lat="55.8332062" lon="48.9256113"><time>2021-04-17T08:18:29.957</time></trkpt><trkpt lat="55.8332636" lon="48.9255429"><time>2021-04-17T08:18:32.987</time></trkpt><trkpt lat="55.8333050" lon="48.9254776"><time>2021-04-17T08:18:34.953</time></trkpt><trkpt lat="55.8333510" lon="48.9254253"><time>2021-04-17T08:18:36.937</time></trkpt><trkpt lat="55.8333981" lon="48.9253432"><time>2021-04-17T08:18:39.953</time></trkpt><trkpt lat="55.8334324" lon="48.9252729"><time>2021-04-17T08:18:41.970</time></trkpt><trkpt lat="55.8334906" lon="48.9252082"><time>2021-04-17T08:18:43.970</time></trkpt><trkpt lat="55.8335324" lon="48.9251630"><time>2021-04-17T08:18:45.967</time></trkpt><trkpt lat="55.8335737" lon="48.9250968"><time>2021-04-17T08:18:48.967</time></trkpt><trkpt lat="55.8336072" lon="48.9250420"><time>2021-04-17T08:18:52.980</time></trkpt><trkpt lat="55.8336551" lon="48.9249816"><time>2021-04-17T08:19:04.957</time></trkpt><trkpt lat="55.8336992" lon="48.9249292"><time>2021-04-17T08:19:06.957</time></trkpt><trkpt lat="55.8337388" lon="48.9248490"><time>2021-04-17T08:19:09.970</time></trkpt><trkpt lat="55.8337434" lon="48.9247600"><time>2021-04-17T08:19:12.957</time></trkpt><trkpt lat="55.8337403" lon="48.9246592"><time>2021-04-17T08:19:15.983</time></trkpt><trkpt lat="55.8337436" lon="48.9245682"><time>2021-04-17T08:19:17.953</time></trkpt><trkpt lat="55.8337695" lon="48.9244955"><time>2021-04-17T08:19:19.970</time></trkpt><trkpt lat="55.8337747" lon="48.9243958"><time>2021-04-17T08:19:21.970</time></trkpt><trkpt lat="55.8337848" lon="48.9242962"><time>2021-04-17T08:19:23.973</time></trkpt><trkpt lat="55.8337855" lon="48.9242085"><time>2021-04-17T08:19:25.957</time></trkpt><trkpt lat="55.8337754" lon="48.9241237"><time>2021-04-17T08:19:27.977</time></trkpt><trkpt lat="55.8337687" lon="48.9240431"><time>2021-04-17T08:19:29.960</time></trkpt><trkpt lat="55.8337693" lon="48.9239612"><time>2021-04-17T08:19:31.950</time></trkpt><trkpt lat="55.8337856" lon="48.9238523"><time>2021-04-17T08:19:34.953</time></trkpt><trkpt lat="55.8337894" lon="48.9237690"><time>2021-04-17T08:19:36.957</time></trkpt><trkpt lat="55.8338059" lon="48.9236398"><time>2021-04-17T08:19:39.983</time></trkpt><trkpt lat="55.8338234" lon="48.9235654"><time>2021-04-17T08:19:41.963</time></trkpt><trkpt lat="55.8338471" lon="48.9234812"><time>2021-04-17T08:19:43.987</time></trkpt><trkpt lat="55.8338502" lon="48.9234334"><time>2021-04-17T08:19:47.127</time></trkpt><trkpt lat="55.8338679" lon="48.9233998"><time>2021-04-17T08:19:48.947</time></trkpt><trkpt lat="55.8339323" lon="48.9233859"><time>2021-04-17T08:19:55.967</time></trkpt><trkpt lat="55.8339027" lon="48.9234536"><time>2021-04-17T08:20:06.957</time></trkpt><trkpt lat="55.8338687" lon="48.9235226"><time>2021-04-17T08:20:08.970</time></trkpt><trkpt lat="55.8338213" lon="48.9235555"><time>2021-04-17T08:20:14.970</time></trkpt><trkpt lat="55.8337703" lon="48.9236002"><time>2021-04-17T08:20:17.947</time></trkpt><trkpt lat="55.8337438" lon="48.9236742"><time>2021-04-17T08:20:29.943</time></trkpt><trkpt lat="55.8337241" lon="48.9237567"><time>2021-04-17T08:20:32.957</time></trkpt><trkpt lat="55.8337222" lon="48.9238531"><time>2021-04-17T08:20:34.960</time></trkpt><trkpt lat="55.8337297" lon="48.9239535"><time>2021-04-17T08:20:36.937</time></trkpt><trkpt lat="55.8337394" lon="48.9240677"><time>2021-04-17T08:20:39.217</time></trkpt><trkpt lat="55.8337569" lon="48.9241822"><time>2021-04-17T08:20:40.967</time></trkpt><trkpt lat="55.8337638" lon="48.9242731"><time>2021-04-17T08:20:42.930</time></trkpt><trkpt lat="55.8337644" lon="48.9243569"><time>2021-04-17T08:20:44.940</time></trkpt><trkpt lat="55.8337685" lon="48.9244558"><time>2021-04-17T08:20:46.957</time></trkpt><trkpt lat="55.8337658" lon="48.9245756"><time>2021-04-17T08:20:49.963</time></trkpt><trkpt lat="55.8337503" lon="48.9246793"><time>2021-04-17T08:20:52.973</time></trkpt><trkpt lat="55.8337033" lon="48.9247634"><time>2021-04-17T08:20:54.947</time></trkpt><trkpt lat="55.8336476" lon="48.9248722"><time>2021-04-17T08:20:56.933</time></trkpt><trkpt lat="55.8336081" lon="48.9249128"><time>2021-04-17T08:20:57.933</time></trkpt><trkpt lat="55.8335605" lon="48.9249453"><time>2021-04-17T08:20:58.930</time></trkpt><trkpt lat="55.8335025" lon="48.9250129"><time>2021-04-17T08:21:00.977</time></trkpt><trkpt lat="55.8334723" lon="48.9251058"><time>2021-04-17T08:21:02.930</time></trkpt><trkpt lat="55.8334186" lon="48.9251549"><time>2021-04-17T08:21:04.957</time></trkpt><trkpt lat="55.8333655" lon="48.9251960"><time>2021-04-17T08:21:06.983</time></trkpt><trkpt lat="55.8333179" lon="48.9252557"><time>2021-04-17T08:21:08.927</time></trkpt><trkpt lat="55.8332606" lon="48.9253180"><time>2021-04-17T08:21:10.953</time></trkpt><trkpt lat="55.8332083" lon="48.9253818"><time>2021-04-17T08:21:12.967</time></trkpt><trkpt lat="55.8331682" lon="48.9254624"><time>2021-04-17T08:21:14.983</time></trkpt><trkpt lat="55.8331294" lon="48.9255377"><time>2021-04-17T08:21:16.970</time></trkpt><trkpt lat="55.8330832" lon="48.9255921"><time>2021-04-17T08:21:18.957</time></trkpt><trkpt lat="55.8330513" lon="48.9256537"><time>2021-04-17T08:21:20.980</time></trkpt><trkpt lat="55.8330012" lon="48.9256948"><time>2021-04-17T08:21:23.980</time></trkpt><trkpt lat="55.8329719" lon="48.9257617"><time>2021-04-17T08:21:25.953</time></trkpt><trkpt lat="55.8329437" lon="48.9258248"><time>2021-04-17T08:21:27.953</time></trkpt><trkpt lat="55.8329031" lon="48.9258985"><time>2021-04-17T08:21:30.953</time></trkpt><trkpt lat="55.8328635" lon="48.9260018"><time>2021-04-17T08:21:33.930</time></trkpt><trkpt lat="55.8328403" lon="48.9260826"><time>2021-04-17T08:21:35.977</time></trkpt><trkpt lat="55.8328304" lon="48.9261777"><time>2021-04-17T08:21:37.957</time></trkpt><trkpt lat="55.8328033" lon="48.9262719"><time>2021-04-17T08:21:39.950</time></trkpt><trkpt lat="55.8327735" lon="48.9263728"><time>2021-04-17T08:21:41.940</time></trkpt><trkpt lat="55.8327349" lon="48.9264849"><time>2021-04-17T08:21:43.930</time></trkpt><trkpt lat="55.8326741" lon="48.9265968"><time>2021-04-17T08:21:45.953</time></trkpt><trkpt lat="55.8326209" lon="48.9266999"><time>2021-04-17T08:21:47.953</time></trkpt><trkpt lat="55.8325783" lon="48.9267315"><time>2021-04-17T08:21:48.940</time></trkpt><trkpt lat="55.8325349" lon="48.9268087"><time>2021-04-17T08:21:50.967</time></trkpt><trkpt lat="55.8324936" lon="48.9268745"><time>2021-04-17T08:21:52.950</time></trkpt><trkpt lat="55.8324728" lon="48.9269802"><time>2021-04-17T08:21:55.933</time></trkpt><trkpt lat="55.8324675" lon="48.9270660"><time>2021-04-17T08:21:58.940</time></trkpt><trkpt lat="55.8324479" lon="48.9271393"><time>2021-04-17T08:22:01.957</time></trkpt><trkpt lat="55.8324399" lon="48.9272340"><time>2021-04-17T08:22:04.957</time></trkpt><trkpt lat="55.8324151" lon="48.9273209"><time>2021-04-17T08:22:07.960</time></trkpt><trkpt lat="55.8324029" lon="48.9274133"><time>2021-04-17T08:22:09.973</time></trkpt><trkpt lat="55.8323900" lon="48.9275231"><time>2021-04-17T08:22:11.957</time></trkpt><trkpt lat="55.8323898" lon="48.9276347"><time>2021-04-17T08:22:13.970</time></trkpt><trkpt lat="55.8323736" lon="48.9277861"><time>2021-04-17T08:22:15.953</time></trkpt><trkpt lat="55.8323568" lon="48.9278681"><time>2021-04-17T08:22:16.967</time></trkpt><trkpt lat="55.8323291" lon="48.9279846"><time>2021-04-17T08:22:18.957</time></trkpt><trkpt lat="55.8323103" lon="48.9280962"><time>2021-04-17T08:22:20.957</time></trkpt><trkpt lat="55.8322882" lon="48.9281844"><time>2021-04-17T08:22:22.953</time></trkpt><trkpt lat="55.8322612" lon="48.9282714"><time>2021-04-17T08:22:25.003</time></trkpt><trkpt lat="55.8322430" lon="48.9283733"><time>2021-04-17T08:22:26.967</time></trkpt><trkpt lat="55.8322198" lon="48.9284815"><time>2021-04-17T08:22:28.967</time></trkpt><trkpt lat="55.8322079" lon="48.9285679"><time>2021-04-17T08:22:30.987</time></trkpt><trkpt lat="55.8321875" lon="48.9286480"><time>2021-04-17T08:22:32.953</time></trkpt><trkpt lat="55.8321672" lon="48.9287332"><time>2021-04-17T08:22:34.973</time></trkpt><trkpt lat="55.8321453" lon="48.9288214"><time>2021-04-17T08:22:36.970</time></trkpt><trkpt lat="55.8321310" lon="48.9289053"><time>2021-04-17T08:22:38.967</time></trkpt><trkpt lat="55.8321270" lon="48.9290209"><time>2021-04-17T08:22:41.960</time></trkpt><trkpt lat="55.8321173" lon="48.9291035"><time>2021-04-17T08:22:43.947</time></trkpt><trkpt lat="55.8321137" lon="48.9291852"><time>2021-04-17T08:22:46.007</time></trkpt><trkpt lat="55.8320917" lon="48.9292938"><time>2021-04-17T08:22:48.960</time></trkpt><trkpt lat="55.8320738" lon="48.9293767"><time>2021-04-17T08:22:50.953</time></trkpt><trkpt lat="55.8320588" lon="48.9294539"><time>2021-04-17T08:22:52.957</time></trkpt><trkpt lat="55.8320410" lon="48.9295364"><time>2021-04-17T08:22:54.937</time></trkpt><trkpt lat="55.8320192" lon="48.9296328"><time>2021-04-17T08:22:56.953</time></trkpt><trkpt lat="55.8319831" lon="48.9297216"><time>2021-04-17T08:22:58.957</time></trkpt><trkpt lat="55.8319499" lon="48.9297867"><time>2021-04-17T08:23:00.943</time></trkpt><trkpt lat="55.8319055" lon="48.9298505"><time>2021-04-17T08:23:02.970</time></trkpt><trkpt lat="55.8318700" lon="48.9299263"><time>2021-04-17T08:23:04.953</time></trkpt><trkpt lat="55.8318357" lon="48.9299978"><time>2021-04-17T08:23:06.957</time></trkpt><trkpt lat="55.8318033" lon="48.9300644"><time>2021-04-17T08:23:08.957</time></trkpt><trkpt lat="55.8317702" lon="48.9301428"><time>2021-04-17T08:23:11.973</time></trkpt><trkpt lat="55.8317420" lon="48.9302092"><time>2021-04-17T08:23:13.983</time></trkpt><trkpt lat="55.8316996" lon="48.9302701"><time>2021-04-17T08:23:15.967</time></trkpt><trkpt lat="55.8316501" lon="48.9303386"><time>2021-04-17T08:23:17.953</time></trkpt><trkpt lat="55.8316118" lon="48.9304056"><time>2021-04-17T08:23:19.957</time></trkpt><trkpt lat="55.8315743" lon="48.9304614"><time>2021-04-17T08:23:21.970</time></trkpt><trkpt lat="55.8315344" lon="48.9305346"><time>2021-04-17T08:23:24.960</time></trkpt><trkpt lat="55.8314980" lon="48.9305868"><time>2021-04-17T08:23:26.970</time></trkpt><trkpt lat="55.8314517" lon="48.9306179"><time>2021-04-17T08:23:28.953</time></trkpt><trkpt lat="55.8313951" lon="48.9306729"><time>2021-04-17T08:23:31.967</time></trkpt><trkpt lat="55.8313689" lon="48.9307445"><time>2021-04-17T08:23:33.950</time></trkpt><trkpt lat="55.8313356" lon="48.9308464"><time>2021-04-17T08:23:36.953</time></trkpt><trkpt lat="55.8313184" lon="48.9309239"><time>2021-04-17T08:23:38.957</time></trkpt><trkpt lat="55.8312906" lon="48.9310127"><time>2021-04-17T08:23:40.937</time></trkpt><trkpt lat="55.8312649" lon="48.9310951"><time>2021-04-17T08:23:42.957</time></trkpt><trkpt lat="55.8312357" lon="48.9311746"><time>2021-04-17T08:23:44.973</time></trkpt><trkpt lat="55.8311944" lon="48.9312721"><time>2021-04-17T08:23:46.967</time></trkpt><trkpt lat="55.8311515" lon="48.9313751"><time>2021-04-17T08:23:48.970</time></trkpt><trkpt lat="55.8311045" lon="48.9314306"><time>2021-04-17T08:23:50.957</time></trkpt><trkpt lat="55.8310589" lon="48.9314589"><time>2021-04-17T08:23:52.957</time></trkpt><trkpt lat="55.8310124" lon="48.9315035"><time>2021-04-17T08:23:55.953</time></trkpt><trkpt lat="55.8309750" lon="48.9315848"><time>2021-04-17T08:23:58.970</time></trkpt><trkpt lat="55.8309445" lon="48.9316545"><time>2021-04-17T08:24:00.970</time></trkpt><trkpt lat="55.8309102" lon="48.9317316"><time>2021-04-17T08:24:02.957</time></trkpt><trkpt lat="55.8308707" lon="48.9318229"><time>2021-04-17T08:24:04.970</time></trkpt><trkpt lat="55.8308477" lon="48.9319361"><time>2021-04-17T08:24:06.973</time></trkpt><trkpt lat="55.8308387" lon="48.9320360"><time>2021-04-17T08:24:08.980</time></trkpt><trkpt lat="55.8308248" lon="48.9321249"><time>2021-04-17T08:24:11.960</time></trkpt><trkpt lat="55.8307730" lon="48.9322269"><time>2021-04-17T08:24:14.957</time></trkpt><trkpt lat="55.8307428" lon="48.9322916"><time>2021-04-17T08:24:16.957</time></trkpt><trkpt lat="55.8307242" lon="48.9323127"><time>2021-04-17T08:24:18.710</time></trkpt><trkpt lat="55.8307018" lon="48.9323406"><time>2021-04-17T08:24:19.957</time></trkpt><trkpt lat="55.8307506" lon="48.9323666"><time>2021-04-17T08:24:29.960</time></trkpt><trkpt lat="55.8307854" lon="48.9324292"><time>2021-04-17T08:24:31.937</time></trkpt><trkpt lat="55.8308023" lon="48.9325277"><time>2021-04-17T08:24:34.950</time></trkpt><trkpt lat="55.8308245" lon="48.9326109"><time>2021-04-17T08:24:37.977</time></trkpt><trkpt lat="55.8308661" lon="48.9326797"><time>2021-04-17T08:24:40.977</time></trkpt><trkpt lat="55.8308915" lon="48.9327494"><time>2021-04-17T08:24:45.970</time></trkpt><trkpt lat="55.8308932" lon="48.9328340"><time>2021-04-17T08:24:50.970</time></trkpt><trkpt lat="55.8308963" lon="48.9329212"><time>2021-04-17T08:24:56.977</time></trkpt><trkpt lat="55.8308907" lon="48.9330196"><time>2021-04-17T08:25:01.960</time></trkpt><trkpt lat="55.8308907" lon="48.9331035"><time>2021-04-17T08:25:06.980</time></trkpt><trkpt lat="55.8308773" lon="48.9332004"><time>2021-04-17T08:25:11.933</time></trkpt><trkpt lat="55.8309033" lon="48.9332963"><time>2021-04-17T08:25:14.960</time></trkpt><trkpt lat="55.8309234" lon="48.9333718"><time>2021-04-17T08:25:16.977</time></trkpt><trkpt lat="55.8309449" lon="48.9334457"><time>2021-04-17T08:25:18.933</time></trkpt><trkpt lat="55.8309703" lon="48.9335423"><time>2021-04-17T08:25:20.947</time></trkpt><trkpt lat="55.8309960" lon="48.9336082"><time>2021-04-17T08:25:22.943</time></trkpt><trkpt lat="55.8310309" lon="48.9336915"><time>2021-04-17T08:25:25.933</time></trkpt><trkpt lat="55.8310599" lon="48.9337559"><time>2021-04-17T08:25:27.940</time></trkpt><trkpt lat="55.8310911" lon="48.9338823"><time>2021-04-17T08:25:30.960</time></trkpt><trkpt lat="55.8311134" lon="48.9339680"><time>2021-04-17T08:25:32.977</time></trkpt><trkpt lat="55.8311554" lon="48.9340595"><time>2021-04-17T08:25:35.950</time></trkpt><trkpt lat="55.8311861" lon="48.9341702"><time>2021-04-17T08:25:37.937</time></trkpt><trkpt lat="55.8312251" lon="48.9342886"><time>2021-04-17T08:25:39.950</time></trkpt><trkpt lat="55.8312332" lon="48.9343738"><time>2021-04-17T08:25:40.957</time></trkpt><trkpt lat="55.8312382" lon="48.9344591"><time>2021-04-17T08:25:41.940</time></trkpt><trkpt lat="55.8312473" lon="48.9345791"><time>2021-04-17T08:25:43.963</time></trkpt><trkpt lat="55.8312389" lon="48.9346888"><time>2021-04-17T08:25:46.953</time></trkpt><trkpt lat="55.8312306" lon="48.9348115"><time>2021-04-17T08:25:49.960</time></trkpt><trkpt lat="55.8312164" lon="48.9349266"><time>2021-04-17T08:25:51.930</time></trkpt><trkpt lat="55.8312048" lon="48.9350291"><time>2021-04-17T08:25:53.963</time></trkpt><trkpt lat="55.8311975" lon="48.9351168"><time>2021-04-17T08:25:55.967</time></trkpt><trkpt lat="55.8311678" lon="48.9352080"><time>2021-04-17T08:25:57.933</time></trkpt><trkpt lat="55.8311459" lon="48.9352806"><time>2021-04-17T08:25:59.957</time></trkpt><trkpt lat="55.8311411" lon="48.9353633"><time>2021-04-17T08:26:01.957</time></trkpt><trkpt lat="55.8311521" lon="48.9354504"><time>2021-04-17T08:26:03.957</time></trkpt><trkpt lat="55.8311725" lon="48.9355608"><time>2021-04-17T08:26:07.010</time></trkpt><trkpt lat="55.8312041" lon="48.9356513"><time>2021-04-17T08:26:08.983</time></trkpt><trkpt lat="55.8312200" lon="48.9357442"><time>2021-04-17T08:26:10.967</time></trkpt><trkpt lat="55.8312362" lon="48.9358300"><time>2021-04-17T08:26:12.967</time></trkpt><trkpt lat="55.8312546" lon="48.9359365"><time>2021-04-17T08:26:14.953</time></trkpt><trkpt lat="55.8312868" lon="48.9360106"><time>2021-04-17T08:26:16.970</time></trkpt><trkpt lat="55.8313174" lon="48.9360894"><time>2021-04-17T08:26:18.933</time></trkpt><trkpt lat="55.8313439" lon="48.9361695"><time>2021-04-17T08:26:20.947</time></trkpt><trkpt lat="55.8313642" lon="48.9362496"><time>2021-04-17T08:26:22.933</time></trkpt><trkpt lat="55.8313949" lon="48.9363416"><time>2021-04-17T08:26:24.933</time></trkpt><trkpt lat="55.8314415" lon="48.9364315"><time>2021-04-17T08:26:27.970</time></trkpt><trkpt lat="55.8314819" lon="48.9364813"><time>2021-04-17T08:26:29.957</time></trkpt><trkpt lat="55.8315440" lon="48.9365346"><time>2021-04-17T08:26:31.973</time></trkpt><trkpt lat="55.8315959" lon="48.9366049"><time>2021-04-17T08:26:33.953</time></trkpt><trkpt lat="55.8316325" lon="48.9366811"><time>2021-04-17T08:26:35.957</time></trkpt><trkpt lat="55.8316705" lon="48.9367318"><time>2021-04-17T08:26:37.957</time></trkpt><trkpt lat="55.8317336" lon="48.9367247"><time>2021-04-17T08:26:40.957</time></trkpt><trkpt lat="55.8317851" lon="48.9367071"><time>2021-04-17T08:26:42.957</time></trkpt><trkpt lat="55.8318313" lon="48.9367177"><time>2021-04-17T08:26:44.930</time></trkpt><trkpt lat="55.8318585" lon="48.9368092"><time>2021-04-17T08:26:47.950</time></trkpt><trkpt lat="55.8318682" lon="48.9368961"><time>2021-04-17T08:26:49.960</time></trkpt><trkpt lat="55.8318645" lon="48.9369911"><time>2021-04-17T08:26:51.947</time></trkpt><trkpt lat="55.8318729" lon="48.9370873"><time>2021-04-17T08:26:53.957</time></trkpt><trkpt lat="55.8318766" lon="48.9371731"><time>2021-04-17T08:26:55.950</time></trkpt><trkpt lat="55.8318837" lon="48.9372763"><time>2021-04-17T08:26:57.947</time></trkpt><trkpt lat="55.8318958" lon="48.9373601"><time>2021-04-17T08:26:59.960</time></trkpt><trkpt lat="55.8318898" lon="48.9374792"><time>2021-04-17T08:27:02.977</time></trkpt><trkpt lat="55.8318791" lon="48.9375610"><time>2021-04-17T08:27:04.960</time></trkpt><trkpt lat="55.8318721" lon="48.9376522"><time>2021-04-17T08:27:06.977</time></trkpt><trkpt lat="55.8318608" lon="48.9377553"><time>2021-04-17T08:27:08.970</time></trkpt><trkpt lat="55.8318596" lon="48.9378575"><time>2021-04-17T08:27:10.953</time></trkpt><trkpt lat="55.8318603" lon="48.9379398"><time>2021-04-17T08:27:12.977</time></trkpt><trkpt lat="55.8318648" lon="48.9380293"><time>2021-04-17T08:27:15.353</time></trkpt><trkpt lat="55.8318633" lon="48.9381177"><time>2021-04-17T08:27:16.957</time></trkpt><trkpt lat="55.8318648" lon="48.9382010"><time>2021-04-17T08:27:18.957</time></trkpt><trkpt lat="55.8318818" lon="48.9382791"><time>2021-04-17T08:27:20.960</time></trkpt><trkpt lat="55.8318926" lon="48.9383577"><time>2021-04-17T08:27:22.937</time></trkpt><trkpt lat="55.8318962" lon="48.9384413"><time>2021-04-17T08:27:24.973</time></trkpt><trkpt lat="55.8318967" lon="48.9385299"><time>2021-04-17T08:27:26.960</time></trkpt><trkpt lat="55.8318939" lon="48.9386225"><time>2021-04-17T08:27:28.957</time></trkpt><trkpt lat="55.8318833" lon="48.9387136"><time>2021-04-17T08:27:30.973</time></trkpt><trkpt lat="55.8318862" lon="48.9388036"><time>2021-04-17T08:27:32.957</time></trkpt><trkpt lat="55.8319005" lon="48.9389179"><time>2021-04-17T08:27:35.973</time></trkpt><trkpt lat="55.8319163" lon="48.9390321"><time>2021-04-17T08:27:38.930</time></trkpt><trkpt lat="55.8319304" lon="48.9391204"><time>2021-04-17T08:27:40.970</time></trkpt><trkpt lat="55.8319603" lon="48.9392232"><time>2021-04-17T08:27:43.987</time></trkpt><trkpt lat="55.8319812" lon="48.9393143"><time>2021-04-17T08:27:46.960</time></trkpt><trkpt lat="55.8319507" lon="48.9393746"><time>2021-04-17T08:27:50.957</time></trkpt><trkpt lat="55.8319072" lon="48.9394027"><time>2021-04-17T08:28:22.933</time></trkpt><trkpt lat="55.8319265" lon="48.9394841"><time>2021-04-17T08:28:26.967</time></trkpt><trkpt lat="55.8318867" lon="48.9395442"><time>2021-04-17T08:28:33.957</time></trkpt><trkpt lat="55.8318569" lon="48.9396131"><time>2021-04-17T08:28:39.957</time></trkpt><trkpt lat="55.8318294" lon="48.9396764"><time>2021-04-17T08:28:51.987</time></trkpt><trkpt lat="55.8318058" lon="48.9397563"><time>2021-04-17T08:28:58.957</time></trkpt><trkpt lat="55.8318002" lon="48.9398423"><time>2021-04-17T08:29:03.970</time></trkpt><trkpt lat="55.8317875" lon="48.9399249"><time>2021-04-17T08:29:08.957</time></trkpt><trkpt lat="55.8317922" lon="48.9400191"><time>2021-04-17T08:29:14.957</time></trkpt><trkpt lat="55.8317714" lon="48.9400990"><time>2021-04-17T08:29:19.933</time></trkpt><trkpt lat="55.8317557" lon="48.9401924"><time>2021-04-17T08:29:25.937</time></trkpt><trkpt lat="55.8317474" lon="48.9402739"><time>2021-04-17T08:29:30.957</time></trkpt><trkpt lat="55.8317524" lon="48.9403688"><time>2021-04-17T08:29:35.963</time></trkpt><trkpt lat="55.8317491" lon="48.9404612"><time>2021-04-17T08:29:39.963</time></trkpt><trkpt lat="55.8317449" lon="48.9405413"><time>2021-04-17T08:29:43.963</time></trkpt><trkpt lat="55.8317474" lon="48.9406407"><time>2021-04-17T08:29:47.957</time></trkpt><trkpt lat="55.8317174" lon="48.9407171"><time>2021-04-17T08:29:51.977</time></trkpt><trkpt lat="55.8316889" lon="48.9407846"><time>2021-04-17T08:29:55.957</time></trkpt><trkpt lat="55.8316722" lon="48.9408777"><time>2021-04-17T08:30:00.930</time></trkpt><trkpt lat="55.8316580" lon="48.9409686"><time>2021-04-17T08:30:04.957</time></trkpt><trkpt lat="55.8316571" lon="48.9410532"><time>2021-04-17T08:30:09.960</time></trkpt><trkpt lat="55.8316401" lon="48.9411290"><time>2021-04-17T08:30:16.953</time></trkpt><trkpt lat="55.8316556" lon="48.9412141"><time>2021-04-17T08:30:21.940</time></trkpt><trkpt lat="55.8316374" lon="48.9412983"><time>2021-04-17T08:30:25.957</time></trkpt><trkpt lat="55.8316227" lon="48.9413760"><time>2021-04-17T08:30:30.967</time></trkpt><trkpt lat="55.8316085" lon="48.9414737"><time>2021-04-17T08:30:35.957</time></trkpt><trkpt lat="55.8315746" lon="48.9415395"><time>2021-04-17T08:30:39.960</time></trkpt><trkpt lat="55.8315590" lon="48.9416197"><time>2021-04-17T08:30:44.947</time></trkpt><trkpt lat="55.8315650" lon="48.9417052"><time>2021-04-17T08:30:48.977</time></trkpt><trkpt lat="55.8315737" lon="48.9418097"><time>2021-04-17T08:30:52.933</time></trkpt><trkpt lat="55.8315664" lon="48.9419006"><time>2021-04-17T08:30:56.930</time></trkpt><trkpt lat="55.8315563" lon="48.9419858"><time>2021-04-17T08:31:01.953</time></trkpt><trkpt lat="55.8315685" lon="48.9420754"><time>2021-04-17T08:31:07.977</time></trkpt><trkpt lat="55.8315676" lon="48.9421643"><time>2021-04-17T08:31:14.937</time></trkpt><trkpt lat="55.8315452" lon="48.9422460"><time>2021-04-17T08:31:18.963</time></trkpt><trkpt lat="55.8314990" lon="48.9422915"><time>2021-04-17T08:31:21.930</time></trkpt><trkpt lat="55.8314528" lon="48.9423182"><time>2021-04-17T08:31:24.980</time></trkpt><trkpt lat="55.8314452" lon="48.9424053"><time>2021-04-17T08:31:29.957</time></trkpt><trkpt lat="55.8314035" lon="48.9424591"><time>2021-04-17T08:31:34.963</time></trkpt><trkpt lat="55.8313650" lon="48.9424155"><time>2021-04-17T08:31:37.967</time></trkpt><trkpt lat="55.8313215" lon="48.9423674"><time>2021-04-17T08:31:40.960</time></trkpt><trkpt lat="55.8312719" lon="48.9423321"><time>2021-04-17T08:31:43.950</time></trkpt><trkpt lat="55.8312349" lon="48.9422403"><time>2021-04-17T08:31:46.950</time></trkpt><trkpt lat="55.8312065" lon="48.9421193"><time>2021-04-17T08:31:48.983</time></trkpt><trkpt lat="55.8311738" lon="48.9420212"><time>2021-04-17T08:31:50.967</time></trkpt><trkpt lat="55.8311429" lon="48.9419333"><time>2021-04-17T08:31:52.967</time></trkpt><trkpt lat="55.8311153" lon="48.9418503"><time>2021-04-17T08:31:54.963</time></trkpt><trkpt lat="55.8310990" lon="48.9417644"><time>2021-04-17T08:31:57.953</time></trkpt><trkpt lat="55.8310931" lon="48.9417376"><time>2021-04-17T08:32:43.667</time></trkpt><trkpt lat="55.8311990" lon="48.9398821"><time>2021-04-17T08:32:44.653</time></trkpt><trkpt lat="55.8310902" lon="48.9405107"><time>2021-04-17T08:32:45.643</time></trkpt><trkpt lat="55.8315724" lon="48.9401450"><time>2021-04-17T08:32:46.537</time></trkpt><trkpt lat="55.8312666" lon="48.9400189"><time>2021-04-17T08:32:47.630</time></trkpt><trkpt lat="55.8311417" lon="48.9403142"><time>2021-04-17T08:32:48.630</time></trkpt><trkpt lat="55.8310537" lon="48.9405686"><time>2021-04-17T08:32:49.563</time></trkpt><trkpt lat="55.8310047" lon="48.9407103"><time>2021-04-17T08:32:51.543</time></trkpt><trkpt lat="55.8309629" lon="48.9406770"><time>2021-04-17T08:32:56.027</time></trkpt><trkpt lat="55.8309643" lon="48.9406353"><time>2021-04-17T08:32:58.463</time></trkpt><trkpt lat="55.8309910" lon="48.9407423"><time>2021-04-17T08:33:05.563</time></trkpt><trkpt lat="55.8309653" lon="48.9408388"><time>2021-04-17T08:33:11.553</time></trkpt><trkpt lat="55.8309347" lon="48.9409358"><time>2021-04-17T08:33:14.543</time></trkpt><trkpt lat="55.8309236" lon="48.9410412"><time>2021-04-17T08:33:17.557</time></trkpt><trkpt lat="55.8309158" lon="48.9411226"><time>2021-04-17T08:33:19.563</time></trkpt><trkpt lat="55.8309283" lon="48.9412105"><time>2021-04-17T08:33:22.577</time></trkpt><trkpt lat="55.8309379" lon="48.9413140"><time>2021-04-17T08:33:25.547</time></trkpt><trkpt lat="55.8309359" lon="48.9414177"><time>2021-04-17T08:33:29.533</time></trkpt><trkpt lat="55.8309510" lon="48.9415263"><time>2021-04-17T08:33:32.533</time></trkpt><trkpt lat="55.8309456" lon="48.9416202"><time>2021-04-17T08:33:34.543</time></trkpt><trkpt lat="55.8309772" lon="48.9417005"><time>2021-04-17T08:33:37.543</time></trkpt><trkpt lat="55.8309751" lon="48.9417840"><time>2021-04-17T08:33:40.567</time></trkpt><trkpt lat="55.8309587" lon="48.9418631"><time>2021-04-17T08:33:42.580</time></trkpt><trkpt lat="55.8309811" lon="48.9419745"><time>2021-04-17T08:33:45.537</time></trkpt><trkpt lat="55.8310043" lon="48.9420653"><time>2021-04-17T08:33:48.570</time></trkpt><trkpt lat="55.8310281" lon="48.9421781"><time>2021-04-17T08:33:51.533</time></trkpt><trkpt lat="55.8310455" lon="48.9422603"><time>2021-04-17T08:33:53.557</time></trkpt><trkpt lat="55.8310611" lon="48.9423529"><time>2021-04-17T08:33:55.557</time></trkpt><trkpt lat="55.8310913" lon="48.9424410"><time>2021-04-17T08:33:57.613</time></trkpt><trkpt lat="55.8311338" lon="48.9425167"><time>2021-04-17T08:34:00.553</time></trkpt><trkpt lat="55.8311920" lon="48.9425652"><time>2021-04-17T08:34:03.543</time></trkpt><trkpt lat="55.8312508" lon="48.9426050"><time>2021-04-17T08:34:06.593</time></trkpt><trkpt lat="55.8312968" lon="48.9426496"><time>2021-04-17T08:34:09.580</time></trkpt><trkpt lat="55.8313083" lon="48.9425518"><time>2021-04-17T08:34:13.587</time></trkpt><trkpt lat="55.8313183" lon="48.9424414"><time>2021-04-17T08:34:16.547</time></trkpt><trkpt lat="55.8313516" lon="48.9423850"><time>2021-04-17T08:34:18.553</time></trkpt><trkpt lat="55.8314073" lon="48.9423303"><time>2021-04-17T08:34:21.570</time></trkpt><trkpt lat="55.8314525" lon="48.9422847"><time>2021-04-17T08:34:23.550</time></trkpt><trkpt lat="55.8314834" lon="48.9422263"><time>2021-04-17T08:34:25.570</time></trkpt><trkpt lat="55.8314947" lon="48.9421466"><time>2021-04-17T08:34:29.557</time></trkpt><trkpt lat="55.8315049" lon="48.9420518"><time>2021-04-17T08:34:33.557</time></trkpt><trkpt lat="55.8315143" lon="48.9419532"><time>2021-04-17T08:34:37.560</time></trkpt><trkpt lat="55.8315289" lon="48.9418593"><time>2021-04-17T08:34:41.550</time></trkpt><trkpt lat="55.8315507" lon="48.9417794"><time>2021-04-17T08:34:45.547</time></trkpt><trkpt lat="55.8315537" lon="48.9416832"><time>2021-04-17T08:34:50.560</time></trkpt><trkpt lat="55.8315554" lon="48.9415950"><time>2021-04-17T08:34:54.573</time></trkpt><trkpt lat="55.8315579" lon="48.9414990"><time>2021-04-17T08:34:58.560</time></trkpt><trkpt lat="55.8315649" lon="48.9414186"><time>2021-04-17T08:35:02.553</time></trkpt><trkpt lat="55.8315760" lon="48.9413346"><time>2021-04-17T08:35:06.553</time></trkpt><trkpt lat="55.8315738" lon="48.9412502"><time>2021-04-17T08:35:10.560</time></trkpt><trkpt lat="55.8315834" lon="48.9411540"><time>2021-04-17T08:35:15.553</time></trkpt><trkpt lat="55.8315997" lon="48.9410579"><time>2021-04-17T08:35:19.543</time></trkpt><trkpt lat="55.8316168" lon="48.9409733"><time>2021-04-17T08:35:24.560</time></trkpt><trkpt lat="55.8316370" lon="48.9408980"><time>2021-04-17T08:35:28.547</time></trkpt><trkpt lat="55.8316346" lon="48.9407994"><time>2021-04-17T08:35:33.560</time></trkpt><trkpt lat="55.8316379" lon="48.9407019"><time>2021-04-17T08:35:38.550</time></trkpt><trkpt lat="55.8316628" lon="48.9406271"><time>2021-04-17T08:35:42.567</time></trkpt><trkpt lat="55.8316543" lon="48.9405408"><time>2021-04-17T08:35:47.577</time></trkpt><trkpt lat="55.8316511" lon="48.9404525"><time>2021-04-17T08:35:51.563</time></trkpt><trkpt lat="55.8316525" lon="48.9403633"><time>2021-04-17T08:35:55.550</time></trkpt><trkpt lat="55.8316522" lon="48.9402603"><time>2021-04-17T08:36:00.553</time></trkpt><trkpt lat="55.8316830" lon="48.9402009"><time>2021-04-17T08:36:03.563</time></trkpt><trkpt lat="55.8317022" lon="48.9401131"><time>2021-04-17T08:36:07.577</time></trkpt><trkpt lat="55.8317076" lon="48.9400214"><time>2021-04-17T08:36:11.553</time></trkpt><trkpt lat="55.8317005" lon="48.9399356"><time>2021-04-17T08:36:16.550</time></trkpt><trkpt lat="55.8317282" lon="48.9398387"><time>2021-04-17T08:36:22.557</time></trkpt><trkpt lat="55.8317565" lon="48.9397534"><time>2021-04-17T08:36:26.553</time></trkpt><trkpt lat="55.8317843" lon="48.9396687"><time>2021-04-17T08:36:30.557</time></trkpt><trkpt lat="55.8318053" lon="48.9395974"><time>2021-04-17T08:36:33.550</time></trkpt><trkpt lat="55.8318431" lon="48.9395383"><time>2021-04-17T08:36:36.557</time></trkpt><trkpt lat="55.8318876" lon="48.9394887"><time>2021-04-17T08:36:40.533</time></trkpt><trkpt lat="55.8319253" lon="48.9394189"><time>2021-04-17T08:36:45.553</time></trkpt><trkpt lat="55.8319606" lon="48.9393338"><time>2021-04-17T08:36:50.560</time></trkpt><trkpt lat="55.8319732" lon="48.9392517"><time>2021-04-17T08:36:53.553</time></trkpt><trkpt lat="55.8319495" lon="48.9391714"><time>2021-04-17T08:36:55.577</time></trkpt><trkpt lat="55.8319248" lon="48.9390840"><time>2021-04-17T08:36:57.567</time></trkpt><trkpt lat="55.8319112" lon="48.9390061"><time>2021-04-17T08:36:59.530</time></trkpt><trkpt lat="55.8319128" lon="48.9388999"><time>2021-04-17T08:37:02.537</time></trkpt><trkpt lat="55.8319102" lon="48.9387996"><time>2021-04-17T08:37:05.553</time></trkpt><trkpt lat="55.8319033" lon="48.9387061"><time>2021-04-17T08:37:10.563</time></trkpt><trkpt lat="55.8318978" lon="48.9386220"><time>2021-04-17T08:37:13.560</time></trkpt><trkpt lat="55.8318890" lon="48.9385361"><time>2021-04-17T08:37:17.583</time></trkpt><trkpt lat="55.8318944" lon="48.9384566"><time>2021-04-17T08:37:20.540</time></trkpt><trkpt lat="55.8318950" lon="48.9383751"><time>2021-04-17T08:37:23.623</time></trkpt><trkpt lat="55.8318928" lon="48.9382774"><time>2021-04-17T08:37:26.540</time></trkpt><trkpt lat="55.8318872" lon="48.9381580"><time>2021-04-17T08:37:29.560</time></trkpt><trkpt lat="55.8318898" lon="48.9380638"><time>2021-04-17T08:37:31.550</time></trkpt><trkpt lat="55.8318906" lon="48.9379753"><time>2021-04-17T08:37:33.557</time></trkpt><trkpt lat="55.8318832" lon="48.9378933"><time>2021-04-17T08:37:35.537</time></trkpt><trkpt lat="55.8318797" lon="48.9378108"><time>2021-04-17T08:37:37.577</time></trkpt><trkpt lat="55.8318827" lon="48.9377196"><time>2021-04-17T08:37:39.557</time></trkpt><trkpt lat="55.8318850" lon="48.9376239"><time>2021-04-17T08:37:41.560</time></trkpt><trkpt lat="55.8318906" lon="48.9375300"><time>2021-04-17T08:37:43.557</time></trkpt><trkpt lat="55.8318903" lon="48.9374477"><time>2021-04-17T08:37:45.537</time></trkpt><trkpt lat="55.8318781" lon="48.9373366"><time>2021-04-17T08:37:48.570</time></trkpt><trkpt lat="55.8318594" lon="48.9372245"><time>2021-04-17T08:37:51.533</time></trkpt><trkpt lat="55.8318460" lon="48.9371072"><time>2021-04-17T08:37:54.567</time></trkpt><trkpt lat="55.8318435" lon="48.9370251"><time>2021-04-17T08:37:56.547</time></trkpt><trkpt lat="55.8318203" lon="48.9369562"><time>2021-04-17T08:37:58.527</time></trkpt><trkpt lat="55.8317717" lon="48.9368852"><time>2021-04-17T08:38:01.543</time></trkpt><trkpt lat="55.8317196" lon="48.9368265"><time>2021-04-17T08:38:04.537</time></trkpt><trkpt lat="55.8316774" lon="48.9367993"><time>2021-04-17T08:38:06.550</time></trkpt><trkpt lat="55.8316275" lon="48.9367742"><time>2021-04-17T08:38:08.580</time></trkpt><trkpt lat="55.8315722" lon="48.9367500"><time>2021-04-17T08:38:10.570</time></trkpt><trkpt lat="55.8315047" lon="48.9367555"><time>2021-04-17T08:38:13.547</time></trkpt><trkpt lat="55.8314547" lon="48.9367529"><time>2021-04-17T08:38:15.530</time></trkpt><trkpt lat="55.8314070" lon="48.9367472"><time>2021-04-17T08:38:17.547</time></trkpt><trkpt lat="55.8313628" lon="48.9367194"><time>2021-04-17T08:38:19.560</time></trkpt><trkpt lat="55.8313213" lon="48.9366760"><time>2021-04-17T08:38:21.563</time></trkpt><trkpt lat="55.8312776" lon="48.9366374"><time>2021-04-17T08:38:23.560</time></trkpt><trkpt lat="55.8312327" lon="48.9365969"><time>2021-04-17T08:38:25.533</time></trkpt><trkpt lat="55.8311741" lon="48.9365239"><time>2021-04-17T08:38:28.543</time></trkpt><trkpt lat="55.8311380" lon="48.9364622"><time>2021-04-17T08:38:30.563</time></trkpt><trkpt lat="55.8311018" lon="48.9364109"><time>2021-04-17T08:38:32.563</time></trkpt><trkpt lat="55.8310455" lon="48.9363383"><time>2021-04-17T08:38:35.563</time></trkpt><trkpt lat="55.8309992" lon="48.9362873"><time>2021-04-17T08:38:37.527</time></trkpt><trkpt lat="55.8309522" lon="48.9362634"><time>2021-04-17T08:38:39.573</time></trkpt><trkpt lat="55.8308944" lon="48.9362060"><time>2021-04-17T08:38:41.567</time></trkpt><trkpt lat="55.8308540" lon="48.9361480"><time>2021-04-17T08:38:43.567</time></trkpt><trkpt lat="55.8308166" lon="48.9360932"><time>2021-04-17T08:38:45.550</time></trkpt><trkpt lat="55.8307840" lon="48.9360354"><time>2021-04-17T08:38:47.573</time></trkpt><trkpt lat="55.8307344" lon="48.9359871"><time>2021-04-17T08:38:50.570</time></trkpt><trkpt lat="55.8306822" lon="48.9359232"><time>2021-04-17T08:38:53.563</time></trkpt><trkpt lat="55.8306251" lon="48.9358870"><time>2021-04-17T08:38:56.550</time></trkpt><trkpt lat="55.8305743" lon="48.9358611"><time>2021-04-17T08:38:58.567</time></trkpt><trkpt lat="55.8305350" lon="48.9358209"><time>2021-04-17T08:39:00.567</time></trkpt><trkpt lat="55.8304863" lon="48.9357550"><time>2021-04-17T08:39:03.543</time></trkpt><trkpt lat="55.8304328" lon="48.9357119"><time>2021-04-17T08:39:06.557</time></trkpt><trkpt lat="55.8303955" lon="48.9356651"><time>2021-04-17T08:39:09.560</time></trkpt><trkpt lat="55.8303542" lon="48.9356318"><time>2021-04-17T08:39:11.557</time></trkpt><trkpt lat="55.8303104" lon="48.9355655"><time>2021-04-17T08:39:14.527</time></trkpt><trkpt lat="55.8302980" lon="48.9354759"><time>2021-04-17T08:39:16.580</time></trkpt><trkpt lat="55.8302995" lon="48.9353918"><time>2021-04-17T08:39:18.560</time></trkpt><trkpt lat="55.8303075" lon="48.9352711"><time>2021-04-17T08:39:21.533</time></trkpt><trkpt lat="55.8303096" lon="48.9351612"><time>2021-04-17T08:39:24.550</time></trkpt><trkpt lat="55.8303246" lon="48.9350439"><time>2021-04-17T08:39:27.560</time></trkpt><trkpt lat="55.8303369" lon="48.9349609"><time>2021-04-17T08:39:29.547</time></trkpt><trkpt lat="55.8303326" lon="48.9348810"><time>2021-04-17T08:39:31.553</time></trkpt><trkpt lat="55.8303208" lon="48.9347701"><time>2021-04-17T08:39:34.563</time></trkpt><trkpt lat="55.8303177" lon="48.9346902"><time>2021-04-17T08:39:37.573</time></trkpt><trkpt lat="55.8302926" lon="48.9345745"><time>2021-04-17T08:39:40.557</time></trkpt><trkpt lat="55.8302756" lon="48.9344945"><time>2021-04-17T08:39:42.590</time></trkpt><trkpt lat="55.8302646" lon="48.9343979"><time>2021-04-17T08:39:44.547</time></trkpt><trkpt lat="55.8302603" lon="48.9343035"><time>2021-04-17T08:39:46.547</time></trkpt><trkpt lat="55.8302543" lon="48.9342186"><time>2021-04-17T08:39:48.553</time></trkpt><trkpt lat="55.8302678" lon="48.9341190"><time>2021-04-17T08:39:50.557</time></trkpt><trkpt lat="55.8302838" lon="48.9340358"><time>2021-04-17T08:39:52.553</time></trkpt><trkpt lat="55.8302991" lon="48.9339289"><time>2021-04-17T08:39:55.550</time></trkpt><trkpt lat="55.8303115" lon="48.9338417"><time>2021-04-17T08:39:57.550</time></trkpt><trkpt lat="55.8303159" lon="48.9337613"><time>2021-04-17T08:39:59.563</time></trkpt><trkpt lat="55.8303135" lon="48.9336776"><time>2021-04-17T08:40:01.547</time></trkpt><trkpt lat="55.8303143" lon="48.9335910"><time>2021-04-17T08:40:04.563</time></trkpt><trkpt lat="55.8303084" lon="48.9334809"><time>2021-04-17T08:40:07.573</time></trkpt><trkpt lat="55.8303002" lon="48.9333948"><time>2021-04-17T08:40:09.560</time></trkpt><trkpt lat="55.8303073" lon="48.9333138"><time>2021-04-17T08:40:11.570</time></trkpt><trkpt lat="55.8302995" lon="48.9332330"><time>2021-04-17T08:40:13.550</time></trkpt><trkpt lat="55.8302904" lon="48.9331482"><time>2021-04-17T08:40:15.533</time></trkpt><trkpt lat="55.8303094" lon="48.9330348"><time>2021-04-17T08:40:18.537</time></trkpt><trkpt lat="55.8303185" lon="48.9329427"><time>2021-04-17T08:40:20.543</time></trkpt><trkpt lat="55.8303213" lon="48.9328380"><time>2021-04-17T08:40:23.567</time></trkpt><trkpt lat="55.8303022" lon="48.9327512"><time>2021-04-17T08:40:26.547</time></trkpt><trkpt lat="55.8302971" lon="48.9326595"><time>2021-04-17T08:40:28.550</time></trkpt><trkpt lat="55.8302905" lon="48.9325795"><time>2021-04-17T08:40:30.540</time></trkpt><trkpt lat="55.8302787" lon="48.9324666"><time>2021-04-17T08:40:33.560</time></trkpt><trkpt lat="55.8302734" lon="48.9323800"><time>2021-04-17T08:40:35.550</time></trkpt><trkpt lat="55.8302709" lon="48.9322988"><time>2021-04-17T08:40:37.553</time></trkpt><trkpt lat="55.8302815" lon="48.9321918"><time>2021-04-17T08:40:40.557</time></trkpt><trkpt lat="55.8302785" lon="48.9320837"><time>2021-04-17T08:40:43.550</time></trkpt><trkpt lat="55.8302823" lon="48.9319978"><time>2021-04-17T08:40:45.580</time></trkpt><trkpt lat="55.8302924" lon="48.9319025"><time>2021-04-17T08:40:47.567</time></trkpt><trkpt lat="55.8303112" lon="48.9318056"><time>2021-04-17T08:40:49.553</time></trkpt><trkpt lat="55.8303446" lon="48.9317203"><time>2021-04-17T08:40:51.570</time></trkpt><trkpt lat="55.8303715" lon="48.9316198"><time>2021-04-17T08:40:53.550</time></trkpt><trkpt lat="55.8303867" lon="48.9315067"><time>2021-04-17T08:40:55.527</time></trkpt><trkpt lat="55.8304093" lon="48.9314244"><time>2021-04-17T08:40:57.533</time></trkpt><trkpt lat="55.8304223" lon="48.9313412"><time>2021-04-17T08:40:59.557</time></trkpt><trkpt lat="55.8304363" lon="48.9312555"><time>2021-04-17T08:41:01.550</time></trkpt><trkpt lat="55.8304424" lon="48.9311641"><time>2021-04-17T08:41:03.557</time></trkpt><trkpt lat="55.8304503" lon="48.9310597"><time>2021-04-17T08:41:06.537</time></trkpt><trkpt lat="55.8304453" lon="48.9309757"><time>2021-04-17T08:41:08.563</time></trkpt><trkpt lat="55.8304316" lon="48.9308837"><time>2021-04-17T08:41:10.573</time></trkpt><trkpt lat="55.8304208" lon="48.9307775"><time>2021-04-17T08:41:12.540</time></trkpt><trkpt lat="55.8304014" lon="48.9306952"><time>2021-04-17T08:41:14.550</time></trkpt><trkpt lat="55.8303850" lon="48.9306069"><time>2021-04-17T08:41:16.567</time></trkpt><trkpt lat="55.8303775" lon="48.9304892"><time>2021-04-17T08:41:19.563</time></trkpt><trkpt lat="55.8303633" lon="48.9304100"><time>2021-04-17T08:41:21.553</time></trkpt><trkpt lat="55.8303360" lon="48.9303353"><time>2021-04-17T08:41:23.553</time></trkpt><trkpt lat="55.8303032" lon="48.9302543"><time>2021-04-17T08:41:25.557</time></trkpt><trkpt lat="55.8302702" lon="48.9301834"><time>2021-04-17T08:41:27.597</time></trkpt><trkpt lat="55.8302346" lon="48.9301206"><time>2021-04-17T08:41:29.553</time></trkpt><trkpt lat="55.8301973" lon="48.9300321"><time>2021-04-17T08:41:32.563</time></trkpt><trkpt lat="55.8301553" lon="48.9299582"><time>2021-04-17T08:41:34.540</time></trkpt><trkpt lat="55.8301320" lon="48.9298847"><time>2021-04-17T08:41:36.553</time></trkpt><trkpt lat="55.8301041" lon="48.9298119"><time>2021-04-17T08:41:38.567</time></trkpt><trkpt lat="55.8300757" lon="48.9297260"><time>2021-04-17T08:41:40.553</time></trkpt><trkpt lat="55.8300481" lon="48.9296425"><time>2021-04-17T08:41:42.553</time></trkpt><trkpt lat="55.8300149" lon="48.9295587"><time>2021-04-17T08:41:44.553</time></trkpt><trkpt lat="55.8299826" lon="48.9294799"><time>2021-04-17T08:41:46.567</time></trkpt><trkpt lat="55.8299627" lon="48.9294035"><time>2021-04-17T08:41:48.583</time></trkpt><trkpt lat="55.8299200" lon="48.9293055"><time>2021-04-17T08:41:51.553</time></trkpt><trkpt lat="55.8298872" lon="48.9292184"><time>2021-04-17T08:41:53.557</time></trkpt><trkpt lat="55.8298551" lon="48.9291272"><time>2021-04-17T08:41:56.533</time></trkpt><trkpt lat="55.8298185" lon="48.9290631"><time>2021-04-17T08:41:58.570</time></trkpt><trkpt lat="55.8297824" lon="48.9290099"><time>2021-04-17T08:42:00.557</time></trkpt><trkpt lat="55.8297617" lon="48.9289447"><time>2021-04-17T08:43:09.750</time></trkpt><trkpt lat="55.8298364" lon="48.9293892"><time>2021-04-17T08:43:15.977</time></trkpt><trkpt lat="55.8296412" lon="48.9292482"><time>2021-04-17T08:43:16.967</time></trkpt><trkpt lat="55.8295971" lon="48.9290487"><time>2021-04-17T08:43:18</time></trkpt><trkpt lat="55.8295002" lon="48.9287158"><time>2021-04-17T08:43:18.970</time></trkpt><trkpt lat="55.8294632" lon="48.9284947"><time>2021-04-17T08:43:20.427</time></trkpt><trkpt lat="55.8294082" lon="48.9285665"><time>2021-04-17T08:43:21.433</time></trkpt><trkpt lat="55.8293561" lon="48.9286449"><time>2021-04-17T08:43:23.427</time></trkpt><trkpt lat="55.8293617" lon="48.9287340"><time>2021-04-17T08:43:26.450</time></trkpt><trkpt lat="55.8294030" lon="48.9287950"><time>2021-04-17T08:43:29.440</time></trkpt><trkpt lat="55.8294692" lon="48.9288521"><time>2021-04-17T08:43:31.440</time></trkpt><trkpt lat="55.8295341" lon="48.9289134"><time>2021-04-17T08:43:33.420</time></trkpt><trkpt lat="55.8295996" lon="48.9289546"><time>2021-04-17T08:43:35.443</time></trkpt><trkpt lat="55.8296549" lon="48.9289586"><time>2021-04-17T08:43:37.447</time></trkpt><trkpt lat="55.8297037" lon="48.9289511"><time>2021-04-17T08:43:39.427</time></trkpt><trkpt lat="55.8297467" lon="48.9288990"><time>2021-04-17T08:43:41.447</time></trkpt><trkpt lat="55.8298070" lon="48.9288485"><time>2021-04-17T08:43:43.427</time></trkpt><trkpt lat="55.8298501" lon="48.9287808"><time>2021-04-17T08:43:45.443</time></trkpt><trkpt lat="55.8299002" lon="48.9286820"><time>2021-04-17T08:43:47.443</time></trkpt><trkpt lat="55.8299286" lon="48.9285626"><time>2021-04-17T08:43:49.400</time></trkpt><trkpt lat="55.8299464" lon="48.9284356"><time>2021-04-17T08:43:51.403</time></trkpt><trkpt lat="55.8299685" lon="48.9283096"><time>2021-04-17T08:43:53.410</time></trkpt><trkpt lat="55.8300031" lon="48.9281964"><time>2021-04-17T08:43:55.417</time></trkpt><trkpt lat="55.8300370" lon="48.9280844"><time>2021-04-17T08:43:57.403</time></trkpt><trkpt lat="55.8300702" lon="48.9279786"><time>2021-04-17T08:43:59.443</time></trkpt><trkpt lat="55.8301068" lon="48.9278997"><time>2021-04-17T08:44:01.447</time></trkpt><trkpt lat="55.8301408" lon="48.9278202"><time>2021-04-17T08:44:03.430</time></trkpt><trkpt lat="55.8301601" lon="48.9277303"><time>2021-04-17T08:44:06.437</time></trkpt><trkpt lat="55.8301679" lon="48.9276268"><time>2021-04-17T08:44:09.433</time></trkpt><trkpt lat="55.8301913" lon="48.9275559"><time>2021-04-17T08:44:11.433</time></trkpt><trkpt lat="55.8302002" lon="48.9274397"><time>2021-04-17T08:44:14.430</time></trkpt><trkpt lat="55.8302209" lon="48.9273265"><time>2021-04-17T08:44:17.403</time></trkpt><trkpt lat="55.8302355" lon="48.9272477"><time>2021-04-17T08:44:19.473</time></trkpt><trkpt lat="55.8302532" lon="48.9271678"><time>2021-04-17T08:44:21.433</time></trkpt><trkpt lat="55.8302691" lon="48.9270863"><time>2021-04-17T08:44:23.430</time></trkpt><trkpt lat="55.8302967" lon="48.9269913"><time>2021-04-17T08:44:26.427</time></trkpt><trkpt lat="55.8303130" lon="48.9268788"><time>2021-04-17T08:44:29.423</time></trkpt><trkpt lat="55.8303336" lon="48.9268014"><time>2021-04-17T08:44:31.430</time></trkpt><trkpt lat="55.8303553" lon="48.9267035"><time>2021-04-17T08:44:33.420</time></trkpt><trkpt lat="55.8303692" lon="48.9266132"><time>2021-04-17T08:44:35.433</time></trkpt><trkpt lat="55.8303788" lon="48.9265233"><time>2021-04-17T08:44:37.407</time></trkpt><trkpt lat="55.8303958" lon="48.9264297"><time>2021-04-17T08:44:39.433</time></trkpt><trkpt lat="55.8304067" lon="48.9263392"><time>2021-04-17T08:44:41.433</time></trkpt><trkpt lat="55.8304019" lon="48.9262527"><time>2021-04-17T08:44:43.457</time></trkpt><trkpt lat="55.8304051" lon="48.9261382"><time>2021-04-17T08:44:46.450</time></trkpt><trkpt lat="55.8304163" lon="48.9260339"><time>2021-04-17T08:44:49.437</time></trkpt><trkpt lat="55.8304371" lon="48.9259183"><time>2021-04-17T08:44:52.430</time></trkpt><trkpt lat="55.8304570" lon="48.9258279"><time>2021-04-17T08:44:54.400</time></trkpt><trkpt lat="55.8304907" lon="48.9257304"><time>2021-04-17T08:44:56.450</time></trkpt><trkpt lat="55.8305187" lon="48.9256454"><time>2021-04-17T08:44:58.447</time></trkpt><trkpt lat="55.8305415" lon="48.9255310"><time>2021-04-17T08:45:01.437</time></trkpt><trkpt lat="55.8305647" lon="48.9254270"><time>2021-04-17T08:45:04.433</time></trkpt><trkpt lat="55.8305916" lon="48.9253567"><time>2021-04-17T08:45:06.437</time></trkpt><trkpt lat="55.8306178" lon="48.9252500"><time>2021-04-17T08:45:09.433</time></trkpt><trkpt lat="55.8306494" lon="48.9251559"><time>2021-04-17T08:45:12.437</time></trkpt><trkpt lat="55.8306636" lon="48.9250758"><time>2021-04-17T08:45:14.437</time></trkpt><trkpt lat="55.8306783" lon="48.9249437"><time>2021-04-17T08:45:16.413</time></trkpt><trkpt lat="55.8306636" lon="48.9248304"><time>2021-04-17T08:45:18.420</time></trkpt><trkpt lat="55.8306368" lon="48.9246931"><time>2021-04-17T08:45:20.423</time></trkpt><trkpt lat="55.8306252" lon="48.9245968"><time>2021-04-17T08:45:22.433</time></trkpt><trkpt lat="55.8306174" lon="48.9244970"><time>2021-04-17T08:45:25.433</time></trkpt><trkpt lat="55.8306055" lon="48.9243836"><time>2021-04-17T08:45:28.423</time></trkpt><trkpt lat="55.8305851" lon="48.9242843"><time>2021-04-17T08:45:31.437</time></trkpt><trkpt lat="55.8305755" lon="48.9241522"><time>2021-04-17T08:45:34.443</time></trkpt><trkpt lat="55.8305637" lon="48.9240624"><time>2021-04-17T08:45:36.437</time></trkpt><trkpt lat="55.8305335" lon="48.9239521"><time>2021-04-17T08:45:39.437</time></trkpt><trkpt lat="55.8305017" lon="48.9238756"><time>2021-04-17T08:45:41.437</time></trkpt><trkpt lat="55.8304780" lon="48.9237657"><time>2021-04-17T08:45:43.420</time></trkpt><trkpt lat="55.8304613" lon="48.9236567"><time>2021-04-17T08:45:45.457</time></trkpt><trkpt lat="55.8304554" lon="48.9235600"><time>2021-04-17T08:45:47.440</time></trkpt><trkpt lat="55.8304600" lon="48.9234629"><time>2021-04-17T08:45:49.427</time></trkpt><trkpt lat="55.8305011" lon="48.9234060"><time>2021-04-17T08:45:53.413</time></trkpt><trkpt lat="55.8305465" lon="48.9234185"><time>2021-04-17T08:45:56.413</time></trkpt><trkpt lat="55.8305969" lon="48.9233809"><time>2021-04-17T08:45:58.413</time></trkpt><trkpt lat="55.8305969" lon="48.9233809"><time>2021-04-17T08:45:58.803</time></trkpt><trkpt lat="55.8306249" lon="48.9233152"><time>2021-04-17T08:46:00.407</time></trkpt><trkpt lat="55.8306771" lon="48.9233359"><time>2021-04-17T08:46:04.500</time></trkpt><trkpt lat="55.8306125" lon="48.9233571"><time>2021-04-17T08:46:11.410</time></trkpt><trkpt lat="55.8305531" lon="48.9232885"><time>2021-04-17T08:46:14.433</time></trkpt><trkpt lat="55.8305235" lon="48.9232045"><time>2021-04-17T08:46:16.457</time></trkpt><trkpt lat="55.8305062" lon="48.9231236"><time>2021-04-17T08:46:18.433</time></trkpt><trkpt lat="55.8304826" lon="48.9230276"><time>2021-04-17T08:46:21.430</time></trkpt><trkpt lat="55.8304579" lon="48.9229276"><time>2021-04-17T08:46:24.437</time></trkpt><trkpt lat="55.8304374" lon="48.9228407"><time>2021-04-17T08:46:26.420</time></trkpt><trkpt lat="55.8304192" lon="48.9227529"><time>2021-04-17T08:46:28.417</time></trkpt><trkpt lat="55.8304060" lon="48.9226669"><time>2021-04-17T08:46:30.427</time></trkpt><trkpt lat="55.8304000" lon="48.9225859"><time>2021-04-17T08:46:32.403</time></trkpt><trkpt lat="55.8303792" lon="48.9224682"><time>2021-04-17T08:46:35.423</time></trkpt><trkpt lat="55.8303497" lon="48.9223846"><time>2021-04-17T08:46:37.417</time></trkpt><trkpt lat="55.8303405" lon="48.9222780"><time>2021-04-17T08:46:39.420</time></trkpt><trkpt lat="55.8303275" lon="48.9221620"><time>2021-04-17T08:46:41.450</time></trkpt><trkpt lat="55.8303235" lon="48.9220451"><time>2021-04-17T08:46:43.420</time></trkpt><trkpt lat="55.8303192" lon="48.9219330"><time>2021-04-17T08:46:45.423</time></trkpt><trkpt lat="55.8303222" lon="48.9218532"><time>2021-04-17T08:46:47.423</time></trkpt><trkpt lat="55.8303388" lon="48.9217441"><time>2021-04-17T08:46:50.433</time></trkpt><trkpt lat="55.8303237" lon="48.9216462"><time>2021-04-17T08:46:52.437</time></trkpt><trkpt lat="55.8302976" lon="48.9215560"><time>2021-04-17T08:46:54.420</time></trkpt><trkpt lat="55.8302657" lon="48.9214590"><time>2021-04-17T08:46:57.447</time></trkpt><trkpt lat="55.8302497" lon="48.9213802"><time>2021-04-17T08:46:59.417</time></trkpt><trkpt lat="55.8302359" lon="48.9212951"><time>2021-04-17T08:47:01.423</time></trkpt><trkpt lat="55.8302112" lon="48.9212041"><time>2021-04-17T08:47:03.433</time></trkpt><trkpt lat="55.8301731" lon="48.9210868"><time>2021-04-17T08:47:05.440</time></trkpt><trkpt lat="55.8301399" lon="48.9209775"><time>2021-04-17T08:47:07.437</time></trkpt><trkpt lat="55.8301184" lon="48.9208938"><time>2021-04-17T08:47:09.433</time></trkpt><trkpt lat="55.8300967" lon="48.9208045"><time>2021-04-17T08:47:11.430</time></trkpt><trkpt lat="55.8300776" lon="48.9207309"><time>2021-04-17T08:47:13.427</time></trkpt><trkpt lat="55.8300482" lon="48.9206377"><time>2021-04-17T08:47:16.457</time></trkpt><trkpt lat="55.8300296" lon="48.9205592"><time>2021-04-17T08:47:18.437</time></trkpt><trkpt lat="55.8300079" lon="48.9204642"><time>2021-04-17T08:47:20.437</time></trkpt><trkpt lat="55.8300019" lon="48.9203699"><time>2021-04-17T08:47:22.433</time></trkpt><trkpt lat="55.8299854" lon="48.9202809"><time>2021-04-17T08:47:24.430</time></trkpt><trkpt lat="55.8299647" lon="48.9201836"><time>2021-04-17T08:47:26.433</time></trkpt><trkpt lat="55.8299467" lon="48.9200974"><time>2021-04-17T08:47:28.413</time></trkpt><trkpt lat="55.8299246" lon="48.9199834"><time>2021-04-17T08:47:31.430</time></trkpt><trkpt lat="55.8298903" lon="48.9199029"><time>2021-04-17T08:47:34.473</time></trkpt><trkpt lat="55.8298718" lon="48.9198123"><time>2021-04-17T08:47:37.437</time></trkpt><trkpt lat="55.8298723" lon="48.9197193"><time>2021-04-17T08:47:39.417</time></trkpt><trkpt lat="55.8298646" lon="48.9196188"><time>2021-04-17T08:47:41.440</time></trkpt><trkpt lat="55.8298446" lon="48.9195219"><time>2021-04-17T08:47:44.437</time></trkpt><trkpt lat="55.8298235" lon="48.9194164"><time>2021-04-17T08:47:47.407</time></trkpt><trkpt lat="55.8298009" lon="48.9193196"><time>2021-04-17T08:47:50.437</time></trkpt><trkpt lat="55.8297807" lon="48.9192456"><time>2021-04-17T08:47:52.430</time></trkpt><trkpt lat="55.8297580" lon="48.9191694"><time>2021-04-17T08:47:54.427</time></trkpt><trkpt lat="55.8297147" lon="48.9190866"><time>2021-04-17T08:47:56.440</time></trkpt><trkpt lat="55.8296681" lon="48.9190105"><time>2021-04-17T08:47:58.443</time></trkpt><trkpt lat="55.8296193" lon="48.9189375"><time>2021-04-17T08:48:00.403</time></trkpt><trkpt lat="55.8295727" lon="48.9188331"><time>2021-04-17T08:48:02.440</time></trkpt><trkpt lat="55.8295386" lon="48.9187578"><time>2021-04-17T08:48:04.423</time></trkpt><trkpt lat="55.8294963" lon="48.9186884"><time>2021-04-17T08:48:06.430</time></trkpt><trkpt lat="55.8294533" lon="48.9186229"><time>2021-04-17T08:48:08.430</time></trkpt><trkpt lat="55.8294120" lon="48.9185556"><time>2021-04-17T08:48:10.427</time></trkpt><trkpt lat="55.8293759" lon="48.9184903"><time>2021-04-17T08:48:12.427</time></trkpt><trkpt lat="55.8293350" lon="48.9184227"><time>2021-04-17T08:48:14.440</time></trkpt><trkpt lat="55.8292844" lon="48.9183470"><time>2021-04-17T08:48:16.447</time></trkpt><trkpt lat="55.8292465" lon="48.9182950"><time>2021-04-17T08:48:18.430</time></trkpt><trkpt lat="55.8292094" lon="48.9182336"><time>2021-04-17T08:48:20.420</time></trkpt><trkpt lat="55.8291689" lon="48.9181886"><time>2021-04-17T08:48:22.430</time></trkpt><trkpt lat="55.8291174" lon="48.9181475"><time>2021-04-17T08:48:25.427</time></trkpt><trkpt lat="55.8290757" lon="48.9181168"><time>2021-04-17T08:48:27.463</time></trkpt><trkpt lat="55.8290256" lon="48.9180836"><time>2021-04-17T08:48:29.427</time></trkpt><trkpt lat="55.8289724" lon="48.9180332"><time>2021-04-17T08:48:31.447</time></trkpt><trkpt lat="55.8289260" lon="48.9179834"><time>2021-04-17T08:48:33.420</time></trkpt><trkpt lat="55.8288751" lon="48.9179113"><time>2021-04-17T08:48:35.427</time></trkpt><trkpt lat="55.8288472" lon="48.9178382"><time>2021-04-17T08:48:37.430</time></trkpt><trkpt lat="55.8288207" lon="48.9177576"><time>2021-04-17T08:48:39.437</time></trkpt><trkpt lat="55.8287967" lon="48.9176844"><time>2021-04-17T08:48:41.417</time></trkpt><trkpt lat="55.8287650" lon="48.9176188"><time>2021-04-17T08:48:43.427</time></trkpt><trkpt lat="55.8287346" lon="48.9175470"><time>2021-04-17T08:48:45.427</time></trkpt><trkpt lat="55.8287065" lon="48.9174784"><time>2021-04-17T08:48:47.397</time></trkpt><trkpt lat="55.8286779" lon="48.9174096"><time>2021-04-17T08:48:49.430</time></trkpt><trkpt lat="55.8286456" lon="48.9173478"><time>2021-04-17T08:48:51.430</time></trkpt><trkpt lat="55.8286124" lon="48.9172805"><time>2021-04-17T08:48:53.433</time></trkpt><trkpt lat="55.8285744" lon="48.9172014"><time>2021-04-17T08:48:55.457</time></trkpt><trkpt lat="55.8285361" lon="48.9171136"><time>2021-04-17T08:48:57.427</time></trkpt><trkpt lat="55.8284961" lon="48.9170243"><time>2021-04-17T08:48:59.430</time></trkpt><trkpt lat="55.8284570" lon="48.9169451"><time>2021-04-17T08:49:01.403</time></trkpt><trkpt lat="55.8284196" lon="48.9168915"><time>2021-04-17T08:49:03.417</time></trkpt><trkpt lat="55.8283782" lon="48.9168336"><time>2021-04-17T08:49:06.427</time></trkpt><trkpt lat="55.8283264" lon="48.9168033"><time>2021-04-17T08:49:10.437</time></trkpt><trkpt lat="55.8282812" lon="48.9167710"><time>2021-04-17T08:49:12.437</time></trkpt><trkpt lat="55.8282262" lon="48.9167368"><time>2021-04-17T08:49:14.437</time></trkpt><trkpt lat="55.8281791" lon="48.9167001"><time>2021-04-17T08:49:16.453</time></trkpt><trkpt lat="55.8281324" lon="48.9166739"><time>2021-04-17T08:49:18.420</time></trkpt><trkpt lat="55.8280724" lon="48.9166268"><time>2021-04-17T08:49:20.423</time></trkpt><trkpt lat="55.8280114" lon="48.9165825"><time>2021-04-17T08:49:22.433</time></trkpt><trkpt lat="55.8279658" lon="48.9165434"><time>2021-04-17T08:49:24.437</time></trkpt><trkpt lat="55.8279231" lon="48.9164911"><time>2021-04-17T08:49:27.437</time></trkpt><trkpt lat="55.8278583" lon="48.9164667"><time>2021-04-17T08:49:30.427</time></trkpt><trkpt lat="55.8277973" lon="48.9164465"><time>2021-04-17T08:49:33.427</time></trkpt><trkpt lat="55.8277482" lon="48.9164802"><time>2021-04-17T08:49:35.440</time></trkpt><trkpt lat="55.8277184" lon="48.9165545"><time>2021-04-17T08:49:37.440</time></trkpt><trkpt lat="55.8276931" lon="48.9166353"><time>2021-04-17T08:49:39.427</time></trkpt><trkpt lat="55.8276488" lon="48.9167206"><time>2021-04-17T08:49:42.427</time></trkpt><trkpt lat="55.8276026" lon="48.9167923"><time>2021-04-17T08:49:44.427</time></trkpt><trkpt lat="55.8275468" lon="48.9168463"><time>2021-04-17T08:49:46.440</time></trkpt><trkpt lat="55.8274992" lon="48.9168860"><time>2021-04-17T08:49:48.440</time></trkpt><trkpt lat="55.8274547" lon="48.9169289"><time>2021-04-17T08:49:50.427</time></trkpt><trkpt lat="55.8273938" lon="48.9169876"><time>2021-04-17T08:49:52.777</time></trkpt><trkpt lat="55.8273691" lon="48.9170711"><time>2021-04-17T08:49:54.413</time></trkpt><trkpt lat="55.8273563" lon="48.9171786"><time>2021-04-17T08:49:56.413</time></trkpt><trkpt lat="55.8273337" lon="48.9172515"><time>2021-04-17T08:49:58.407</time></trkpt><trkpt lat="55.8272742" lon="48.9172475"><time>2021-04-17T08:50:01.417</time></trkpt><trkpt lat="55.8272511" lon="48.9172482"><time>2021-04-17T08:50:03.210</time></trkpt><trkpt lat="55.8272271" lon="48.9172316"><time>2021-04-17T08:50:04.400</time></trkpt><trkpt lat="55.8272740" lon="48.9172191"><time>2021-04-17T08:50:15.413</time></trkpt><trkpt lat="55.8273153" lon="48.9172862"><time>2021-04-17T08:50:21.403</time></trkpt><trkpt lat="55.8273318" lon="48.9173693"><time>2021-04-17T08:50:24.447</time></trkpt><trkpt lat="55.8273135" lon="48.9174561"><time>2021-04-17T08:50:29.403</time></trkpt><trkpt lat="55.8273063" lon="48.9175479"><time>2021-04-17T08:50:34.407</time></trkpt><trkpt lat="55.8272807" lon="48.9176231"><time>2021-04-17T08:50:36.403</time></trkpt><trkpt lat="55.8272541" lon="48.9177106"><time>2021-04-17T08:50:38.407</time></trkpt><trkpt lat="55.8272637" lon="48.9178200"><time>2021-04-17T08:50:40.407</time></trkpt><trkpt lat="55.8272892" lon="48.9178926"><time>2021-04-17T08:50:42.417</time></trkpt><trkpt lat="55.8273126" lon="48.9179919"><time>2021-04-17T08:50:44.403</time></trkpt><trkpt lat="55.8273369" lon="48.9180922"><time>2021-04-17T08:50:46.443</time></trkpt><trkpt lat="55.8273730" lon="48.9181692"><time>2021-04-17T08:50:48.400</time></trkpt><trkpt lat="55.8274107" lon="48.9182766"><time>2021-04-17T08:50:51.413</time></trkpt><trkpt lat="55.8274293" lon="48.9183655"><time>2021-04-17T08:50:53.403</time></trkpt><trkpt lat="55.8274539" lon="48.9184637"><time>2021-04-17T08:50:55.397</time></trkpt><trkpt lat="55.8274815" lon="48.9185416"><time>2021-04-17T08:50:57.430</time></trkpt><trkpt lat="55.8275127" lon="48.9186338"><time>2021-04-17T08:50:59.437</time></trkpt><trkpt lat="55.8275378" lon="48.9187529"><time>2021-04-17T08:51:02.447</time></trkpt><trkpt lat="55.8275467" lon="48.9188355"><time>2021-04-17T08:51:04.447</time></trkpt><trkpt lat="55.8275500" lon="48.9189341"><time>2021-04-17T08:51:07.400</time></trkpt><trkpt lat="55.8275366" lon="48.9190257"><time>2021-04-17T08:51:10.433</time></trkpt><trkpt lat="55.8275230" lon="48.9191093"><time>2021-04-17T08:51:12.427</time></trkpt><trkpt lat="55.8275007" lon="48.9192183"><time>2021-04-17T08:51:15.437</time></trkpt><trkpt lat="55.8274829" lon="48.9193038"><time>2021-04-17T08:51:17.433</time></trkpt><trkpt lat="55.8274611" lon="48.9193750"><time>2021-04-17T08:51:19.420</time></trkpt><trkpt lat="55.8274429" lon="48.9194866"><time>2021-04-17T08:51:22.447</time></trkpt><trkpt lat="55.8274252" lon="48.9195692"><time>2021-04-17T08:51:24.433</time></trkpt><trkpt lat="55.8274065" lon="48.9196474"><time>2021-04-17T08:51:26.437</time></trkpt><trkpt lat="55.8273850" lon="48.9197423"><time>2021-04-17T08:51:29.417</time></trkpt><trkpt lat="55.8273696" lon="48.9198196"><time>2021-04-17T08:51:31.433</time></trkpt><trkpt lat="55.8273517" lon="48.9199365"><time>2021-04-17T08:51:34.427</time></trkpt><trkpt lat="55.8273301" lon="48.9200423"><time>2021-04-17T08:51:37.427</time></trkpt><trkpt lat="55.8273127" lon="48.9201178"><time>2021-04-17T08:51:39.437</time></trkpt><trkpt lat="55.8272993" lon="48.9202428"><time>2021-04-17T08:51:42.400</time></trkpt><trkpt lat="55.8272972" lon="48.9203300"><time>2021-04-17T08:51:44.407</time></trkpt><trkpt lat="55.8272999" lon="48.9204239"><time>2021-04-17T08:51:46.437</time></trkpt><trkpt lat="55.8272955" lon="48.9205130"><time>2021-04-17T08:51:48.437</time></trkpt><trkpt lat="55.8272854" lon="48.9206294"><time>2021-04-17T08:51:51.423</time></trkpt><trkpt lat="55.8272742" lon="48.9207129"><time>2021-04-17T08:51:53.423</time></trkpt><trkpt lat="55.8272630" lon="48.9207911"><time>2021-04-17T08:51:55.437</time></trkpt><trkpt lat="55.8272499" lon="48.9208746"><time>2021-04-17T08:51:57.427</time></trkpt><trkpt lat="55.8272298" lon="48.9209525"><time>2021-04-17T08:51:59.423</time></trkpt><trkpt lat="55.8272259" lon="48.9210354"><time>2021-04-17T08:52:01.437</time></trkpt><trkpt lat="55.8272063" lon="48.9211385"><time>2021-04-17T08:52:03.403</time></trkpt><trkpt lat="55.8271865" lon="48.9212109"><time>2021-04-17T08:52:05.427</time></trkpt><trkpt lat="55.8271658" lon="48.9213236"><time>2021-04-17T08:52:08.423</time></trkpt><trkpt lat="55.8271517" lon="48.9214220"><time>2021-04-17T08:52:11.457</time></trkpt><trkpt lat="55.8271440" lon="48.9215338"><time>2021-04-17T08:52:14.427</time></trkpt><trkpt lat="55.8271306" lon="48.9216231"><time>2021-04-17T08:52:16.430</time></trkpt><trkpt lat="55.8271224" lon="48.9217161"><time>2021-04-17T08:52:19.480</time></trkpt><trkpt lat="55.8271094" lon="48.9218341"><time>2021-04-17T08:52:22.443</time></trkpt><trkpt lat="55.8270911" lon="48.9219170"><time>2021-04-17T08:52:24.437</time></trkpt><trkpt lat="55.8270660" lon="48.9219940"><time>2021-04-17T08:52:26.430</time></trkpt><trkpt lat="55.8270370" lon="48.9220838"><time>2021-04-17T08:52:29.453</time></trkpt><trkpt lat="55.8270281" lon="48.9221971"><time>2021-04-17T08:52:32.427</time></trkpt><trkpt lat="55.8270232" lon="48.9222794"><time>2021-04-17T08:52:34.400</time></trkpt><trkpt lat="55.8269942" lon="48.9223745"><time>2021-04-17T08:52:36.400</time></trkpt><trkpt lat="55.8269765" lon="48.9224591"><time>2021-04-17T08:52:38.423</time></trkpt><trkpt lat="55.8269652" lon="48.9225441"><time>2021-04-17T08:52:40.433</time></trkpt><trkpt lat="55.8269547" lon="48.9226236"><time>2021-04-17T08:52:42.400</time></trkpt><trkpt lat="55.8269320" lon="48.9227217"><time>2021-04-17T08:52:45.427</time></trkpt><trkpt lat="55.8269135" lon="48.9228290"><time>2021-04-17T08:52:48.427</time></trkpt><trkpt lat="55.8269022" lon="48.9229065"><time>2021-04-17T08:52:50.443</time></trkpt><trkpt lat="55.8268819" lon="48.9230206"><time>2021-04-17T08:52:53.443</time></trkpt><trkpt lat="55.8268650" lon="48.9231099"><time>2021-04-17T08:52:55.443</time></trkpt><trkpt lat="55.8268468" lon="48.9231926"><time>2021-04-17T08:52:57.397</time></trkpt><trkpt lat="55.8268234" lon="48.9232729"><time>2021-04-17T08:52:59.427</time></trkpt><trkpt lat="55.8267979" lon="48.9233695"><time>2021-04-17T08:53:02.430</time></trkpt><trkpt lat="55.8267782" lon="48.9234483"><time>2021-04-17T08:53:04.447</time></trkpt><trkpt lat="55.8267550" lon="48.9235337"><time>2021-04-17T08:53:06.423</time></trkpt><trkpt lat="55.8267399" lon="48.9236351"><time>2021-04-17T08:53:09.433</time></trkpt><trkpt lat="55.8267320" lon="48.9237344"><time>2021-04-17T08:53:12.427</time></trkpt><trkpt lat="55.8267212" lon="48.9238124"><time>2021-04-17T08:53:14.433</time></trkpt><trkpt lat="55.8266881" lon="48.9239016"><time>2021-04-17T08:53:16.430</time></trkpt><trkpt lat="55.8266602" lon="48.9239733"><time>2021-04-17T08:53:18.447</time></trkpt><trkpt lat="55.8266416" lon="48.9240741"><time>2021-04-17T08:53:21.430</time></trkpt><trkpt lat="55.8266266" lon="48.9241510"><time>2021-04-17T08:53:23.430</time></trkpt><trkpt lat="55.8265978" lon="48.9242603"><time>2021-04-17T08:53:26.430</time></trkpt><trkpt lat="55.8265893" lon="48.9243423"><time>2021-04-17T08:53:28.433</time></trkpt><trkpt lat="55.8265710" lon="48.9244392"><time>2021-04-17T08:53:31.433</time></trkpt><trkpt lat="55.8265576" lon="48.9245614"><time>2021-04-17T08:53:34.420</time></trkpt><trkpt lat="55.8265419" lon="48.9246512"><time>2021-04-17T08:53:36.433</time></trkpt><trkpt lat="55.8265316" lon="48.9247615"><time>2021-04-17T08:53:39.450</time></trkpt><trkpt lat="55.8265165" lon="48.9248750"><time>2021-04-17T08:53:42.433</time></trkpt><trkpt lat="55.8265095" lon="48.9249642"><time>2021-04-17T08:53:44.430</time></trkpt><trkpt lat="55.8264919" lon="48.9250720"><time>2021-04-17T08:53:47.450</time></trkpt><trkpt lat="55.8264688" lon="48.9251817"><time>2021-04-17T08:53:50.423</time></trkpt><trkpt lat="55.8264484" lon="48.9252548"><time>2021-04-17T08:53:52.473</time></trkpt><trkpt lat="55.8264300" lon="48.9253297"><time>2021-04-17T08:53:54.433</time></trkpt><trkpt lat="55.8264107" lon="48.9254374"><time>2021-04-17T08:53:57.443</time></trkpt><trkpt lat="55.8263945" lon="48.9255171"><time>2021-04-17T08:53:59.420</time></trkpt><trkpt lat="55.8263702" lon="48.9256006"><time>2021-04-17T08:54:01.437</time></trkpt><trkpt lat="55.8263548" lon="48.9256980"><time>2021-04-17T08:54:04.433</time></trkpt><trkpt lat="55.8263402" lon="48.9258058"><time>2021-04-17T08:54:07.447</time></trkpt><trkpt lat="55.8263326" lon="48.9258883"><time>2021-04-17T08:54:09.430</time></trkpt><trkpt lat="55.8263215" lon="48.9259922"><time>2021-04-17T08:54:11.413</time></trkpt><trkpt lat="55.8263168" lon="48.9261041"><time>2021-04-17T08:54:14.403</time></trkpt><trkpt lat="55.8262961" lon="48.9262053"><time>2021-04-17T08:54:17.423</time></trkpt><trkpt lat="55.8262729" lon="48.9262960"><time>2021-04-17T08:54:20.443</time></trkpt><trkpt lat="55.8262529" lon="48.9263695"><time>2021-04-17T08:54:23.407</time></trkpt><trkpt lat="55.8262257" lon="48.9264611"><time>2021-04-17T08:54:27.427</time></trkpt><trkpt lat="55.8262061" lon="48.9265548"><time>2021-04-17T08:54:30.460</time></trkpt><trkpt lat="55.8261976" lon="48.9266511"><time>2021-04-17T08:54:34.427</time></trkpt><trkpt lat="55.8261992" lon="48.9267537"><time>2021-04-17T08:54:38.427</time></trkpt><trkpt lat="55.8261873" lon="48.9268637"><time>2021-04-17T08:54:41.427</time></trkpt><trkpt lat="55.8261617" lon="48.9269645"><time>2021-04-17T08:54:44.427</time></trkpt><trkpt lat="55.8261500" lon="48.9270689"><time>2021-04-17T08:54:47.427</time></trkpt><trkpt lat="55.8261385" lon="48.9271465"><time>2021-04-17T08:54:49.427</time></trkpt><trkpt lat="55.8261213" lon="48.9272266"><time>2021-04-17T08:54:52.423</time></trkpt><trkpt lat="55.8261025" lon="48.9273025"><time>2021-04-17T08:54:57.413</time></trkpt><trkpt lat="55.8260812" lon="48.9274091"><time>2021-04-17T08:55:08.430</time></trkpt><trkpt lat="55.8260650" lon="48.9274965"><time>2021-04-17T08:55:11.810</time></trkpt><trkpt lat="55.8260328" lon="48.9275739"><time>2021-04-17T08:55:14.403</time></trkpt><trkpt lat="55.8259977" lon="48.9276336"><time>2021-04-17T08:55:17.400</time></trkpt><trkpt lat="55.8259856" lon="48.9277117"><time>2021-04-17T08:55:20.427</time></trkpt><trkpt lat="55.8259817" lon="48.9277916"><time>2021-04-17T08:55:22.417</time></trkpt><trkpt lat="55.8259776" lon="48.9278816"><time>2021-04-17T08:55:24.417</time></trkpt><trkpt lat="55.8259629" lon="48.9280044"><time>2021-04-17T08:55:27.420</time></trkpt><trkpt lat="55.8259441" lon="48.9281012"><time>2021-04-17T08:55:29.443</time></trkpt><trkpt lat="55.8259256" lon="48.9282167"><time>2021-04-17T08:55:32.430</time></trkpt><trkpt lat="55.8259182" lon="48.9282973"><time>2021-04-17T08:55:34.433</time></trkpt><trkpt lat="55.8259095" lon="48.9283782"><time>2021-04-17T08:55:36.437</time></trkpt><trkpt lat="55.8258935" lon="48.9284679"><time>2021-04-17T08:55:38.437</time></trkpt><trkpt lat="55.8258669" lon="48.9285555"><time>2021-04-17T08:55:40.443</time></trkpt><trkpt lat="55.8258423" lon="48.9286449"><time>2021-04-17T08:55:42.430</time></trkpt><trkpt lat="55.8258228" lon="48.9287310"><time>2021-04-17T08:55:44.433</time></trkpt><trkpt lat="55.8258135" lon="48.9288419"><time>2021-04-17T08:55:47.423</time></trkpt><trkpt lat="55.8258031" lon="48.9289375"><time>2021-04-17T08:55:50.427</time></trkpt><trkpt lat="55.8258184" lon="48.9290138"><time>2021-04-17T08:55:54.440</time></trkpt><trkpt lat="55.8258525" lon="48.9290832"><time>2021-04-17T08:55:57.460</time></trkpt><trkpt lat="55.8259023" lon="48.9291135"><time>2021-04-17T08:56:00.437</time></trkpt><trkpt lat="55.8259523" lon="48.9291566"><time>2021-04-17T08:56:03.423</time></trkpt><trkpt lat="55.8260011" lon="48.9292201"><time>2021-04-17T08:56:06.437</time></trkpt><trkpt lat="55.8260583" lon="48.9292706"><time>2021-04-17T08:56:09.410</time></trkpt><trkpt lat="55.8261043" lon="48.9292943"><time>2021-04-17T08:56:11.427</time></trkpt><trkpt lat="55.8261525" lon="48.9293293"><time>2021-04-17T08:56:13.427</time></trkpt><trkpt lat="55.8262064" lon="48.9293589"><time>2021-04-17T08:56:15.427</time></trkpt><trkpt lat="55.8262543" lon="48.9293957"><time>2021-04-17T08:56:17.427</time></trkpt><trkpt lat="55.8263055" lon="48.9294200"><time>2021-04-17T08:56:19.427</time></trkpt><trkpt lat="55.8263658" lon="48.9294792"><time>2021-04-17T08:56:22.427</time></trkpt><trkpt lat="55.8264104" lon="48.9295233"><time>2021-04-17T08:56:25.443</time></trkpt><trkpt lat="55.8264606" lon="48.9295353"><time>2021-04-17T08:56:28.423</time></trkpt><trkpt lat="55.8265140" lon="48.9295777"><time>2021-04-17T08:56:32.427</time></trkpt><trkpt lat="55.8265401" lon="48.9296432"><time>2021-04-17T08:56:35.427</time></trkpt><trkpt lat="55.8265643" lon="48.9297169"><time>2021-04-17T08:56:38.447</time></trkpt><trkpt lat="55.8266010" lon="48.9297673"><time>2021-04-17T08:56:41.427</time></trkpt><trkpt lat="55.8266368" lon="48.9298182"><time>2021-04-17T08:56:46.620</time></trkpt><trkpt lat="55.8266446" lon="48.9298214"><time>2021-04-17T08:56:49.487</time></trkpt><trkpt lat="55.8265953" lon="48.9297650"><time>2021-04-17T08:56:59.433</time></trkpt><trkpt lat="55.8265730" lon="48.9296925"><time>2021-04-17T08:57:07.403</time></trkpt><trkpt lat="55.8265259" lon="48.9296596"><time>2021-04-17T08:57:12.427</time></trkpt><trkpt lat="55.8264758" lon="48.9296852"><time>2021-04-17T08:57:16.437</time></trkpt><trkpt lat="55.8264249" lon="48.9297020"><time>2021-04-17T08:57:20.420</time></trkpt><trkpt lat="55.8263783" lon="48.9297447"><time>2021-04-17T08:57:24.423</time></trkpt><trkpt lat="55.8263329" lon="48.9298242"><time>2021-04-17T08:57:27.423</time></trkpt><trkpt lat="55.8262990" lon="48.9298962"><time>2021-04-17T08:57:32.427</time></trkpt><trkpt lat="55.8262555" lon="48.9299194"><time>2021-04-17T08:57:35.420</time></trkpt><trkpt lat="55.8262033" lon="48.9298633"><time>2021-04-17T08:57:38.427</time></trkpt><trkpt lat="55.8261604" lon="48.9297774"><time>2021-04-17T08:57:41.437</time></trkpt><trkpt lat="55.8261230" lon="48.9296857"><time>2021-04-17T08:57:44.423</time></trkpt><trkpt lat="55.8260986" lon="48.9296104"><time>2021-04-17T08:57:46.430</time></trkpt><trkpt lat="55.8260712" lon="48.9295460"><time>2021-04-17T08:57:48.437</time></trkpt><trkpt lat="55.8260581" lon="48.9294654"><time>2021-04-17T08:57:50.423</time></trkpt><trkpt lat="55.8260142" lon="48.9293978"><time>2021-04-17T08:57:53.403</time></trkpt><trkpt lat="55.8259611" lon="48.9293584"><time>2021-04-17T08:57:56.427</time></trkpt><trkpt lat="55.8259191" lon="48.9293244"><time>2021-04-17T08:57:58.427</time></trkpt><trkpt lat="55.8258662" lon="48.9292656"><time>2021-04-17T08:58:00.427</time></trkpt><trkpt lat="55.8258040" lon="48.9292203"><time>2021-04-17T08:58:02.430</time></trkpt><trkpt lat="55.8257408" lon="48.9291908"><time>2021-04-17T08:58:04.427</time></trkpt><trkpt lat="55.8256861" lon="48.9291519"><time>2021-04-17T08:58:06.883</time></trkpt><trkpt lat="55.8256350" lon="48.9291453"><time>2021-04-17T08:58:08.403</time></trkpt><trkpt lat="55.8255804" lon="48.9291516"><time>2021-04-17T08:58:10.463</time></trkpt><trkpt lat="55.8255274" lon="48.9291429"><time>2021-04-17T08:58:12.440</time></trkpt><trkpt lat="55.8254684" lon="48.9290990"><time>2021-04-17T08:58:14.440</time></trkpt><trkpt lat="55.8254231" lon="48.9290553"><time>2021-04-17T08:58:16.417</time></trkpt><trkpt lat="55.8253769" lon="48.9290168"><time>2021-04-17T08:58:18.430</time></trkpt><trkpt lat="55.8253297" lon="48.9289964"><time>2021-04-17T08:58:20.430</time></trkpt><trkpt lat="55.8252825" lon="48.9289971"><time>2021-04-17T08:58:22.693</time></trkpt><trkpt lat="55.8252364" lon="48.9290177"><time>2021-04-17T08:58:24.407</time></trkpt><trkpt lat="55.8251885" lon="48.9290294"><time>2021-04-17T08:58:26.410</time></trkpt><trkpt lat="55.8251351" lon="48.9290428"><time>2021-04-17T08:58:28.400</time></trkpt><trkpt lat="55.8250799" lon="48.9290600"><time>2021-04-17T08:58:30.403</time></trkpt><trkpt lat="55.8250342" lon="48.9290878"><time>2021-04-17T08:58:32.443</time></trkpt><trkpt lat="55.8249851" lon="48.9291124"><time>2021-04-17T08:58:34.413</time></trkpt><trkpt lat="55.8249404" lon="48.9291304"><time>2021-04-17T08:58:36.410</time></trkpt><trkpt lat="55.8248866" lon="48.9291321"><time>2021-04-17T08:58:39.417</time></trkpt><trkpt lat="55.8248316" lon="48.9291237"><time>2021-04-17T08:58:47.420</time></trkpt><trkpt lat="55.8247640" lon="48.9291050"><time>2021-04-17T08:58:50.407</time></trkpt><trkpt lat="55.8247074" lon="48.9290967"><time>2021-04-17T08:58:52.670</time></trkpt><trkpt lat="55.8246634" lon="48.9290752"><time>2021-04-17T08:58:54.403</time></trkpt><trkpt lat="55.8246198" lon="48.9290535"><time>2021-04-17T08:58:56.407</time></trkpt><trkpt lat="55.8245730" lon="48.9290371"><time>2021-04-17T08:58:58.437</time></trkpt><trkpt lat="55.8245188" lon="48.9290151"><time>2021-04-17T08:59:00.423</time></trkpt><trkpt lat="55.8244654" lon="48.9289954"><time>2021-04-17T08:59:02.407</time></trkpt><trkpt lat="55.8244206" lon="48.9289865"><time>2021-04-17T08:59:04.433</time></trkpt><trkpt lat="55.8243586" lon="48.9289749"><time>2021-04-17T08:59:08.410</time></trkpt><trkpt lat="55.8243138" lon="48.9289608"><time>2021-04-17T08:59:10.433</time></trkpt><trkpt lat="55.8242647" lon="48.9289669"><time>2021-04-17T08:59:12.433</time></trkpt><trkpt lat="55.8242138" lon="48.9289770"><time>2021-04-17T08:59:15.433</time></trkpt><trkpt lat="55.8241447" lon="48.9289337"><time>2021-04-17T08:59:18.403</time></trkpt><trkpt lat="55.8240874" lon="48.9289075"><time>2021-04-17T08:59:20.423</time></trkpt><trkpt lat="55.8240388" lon="48.9288981"><time>2021-04-17T08:59:22.437</time></trkpt><trkpt lat="55.8239898" lon="48.9289114"><time>2021-04-17T08:59:24.437</time></trkpt><trkpt lat="55.8239329" lon="48.9289337"><time>2021-04-17T08:59:27.457</time></trkpt><trkpt lat="55.8238937" lon="48.9289755"><time>2021-04-17T08:59:31.407</time></trkpt><trkpt lat="55.8239043" lon="48.9290039"><time>2021-04-17T08:59:35.713</time></trkpt><trkpt lat="55.8238712" lon="48.9290514"><time>2021-04-17T08:59:50.433</time></trkpt><trkpt lat="55.8238319" lon="48.9291137"><time>2021-04-17T08:59:55.453</time></trkpt><trkpt lat="55.8237956" lon="48.9291666"><time>2021-04-17T08:59:58.453</time></trkpt><trkpt lat="55.8237367" lon="48.9291903"><time>2021-04-17T09:00:01.427</time></trkpt><trkpt lat="55.8236833" lon="48.9292114"><time>2021-04-17T09:00:03.437</time></trkpt><trkpt lat="55.8236181" lon="48.9292372"><time>2021-04-17T09:00:06.403</time></trkpt><trkpt lat="55.8235698" lon="48.9292494"><time>2021-04-17T09:00:08.423</time></trkpt><trkpt lat="55.8235273" lon="48.9292853"><time>2021-04-17T09:00:10.427</time></trkpt><trkpt lat="55.8235160" lon="48.9293698"><time>2021-04-17T09:00:14.427</time></trkpt><trkpt lat="55.8235436" lon="48.9294738"><time>2021-04-17T09:00:17.420</time></trkpt><trkpt lat="55.8235579" lon="48.9295942"><time>2021-04-17T09:00:20.423</time></trkpt><trkpt lat="55.8235764" lon="48.9296863"><time>2021-04-17T09:00:22.400</time></trkpt><trkpt lat="55.8235917" lon="48.9297838"><time>2021-04-17T09:00:24.427</time></trkpt><trkpt lat="55.8236062" lon="48.9298715"><time>2021-04-17T09:00:27.437</time></trkpt><trkpt lat="55.8236411" lon="48.9299376"><time>2021-04-17T09:00:29.437</time></trkpt><trkpt lat="55.8236704" lon="48.9300236"><time>2021-04-17T09:00:32.427</time></trkpt><trkpt lat="55.8236884" lon="48.9301183"><time>2021-04-17T09:00:35.427</time></trkpt><trkpt lat="55.8236793" lon="48.9302149"><time>2021-04-17T09:00:38.440</time></trkpt><trkpt lat="55.8236764" lon="48.9302957"><time>2021-04-17T09:00:40.423</time></trkpt><trkpt lat="55.8236758" lon="48.9303850"><time>2021-04-17T09:00:42.427</time></trkpt><trkpt lat="55.8236812" lon="48.9304795"><time>2021-04-17T09:00:44.423</time></trkpt><trkpt lat="55.8236836" lon="48.9305966"><time>2021-04-17T09:00:47.437</time></trkpt><trkpt lat="55.8236806" lon="48.9306799"><time>2021-04-17T09:00:49.440</time></trkpt><trkpt lat="55.8236713" lon="48.9307725"><time>2021-04-17T09:00:52.423</time></trkpt><trkpt lat="55.8236598" lon="48.9308591"><time>2021-04-17T09:00:54.427</time></trkpt><trkpt lat="55.8236520" lon="48.9309510"><time>2021-04-17T09:00:56.450</time></trkpt><trkpt lat="55.8236425" lon="48.9310520"><time>2021-04-17T09:00:58.427</time></trkpt><trkpt lat="55.8236385" lon="48.9311593"><time>2021-04-17T09:01:00.457</time></trkpt><trkpt lat="55.8236422" lon="48.9312611"><time>2021-04-17T09:01:02.427</time></trkpt><trkpt lat="55.8236348" lon="48.9313492"><time>2021-04-17T09:01:04.460</time></trkpt><trkpt lat="55.8236200" lon="48.9314494"><time>2021-04-17T09:01:06.443</time></trkpt><trkpt lat="55.8236040" lon="48.9315565"><time>2021-04-17T09:01:08.427</time></trkpt><trkpt lat="55.8235929" lon="48.9316594"><time>2021-04-17T09:01:10.440</time></trkpt><trkpt lat="55.8236048" lon="48.9317763"><time>2021-04-17T09:01:13.440</time></trkpt><trkpt lat="55.8236100" lon="48.9318691"><time>2021-04-17T09:01:15.440</time></trkpt><trkpt lat="55.8236125" lon="48.9319727"><time>2021-04-17T09:01:17.427</time></trkpt><trkpt lat="55.8236069" lon="48.9320908"><time>2021-04-17T09:01:19.427</time></trkpt><trkpt lat="55.8235850" lon="48.9322391"><time>2021-04-17T09:01:21.450</time></trkpt><trkpt lat="55.8235708" lon="48.9323220"><time>2021-04-17T09:01:23.453</time></trkpt><trkpt lat="55.8235612" lon="48.9324122"><time>2021-04-17T09:01:25.423</time></trkpt><trkpt lat="55.8235325" lon="48.9325024"><time>2021-04-17T09:01:28.427</time></trkpt><trkpt lat="55.8235137" lon="48.9326007"><time>2021-04-17T09:01:31.440</time></trkpt><trkpt lat="55.8235060" lon="48.9327050"><time>2021-04-17T09:01:34.427</time></trkpt><trkpt lat="55.8235165" lon="48.9327910"><time>2021-04-17T09:01:37.427</time></trkpt><trkpt lat="55.8235170" lon="48.9328831"><time>2021-04-17T09:01:46.427</time></trkpt><trkpt lat="55.8235040" lon="48.9329916"><time>2021-04-17T09:01:50.427</time></trkpt><trkpt lat="55.8234929" lon="48.9330771"><time>2021-04-17T09:01:52.443</time></trkpt><trkpt lat="55.8234781" lon="48.9331685"><time>2021-04-17T09:01:54.427</time></trkpt><trkpt lat="55.8234510" lon="48.9332592"><time>2021-04-17T09:01:56.430</time></trkpt><trkpt lat="55.8234410" lon="48.9333391"><time>2021-04-17T09:01:58.437</time></trkpt><trkpt lat="55.8234145" lon="48.9334387"><time>2021-04-17T09:02:01.443</time></trkpt><trkpt lat="55.8233900" lon="48.9335127"><time>2021-04-17T09:02:03.443</time></trkpt><trkpt lat="55.8233524" lon="48.9335711"><time>2021-04-17T09:02:06.443</time></trkpt><trkpt lat="55.8233184" lon="48.9336333"><time>2021-04-17T09:02:10.427</time></trkpt><trkpt lat="55.8232867" lon="48.9337029"><time>2021-04-17T09:02:14.420</time></trkpt><trkpt lat="55.8232466" lon="48.9337794"><time>2021-04-17T09:02:18.403</time></trkpt><trkpt lat="55.8232192" lon="48.9338443"><time>2021-04-17T09:02:20.433</time></trkpt><trkpt lat="55.8231942" lon="48.9339171"><time>2021-04-17T09:02:22.430</time></trkpt><trkpt lat="55.8231647" lon="48.9339940"><time>2021-04-17T09:02:24.430</time></trkpt><trkpt lat="55.8231330" lon="48.9340735"><time>2021-04-17T09:02:26.423</time></trkpt><trkpt lat="55.8230987" lon="48.9341344"><time>2021-04-17T09:02:28.433</time></trkpt><trkpt lat="55.8230550" lon="48.9341863"><time>2021-04-17T09:02:30.430</time></trkpt><trkpt lat="55.8230220" lon="48.9342514"><time>2021-04-17T09:02:32.430</time></trkpt><trkpt lat="55.8229929" lon="48.9343180"><time>2021-04-17T09:02:34.423</time></trkpt><trkpt lat="55.8229534" lon="48.9344115"><time>2021-04-17T09:02:37.420</time></trkpt><trkpt lat="55.8229306" lon="48.9344939"><time>2021-04-17T09:02:39.437</time></trkpt><trkpt lat="55.8229171" lon="48.9345877"><time>2021-04-17T09:02:42.430</time></trkpt><trkpt lat="55.8228794" lon="48.9346432"><time>2021-04-17T09:02:47.433</time></trkpt><trkpt lat="55.8228432" lon="48.9346910"><time>2021-04-17T09:02:49.437</time></trkpt><trkpt lat="55.8227997" lon="48.9347532"><time>2021-04-17T09:02:51.433</time></trkpt><trkpt lat="55.8227542" lon="48.9348010"><time>2021-04-17T09:02:53.433</time></trkpt><trkpt lat="55.8227114" lon="48.9348401"><time>2021-04-17T09:02:55.400</time></trkpt><trkpt lat="55.8226527" lon="48.9349038"><time>2021-04-17T09:02:58.427</time></trkpt><trkpt lat="55.8226061" lon="48.9349533"><time>2021-04-17T09:03:00.427</time></trkpt><trkpt lat="55.8225540" lon="48.9350017"><time>2021-04-17T09:03:02.417</time></trkpt><trkpt lat="55.8225164" lon="48.9350468"><time>2021-04-17T09:03:04.437</time></trkpt><trkpt lat="55.8224775" lon="48.9351256"><time>2021-04-17T09:03:07.433</time></trkpt><trkpt lat="55.8224500" lon="48.9351965"><time>2021-04-17T09:03:09.433</time></trkpt><trkpt lat="55.8224191" lon="48.9352619"><time>2021-04-17T09:03:11.423</time></trkpt><trkpt lat="55.8223873" lon="48.9353201"><time>2021-04-17T09:03:13.433</time></trkpt><trkpt lat="55.8223433" lon="48.9353807"><time>2021-04-17T09:03:16.447</time></trkpt><trkpt lat="55.8222983" lon="48.9354219"><time>2021-04-17T09:03:20.447</time></trkpt><trkpt lat="55.8222486" lon="48.9354487"><time>2021-04-17T09:03:30.440</time></trkpt><trkpt lat="55.8221971" lon="48.9354932"><time>2021-04-17T09:03:33.407</time></trkpt><trkpt lat="55.8221516" lon="48.9355341"><time>2021-04-17T09:03:35.437</time></trkpt><trkpt lat="55.8221066" lon="48.9355806"><time>2021-04-17T09:03:37.420</time></trkpt><trkpt lat="55.8220623" lon="48.9356246"><time>2021-04-17T09:03:39.440</time></trkpt><trkpt lat="55.8220314" lon="48.9356878"><time>2021-04-17T09:03:41.420</time></trkpt><trkpt lat="55.8219765" lon="48.9357406"><time>2021-04-17T09:03:44.400</time></trkpt><trkpt lat="55.8219156" lon="48.9357425"><time>2021-04-17T09:03:47.437</time></trkpt><trkpt lat="55.8218500" lon="48.9357750"><time>2021-04-17T09:03:50.403</time></trkpt><trkpt lat="55.8217905" lon="48.9357778"><time>2021-04-17T09:03:53.427</time></trkpt><trkpt lat="55.8217322" lon="48.9357605"><time>2021-04-17T09:03:56.440</time></trkpt><trkpt lat="55.8216821" lon="48.9357443"><time>2021-04-17T09:03:58.480</time></trkpt><trkpt lat="55.8216189" lon="48.9357493"><time>2021-04-17T09:04:01.423</time></trkpt><trkpt lat="55.8215727" lon="48.9357369"><time>2021-04-17T09:04:04.453</time></trkpt><trkpt lat="55.8215700" lon="48.9357171"><time>2021-04-17T09:04:09.360</time></trkpt><trkpt lat="55.8215229" lon="48.9357899"><time>2021-04-17T09:04:29.427</time></trkpt><trkpt lat="55.8214827" lon="48.9357287"><time>2021-04-17T09:05:37.433</time></trkpt><trkpt lat="55.8214851" lon="48.9356268"><time>2021-04-17T09:05:40.437</time></trkpt><trkpt lat="55.8214817" lon="48.9355193"><time>2021-04-17T09:05:43.450</time></trkpt><trkpt lat="55.8214847" lon="48.9354289"><time>2021-04-17T09:05:47.427</time></trkpt><trkpt lat="55.8215023" lon="48.9353442"><time>2021-04-17T09:05:55.437</time></trkpt><trkpt lat="55.8215144" lon="48.9352490"><time>2021-04-17T09:05:59.407</time></trkpt><trkpt lat="55.8215164" lon="48.9351601"><time>2021-04-17T09:06:03.420</time></trkpt><trkpt lat="55.8215348" lon="48.9350453"><time>2021-04-17T09:06:06.453</time></trkpt><trkpt lat="55.8215570" lon="48.9349660"><time>2021-04-17T09:06:08.423</time></trkpt><trkpt lat="55.8215786" lon="48.9348638"><time>2021-04-17T09:06:11.440</time></trkpt><trkpt lat="55.8215914" lon="48.9347598"><time>2021-04-17T09:06:14.420</time></trkpt><trkpt lat="55.8215437" lon="48.9347538"><time>2021-04-17T09:06:20.427</time></trkpt><trkpt lat="55.8214892" lon="48.9347299"><time>2021-04-17T09:06:23.423</time></trkpt><trkpt lat="55.8214244" lon="48.9347097"><time>2021-04-17T09:06:26.440</time></trkpt><trkpt lat="55.8213759" lon="48.9346819"><time>2021-04-17T09:06:28.423</time></trkpt><trkpt lat="55.8213178" lon="48.9346373"><time>2021-04-17T09:06:30.423</time></trkpt><trkpt lat="55.8212500" lon="48.9345994"><time>2021-04-17T09:06:32.410</time></trkpt><trkpt lat="55.8211947" lon="48.9345526"><time>2021-04-17T09:06:34.427</time></trkpt><trkpt lat="55.8211527" lon="48.9345096"><time>2021-04-17T09:06:36.427</time></trkpt><trkpt lat="55.8211136" lon="48.9344456"><time>2021-04-17T09:06:39.457</time></trkpt><trkpt lat="55.8210511" lon="48.9343740"><time>2021-04-17T09:06:57.423</time></trkpt><trkpt lat="55.8210086" lon="48.9344062"><time>2021-04-17T09:07:33.430</time></trkpt><trkpt lat="55.8209590" lon="48.9344243"><time>2021-04-17T09:07:36.443</time></trkpt><trkpt lat="55.8208948" lon="48.9344063"><time>2021-04-17T09:07:39.427</time></trkpt><trkpt lat="55.8208436" lon="48.9343842"><time>2021-04-17T09:07:42.437</time></trkpt><trkpt lat="55.8208027" lon="48.9343476"><time>2021-04-17T09:07:44.427</time></trkpt><trkpt lat="55.8207533" lon="48.9343131"><time>2021-04-17T09:07:46.443</time></trkpt><trkpt lat="55.8206966" lon="48.9342661"><time>2021-04-17T09:07:48.423</time></trkpt><trkpt lat="55.8206514" lon="48.9342197"><time>2021-04-17T09:07:50.443</time></trkpt><trkpt lat="55.8206260" lon="48.9341492"><time>2021-04-17T09:07:52.423</time></trkpt><trkpt lat="55.8206107" lon="48.9340710"><time>2021-04-17T09:07:55.427</time></trkpt><trkpt lat="55.8206136" lon="48.9339899"><time>2021-04-17T09:08:00.427</time></trkpt><trkpt lat="55.8206281" lon="48.9338847"><time>2021-04-17T09:08:07.417</time></trkpt><trkpt lat="55.8206352" lon="48.9337993"><time>2021-04-17T09:08:09.427</time></trkpt><trkpt lat="55.8206506" lon="48.9336820"><time>2021-04-17T09:08:12.407</time></trkpt><trkpt lat="55.8206645" lon="48.9335947"><time>2021-04-17T09:08:14.430</time></trkpt><trkpt lat="55.8206722" lon="48.9334986"><time>2021-04-17T09:08:16.430</time></trkpt><trkpt lat="55.8206792" lon="48.9334067"><time>2021-04-17T09:08:18.427</time></trkpt><trkpt lat="55.8206837" lon="48.9333199"><time>2021-04-17T09:08:20.443</time></trkpt><trkpt lat="55.8206961" lon="48.9332380"><time>2021-04-17T09:08:22.443</time></trkpt><trkpt lat="55.8207041" lon="48.9331568"><time>2021-04-17T09:08:24.443</time></trkpt><trkpt lat="55.8207047" lon="48.9330761"><time>2021-04-17T09:08:26.447</time></trkpt><trkpt lat="55.8207106" lon="48.9329935"><time>2021-04-17T09:08:28.400</time></trkpt><trkpt lat="55.8207244" lon="48.9329053"><time>2021-04-17T09:08:30.433</time></trkpt><trkpt lat="55.8207215" lon="48.9328254"><time>2021-04-17T09:08:32.433</time></trkpt><trkpt lat="55.8207345" lon="48.9327487"><time>2021-04-17T09:08:34.430</time></trkpt><trkpt lat="55.8207639" lon="48.9326672"><time>2021-04-17T09:08:36.447</time></trkpt><trkpt lat="55.8207935" lon="48.9325795"><time>2021-04-17T09:08:38.423</time></trkpt><trkpt lat="55.8208341" lon="48.9324778"><time>2021-04-17T09:08:40.450</time></trkpt><trkpt lat="55.8208633" lon="48.9323815"><time>2021-04-17T09:08:42.430</time></trkpt><trkpt lat="55.8208898" lon="48.9323011"><time>2021-04-17T09:08:44.417</time></trkpt><trkpt lat="55.8208973" lon="48.9322044"><time>2021-04-17T09:08:46.427</time></trkpt><trkpt lat="55.8209182" lon="48.9321141"><time>2021-04-17T09:08:48.437</time></trkpt><trkpt lat="55.8209458" lon="48.9320204"><time>2021-04-17T09:08:50.430</time></trkpt><trkpt lat="55.8209677" lon="48.9319133"><time>2021-04-17T09:08:52.433</time></trkpt><trkpt lat="55.8209713" lon="48.9318190"><time>2021-04-17T09:08:54.423</time></trkpt><trkpt lat="55.8209799" lon="48.9317271"><time>2021-04-17T09:08:57.420</time></trkpt><trkpt lat="55.8209937" lon="48.9316250"><time>2021-04-17T09:09:00.427</time></trkpt><trkpt lat="55.8209933" lon="48.9315353"><time>2021-04-17T09:09:02.437</time></trkpt><trkpt lat="55.8210131" lon="48.9314251"><time>2021-04-17T09:09:05.407</time></trkpt><trkpt lat="55.8210401" lon="48.9313590"><time>2021-04-17T09:09:07.423</time></trkpt><trkpt lat="55.8210765" lon="48.9312660"><time>2021-04-17T09:09:10.420</time></trkpt><trkpt lat="55.8210951" lon="48.9311464"><time>2021-04-17T09:09:16.430</time></trkpt><trkpt lat="55.8210973" lon="48.9310440"><time>2021-04-17T09:09:18.413</time></trkpt><trkpt lat="55.8211176" lon="48.9309571"><time>2021-04-17T09:09:20.440</time></trkpt><trkpt lat="55.8211479" lon="48.9308864"><time>2021-04-17T09:09:22.403</time></trkpt><trkpt lat="55.8211979" lon="48.9308177"><time>2021-04-17T09:09:25.440</time></trkpt><trkpt lat="55.8212448" lon="48.9307492"><time>2021-04-17T09:09:28.440</time></trkpt><trkpt lat="55.8212802" lon="48.9306873"><time>2021-04-17T09:09:31.423</time></trkpt><trkpt lat="55.8213305" lon="48.9306479"><time>2021-04-17T09:09:34.443</time></trkpt><trkpt lat="55.8213760" lon="48.9306512"><time>2021-04-17T09:09:36.433</time></trkpt><trkpt lat="55.8214174" lon="48.9306939"><time>2021-04-17T09:09:42.443</time></trkpt><trkpt lat="55.8214644" lon="48.9307281"><time>2021-04-17T09:09:47.423</time></trkpt><trkpt lat="55.8215119" lon="48.9307443"><time>2021-04-17T09:09:51.427</time></trkpt><trkpt lat="55.8215672" lon="48.9307625"><time>2021-04-17T09:09:56.430</time></trkpt><trkpt lat="55.8216184" lon="48.9307875"><time>2021-04-17T09:10:00.447</time></trkpt><trkpt lat="55.8216718" lon="48.9308285"><time>2021-04-17T09:10:04.417</time></trkpt><trkpt lat="55.8217260" lon="48.9308557"><time>2021-04-17T09:10:07.427</time></trkpt><trkpt lat="55.8217707" lon="48.9308830"><time>2021-04-17T09:10:09.400</time></trkpt><trkpt lat="55.8218326" lon="48.9308675"><time>2021-04-17T09:10:12.443</time></trkpt><trkpt lat="55.8218789" lon="48.9308346"><time>2021-04-17T09:10:15.447</time></trkpt><trkpt lat="55.8219267" lon="48.9307952"><time>2021-04-17T09:10:18.427</time></trkpt><trkpt lat="55.8219831" lon="48.9307716"><time>2021-04-17T09:10:21.427</time></trkpt><trkpt lat="55.8220366" lon="48.9307599"><time>2021-04-17T09:10:24.420</time></trkpt><trkpt lat="55.8220871" lon="48.9307436"><time>2021-04-17T09:10:26.427</time></trkpt><trkpt lat="55.8221466" lon="48.9307176"><time>2021-04-17T09:10:28.440</time></trkpt><trkpt lat="55.8221883" lon="48.9306710"><time>2021-04-17T09:10:30.440</time></trkpt><trkpt lat="55.8222277" lon="48.9306113"><time>2021-04-17T09:10:32.440</time></trkpt><trkpt lat="55.8222348" lon="48.9305201"><time>2021-04-17T09:10:34.453</time></trkpt><trkpt lat="55.8222315" lon="48.9304170"><time>2021-04-17T09:10:36.457</time></trkpt><trkpt lat="55.8222429" lon="48.9303215"><time>2021-04-17T09:10:38.440</time></trkpt><trkpt lat="55.8222605" lon="48.9302191"><time>2021-04-17T09:10:40.427</time></trkpt><trkpt lat="55.8222856" lon="48.9301272"><time>2021-04-17T09:10:42.410</time></trkpt><trkpt lat="55.8223028" lon="48.9300425"><time>2021-04-17T09:10:44.427</time></trkpt><trkpt lat="55.8223298" lon="48.9299718"><time>2021-04-17T09:10:47.407</time></trkpt><trkpt lat="55.8223678" lon="48.9299281"><time>2021-04-17T09:10:53.417</time></trkpt><trkpt lat="55.8224191" lon="48.9299352"><time>2021-04-17T09:10:56.407</time></trkpt><trkpt lat="55.8224818" lon="48.9299609"><time>2021-04-17T09:10:58.443</time></trkpt><trkpt lat="55.8225380" lon="48.9299791"><time>2021-04-17T09:11:00.427</time></trkpt><trkpt lat="55.8225842" lon="48.9299789"><time>2021-04-17T09:11:02.433</time></trkpt><trkpt lat="55.8226309" lon="48.9299627"><time>2021-04-17T09:11:05.443</time></trkpt><trkpt lat="55.8226839" lon="48.9299460"><time>2021-04-17T09:11:08.433</time></trkpt><trkpt lat="55.8227494" lon="48.9299437"><time>2021-04-17T09:11:11.433</time></trkpt><trkpt lat="55.8228058" lon="48.9299537"><time>2021-04-17T09:11:14.447</time></trkpt><trkpt lat="55.8228705" lon="48.9299845"><time>2021-04-17T09:11:17.433</time></trkpt><trkpt lat="55.8229261" lon="48.9299694"><time>2021-04-17T09:11:20.410</time></trkpt><trkpt lat="55.8229831" lon="48.9299250"><time>2021-04-17T09:11:23.440</time></trkpt><trkpt lat="55.8230234" lon="48.9298796"><time>2021-04-17T09:11:25.437</time></trkpt><trkpt lat="55.8230720" lon="48.9298340"><time>2021-04-17T09:11:27.407</time></trkpt><trkpt lat="55.8231464" lon="48.9297868"><time>2021-04-17T09:11:29.423</time></trkpt><trkpt lat="55.8232099" lon="48.9297383"><time>2021-04-17T09:11:31.437</time></trkpt><trkpt lat="55.8232708" lon="48.9297049"><time>2021-04-17T09:11:33.420</time></trkpt><trkpt lat="55.8233175" lon="48.9296187"><time>2021-04-17T09:11:36.430</time></trkpt><trkpt lat="55.8233428" lon="48.9295279"><time>2021-04-17T09:11:38.447</time></trkpt><trkpt lat="55.8233660" lon="48.9294507"><time>2021-04-17T09:11:40.427</time></trkpt><trkpt lat="55.8234001" lon="48.9293962"><time>2021-04-17T09:11:42.443</time></trkpt><trkpt lat="55.8234444" lon="48.9293533"><time>2021-04-17T09:11:44.430</time></trkpt><trkpt lat="55.8235064" lon="48.9293292"><time>2021-04-17T09:11:47.443</time></trkpt><trkpt lat="55.8235703" lon="48.9293238"><time>2021-04-17T09:11:49.443</time></trkpt><trkpt lat="55.8236420" lon="48.9293151"><time>2021-04-17T09:11:51.433</time></trkpt><trkpt lat="55.8237013" lon="48.9293199"><time>2021-04-17T09:11:53.430</time></trkpt><trkpt lat="55.8237480" lon="48.9293372"><time>2021-04-17T09:11:55.453</time></trkpt><trkpt lat="55.8237942" lon="48.9293681"><time>2021-04-17T09:11:57.427</time></trkpt><trkpt lat="55.8238372" lon="48.9293910"><time>2021-04-17T09:11:59.427</time></trkpt><trkpt lat="55.8238834" lon="48.9294053"><time>2021-04-17T09:12:01.413</time></trkpt><trkpt lat="55.8264188" lon="48.9216279"><time>2021-04-17T09:16:37.923</time></trkpt><trkpt lat="55.8263982" lon="48.9219292"><time>2021-04-17T09:16:38.120</time></trkpt><trkpt lat="55.8263663" lon="48.9218619"><time>2021-04-17T09:16:40.123</time></trkpt><trkpt lat="55.8264618" lon="48.9217738"><time>2021-04-17T09:16:45.547</time></trkpt><trkpt lat="55.8264471" lon="48.9216660"><time>2021-04-17T09:16:47.517</time></trkpt><trkpt lat="55.8264310" lon="48.9215905"><time>2021-04-17T09:16:49.540</time></trkpt><trkpt lat="55.8263933" lon="48.9215058"><time>2021-04-17T09:16:51.540</time></trkpt><trkpt lat="55.8263591" lon="48.9214269"><time>2021-04-17T09:16:53.530</time></trkpt><trkpt lat="55.8263180" lon="48.9213235"><time>2021-04-17T09:16:56.567</time></trkpt><trkpt lat="55.8262848" lon="48.9212478"><time>2021-04-17T09:16:58.527</time></trkpt><trkpt lat="55.8262424" lon="48.9211675"><time>2021-04-17T09:17:00.513</time></trkpt><trkpt lat="55.8261963" lon="48.9210855"><time>2021-04-17T09:17:02.517</time></trkpt><trkpt lat="55.8261706" lon="48.9210000"><time>2021-04-17T09:17:04.557</time></trkpt><trkpt lat="55.8261594" lon="48.9209173"><time>2021-04-17T09:17:06.543</time></trkpt><trkpt lat="55.8261395" lon="48.9208306"><time>2021-04-17T09:17:08.557</time></trkpt><trkpt lat="55.8261178" lon="48.9207354"><time>2021-04-17T09:17:10.547</time></trkpt><trkpt lat="55.8261168" lon="48.9206404"><time>2021-04-17T09:17:12.540</time></trkpt><trkpt lat="55.8261240" lon="48.9205527"><time>2021-04-17T09:17:14.543</time></trkpt><trkpt lat="55.8261386" lon="48.9204456"><time>2021-04-17T09:17:17.547</time></trkpt><trkpt lat="55.8261797" lon="48.9203723"><time>2021-04-17T09:17:20.547</time></trkpt><trkpt lat="55.8262005" lon="48.9202735"><time>2021-04-17T09:17:23.560</time></trkpt><trkpt lat="55.8262056" lon="48.9201610"><time>2021-04-17T09:17:26.557</time></trkpt><trkpt lat="55.8261932" lon="48.9200635"><time>2021-04-17T09:17:29.557</time></trkpt><trkpt lat="55.8261911" lon="48.9199793"><time>2021-04-17T09:17:31.560</time></trkpt><trkpt lat="55.8261919" lon="48.9198810"><time>2021-04-17T09:17:33.547</time></trkpt><trkpt lat="55.8261878" lon="48.9197922"><time>2021-04-17T09:17:35.557</time></trkpt><trkpt lat="55.8261786" lon="48.9197064"><time>2021-04-17T09:17:37.547</time></trkpt><trkpt lat="55.8261769" lon="48.9196229"><time>2021-04-17T09:17:39.557</time></trkpt><trkpt lat="55.8261788" lon="48.9195419"><time>2021-04-17T09:17:41.543</time></trkpt><trkpt lat="55.8261774" lon="48.9194607"><time>2021-04-17T09:17:43.547</time></trkpt><trkpt lat="55.8261918" lon="48.9193436"><time>2021-04-17T09:17:46.560</time></trkpt><trkpt lat="55.8261955" lon="48.9192525"><time>2021-04-17T09:17:48.530</time></trkpt><trkpt lat="55.8261994" lon="48.9191536"><time>2021-04-17T09:17:50.547</time></trkpt><trkpt lat="55.8261899" lon="48.9190732"><time>2021-04-17T09:17:52.547</time></trkpt><trkpt lat="55.8261694" lon="48.9189974"><time>2021-04-17T09:17:54.563</time></trkpt><trkpt lat="55.8261549" lon="48.9189056"><time>2021-04-17T09:17:57.550</time></trkpt><trkpt lat="55.8261352" lon="48.9188136"><time>2021-04-17T09:18:00.553</time></trkpt><trkpt lat="55.8261151" lon="48.9187145"><time>2021-04-17T09:18:02.550</time></trkpt><trkpt lat="55.8261000" lon="48.9185947"><time>2021-04-17T09:18:04.550</time></trkpt><trkpt lat="55.8260908" lon="48.9184754"><time>2021-04-17T09:18:06.550</time></trkpt><trkpt lat="55.8260821" lon="48.9183603"><time>2021-04-17T09:18:08.517</time></trkpt><trkpt lat="55.8260845" lon="48.9182599"><time>2021-04-17T09:18:10.513</time></trkpt><trkpt lat="55.8260778" lon="48.9181575"><time>2021-04-17T09:18:12.537</time></trkpt><trkpt lat="55.8260489" lon="48.9180914"><time>2021-04-17T09:18:14.550</time></trkpt><trkpt lat="55.8259883" lon="48.9180369"><time>2021-04-17T09:18:17.563</time></trkpt><trkpt lat="55.8259472" lon="48.9180045"><time>2021-04-17T09:18:19.517</time></trkpt><trkpt lat="55.8258851" lon="48.9179644"><time>2021-04-17T09:18:22.550</time></trkpt><trkpt lat="55.8258422" lon="48.9179402"><time>2021-04-17T09:18:24.550</time></trkpt><trkpt lat="55.8257982" lon="48.9179201"><time>2021-04-17T09:18:26.540</time></trkpt><trkpt lat="55.8257548" lon="48.9178889"><time>2021-04-17T09:18:28.537</time></trkpt><trkpt lat="55.8257121" lon="48.9178480"><time>2021-04-17T09:18:30.553</time></trkpt><trkpt lat="55.8256724" lon="48.9177990"><time>2021-04-17T09:18:32.570</time></trkpt><trkpt lat="55.8256297" lon="48.9177443"><time>2021-04-17T09:18:34.577</time></trkpt><trkpt lat="55.8255866" lon="48.9176828"><time>2021-04-17T09:18:36.550</time></trkpt><trkpt lat="55.8255540" lon="48.9176190"><time>2021-04-17T09:18:38.573</time></trkpt><trkpt lat="55.8255200" lon="48.9175562"><time>2021-04-17T09:18:40.540</time></trkpt><trkpt lat="55.8254762" lon="48.9174867"><time>2021-04-17T09:18:43.557</time></trkpt><trkpt lat="55.8254419" lon="48.9174171"><time>2021-04-17T09:18:46.540</time></trkpt><trkpt lat="55.8254190" lon="48.9173451"><time>2021-04-17T09:18:48.540</time></trkpt><trkpt lat="55.8253776" lon="48.9172920"><time>2021-04-17T09:18:50.553</time></trkpt><trkpt lat="55.8253223" lon="48.9172736"><time>2021-04-17T09:18:52.557</time></trkpt><trkpt lat="55.8252624" lon="48.9172570"><time>2021-04-17T09:18:55.557</time></trkpt><trkpt lat="55.8252095" lon="48.9172429"><time>2021-04-17T09:18:58.540</time></trkpt><trkpt lat="55.8251609" lon="48.9172068"><time>2021-04-17T09:19:01.550</time></trkpt><trkpt lat="55.8251089" lon="48.9171683"><time>2021-04-17T09:19:04.570</time></trkpt><trkpt lat="55.8250583" lon="48.9170903"><time>2021-04-17T09:19:07.540</time></trkpt><trkpt lat="55.8250356" lon="48.9170188"><time>2021-04-17T09:19:09.547</time></trkpt><trkpt lat="55.8250044" lon="48.9169512"><time>2021-04-17T09:19:12.533</time></trkpt><trkpt lat="55.8249380" lon="48.9169514"><time>2021-04-17T09:19:15.537</time></trkpt><trkpt lat="55.8248923" lon="48.9169567"><time>2021-04-17T09:19:17.533</time></trkpt><trkpt lat="55.8248461" lon="48.9169685"><time>2021-04-17T09:19:19.560</time></trkpt><trkpt lat="55.8247924" lon="48.9169692"><time>2021-04-17T09:19:21.560</time></trkpt><trkpt lat="55.8247405" lon="48.9169140"><time>2021-04-17T09:19:24.537</time></trkpt><trkpt lat="55.8247109" lon="48.9168521"><time>2021-04-17T09:19:27.530</time></trkpt><trkpt lat="55.8247109" lon="48.9168521"><time>2021-04-17T09:19:27.643</time></trkpt><trkpt lat="55.8246624" lon="48.9168350"><time>2021-04-17T09:19:32.530</time></trkpt><trkpt lat="55.8246775" lon="48.9169308"><time>2021-04-17T09:19:35.527</time></trkpt><trkpt lat="55.8246890" lon="48.9170186"><time>2021-04-17T09:19:37.550</time></trkpt><trkpt lat="55.8247281" lon="48.9170973"><time>2021-04-17T09:19:46.537</time></trkpt><trkpt lat="55.8247642" lon="48.9171816"><time>2021-04-17T09:19:50.543</time></trkpt><trkpt lat="55.8247937" lon="48.9172545"><time>2021-04-17T09:19:53.543</time></trkpt><trkpt lat="55.8248256" lon="48.9173238"><time>2021-04-17T09:19:56.557</time></trkpt><trkpt lat="55.8248665" lon="48.9174048"><time>2021-04-17T09:20:21.540</time></trkpt><trkpt lat="55.8249145" lon="48.9174787"><time>2021-04-17T09:20:23.547</time></trkpt><trkpt lat="55.8249522" lon="48.9175417"><time>2021-04-17T09:20:25.540</time></trkpt><trkpt lat="55.8249913" lon="48.9176131"><time>2021-04-17T09:20:27.570</time></trkpt><trkpt lat="55.8250383" lon="48.9176605"><time>2021-04-17T09:20:29.537</time></trkpt><trkpt lat="55.8250953" lon="48.9177127"><time>2021-04-17T09:20:32.520</time></trkpt><trkpt lat="55.8251428" lon="48.9177498"><time>2021-04-17T09:20:36.517</time></trkpt><trkpt lat="55.8251919" lon="48.9176908"><time>2021-04-17T09:20:53.553</time></trkpt><trkpt lat="55.8252408" lon="48.9176937"><time>2021-04-17T09:20:56.523</time></trkpt><trkpt lat="55.8252989" lon="48.9177011"><time>2021-04-17T09:20:59.517</time></trkpt><trkpt lat="55.8253524" lon="48.9177311"><time>2021-04-17T09:21:01.513</time></trkpt><trkpt lat="55.8253983" lon="48.9177184"><time>2021-04-17T09:21:03.560</time></trkpt><trkpt lat="55.8254658" lon="48.9177113"><time>2021-04-17T09:21:06.550</time></trkpt><trkpt lat="55.8255235" lon="48.9177367"><time>2021-04-17T09:21:08.547</time></trkpt><trkpt lat="55.8255836" lon="48.9178098"><time>2021-04-17T09:21:10.540</time></trkpt><trkpt lat="55.8256371" lon="48.9178733"><time>2021-04-17T09:21:12.567</time></trkpt><trkpt lat="55.8256944" lon="48.9179251"><time>2021-04-17T09:21:14.543</time></trkpt><trkpt lat="55.8257500" lon="48.9179723"><time>2021-04-17T09:21:16.547</time></trkpt><trkpt lat="55.8258078" lon="48.9180015"><time>2021-04-17T09:21:18.547</time></trkpt><trkpt lat="55.8258620" lon="48.9180283"><time>2021-04-17T09:21:20.547</time></trkpt><trkpt lat="55.8259136" lon="48.9180616"><time>2021-04-17T09:21:22.517</time></trkpt><trkpt lat="55.8259661" lon="48.9181091"><time>2021-04-17T09:21:24.553</time></trkpt><trkpt lat="55.8260117" lon="48.9181429"><time>2021-04-17T09:21:26.517</time></trkpt><trkpt lat="55.8260600" lon="48.9181823"><time>2021-04-17T09:21:28.550</time></trkpt><trkpt lat="55.8260991" lon="48.9182467"><time>2021-04-17T09:21:30.537</time></trkpt><trkpt lat="55.8261210" lon="48.9183237"><time>2021-04-17T09:21:32.540</time></trkpt><trkpt lat="55.8261470" lon="48.9184163"><time>2021-04-17T09:21:36.540</time></trkpt><trkpt lat="55.8261787" lon="48.9184877"><time>2021-04-17T09:21:39.593</time></trkpt><trkpt lat="55.8261964" lon="48.9185612"><time>2021-04-17T09:21:41.540</time></trkpt><trkpt lat="55.8262419" lon="48.9186405"><time>2021-04-17T09:21:44.537</time></trkpt><trkpt lat="55.8262985" lon="48.9186530"><time>2021-04-17T09:21:47.557</time></trkpt><trkpt lat="55.8263423" lon="48.9186345"><time>2021-04-17T09:21:51.543</time></trkpt><trkpt lat="55.8263987" lon="48.9186715"><time>2021-04-17T09:21:55.547</time></trkpt><trkpt lat="55.8264382" lon="48.9187240"><time>2021-04-17T09:21:59.547</time></trkpt><trkpt lat="55.8264854" lon="48.9187929"><time>2021-04-17T09:22:03.523</time></trkpt><trkpt lat="55.8265273" lon="48.9188313"><time>2021-04-17T09:22:07.557</time></trkpt><trkpt lat="55.8265769" lon="48.9188892"><time>2021-04-17T09:22:10.540</time></trkpt><trkpt lat="55.8266252" lon="48.9189493"><time>2021-04-17T09:22:13.540</time></trkpt><trkpt lat="55.8266774" lon="48.9189861"><time>2021-04-17T09:22:16.553</time></trkpt><trkpt lat="55.8267200" lon="48.9190311"><time>2021-04-17T09:22:18.550</time></trkpt><trkpt lat="55.8267637" lon="48.9190702"><time>2021-04-17T09:22:22.553</time></trkpt><trkpt lat="55.8268303" lon="48.9190858"><time>2021-04-17T09:22:26.557</time></trkpt><trkpt lat="55.8268910" lon="48.9191439"><time>2021-04-17T09:22:29.537</time></trkpt><trkpt lat="55.8269305" lon="48.9191843"><time>2021-04-17T09:22:31.553</time></trkpt><trkpt lat="55.8269749" lon="48.9192480"><time>2021-04-17T09:22:34.563</time></trkpt><trkpt lat="55.8270032" lon="48.9193140"><time>2021-04-17T09:22:37.543</time></trkpt><trkpt lat="55.8270401" lon="48.9193902"><time>2021-04-17T09:22:40.543</time></trkpt><trkpt lat="55.8270685" lon="48.9194870"><time>2021-04-17T09:22:43.557</time></trkpt><trkpt lat="55.8270936" lon="48.9195642"><time>2021-04-17T09:22:46.523</time></trkpt><trkpt lat="55.8271252" lon="48.9196552"><time>2021-04-17T09:22:49.540</time></trkpt><trkpt lat="55.8271471" lon="48.9197632"><time>2021-04-17T09:22:52.543</time></trkpt><trkpt lat="55.8271698" lon="48.9198698"><time>2021-04-17T09:22:55.547</time></trkpt><trkpt lat="55.8271730" lon="48.9199747"><time>2021-04-17T09:22:58.573</time></trkpt><trkpt lat="55.8271912" lon="48.9200723"><time>2021-04-17T09:23:10.527</time></trkpt><trkpt lat="55.8272132" lon="48.9201534"><time>2021-04-17T09:23:12.547</time></trkpt><trkpt lat="55.8272459" lon="48.9202432"><time>2021-04-17T09:23:14.547</time></trkpt><trkpt lat="55.8272713" lon="48.9203348"><time>2021-04-17T09:23:16.550</time></trkpt><trkpt lat="55.8272808" lon="48.9204223"><time>2021-04-17T09:23:18.520</time></trkpt><trkpt lat="55.8272672" lon="48.9205348"><time>2021-04-17T09:23:20.527</time></trkpt><trkpt lat="55.8272508" lon="48.9206401"><time>2021-04-17T09:23:22.520</time></trkpt><trkpt lat="55.8272392" lon="48.9207371"><time>2021-04-17T09:23:24.520</time></trkpt><trkpt lat="55.8272148" lon="48.9208527"><time>2021-04-17T09:23:27.523</time></trkpt><trkpt lat="55.8271957" lon="48.9209422"><time>2021-04-17T09:23:29.520</time></trkpt><trkpt lat="55.8271817" lon="48.9210291"><time>2021-04-17T09:23:31.513</time></trkpt><trkpt lat="55.8271685" lon="48.9211065"><time>2021-04-17T09:23:33.520</time></trkpt><trkpt lat="55.8271512" lon="48.9212074"><time>2021-04-17T09:23:36.517</time></trkpt><trkpt lat="55.8271465" lon="48.9212909"><time>2021-04-17T09:23:39.517</time></trkpt><trkpt lat="55.8271354" lon="48.9213733"><time>2021-04-17T09:23:41.513</time></trkpt><trkpt lat="55.8271141" lon="48.9214701"><time>2021-04-17T09:23:43.513</time></trkpt><trkpt lat="55.8270976" lon="48.9215535"><time>2021-04-17T09:23:45.513</time></trkpt><trkpt lat="55.8270850" lon="48.9216502"><time>2021-04-17T09:23:47.523</time></trkpt><trkpt lat="55.8270717" lon="48.9217438"><time>2021-04-17T09:23:49.517</time></trkpt><trkpt lat="55.8270544" lon="48.9218486"><time>2021-04-17T09:23:51.520</time></trkpt><trkpt lat="55.8270290" lon="48.9219415"><time>2021-04-17T09:23:53.513</time></trkpt><trkpt lat="55.8270021" lon="48.9220335"><time>2021-04-17T09:23:55.520</time></trkpt><trkpt lat="55.8269734" lon="48.9221180"><time>2021-04-17T09:23:57.513</time></trkpt><trkpt lat="55.8269600" lon="48.9222222"><time>2021-04-17T09:23:59.517</time></trkpt><trkpt lat="55.8269525" lon="48.9223243"><time>2021-04-17T09:24:01.523</time></trkpt><trkpt lat="55.8269357" lon="48.9224354"><time>2021-04-17T09:24:04.537</time></trkpt><trkpt lat="55.8269162" lon="48.9225112"><time>2021-04-17T09:24:06.517</time></trkpt><trkpt lat="55.8269013" lon="48.9225971"><time>2021-04-17T09:24:08.520</time></trkpt><trkpt lat="55.8268982" lon="48.9226832"><time>2021-04-17T09:24:11.513</time></trkpt><trkpt lat="55.8268951" lon="48.9227751"><time>2021-04-17T09:24:26.517</time></trkpt><trkpt lat="55.8268718" lon="48.9229096"><time>2021-04-17T09:24:28.520</time></trkpt><trkpt lat="55.8268600" lon="48.9230324"><time>2021-04-17T09:24:30.520</time></trkpt><trkpt lat="55.8268461" lon="48.9231445"><time>2021-04-17T09:24:32.530</time></trkpt><trkpt lat="55.8268159" lon="48.9232498"><time>2021-04-17T09:24:34.517</time></trkpt><trkpt lat="55.8267833" lon="48.9233562"><time>2021-04-17T09:24:36.527</time></trkpt><trkpt lat="55.8267600" lon="48.9234474"><time>2021-04-17T09:24:38.523</time></trkpt><trkpt lat="55.8267363" lon="48.9235515"><time>2021-04-17T09:24:40.523</time></trkpt><trkpt lat="55.8267145" lon="48.9236452"><time>2021-04-17T09:24:42.520</time></trkpt><trkpt lat="55.8267105" lon="48.9237344"><time>2021-04-17T09:24:44.517</time></trkpt><trkpt lat="55.8267090" lon="48.9238321"><time>2021-04-17T09:24:46.527</time></trkpt><trkpt lat="55.8266934" lon="48.9239360"><time>2021-04-17T09:24:48.513</time></trkpt><trkpt lat="55.8266564" lon="48.9240330"><time>2021-04-17T09:24:50.517</time></trkpt><trkpt lat="55.8266315" lon="48.9241188"><time>2021-04-17T09:24:52.527</time></trkpt><trkpt lat="55.8266117" lon="48.9242319"><time>2021-04-17T09:24:55.520</time></trkpt><trkpt lat="55.8266073" lon="48.9243133"><time>2021-04-17T09:24:57.527</time></trkpt><trkpt lat="55.8265941" lon="48.9244000"><time>2021-04-17T09:24:59.513</time></trkpt><trkpt lat="55.8265802" lon="48.9244792"><time>2021-04-17T09:25:01.513</time></trkpt><trkpt lat="55.8265810" lon="48.9246072"><time>2021-04-17T09:25:04.513</time></trkpt><trkpt lat="55.8265733" lon="48.9246971"><time>2021-04-17T09:25:06.520</time></trkpt><trkpt lat="55.8265558" lon="48.9247792"><time>2021-04-17T09:25:08.513</time></trkpt><trkpt lat="55.8265402" lon="48.9248794"><time>2021-04-17T09:25:11.517</time></trkpt><trkpt lat="55.8265260" lon="48.9249559"><time>2021-04-17T09:25:13.523</time></trkpt><trkpt lat="55.8265036" lon="48.9250482"><time>2021-04-17T09:25:15.513</time></trkpt><trkpt lat="55.8264800" lon="48.9251437"><time>2021-04-17T09:25:17.523</time></trkpt><trkpt lat="55.8264621" lon="48.9252310"><time>2021-04-17T09:25:19.517</time></trkpt><trkpt lat="55.8264481" lon="48.9253304"><time>2021-04-17T09:25:21.517</time></trkpt><trkpt lat="55.8264322" lon="48.9254228"><time>2021-04-17T09:25:23.530</time></trkpt><trkpt lat="55.8264232" lon="48.9255077"><time>2021-04-17T09:25:25.517</time></trkpt><trkpt lat="55.8264144" lon="48.9255905"><time>2021-04-17T09:25:27.523</time></trkpt><trkpt lat="55.8263899" lon="48.9256839"><time>2021-04-17T09:25:29.520</time></trkpt><trkpt lat="55.8263607" lon="48.9257893"><time>2021-04-17T09:25:31.520</time></trkpt><trkpt lat="55.8263366" lon="48.9258806"><time>2021-04-17T09:25:33.520</time></trkpt><trkpt lat="55.8263191" lon="48.9259696"><time>2021-04-17T09:25:35.517</time></trkpt><trkpt lat="55.8263052" lon="48.9260573"><time>2021-04-17T09:25:37.513</time></trkpt><trkpt lat="55.8262937" lon="48.9261445"><time>2021-04-17T09:25:39.523</time></trkpt><trkpt lat="55.8262824" lon="48.9262287"><time>2021-04-17T09:25:41.520</time></trkpt><trkpt lat="55.8262658" lon="48.9263202"><time>2021-04-17T09:25:43.517</time></trkpt><trkpt lat="55.8262574" lon="48.9264016"><time>2021-04-17T09:25:45.513</time></trkpt><trkpt lat="55.8262472" lon="48.9264969"><time>2021-04-17T09:25:48.513</time></trkpt><trkpt lat="55.8262232" lon="48.9266046"><time>2021-04-17T09:25:51.523</time></trkpt><trkpt lat="55.8262015" lon="48.9266906"><time>2021-04-17T09:25:53.523</time></trkpt><trkpt lat="55.8261770" lon="48.9267827"><time>2021-04-17T09:25:55.520</time></trkpt><trkpt lat="55.8261556" lon="48.9268785"><time>2021-04-17T09:25:57.537</time></trkpt><trkpt lat="55.8261411" lon="48.9269758"><time>2021-04-17T09:25:59.517</time></trkpt><trkpt lat="55.8261225" lon="48.9270884"><time>2021-04-17T09:26:01.520</time></trkpt><trkpt lat="55.8261077" lon="48.9272054"><time>2021-04-17T09:26:03.517</time></trkpt><trkpt lat="55.8261009" lon="48.9273157"><time>2021-04-17T09:26:05.517</time></trkpt><trkpt lat="55.8260944" lon="48.9274101"><time>2021-04-17T09:26:07.513</time></trkpt><trkpt lat="55.8260883" lon="48.9274961"><time>2021-04-17T09:26:09.523</time></trkpt><trkpt lat="55.8260682" lon="48.9276046"><time>2021-04-17T09:26:12.513</time></trkpt><trkpt lat="55.8260463" lon="48.9277079"><time>2021-04-17T09:26:15.517</time></trkpt><trkpt lat="55.8260265" lon="48.9277826"><time>2021-04-17T09:26:17.520</time></trkpt><trkpt lat="55.8260078" lon="48.9278666"><time>2021-04-17T09:26:19.520</time></trkpt><trkpt lat="55.8259882" lon="48.9279483"><time>2021-04-17T09:26:21.523</time></trkpt><trkpt lat="55.8259674" lon="48.9280244"><time>2021-04-17T09:26:23.517</time></trkpt><trkpt lat="55.8259511" lon="48.9281005"><time>2021-04-17T09:26:25.520</time></trkpt><trkpt lat="55.8259387" lon="48.9281775"><time>2021-04-17T09:26:27.513</time></trkpt><trkpt lat="55.8259246" lon="48.9282553"><time>2021-04-17T09:26:29.523</time></trkpt><trkpt lat="55.8259107" lon="48.9283636"><time>2021-04-17T09:26:32.517</time></trkpt><trkpt lat="55.8259006" lon="48.9284539"><time>2021-04-17T09:26:35.513</time></trkpt><trkpt lat="55.8258757" lon="48.9285555"><time>2021-04-17T09:26:38.517</time></trkpt><trkpt lat="55.8258583" lon="48.9286756"><time>2021-04-17T09:26:41.517</time></trkpt><trkpt lat="55.8258525" lon="48.9287596"><time>2021-04-17T09:26:43.523</time></trkpt><trkpt lat="55.8258461" lon="48.9288656"><time>2021-04-17T09:26:47.517</time></trkpt><trkpt lat="55.8258224" lon="48.9289677"><time>2021-04-17T09:26:50.520</time></trkpt><trkpt lat="55.8258041" lon="48.9290450"><time>2021-04-17T09:26:52.523</time></trkpt><trkpt lat="55.8257826" lon="48.9291455"><time>2021-04-17T09:26:55.520</time></trkpt><trkpt lat="55.8257667" lon="48.9292563"><time>2021-04-17T09:26:58.523</time></trkpt><trkpt lat="55.8257477" lon="48.9293664"><time>2021-04-17T09:27:01.513</time></trkpt><trkpt lat="55.8257415" lon="48.9294049"><time>2021-04-17T09:36:31.863</time></trkpt><trkpt lat="55.8198148" lon="48.9387605"><time>2021-04-17T09:36:33.793</time></trkpt><trkpt lat="55.8199151" lon="48.9387776"><time>2021-04-17T09:36:36.453</time></trkpt><trkpt lat="55.8199389" lon="48.9385615"><time>2021-04-17T09:36:37.957</time></trkpt><trkpt lat="55.8203274" lon="48.9382322"><time>2021-04-17T09:36:43.163</time></trkpt><trkpt lat="55.8202384" lon="48.9385701"><time>2021-04-17T09:36:44.167</time></trkpt><trkpt lat="55.8201906" lon="48.9386257"><time>2021-04-17T09:36:45.183</time></trkpt><trkpt lat="55.8201493" lon="48.9384606"><time>2021-04-17T09:36:47.157</time></trkpt><trkpt lat="55.8201133" lon="48.9385383"><time>2021-04-17T09:36:50.167</time></trkpt><trkpt lat="55.8201135" lon="48.9386702"><time>2021-04-17T09:36:52.207</time></trkpt><trkpt lat="55.8201421" lon="48.9387431"><time>2021-04-17T09:36:54.167</time></trkpt><trkpt lat="55.8201891" lon="48.9387874"><time>2021-04-17T09:36:58.163</time></trkpt><trkpt lat="55.8202376" lon="48.9388103"><time>2021-04-17T09:37:02.157</time></trkpt><trkpt lat="55.8202882" lon="48.9388482"><time>2021-04-17T09:37:07.170</time></trkpt><trkpt lat="55.8203467" lon="48.9389029"><time>2021-04-17T09:37:10.163</time></trkpt><trkpt lat="55.8204023" lon="48.9389570"><time>2021-04-17T09:37:13.167</time></trkpt><trkpt lat="55.8204464" lon="48.9389787"><time>2021-04-17T09:37:15.160</time></trkpt><trkpt lat="55.8204911" lon="48.9390100"><time>2021-04-17T09:37:17.167</time></trkpt><trkpt lat="55.8205304" lon="48.9390531"><time>2021-04-17T09:37:19.193</time></trkpt><trkpt lat="55.8205728" lon="48.9391024"><time>2021-04-17T09:37:21.167</time></trkpt><trkpt lat="55.8206245" lon="48.9391631"><time>2021-04-17T09:37:24.173</time></trkpt><trkpt lat="55.8206733" lon="48.9392081"><time>2021-04-17T09:37:27.160</time></trkpt><trkpt lat="55.8207261" lon="48.9392449"><time>2021-04-17T09:37:30.190</time></trkpt><trkpt lat="55.8207676" lon="48.9392967"><time>2021-04-17T09:37:33.190</time></trkpt><trkpt lat="55.8208082" lon="48.9393654"><time>2021-04-17T09:37:36.193</time></trkpt><trkpt lat="55.8208481" lon="48.9394323"><time>2021-04-17T09:37:38.193</time></trkpt><trkpt lat="55.8208910" lon="48.9394961"><time>2021-04-17T09:37:40.193</time></trkpt><trkpt lat="55.8209345" lon="48.9395378"><time>2021-04-17T09:37:42.163</time></trkpt><trkpt lat="55.8209791" lon="48.9395727"><time>2021-04-17T09:37:44.177</time></trkpt><trkpt lat="55.8210284" lon="48.9396055"><time>2021-04-17T09:37:46.190</time></trkpt><trkpt lat="55.8210703" lon="48.9396400"><time>2021-04-17T09:37:48.157</time></trkpt><trkpt lat="55.8211325" lon="48.9396655"><time>2021-04-17T09:37:51.180</time></trkpt><trkpt lat="55.8211743" lon="48.9396991"><time>2021-04-17T09:37:53.163</time></trkpt><trkpt lat="55.8212149" lon="48.9397574"><time>2021-04-17T09:37:55.193</time></trkpt><trkpt lat="55.8212510" lon="48.9398051"><time>2021-04-17T09:37:57.180</time></trkpt><trkpt lat="55.8212987" lon="48.9398498"><time>2021-04-17T09:38:00.157</time></trkpt><trkpt lat="55.8213383" lon="48.9398923"><time>2021-04-17T09:38:03.170</time></trkpt><trkpt lat="55.8213801" lon="48.9399328"><time>2021-04-17T09:38:06.180</time></trkpt><trkpt lat="55.8214387" lon="48.9399860"><time>2021-04-17T09:38:09.187</time></trkpt><trkpt lat="55.8214865" lon="48.9400500"><time>2021-04-17T09:38:12.197</time></trkpt><trkpt lat="55.8215380" lon="48.9400884"><time>2021-04-17T09:38:15.183</time></trkpt><trkpt lat="55.8215865" lon="48.9401258"><time>2021-04-17T09:38:17.193</time></trkpt><trkpt lat="55.8216327" lon="48.9401608"><time>2021-04-17T09:38:19.180</time></trkpt><trkpt lat="55.8216743" lon="48.9401974"><time>2021-04-17T09:38:21.180</time></trkpt><trkpt lat="55.8217264" lon="48.9402511"><time>2021-04-17T09:38:24.183</time></trkpt><trkpt lat="55.8217740" lon="48.9403184"><time>2021-04-17T09:38:27.197</time></trkpt><trkpt lat="55.8218101" lon="48.9403715"><time>2021-04-17T09:38:29.193</time></trkpt><trkpt lat="55.8218528" lon="48.9404045"><time>2021-04-17T09:38:31.187</time></trkpt><trkpt lat="55.8219087" lon="48.9404682"><time>2021-04-17T09:38:34.197</time></trkpt><trkpt lat="55.8219606" lon="48.9405367"><time>2021-04-17T09:38:37.193</time></trkpt><trkpt lat="55.8220006" lon="48.9406014"><time>2021-04-17T09:38:40.183</time></trkpt><trkpt lat="55.8220447" lon="48.9406599"><time>2021-04-17T09:38:43.183</time></trkpt><trkpt lat="55.8220808" lon="48.9407304"><time>2021-04-17T09:38:45.183</time></trkpt><trkpt lat="55.8221366" lon="48.9407948"><time>2021-04-17T09:38:48.157</time></trkpt><trkpt lat="55.8221798" lon="48.9408369"><time>2021-04-17T09:38:50.187</time></trkpt><trkpt lat="55.8222289" lon="48.9409036"><time>2021-04-17T09:38:53.160</time></trkpt><trkpt lat="55.8222838" lon="48.9409705"><time>2021-04-17T09:38:56.187</time></trkpt><trkpt lat="55.8223351" lon="48.9410214"><time>2021-04-17T09:38:59.170</time></trkpt><trkpt lat="55.8223906" lon="48.9410713"><time>2021-04-17T09:39:02.187</time></trkpt><trkpt lat="55.8224416" lon="48.9411444"><time>2021-04-17T09:39:05.173</time></trkpt><trkpt lat="55.8224955" lon="48.9411971"><time>2021-04-17T09:39:08.190</time></trkpt><trkpt lat="55.8225627" lon="48.9412310"><time>2021-04-17T09:39:11.190</time></trkpt><trkpt lat="55.8226090" lon="48.9412652"><time>2021-04-17T09:39:13.187</time></trkpt><trkpt lat="55.8226555" lon="48.9412924"><time>2021-04-17T09:39:15.197</time></trkpt><trkpt lat="55.8226966" lon="48.9413261"><time>2021-04-17T09:39:17.177</time></trkpt><trkpt lat="55.8227402" lon="48.9413644"><time>2021-04-17T09:39:19.193</time></trkpt><trkpt lat="55.8227837" lon="48.9414055"><time>2021-04-17T09:39:21.177</time></trkpt><trkpt lat="55.8228342" lon="48.9414807"><time>2021-04-17T09:39:24.190</time></trkpt><trkpt lat="55.8228777" lon="48.9415353"><time>2021-04-17T09:39:27.177</time></trkpt><trkpt lat="55.8229190" lon="48.9415883"><time>2021-04-17T09:39:30.177</time></trkpt><trkpt lat="55.8229607" lon="48.9416408"><time>2021-04-17T09:39:33.203</time></trkpt><trkpt lat="55.8230025" lon="48.9417212"><time>2021-04-17T09:39:36.180</time></trkpt><trkpt lat="55.8230538" lon="48.9417867"><time>2021-04-17T09:39:39.207</time></trkpt><trkpt lat="55.8231015" lon="48.9418501"><time>2021-04-17T09:39:42.190</time></trkpt><trkpt lat="55.8231606" lon="48.9419039"><time>2021-04-17T09:39:45.163</time></trkpt><trkpt lat="55.8232024" lon="48.9419432"><time>2021-04-17T09:39:47.193</time></trkpt><trkpt lat="55.8232618" lon="48.9419905"><time>2021-04-17T09:39:50.193</time></trkpt><trkpt lat="55.8233202" lon="48.9420334"><time>2021-04-17T09:39:53.207</time></trkpt><trkpt lat="55.8233768" lon="48.9420807"><time>2021-04-17T09:39:56.180</time></trkpt><trkpt lat="55.8234287" lon="48.9421215"><time>2021-04-17T09:39:59.180</time></trkpt><trkpt lat="55.8234765" lon="48.9421698"><time>2021-04-17T09:40:02.193</time></trkpt><trkpt lat="55.8235298" lon="48.9422510"><time>2021-04-17T09:40:05.183</time></trkpt><trkpt lat="55.8235748" lon="48.9423147"><time>2021-04-17T09:40:08.183</time></trkpt><trkpt lat="55.8235863" lon="48.9424005"><time>2021-04-17T09:40:13.187</time></trkpt><trkpt lat="55.8235898" lon="48.9424266"><time>2021-04-17T09:40:17.087</time></trkpt><trkpt lat="55.8236289" lon="48.9424704"><time>2021-04-17T09:40:32.160</time></trkpt><trkpt lat="55.8236949" lon="48.9425013"><time>2021-04-17T09:40:34.157</time></trkpt><trkpt lat="55.8237453" lon="48.9425478"><time>2021-04-17T09:40:36.167</time></trkpt><trkpt lat="55.8237960" lon="48.9426178"><time>2021-04-17T09:40:38.160</time></trkpt><trkpt lat="55.8238527" lon="48.9426770"><time>2021-04-17T09:40:40.160</time></trkpt><trkpt lat="55.8238986" lon="48.9427159"><time>2021-04-17T09:40:42.163</time></trkpt><trkpt lat="55.8239411" lon="48.9427474"><time>2021-04-17T09:40:44.163</time></trkpt><trkpt lat="55.8239791" lon="48.9427955"><time>2021-04-17T09:40:46.157</time></trkpt><trkpt lat="55.8240354" lon="48.9428455"><time>2021-04-17T09:40:49.157</time></trkpt><trkpt lat="55.8240824" lon="48.9428760"><time>2021-04-17T09:40:51.170</time></trkpt><trkpt lat="55.8241348" lon="48.9428962"><time>2021-04-17T09:40:53.167</time></trkpt><trkpt lat="55.8241863" lon="48.9429258"><time>2021-04-17T09:40:55.163</time></trkpt><trkpt lat="55.8242262" lon="48.9429758"><time>2021-04-17T09:40:57.170</time></trkpt><trkpt lat="55.8242694" lon="48.9430393"><time>2021-04-17T09:40:59.180</time></trkpt><trkpt lat="55.8243115" lon="48.9430816"><time>2021-04-17T09:41:01.170</time></trkpt><trkpt lat="55.8243588" lon="48.9431106"><time>2021-04-17T09:41:03.170</time></trkpt><trkpt lat="55.8244042" lon="48.9431394"><time>2021-04-17T09:41:05.170</time></trkpt><trkpt lat="55.8244455" lon="48.9431873"><time>2021-04-17T09:41:07.157</time></trkpt><trkpt lat="55.8245071" lon="48.9431860"><time>2021-04-17T09:41:10.167</time></trkpt><trkpt lat="55.8245520" lon="48.9431618"><time>2021-04-17T09:41:12.157</time></trkpt><trkpt lat="55.8246077" lon="48.9431466"><time>2021-04-17T09:41:15.157</time></trkpt><trkpt lat="55.8246784" lon="48.9431311"><time>2021-04-17T09:41:17.170</time></trkpt><trkpt lat="55.8247285" lon="48.9431037"><time>2021-04-17T09:41:19.217</time></trkpt><trkpt lat="55.8247756" lon="48.9430650"><time>2021-04-17T09:41:22.187</time></trkpt><trkpt lat="55.8248287" lon="48.9430205"><time>2021-04-17T09:41:26.187</time></trkpt><trkpt lat="55.8248547" lon="48.9429454"><time>2021-04-17T09:41:29.197</time></trkpt><trkpt lat="55.8248777" lon="48.9428648"><time>2021-04-17T09:41:31.207</time></trkpt><trkpt lat="55.8249157" lon="48.9427895"><time>2021-04-17T09:41:33.177</time></trkpt><trkpt lat="55.8249596" lon="48.9427111"><time>2021-04-17T09:41:35.177</time></trkpt><trkpt lat="55.8249995" lon="48.9426399"><time>2021-04-17T09:41:37.203</time></trkpt><trkpt lat="55.8250421" lon="48.9425682"><time>2021-04-17T09:41:39.187</time></trkpt><trkpt lat="55.8250746" lon="48.9425005"><time>2021-04-17T09:41:41.183</time></trkpt><trkpt lat="55.8250976" lon="48.9424238"><time>2021-04-17T09:41:43.193</time></trkpt><trkpt lat="55.8251174" lon="48.9423356"><time>2021-04-17T09:41:45.173</time></trkpt><trkpt lat="55.8251428" lon="48.9422461"><time>2021-04-17T09:41:47.190</time></trkpt><trkpt lat="55.8251682" lon="48.9421598"><time>2021-04-17T09:41:49.187</time></trkpt><trkpt lat="55.8251887" lon="48.9420794"><time>2021-04-17T09:41:51.187</time></trkpt><trkpt lat="55.8252188" lon="48.9419770"><time>2021-04-17T09:41:54.190</time></trkpt><trkpt lat="55.8252531" lon="48.9418813"><time>2021-04-17T09:41:57.177</time></trkpt><trkpt lat="55.8252886" lon="48.9417835"><time>2021-04-17T09:42:00.190</time></trkpt><trkpt lat="55.8253273" lon="48.9417322"><time>2021-04-17T09:42:02.183</time></trkpt><trkpt lat="55.8253605" lon="48.9416748"><time>2021-04-17T09:42:04.190</time></trkpt><trkpt lat="55.8254050" lon="48.9416166"><time>2021-04-17T09:42:07.180</time></trkpt><trkpt lat="55.8254532" lon="48.9415815"><time>2021-04-17T09:42:09.183</time></trkpt><trkpt lat="55.8254954" lon="48.9415340"><time>2021-04-17T09:42:11.193</time></trkpt><trkpt lat="55.8255289" lon="48.9414768"><time>2021-04-17T09:42:13.183</time></trkpt><trkpt lat="55.8255687" lon="48.9413927"><time>2021-04-17T09:42:16.153</time></trkpt><trkpt lat="55.8256068" lon="48.9413402"><time>2021-04-17T09:42:18.207</time></trkpt><trkpt lat="55.8256578" lon="48.9412888"><time>2021-04-17T09:42:20.183</time></trkpt><trkpt lat="55.8257024" lon="48.9412357"><time>2021-04-17T09:42:22.180</time></trkpt><trkpt lat="55.8257431" lon="48.9411908"><time>2021-04-17T09:42:24.200</time></trkpt><trkpt lat="55.8257919" lon="48.9411117"><time>2021-04-17T09:42:27.197</time></trkpt><trkpt lat="55.8258279" lon="48.9410573"><time>2021-04-17T09:42:29.180</time></trkpt><trkpt lat="55.8258662" lon="48.9410040"><time>2021-04-17T09:42:31.183</time></trkpt><trkpt lat="55.8259001" lon="48.9409409"><time>2021-04-17T09:42:33.180</time></trkpt><trkpt lat="55.8259351" lon="48.9408796"><time>2021-04-17T09:42:35.183</time></trkpt><trkpt lat="55.8259714" lon="48.9408221"><time>2021-04-17T09:42:37.200</time></trkpt><trkpt lat="55.8260196" lon="48.9407481"><time>2021-04-17T09:42:40.200</time></trkpt><trkpt lat="55.8260601" lon="48.9406976"><time>2021-04-17T09:42:42.187</time></trkpt><trkpt lat="55.8261030" lon="48.9406083"><time>2021-04-17T09:42:45.157</time></trkpt><trkpt lat="55.8261463" lon="48.9405155"><time>2021-04-17T09:42:48.183</time></trkpt><trkpt lat="55.8261783" lon="48.9404487"><time>2021-04-17T09:42:50.153</time></trkpt><trkpt lat="55.8262055" lon="48.9403800"><time>2021-04-17T09:42:52.183</time></trkpt><trkpt lat="55.8262379" lon="48.9403156"><time>2021-04-17T09:42:54.183</time></trkpt><trkpt lat="55.8262823" lon="48.9402620"><time>2021-04-17T09:42:57.200</time></trkpt><trkpt lat="55.8263346" lon="48.9401991"><time>2021-04-17T09:43:00.183</time></trkpt><trkpt lat="55.8263950" lon="48.9401425"><time>2021-04-17T09:43:03.203</time></trkpt><trkpt lat="55.8264350" lon="48.9401051"><time>2021-04-17T09:43:05.187</time></trkpt><trkpt lat="55.8264839" lon="48.9400646"><time>2021-04-17T09:43:08.200</time></trkpt><trkpt lat="55.8265448" lon="48.9400344"><time>2021-04-17T09:43:11.177</time></trkpt><trkpt lat="55.8265975" lon="48.9400031"><time>2021-04-17T09:43:14.183</time></trkpt><trkpt lat="55.8266418" lon="48.9399578"><time>2021-04-17T09:43:17.183</time></trkpt><trkpt lat="55.8266976" lon="48.9399241"><time>2021-04-17T09:43:20.200</time></trkpt><trkpt lat="55.8267520" lon="48.9398792"><time>2021-04-17T09:43:23.193</time></trkpt><trkpt lat="55.8267858" lon="48.9398132"><time>2021-04-17T09:43:26.183</time></trkpt><trkpt lat="55.8268434" lon="48.9397753"><time>2021-04-17T09:43:29.183</time></trkpt><trkpt lat="55.8268887" lon="48.9397819"><time>2021-04-17T09:43:31.187</time></trkpt><trkpt lat="55.8269466" lon="48.9397637"><time>2021-04-17T09:43:34.207</time></trkpt><trkpt lat="55.8270064" lon="48.9397139"><time>2021-04-17T09:43:38.187</time></trkpt><trkpt lat="55.8270491" lon="48.9396778"><time>2021-04-17T09:43:40.203</time></trkpt><trkpt lat="55.8270996" lon="48.9396201"><time>2021-04-17T09:43:43.190</time></trkpt><trkpt lat="55.8271470" lon="48.9395565"><time>2021-04-17T09:43:46.163</time></trkpt><trkpt lat="55.8272111" lon="48.9395133"><time>2021-04-17T09:43:49.187</time></trkpt><trkpt lat="55.8272675" lon="48.9394566"><time>2021-04-17T09:43:52.190</time></trkpt><trkpt lat="55.8273232" lon="48.9393948"><time>2021-04-17T09:43:55.187</time></trkpt><trkpt lat="55.8273681" lon="48.9393655"><time>2021-04-17T09:43:57.153</time></trkpt><trkpt lat="55.8274127" lon="48.9393093"><time>2021-04-17T09:44:00.203</time></trkpt><trkpt lat="55.8274524" lon="48.9392635"><time>2021-04-17T09:44:04.223</time></trkpt><trkpt lat="55.8274919" lon="48.9392130"><time>2021-04-17T09:44:09.200</time></trkpt><trkpt lat="55.8275211" lon="48.9391509"><time>2021-04-17T09:44:13.233</time></trkpt><trkpt lat="55.8275591" lon="48.9390918"><time>2021-04-17T09:44:17.183</time></trkpt><trkpt lat="55.8276106" lon="48.9390620"><time>2021-04-17T09:44:22.193</time></trkpt><trkpt lat="55.8276532" lon="48.9390149"><time>2021-04-17T09:44:26.177</time></trkpt><trkpt lat="55.8277046" lon="48.9389720"><time>2021-04-17T09:44:30.197</time></trkpt><trkpt lat="55.8277535" lon="48.9389395"><time>2021-04-17T09:44:33.210</time></trkpt><trkpt lat="55.8278008" lon="48.9388967"><time>2021-04-17T09:44:36.193</time></trkpt><trkpt lat="55.8278451" lon="48.9388527"><time>2021-04-17T09:44:40.193</time></trkpt><trkpt lat="55.8278637" lon="48.9387637"><time>2021-04-17T09:44:43.187</time></trkpt><trkpt lat="55.8278924" lon="48.9386541"><time>2021-04-17T09:44:46.197</time></trkpt><trkpt lat="55.8279140" lon="48.9385811"><time>2021-04-17T09:44:48.180</time></trkpt><trkpt lat="55.8279318" lon="48.9384801"><time>2021-04-17T09:44:51.157</time></trkpt><trkpt lat="55.8279544" lon="48.9384008"><time>2021-04-17T09:44:56.197</time></trkpt><trkpt lat="55.8280018" lon="48.9383830"><time>2021-04-17T09:44:59.200</time></trkpt><trkpt lat="55.8280421" lon="48.9384237"><time>2021-04-17T09:45:04.187</time></trkpt><trkpt lat="55.8280826" lon="48.9383712"><time>2021-04-17T09:45:10.177</time></trkpt><trkpt lat="55.8281394" lon="48.9383253"><time>2021-04-17T09:45:15.190</time></trkpt><trkpt lat="55.8281858" lon="48.9382910"><time>2021-04-17T09:45:19.190</time></trkpt><trkpt lat="55.8282409" lon="48.9382690"><time>2021-04-17T09:45:25.163</time></trkpt><trkpt lat="55.8282956" lon="48.9382678"><time>2021-04-17T09:45:30.160</time></trkpt><trkpt lat="55.8283320" lon="48.9382205"><time>2021-04-17T09:45:34.183</time></trkpt><trkpt lat="55.8283907" lon="48.9381854"><time>2021-04-17T09:45:38.213</time></trkpt><trkpt lat="55.8284497" lon="48.9381922"><time>2021-04-17T09:45:41.183</time></trkpt><trkpt lat="55.8285169" lon="48.9381971"><time>2021-04-17T09:45:44.187</time></trkpt><trkpt lat="55.8285642" lon="48.9382002"><time>2021-04-17T09:45:46.203</time></trkpt><trkpt lat="55.8286268" lon="48.9381804"><time>2021-04-17T09:45:49.180</time></trkpt><trkpt lat="55.8286716" lon="48.9381631"><time>2021-04-17T09:45:51.617</time></trkpt><trkpt lat="55.8287232" lon="48.9381555"><time>2021-04-17T09:45:54.173</time></trkpt><trkpt lat="55.8287428" lon="48.9381576"><time>2021-04-17T09:45:56.253</time></trkpt><trkpt lat="55.8287742" lon="48.9381744"><time>2021-04-17T09:46:00.183</time></trkpt><trkpt lat="55.8288221" lon="48.9381423"><time>2021-04-17T09:46:12.163</time></trkpt><trkpt lat="55.8288532" lon="48.9382012"><time>2021-04-17T09:46:16.177</time></trkpt><trkpt lat="55.8288474" lon="48.9382852"><time>2021-04-17T09:46:23.187</time></trkpt><trkpt lat="55.8288590" lon="48.9383692"><time>2021-04-17T09:46:28.160</time></trkpt><trkpt lat="55.8288887" lon="48.9384573"><time>2021-04-17T09:46:33.190</time></trkpt><trkpt lat="55.8289196" lon="48.9385352"><time>2021-04-17T09:46:36.187</time></trkpt><trkpt lat="55.8289482" lon="48.9386172"><time>2021-04-17T09:46:39.207</time></trkpt><trkpt lat="55.8289631" lon="48.9386968"><time>2021-04-17T09:46:41.203</time></trkpt><trkpt lat="55.8289755" lon="48.9387749"><time>2021-04-17T09:46:43.177</time></trkpt><trkpt lat="55.8289869" lon="48.9388724"><time>2021-04-17T09:46:46.187</time></trkpt><trkpt lat="55.8290141" lon="48.9389775"><time>2021-04-17T09:46:49.203</time></trkpt><trkpt lat="55.8290452" lon="48.9390733"><time>2021-04-17T09:46:52.190</time></trkpt><trkpt lat="55.8290711" lon="48.9391566"><time>2021-04-17T09:46:55.190</time></trkpt><trkpt lat="55.8291107" lon="48.9392576"><time>2021-04-17T09:46:58.230</time></trkpt><trkpt lat="55.8291305" lon="48.9393332"><time>2021-04-17T09:47:00.210</time></trkpt><trkpt lat="55.8291454" lon="48.9394217"><time>2021-04-17T09:47:02.177</time></trkpt><trkpt lat="55.8291584" lon="48.9395261"><time>2021-04-17T09:47:04.180</time></trkpt><trkpt lat="55.8291645" lon="48.9396110"><time>2021-04-17T09:47:06.197</time></trkpt><trkpt lat="55.8291671" lon="48.9397253"><time>2021-04-17T09:47:09.180</time></trkpt><trkpt lat="55.8291788" lon="48.9398186"><time>2021-04-17T09:47:12.180</time></trkpt><trkpt lat="55.8292018" lon="48.9399141"><time>2021-04-17T09:47:15.200</time></trkpt><trkpt lat="55.8292219" lon="48.9399866"><time>2021-04-17T09:47:18.160</time></trkpt><trkpt lat="55.8292518" lon="48.9400519"><time>2021-04-17T09:47:21.180</time></trkpt><trkpt lat="55.8292729" lon="48.9401425"><time>2021-04-17T09:47:23.180</time></trkpt><trkpt lat="55.8292953" lon="48.9402380"><time>2021-04-17T09:47:25.173</time></trkpt><trkpt lat="55.8293136" lon="48.9403228"><time>2021-04-17T09:47:27.187</time></trkpt><trkpt lat="55.8293281" lon="48.9404072"><time>2021-04-17T09:47:30.200</time></trkpt><trkpt lat="55.8293200" lon="48.9405278"><time>2021-04-17T09:47:33.223</time></trkpt><trkpt lat="55.8293102" lon="48.9406197"><time>2021-04-17T09:47:35.200</time></trkpt><trkpt lat="55.8293013" lon="48.9407346"><time>2021-04-17T09:47:38.187</time></trkpt><trkpt lat="55.8292972" lon="48.9408369"><time>2021-04-17T09:47:41.163</time></trkpt><trkpt lat="55.8292913" lon="48.9409298"><time>2021-04-17T09:47:44.190</time></trkpt><trkpt lat="55.8292881" lon="48.9410375"><time>2021-04-17T09:47:47.183</time></trkpt><trkpt lat="55.8292823" lon="48.9411544"><time>2021-04-17T09:47:50.187</time></trkpt><trkpt lat="55.8292920" lon="48.9412404"><time>2021-04-17T09:47:52.187</time></trkpt><trkpt lat="55.8293030" lon="48.9413216"><time>2021-04-17T09:47:54.190</time></trkpt><trkpt lat="55.8293121" lon="48.9414138"><time>2021-04-17T09:47:57.177</time></trkpt><trkpt lat="55.8293101" lon="48.9415055"><time>2021-04-17T09:48:03.190</time></trkpt><trkpt lat="55.8293498" lon="48.9415817"><time>2021-04-17T09:48:07.173</time></trkpt><trkpt lat="55.8293958" lon="48.9416072"><time>2021-04-17T09:48:10.190</time></trkpt><trkpt lat="55.8294320" lon="48.9416693"><time>2021-04-17T09:48:15.187</time></trkpt><trkpt lat="55.8294302" lon="48.9417611"><time>2021-04-17T09:48:18.213</time></trkpt><trkpt lat="55.8294226" lon="48.9418715"><time>2021-04-17T09:48:21.170</time></trkpt><trkpt lat="55.8294185" lon="48.9419819"><time>2021-04-17T09:48:24.177</time></trkpt><trkpt lat="55.8294150" lon="48.9420933"><time>2021-04-17T09:48:27.203</time></trkpt><trkpt lat="55.8294240" lon="48.9422032"><time>2021-04-17T09:48:30.193</time></trkpt><trkpt lat="55.8294358" lon="48.9423014"><time>2021-04-17T09:48:33.187</time></trkpt><trkpt lat="55.8294517" lon="48.9423851"><time>2021-04-17T09:48:36.190</time></trkpt><trkpt lat="55.8294689" lon="48.9424603"><time>2021-04-17T09:48:41.193</time></trkpt><trkpt lat="55.8294796" lon="48.9425500"><time>2021-04-17T09:48:45.203</time></trkpt><trkpt lat="55.8295112" lon="48.9426148"><time>2021-04-17T09:48:48.167</time></trkpt><trkpt lat="55.8295368" lon="48.9427163"><time>2021-04-17T09:48:52.197</time></trkpt><trkpt lat="55.8295647" lon="48.9428136"><time>2021-04-17T09:48:55.193</time></trkpt><trkpt lat="55.8295960" lon="48.9428795"><time>2021-04-17T09:48:58.180</time></trkpt><trkpt lat="55.8296296" lon="48.9429446"><time>2021-04-17T09:49:01.177</time></trkpt><trkpt lat="55.8296529" lon="48.9429405"><time>2021-04-17T09:49:07.443</time></trkpt><trkpt lat="55.8295895" lon="48.9429923"><time>2021-04-17T09:49:31.160</time></trkpt><trkpt lat="55.8295574" lon="48.9430488"><time>2021-04-17T09:49:35.197</time></trkpt><trkpt lat="55.8295212" lon="48.9431335"><time>2021-04-17T09:49:38.213</time></trkpt><trkpt lat="55.8294906" lon="48.9432196"><time>2021-04-17T09:49:41.200</time></trkpt><trkpt lat="55.8294621" lon="48.9433174"><time>2021-04-17T09:49:44.183</time></trkpt><trkpt lat="55.8294291" lon="48.9433810"><time>2021-04-17T09:49:46.197</time></trkpt><trkpt lat="55.8293996" lon="48.9434837"><time>2021-04-17T09:49:49.160</time></trkpt><trkpt lat="55.8293802" lon="48.9435697"><time>2021-04-17T09:49:51.187</time></trkpt><trkpt lat="55.8293571" lon="48.9436607"><time>2021-04-17T09:49:53.197</time></trkpt><trkpt lat="55.8293335" lon="48.9437526"><time>2021-04-17T09:49:55.180</time></trkpt><trkpt lat="55.8293151" lon="48.9438580"><time>2021-04-17T09:49:58.183</time></trkpt><trkpt lat="55.8293092" lon="48.9439409"><time>2021-04-17T09:50:00.170</time></trkpt><trkpt lat="55.8293017" lon="48.9440198"><time>2021-04-17T09:50:02.200</time></trkpt><trkpt lat="55.8292868" lon="48.9441124"><time>2021-04-17T09:50:04.160</time></trkpt><trkpt lat="55.8292761" lon="48.9442056"><time>2021-04-17T09:50:06.183</time></trkpt><trkpt lat="55.8292630" lon="48.9442952"><time>2021-04-17T09:50:08.200</time></trkpt><trkpt lat="55.8292477" lon="48.9443780"><time>2021-04-17T09:50:10.183</time></trkpt><trkpt lat="55.8292402" lon="48.9444633"><time>2021-04-17T09:50:12.200</time></trkpt><trkpt lat="55.8292285" lon="48.9445445"><time>2021-04-17T09:50:14.197</time></trkpt><trkpt lat="55.8292077" lon="48.9446263"><time>2021-04-17T09:50:16.173</time></trkpt><trkpt lat="55.8291938" lon="48.9447260"><time>2021-04-17T09:50:19.203</time></trkpt><trkpt lat="55.8291867" lon="48.9448253"><time>2021-04-17T09:50:22.183</time></trkpt><trkpt lat="55.8291810" lon="48.9449064"><time>2021-04-17T09:50:24.160</time></trkpt><trkpt lat="55.8291651" lon="48.9449905"><time>2021-04-17T09:50:26.183</time></trkpt><trkpt lat="55.8291427" lon="48.9450986"><time>2021-04-17T09:50:29.197</time></trkpt><trkpt lat="55.8291201" lon="48.9451972"><time>2021-04-17T09:50:32.183</time></trkpt><trkpt lat="55.8290909" lon="48.9452805"><time>2021-04-17T09:50:35.157</time></trkpt><trkpt lat="55.8290836" lon="48.9453631"><time>2021-04-17T09:50:38.207</time></trkpt><trkpt lat="55.8290797" lon="48.9454630"><time>2021-04-17T09:50:41.187</time></trkpt><trkpt lat="55.8290706" lon="48.9455889"><time>2021-04-17T09:50:44.200</time></trkpt><trkpt lat="55.8290554" lon="48.9456831"><time>2021-04-17T09:50:46.183</time></trkpt><trkpt lat="55.8290349" lon="48.9457740"><time>2021-04-17T09:50:48.187</time></trkpt><trkpt lat="55.8290169" lon="48.9458648"><time>2021-04-17T09:50:50.187</time></trkpt><trkpt lat="55.8290030" lon="48.9459645"><time>2021-04-17T09:50:52.187</time></trkpt><trkpt lat="55.8289879" lon="48.9460542"><time>2021-04-17T09:50:55.200</time></trkpt><trkpt lat="55.8289750" lon="48.9461440"><time>2021-04-17T09:50:58.187</time></trkpt><trkpt lat="55.8289658" lon="48.9462239"><time>2021-04-17T09:51:00.177</time></trkpt><trkpt lat="55.8289568" lon="48.9463045"><time>2021-04-17T09:51:02.200</time></trkpt><trkpt lat="55.8289415" lon="48.9463993"><time>2021-04-17T09:51:04.187</time></trkpt><trkpt lat="55.8289338" lon="48.9464837"><time>2021-04-17T09:51:06.187</time></trkpt><trkpt lat="55.8289331" lon="48.9465636"><time>2021-04-17T09:51:08.187</time></trkpt><trkpt lat="55.8289263" lon="48.9466771"><time>2021-04-17T09:51:11.187</time></trkpt><trkpt lat="55.8289083" lon="48.9467758"><time>2021-04-17T09:51:13.183</time></trkpt><trkpt lat="55.8288951" lon="48.9468560"><time>2021-04-17T09:51:15.203</time></trkpt><trkpt lat="55.8288763" lon="48.9469465"><time>2021-04-17T09:51:17.173</time></trkpt><trkpt lat="55.8288602" lon="48.9470366"><time>2021-04-17T09:51:19.200</time></trkpt><trkpt lat="55.8288558" lon="48.9471235"><time>2021-04-17T09:51:21.200</time></trkpt><trkpt lat="55.8288507" lon="48.9472246"><time>2021-04-17T09:51:23.187</time></trkpt><trkpt lat="55.8288419" lon="48.9473093"><time>2021-04-17T09:51:25.157</time></trkpt><trkpt lat="55.8288185" lon="48.9474330"><time>2021-04-17T09:51:28.170</time></trkpt><trkpt lat="55.8288054" lon="48.9475183"><time>2021-04-17T09:51:30.193</time></trkpt><trkpt lat="55.8287893" lon="48.9476270"><time>2021-04-17T09:51:33.190</time></trkpt><trkpt lat="55.8287804" lon="48.9477064"><time>2021-04-17T09:51:35.177</time></trkpt><trkpt lat="55.8287676" lon="48.9477887"><time>2021-04-17T09:51:37.163</time></trkpt><trkpt lat="55.8287474" lon="48.9478950"><time>2021-04-17T09:51:40.187</time></trkpt><trkpt lat="55.8287314" lon="48.9479725"><time>2021-04-17T09:51:42.193</time></trkpt><trkpt lat="55.8287131" lon="48.9480512"><time>2021-04-17T09:51:44.177</time></trkpt><trkpt lat="55.8286892" lon="48.9481463"><time>2021-04-17T09:51:47.173</time></trkpt><trkpt lat="55.8286635" lon="48.9482512"><time>2021-04-17T09:51:50.187</time></trkpt><trkpt lat="55.8286373" lon="48.9483502"><time>2021-04-17T09:51:53.190</time></trkpt><trkpt lat="55.8286143" lon="48.9484484"><time>2021-04-17T09:51:56.203</time></trkpt><trkpt lat="55.8286011" lon="48.9485252"><time>2021-04-17T09:51:58.187</time></trkpt><trkpt lat="55.8285903" lon="48.9486061"><time>2021-04-17T09:52:00.187</time></trkpt><trkpt lat="55.8285817" lon="48.9486891"><time>2021-04-17T09:52:02.183</time></trkpt><trkpt lat="55.8285734" lon="48.9488030"><time>2021-04-17T09:52:05.203</time></trkpt><trkpt lat="55.8285601" lon="48.9488795"><time>2021-04-17T09:52:07.177</time></trkpt><trkpt lat="55.8285469" lon="48.9489766"><time>2021-04-17T09:52:10.187</time></trkpt><trkpt lat="55.8285298" lon="48.9490666"><time>2021-04-17T09:52:13.177</time></trkpt><trkpt lat="55.8285206" lon="48.9491675"><time>2021-04-17T09:52:17.173</time></trkpt><trkpt lat="55.8285061" lon="48.9492630"><time>2021-04-17T09:52:20.193</time></trkpt><trkpt lat="55.8284893" lon="48.9493643"><time>2021-04-17T09:52:23.187</time></trkpt><trkpt lat="55.8284593" lon="48.9494370"><time>2021-04-17T09:52:26.197</time></trkpt><trkpt lat="55.8284284" lon="48.9494983"><time>2021-04-17T09:52:30.190</time></trkpt><trkpt lat="55.8284047" lon="48.9495666"><time>2021-04-17T09:52:33.177</time></trkpt><trkpt lat="55.8283470" lon="48.9495794"><time>2021-04-17T09:52:38.190</time></trkpt><trkpt lat="55.8283015" lon="48.9495596"><time>2021-04-17T09:52:41.187</time></trkpt><trkpt lat="55.8282568" lon="48.9495317"><time>2021-04-17T09:52:45.190</time></trkpt><trkpt lat="55.8282046" lon="48.9494886"><time>2021-04-17T09:52:49.167</time></trkpt><trkpt lat="55.8281625" lon="48.9495261"><time>2021-04-17T09:52:52.173</time></trkpt><trkpt lat="55.8281739" lon="48.9495706"><time>2021-04-17T09:52:58.960</time></trkpt><trkpt lat="55.8282064" lon="48.9495485"><time>2021-04-17T09:53:00.157</time></trkpt><trkpt lat="55.8282331" lon="48.9496199"><time>2021-04-17T09:53:21.170</time></trkpt><trkpt lat="55.8282599" lon="48.9496915"><time>2021-04-17T09:53:26.157</time></trkpt><trkpt lat="55.8282831" lon="48.9497688"><time>2021-04-17T09:53:30.167</time></trkpt><trkpt lat="55.8283141" lon="48.9498357"><time>2021-04-17T09:53:33.190</time></trkpt><trkpt lat="55.8283613" lon="48.9499001"><time>2021-04-17T09:53:36.180</time></trkpt><trkpt lat="55.8284045" lon="48.9499236"><time>2021-04-17T09:53:38.157</time></trkpt><trkpt lat="55.8284498" lon="48.9499637"><time>2021-04-17T09:53:40.163</time></trkpt><trkpt lat="55.8284846" lon="48.9500330"><time>2021-04-17T09:53:42.193</time></trkpt><trkpt lat="55.8284978" lon="48.9501517"><time>2021-04-17T09:53:45.170</time></trkpt><trkpt lat="55.8285106" lon="48.9502597"><time>2021-04-17T09:53:47.207</time></trkpt><trkpt lat="55.8285510" lon="48.9503295"><time>2021-04-17T09:53:49.203</time></trkpt><trkpt lat="55.8285918" lon="48.9503861"><time>2021-04-17T09:53:51.180</time></trkpt><trkpt lat="55.8286443" lon="48.9504609"><time>2021-04-17T09:53:54.197</time></trkpt><trkpt lat="55.8286797" lon="48.9505143"><time>2021-04-17T09:53:56.180</time></trkpt><trkpt lat="55.8287091" lon="48.9505761"><time>2021-04-17T09:53:58.180</time></trkpt><trkpt lat="55.8287474" lon="48.9506187"><time>2021-04-17T09:54:00.197</time></trkpt><trkpt lat="55.8287847" lon="48.9506728"><time>2021-04-17T09:54:02.180</time></trkpt><trkpt lat="55.8288218" lon="48.9507311"><time>2021-04-17T09:54:04.197</time></trkpt><trkpt lat="55.8288694" lon="48.9507916"><time>2021-04-17T09:54:07.193</time></trkpt><trkpt lat="55.8289159" lon="48.9508657"><time>2021-04-17T09:54:10.180</time></trkpt><trkpt lat="55.8289564" lon="48.9509134"><time>2021-04-17T09:54:12.183</time></trkpt><trkpt lat="55.8289927" lon="48.9509682"><time>2021-04-17T09:54:14.177</time></trkpt><trkpt lat="55.8290281" lon="48.9510279"><time>2021-04-17T09:54:16.197</time></trkpt><trkpt lat="55.8290537" lon="48.9510983"><time>2021-04-17T09:54:18.163</time></trkpt><trkpt lat="55.8290740" lon="48.9511707"><time>2021-04-17T09:54:20.200</time></trkpt><trkpt lat="55.8291019" lon="48.9512493"><time>2021-04-17T09:54:22.180</time></trkpt><trkpt lat="55.8291321" lon="48.9513276"><time>2021-04-17T09:54:24.197</time></trkpt><trkpt lat="55.8291612" lon="48.9513993"><time>2021-04-17T09:54:26.160</time></trkpt><trkpt lat="55.8291836" lon="48.9514765"><time>2021-04-17T09:54:28.183</time></trkpt><trkpt lat="55.8292077" lon="48.9515462"><time>2021-04-17T09:54:30.197</time></trkpt><trkpt lat="55.8292374" lon="48.9516103"><time>2021-04-17T09:54:32.170</time></trkpt><trkpt lat="55.8292603" lon="48.9516802"><time>2021-04-17T09:54:34.197</time></trkpt><trkpt lat="55.8292929" lon="48.9517395"><time>2021-04-17T09:54:36.193</time></trkpt><trkpt lat="55.8293356" lon="48.9517715"><time>2021-04-17T09:54:38.227</time></trkpt><trkpt lat="55.8293901" lon="48.9518011"><time>2021-04-17T09:54:41.180</time></trkpt><trkpt lat="55.8294336" lon="48.9518234"><time>2021-04-17T09:54:44.180</time></trkpt><trkpt lat="55.8294780" lon="48.9518976"><time>2021-04-17T09:54:48.193</time></trkpt><trkpt lat="55.8295217" lon="48.9519548"><time>2021-04-17T09:54:51.187</time></trkpt><trkpt lat="55.8295616" lon="48.9520443"><time>2021-04-17T09:54:54.187</time></trkpt><trkpt lat="55.8296112" lon="48.9521231"><time>2021-04-17T09:54:57.183</time></trkpt><trkpt lat="55.8296499" lon="48.9522162"><time>2021-04-17T09:55:00.170</time></trkpt><trkpt lat="55.8296828" lon="48.9522914"><time>2021-04-17T09:55:03.197</time></trkpt><trkpt lat="55.8297175" lon="48.9523620"><time>2021-04-17T09:55:06.183</time></trkpt><trkpt lat="55.8297497" lon="48.9524420"><time>2021-04-17T09:55:09.203</time></trkpt><trkpt lat="55.8297921" lon="48.9525249"><time>2021-04-17T09:55:12.197</time></trkpt><trkpt lat="55.8298268" lon="48.9526186"><time>2021-04-17T09:55:15.197</time></trkpt><trkpt lat="55.8298605" lon="48.9527108"><time>2021-04-17T09:55:18.200</time></trkpt><trkpt lat="55.8299123" lon="48.9527825"><time>2021-04-17T09:55:21.183</time></trkpt><trkpt lat="55.8299591" lon="48.9528110"><time>2021-04-17T09:55:24.160</time></trkpt><trkpt lat="55.8299922" lon="48.9528782"><time>2021-04-17T09:55:28.157</time></trkpt><trkpt lat="55.8300076" lon="48.9529715"><time>2021-04-17T09:55:30.187</time></trkpt><trkpt lat="55.8300225" lon="48.9530671"><time>2021-04-17T09:55:32.180</time></trkpt><trkpt lat="55.8300417" lon="48.9531751"><time>2021-04-17T09:55:35.187</time></trkpt><trkpt lat="55.8300564" lon="48.9532541"><time>2021-04-17T09:55:39.190</time></trkpt><trkpt lat="55.8300855" lon="48.9533171"><time>2021-04-17T09:55:43.200</time></trkpt><trkpt lat="55.8301321" lon="48.9533905"><time>2021-04-17T09:55:46.203</time></trkpt><trkpt lat="55.8301764" lon="48.9534630"><time>2021-04-17T09:55:49.203</time></trkpt><trkpt lat="55.8302109" lon="48.9535260"><time>2021-04-17T09:55:52.190</time></trkpt><trkpt lat="55.8302462" lon="48.9536004"><time>2021-04-17T09:55:55.207</time></trkpt><trkpt lat="55.8302742" lon="48.9536862"><time>2021-04-17T09:55:58.190</time></trkpt><trkpt lat="55.8303051" lon="48.9537591"><time>2021-04-17T09:56:01.177</time></trkpt><trkpt lat="55.8303465" lon="48.9538228"><time>2021-04-17T09:56:04.207</time></trkpt><trkpt lat="55.8303834" lon="48.9538907"><time>2021-04-17T09:56:07.177</time></trkpt><trkpt lat="55.8304095" lon="48.9539829"><time>2021-04-17T09:56:11.180</time></trkpt><trkpt lat="55.8304390" lon="48.9540468"><time>2021-04-17T09:56:15.197</time></trkpt><trkpt lat="55.8304635" lon="48.9541312"><time>2021-04-17T09:56:19.177</time></trkpt><trkpt lat="55.8304763" lon="48.9542106"><time>2021-04-17T09:56:23.157</time></trkpt><trkpt lat="55.8304901" lon="48.9542885"><time>2021-04-17T09:56:27.177</time></trkpt><trkpt lat="55.8304539" lon="48.9543492"><time>2021-04-17T09:56:32.180</time></trkpt><trkpt lat="55.8304533" lon="48.9542599"><time>2021-04-17T09:56:42.180</time></trkpt><trkpt lat="55.8304634" lon="48.9541790"><time>2021-04-17T09:56:45.187</time></trkpt><trkpt lat="55.8304765" lon="48.9540985"><time>2021-04-17T09:56:48.183</time></trkpt><trkpt lat="55.8304817" lon="48.9540103"><time>2021-04-17T09:56:51.197</time></trkpt><trkpt lat="55.8304797" lon="48.9539096"><time>2021-04-17T09:56:55.180</time></trkpt><trkpt lat="55.8304587" lon="48.9538258"><time>2021-04-17T09:56:58.183</time></trkpt><trkpt lat="55.8304359" lon="48.9537428"><time>2021-04-17T09:57:02.210</time></trkpt><trkpt lat="55.8304058" lon="48.9536745"><time>2021-04-17T09:57:06.207</time></trkpt><trkpt lat="55.8303813" lon="48.9535786"><time>2021-04-17T09:57:10.190</time></trkpt><trkpt lat="55.8303545" lon="48.9535087"><time>2021-04-17T09:57:13.187</time></trkpt><trkpt lat="55.8303180" lon="48.9534423"><time>2021-04-17T09:57:19.193</time></trkpt><trkpt lat="55.8303067" lon="48.9533619"><time>2021-04-17T09:57:25.183</time></trkpt><trkpt lat="55.8303307" lon="48.9532788"><time>2021-04-17T09:57:33.183</time></trkpt><trkpt lat="55.8303185" lon="48.9531905"><time>2021-04-17T09:57:39.183</time></trkpt><trkpt lat="55.8303351" lon="48.9531090"><time>2021-04-17T09:57:43.190</time></trkpt><trkpt lat="55.8303726" lon="48.9530588"><time>2021-04-17T09:57:51.160</time></trkpt><trkpt lat="55.8303943" lon="48.9529758"><time>2021-04-17T09:57:57.213</time></trkpt><trkpt lat="55.8304033" lon="48.9530564"><time>2021-04-17T09:58:10.197</time></trkpt><trkpt lat="55.8303945" lon="48.9531364"><time>2021-04-17T09:58:15.177</time></trkpt><trkpt lat="55.8303955" lon="48.9532209"><time>2021-04-17T09:58:19.167</time></trkpt><trkpt lat="55.8304114" lon="48.9532967"><time>2021-04-17T09:58:23.197</time></trkpt><trkpt lat="55.8304058" lon="48.9533857"><time>2021-04-17T09:58:27.200</time></trkpt><trkpt lat="55.8303905" lon="48.9532976"><time>2021-04-17T09:58:35.193</time></trkpt><trkpt lat="55.8303892" lon="48.9531967"><time>2021-04-17T09:58:43.200</time></trkpt><trkpt lat="55.8303442" lon="48.9531831"><time>2021-04-17T09:59:06.163</time></trkpt><trkpt lat="55.8302989" lon="48.9532195"><time>2021-04-17T09:59:09.163</time></trkpt><trkpt lat="55.8302532" lon="48.9532278"><time>2021-04-17T09:59:12.180</time></trkpt><trkpt lat="55.8301987" lon="48.9532125"><time>2021-04-17T09:59:16.177</time></trkpt><trkpt lat="55.8301499" lon="48.9531742"><time>2021-04-17T09:59:20.197</time></trkpt><trkpt lat="55.8300960" lon="48.9531681"><time>2021-04-17T09:59:25.180</time></trkpt><trkpt lat="55.8302854" lon="48.9533127"><time>2021-04-17T10:00:03.167</time></trkpt><trkpt lat="55.8303372" lon="48.9535680"><time>2021-04-17T10:00:03.337</time></trkpt><trkpt lat="55.8303372" lon="48.9535680"><time>2021-04-17T10:00:04.747</time></trkpt><trkpt lat="55.8300078" lon="48.9537862"><time>2021-04-17T10:00:06.330</time></trkpt><trkpt lat="55.8300509" lon="48.9539590"><time>2021-04-17T10:00:07.323</time></trkpt><trkpt lat="55.8300518" lon="48.9538218"><time>2021-04-17T10:00:09.353</time></trkpt><trkpt lat="55.8302318" lon="48.9540863"><time>2021-04-17T10:00:10.467</time></trkpt><trkpt lat="55.8303275" lon="48.9541042"><time>2021-04-17T10:00:11.457</time></trkpt><trkpt lat="55.8302727" lon="48.9541498"><time>2021-04-17T10:00:14.457</time></trkpt><trkpt lat="55.8303083" lon="48.9540957"><time>2021-04-17T10:00:26.453</time></trkpt><trkpt lat="55.8303567" lon="48.9540745"><time>2021-04-17T10:00:30.467</time></trkpt><trkpt lat="55.8304087" lon="48.9541060"><time>2021-04-17T10:00:35.487</time></trkpt><trkpt lat="55.8304548" lon="48.9540911"><time>2021-04-17T10:00:39.483</time></trkpt><trkpt lat="55.8305138" lon="48.9540710"><time>2021-04-17T10:00:42.480</time></trkpt><trkpt lat="55.8305601" lon="48.9540552"><time>2021-04-17T10:00:44.487</time></trkpt><trkpt lat="55.8306182" lon="48.9540530"><time>2021-04-17T10:00:46.470</time></trkpt><trkpt lat="55.8306810" lon="48.9540478"><time>2021-04-17T10:00:49.483</time></trkpt><trkpt lat="55.8307407" lon="48.9540687"><time>2021-04-17T10:00:52.520</time></trkpt><trkpt lat="55.8307875" lon="48.9540693"><time>2021-04-17T10:00:54.470</time></trkpt><trkpt lat="55.8308441" lon="48.9540149"><time>2021-04-17T10:00:57.487</time></trkpt><trkpt lat="55.8308873" lon="48.9539819"><time>2021-04-17T10:01:00.457</time></trkpt><trkpt lat="55.8309285" lon="48.9538811"><time>2021-04-17T10:01:12.467</time></trkpt><trkpt lat="55.8309687" lon="48.9537981"><time>2021-04-17T10:01:14.473</time></trkpt><trkpt lat="55.8310182" lon="48.9537509"><time>2021-04-17T10:01:16.473</time></trkpt><trkpt lat="55.8310694" lon="48.9537595"><time>2021-04-17T10:01:18.473</time></trkpt><trkpt lat="55.8311176" lon="48.9537913"><time>2021-04-17T10:01:20.490</time></trkpt><trkpt lat="55.8311685" lon="48.9538079"><time>2021-04-17T10:01:22.470</time></trkpt><trkpt lat="55.8312132" lon="48.9537994"><time>2021-04-17T10:01:27.463</time></trkpt><trkpt lat="55.8312811" lon="48.9538141"><time>2021-04-17T10:01:30.477</time></trkpt><trkpt lat="55.8313340" lon="48.9538796"><time>2021-04-17T10:01:32.480</time></trkpt><trkpt lat="55.8313779" lon="48.9539521"><time>2021-04-17T10:01:34.447</time></trkpt><trkpt lat="55.8314225" lon="48.9540294"><time>2021-04-17T10:01:36.467</time></trkpt><trkpt lat="55.8314640" lon="48.9541081"><time>2021-04-17T10:01:38.477</time></trkpt><trkpt lat="55.8315079" lon="48.9541762"><time>2021-04-17T10:01:40.483</time></trkpt><trkpt lat="55.8315516" lon="48.9542456"><time>2021-04-17T10:01:42.450</time></trkpt><trkpt lat="55.8315898" lon="48.9543086"><time>2021-04-17T10:01:44.480</time></trkpt><trkpt lat="55.8316297" lon="48.9543697"><time>2021-04-17T10:01:46.467</time></trkpt><trkpt lat="55.8316710" lon="48.9544359"><time>2021-04-17T10:01:48.480</time></trkpt><trkpt lat="55.8317084" lon="48.9545044"><time>2021-04-17T10:01:50.480</time></trkpt><trkpt lat="55.8317430" lon="48.9545785"><time>2021-04-17T10:01:52.480</time></trkpt><trkpt lat="55.8317753" lon="48.9546527"><time>2021-04-17T10:01:54.480</time></trkpt><trkpt lat="55.8318066" lon="48.9547245"><time>2021-04-17T10:01:56.493</time></trkpt><trkpt lat="55.8318396" lon="48.9547950"><time>2021-04-17T10:01:58.453</time></trkpt><trkpt lat="55.8318738" lon="48.9548663"><time>2021-04-17T10:02:00.463</time></trkpt><trkpt lat="55.8319028" lon="48.9549460"><time>2021-04-17T10:02:02.473</time></trkpt><trkpt lat="55.8319302" lon="48.9550307"><time>2021-04-17T10:02:04.477</time></trkpt><trkpt lat="55.8319552" lon="48.9551126"><time>2021-04-17T10:02:06.497</time></trkpt><trkpt lat="55.8319711" lon="48.9551985"><time>2021-04-17T10:02:08.473</time></trkpt><trkpt lat="55.8319884" lon="48.9552856"><time>2021-04-17T10:02:10.480</time></trkpt><trkpt lat="55.8320052" lon="48.9553679"><time>2021-04-17T10:02:12.467</time></trkpt><trkpt lat="55.8320306" lon="48.9554420"><time>2021-04-17T10:02:14.493</time></trkpt><trkpt lat="55.8320707" lon="48.9555368"><time>2021-04-17T10:02:17.467</time></trkpt><trkpt lat="55.8321009" lon="48.9556016"><time>2021-04-17T10:02:19.483</time></trkpt><trkpt lat="55.8321284" lon="48.9556742"><time>2021-04-17T10:02:21.480</time></trkpt><trkpt lat="55.8321579" lon="48.9557423"><time>2021-04-17T10:02:23.473</time></trkpt><trkpt lat="55.8321888" lon="48.9558130"><time>2021-04-17T10:02:25.490</time></trkpt><trkpt lat="55.8322153" lon="48.9558917"><time>2021-04-17T10:02:27.443</time></trkpt><trkpt lat="55.8322417" lon="48.9559763"><time>2021-04-17T10:02:29.483</time></trkpt><trkpt lat="55.8322713" lon="48.9560595"><time>2021-04-17T10:02:31.477</time></trkpt><trkpt lat="55.8322931" lon="48.9561422"><time>2021-04-17T10:02:33.497</time></trkpt><trkpt lat="55.8322747" lon="48.9562537"><time>2021-04-17T10:02:36.503</time></trkpt><trkpt lat="55.8322456" lon="48.9563251"><time>2021-04-17T10:02:38.483</time></trkpt><trkpt lat="55.8321953" lon="48.9563991"><time>2021-04-17T10:02:41.467</time></trkpt><trkpt lat="55.8321473" lon="48.9564859"><time>2021-04-17T10:02:44.473</time></trkpt><trkpt lat="55.8321163" lon="48.9565554"><time>2021-04-17T10:02:46.467</time></trkpt><trkpt lat="55.8320854" lon="48.9566246"><time>2021-04-17T10:02:48.517</time></trkpt><trkpt lat="55.8320537" lon="48.9566817"><time>2021-04-17T10:02:50.463</time></trkpt><trkpt lat="55.8320114" lon="48.9567314"><time>2021-04-17T10:02:54.480</time></trkpt><trkpt lat="55.8320042" lon="48.9567356"><time>2021-04-17T10:02:56.727</time></trkpt><trkpt lat="55.8320543" lon="48.9567996"><time>2021-04-17T10:03:17.447</time></trkpt><trkpt lat="55.8320646" lon="48.9569027"><time>2021-04-17T10:03:22.493</time></trkpt><trkpt lat="55.8320411" lon="48.9569889"><time>2021-04-17T10:03:26.447</time></trkpt><trkpt lat="55.8320187" lon="48.9570600"><time>2021-04-17T10:03:31.470</time></trkpt><trkpt lat="55.8319893" lon="48.9571423"><time>2021-04-17T10:03:35.470</time></trkpt><trkpt lat="55.8319681" lon="48.9572139"><time>2021-04-17T10:03:38.473</time></trkpt><trkpt lat="55.8319754" lon="48.9573034"><time>2021-04-17T10:03:41.470</time></trkpt><trkpt lat="55.8319598" lon="48.9574052"><time>2021-04-17T10:03:44.483</time></trkpt><trkpt lat="55.8319315" lon="48.9575124"><time>2021-04-17T10:03:47.467</time></trkpt><trkpt lat="55.8319060" lon="48.9575873"><time>2021-04-17T10:03:50.467</time></trkpt><trkpt lat="55.8318979" lon="48.9576690"><time>2021-04-17T10:03:55.473</time></trkpt><trkpt lat="55.8318654" lon="48.9577277"><time>2021-04-17T10:03:58.473</time></trkpt><trkpt lat="55.8318617" lon="48.9578118"><time>2021-04-17T10:04:03.473</time></trkpt><trkpt lat="55.8318741" lon="48.9578934"><time>2021-04-17T10:04:07.467</time></trkpt><trkpt lat="55.8318853" lon="48.9579851"><time>2021-04-17T10:04:11.507</time></trkpt><trkpt lat="55.8318901" lon="48.9580743"><time>2021-04-17T10:04:14.477</time></trkpt><trkpt lat="55.8319045" lon="48.9581663"><time>2021-04-17T10:04:18.477</time></trkpt><trkpt lat="55.8319256" lon="48.9582521"><time>2021-04-17T10:04:22.500</time></trkpt><trkpt lat="55.8319145" lon="48.9583344"><time>2021-04-17T10:04:26.453</time></trkpt><trkpt lat="55.8319095" lon="48.9584206"><time>2021-04-17T10:04:30.453</time></trkpt><trkpt lat="55.8318841" lon="48.9585008"><time>2021-04-17T10:04:35.487</time></trkpt><trkpt lat="55.8318858" lon="48.9585909"><time>2021-04-17T10:04:41.487</time></trkpt><trkpt lat="55.8318821" lon="48.9586740"><time>2021-04-17T10:04:45.467</time></trkpt><trkpt lat="55.8318787" lon="48.9587763"><time>2021-04-17T10:04:49.450</time></trkpt><trkpt lat="55.8318469" lon="48.9588410"><time>2021-04-17T10:04:58.473</time></trkpt><trkpt lat="55.8318125" lon="48.9589288"><time>2021-04-17T10:05:01.480</time></trkpt><trkpt lat="55.8318074" lon="48.9590383"><time>2021-04-17T10:05:04.473</time></trkpt><trkpt lat="55.8318190" lon="48.9591178"><time>2021-04-17T10:05:06.483</time></trkpt><trkpt lat="55.8318282" lon="48.9592041"><time>2021-04-17T10:05:08.470</time></trkpt><trkpt lat="55.8318220" lon="48.9593174"><time>2021-04-17T10:05:11.477</time></trkpt><trkpt lat="55.8318141" lon="48.9593984"><time>2021-04-17T10:05:13.470</time></trkpt><trkpt lat="55.8318151" lon="48.9595186"><time>2021-04-17T10:05:16.467</time></trkpt><trkpt lat="55.8318177" lon="48.9596036"><time>2021-04-17T10:05:18.487</time></trkpt><trkpt lat="55.8318179" lon="48.9596891"><time>2021-04-17T10:05:20.497</time></trkpt><trkpt lat="55.8318074" lon="48.9597698"><time>2021-04-17T10:05:22.483</time></trkpt><trkpt lat="55.8317989" lon="48.9598533"><time>2021-04-17T10:05:24.473</time></trkpt><trkpt lat="55.8317941" lon="48.9599331"><time>2021-04-17T10:05:26.467</time></trkpt><trkpt lat="55.8317870" lon="48.9600124"><time>2021-04-17T10:05:28.467</time></trkpt><trkpt lat="55.8317820" lon="48.9601303"><time>2021-04-17T10:05:31.503</time></trkpt><trkpt lat="55.8317763" lon="48.9602406"><time>2021-04-17T10:05:34.483</time></trkpt><trkpt lat="55.8317646" lon="48.9603499"><time>2021-04-17T10:05:37.497</time></trkpt><trkpt lat="55.8317443" lon="48.9604267"><time>2021-04-17T10:05:39.483</time></trkpt><trkpt lat="55.8317196" lon="48.9605210"><time>2021-04-17T10:05:42.477</time></trkpt><trkpt lat="55.8317020" lon="48.9606234"><time>2021-04-17T10:05:45.480</time></trkpt><trkpt lat="55.8317012" lon="48.9607313"><time>2021-04-17T10:05:48.487</time></trkpt><trkpt lat="55.8317207" lon="48.9608302"><time>2021-04-17T10:05:51.447</time></trkpt><trkpt lat="55.8317503" lon="48.9609200"><time>2021-04-17T10:05:54.487</time></trkpt><trkpt lat="55.8317972" lon="48.9610038"><time>2021-04-17T10:05:57.460</time></trkpt><trkpt lat="55.8318267" lon="48.9610818"><time>2021-04-17T10:05:59.477</time></trkpt><trkpt lat="55.8318500" lon="48.9611729"><time>2021-04-17T10:06:01.463</time></trkpt><trkpt lat="55.8318743" lon="48.9612517"><time>2021-04-17T10:06:03.500</time></trkpt><trkpt lat="55.8319056" lon="48.9613349"><time>2021-04-17T10:06:05.473</time></trkpt><trkpt lat="55.8319325" lon="48.9614149"><time>2021-04-17T10:06:07.500</time></trkpt><trkpt lat="55.8319669" lon="48.9615180"><time>2021-04-17T10:06:10.473</time></trkpt><trkpt lat="55.8319895" lon="48.9616207"><time>2021-04-17T10:06:12.470</time></trkpt><trkpt lat="55.8320140" lon="48.9617132"><time>2021-04-17T10:06:14.490</time></trkpt><trkpt lat="55.8320360" lon="48.9617979"><time>2021-04-17T10:06:16.493</time></trkpt><trkpt lat="55.8320504" lon="48.9618844"><time>2021-04-17T10:06:18.457</time></trkpt><trkpt lat="55.8320613" lon="48.9619918"><time>2021-04-17T10:06:21.470</time></trkpt><trkpt lat="55.8320760" lon="48.9620934"><time>2021-04-17T10:06:24.470</time></trkpt><trkpt lat="55.8320935" lon="48.9621950"><time>2021-04-17T10:06:27.487</time></trkpt><trkpt lat="55.8321136" lon="48.9622956"><time>2021-04-17T10:06:30.487</time></trkpt><trkpt lat="55.8321205" lon="48.9624157"><time>2021-04-17T10:06:33.497</time></trkpt><trkpt lat="55.8321302" lon="48.9624972"><time>2021-04-17T10:06:35.480</time></trkpt><trkpt lat="55.8321510" lon="48.9626047"><time>2021-04-17T10:06:38.463</time></trkpt><trkpt lat="55.8321397" lon="48.9626865"><time>2021-04-17T10:06:40.483</time></trkpt><trkpt lat="55.8321080" lon="48.9627611"><time>2021-04-17T10:06:42.500</time></trkpt><trkpt lat="55.8320798" lon="48.9628359"><time>2021-04-17T10:06:44.497</time></trkpt><trkpt lat="55.8320605" lon="48.9629125"><time>2021-04-17T10:06:47.473</time></trkpt><trkpt lat="55.8320503" lon="48.9630130"><time>2021-04-17T10:06:50.477</time></trkpt><trkpt lat="55.8320814" lon="48.9631144"><time>2021-04-17T10:06:53.473</time></trkpt><trkpt lat="55.8321098" lon="48.9632068"><time>2021-04-17T10:06:57.473</time></trkpt><trkpt lat="55.8321086" lon="48.9633066"><time>2021-04-17T10:07:00.480</time></trkpt><trkpt lat="55.8320987" lon="48.9633863"><time>2021-04-17T10:07:02.483</time></trkpt><trkpt lat="55.8321182" lon="48.9634725"><time>2021-04-17T10:07:05.480</time></trkpt><trkpt lat="55.8321743" lon="48.9635267"><time>2021-04-17T10:07:08.457</time></trkpt><trkpt lat="55.8322338" lon="48.9635596"><time>2021-04-17T10:07:10.463</time></trkpt><trkpt lat="55.8322836" lon="48.9636092"><time>2021-04-17T10:07:12.470</time></trkpt><trkpt lat="55.8323251" lon="48.9636488"><time>2021-04-17T10:07:14.473</time></trkpt><trkpt lat="55.8323686" lon="48.9636846"><time>2021-04-17T10:07:16.490</time></trkpt><trkpt lat="55.8324180" lon="48.9637250"><time>2021-04-17T10:07:18.497</time></trkpt><trkpt lat="55.8324619" lon="48.9637778"><time>2021-04-17T10:07:20.473</time></trkpt><trkpt lat="55.8325210" lon="48.9638340"><time>2021-04-17T10:07:23.470</time></trkpt><trkpt lat="55.8325637" lon="48.9638591"><time>2021-04-17T10:07:25.477</time></trkpt><trkpt lat="55.8326085" lon="48.9638885"><time>2021-04-17T10:07:27.477</time></trkpt><trkpt lat="55.8326502" lon="48.9639273"><time>2021-04-17T10:07:29.477</time></trkpt><trkpt lat="55.8327104" lon="48.9639672"><time>2021-04-17T10:07:32.500</time></trkpt><trkpt lat="55.8327696" lon="48.9639888"><time>2021-04-17T10:07:35.477</time></trkpt><trkpt lat="55.8328189" lon="48.9640066"><time>2021-04-17T10:07:38.477</time></trkpt><trkpt lat="55.8328657" lon="48.9640305"><time>2021-04-17T10:07:41.450</time></trkpt><trkpt lat="55.8334307" lon="48.9648505"><time>2021-04-17T10:08:12.793</time></trkpt><trkpt lat="55.8329354" lon="48.9652430"><time>2021-04-17T10:08:13.950</time></trkpt><trkpt lat="55.8329354" lon="48.9652430"><time>2021-04-17T10:08:14.893</time></trkpt><trkpt lat="55.8328080" lon="48.9649337"><time>2021-04-17T10:08:14.983</time></trkpt><trkpt lat="55.8328870" lon="48.9648538"><time>2021-04-17T10:08:15.477</time></trkpt><trkpt lat="55.8326970" lon="48.9646929"><time>2021-04-17T10:08:16.477</time></trkpt><trkpt lat="55.8327623" lon="48.9646897"><time>2021-04-17T10:08:17.473</time></trkpt><trkpt lat="55.8327986" lon="48.9647571"><time>2021-04-17T10:08:18.483</time></trkpt><trkpt lat="55.8329164" lon="48.9648747"><time>2021-04-17T10:08:20.477</time></trkpt><trkpt lat="55.8329602" lon="48.9649074"><time>2021-04-17T10:08:22.507</time></trkpt><trkpt lat="55.8329632" lon="48.9650136"><time>2021-04-17T10:08:24.473</time></trkpt><trkpt lat="55.8329844" lon="48.9651127"><time>2021-04-17T10:08:27.473</time></trkpt><trkpt lat="55.8330088" lon="48.9652049"><time>2021-04-17T10:08:29.520</time></trkpt><trkpt lat="55.8330371" lon="48.9652940"><time>2021-04-17T10:08:31.507</time></trkpt><trkpt lat="55.8330958" lon="48.9653019"><time>2021-04-17T10:08:35.477</time></trkpt><trkpt lat="55.8331227" lon="48.9652246"><time>2021-04-17T10:08:37.473</time></trkpt><trkpt lat="55.8331560" lon="48.9651488"><time>2021-04-17T10:08:39.503</time></trkpt><trkpt lat="55.8331982" lon="48.9650677"><time>2021-04-17T10:08:41.507</time></trkpt><trkpt lat="55.8332415" lon="48.9649813"><time>2021-04-17T10:08:43.503</time></trkpt><trkpt lat="55.8333002" lon="48.9649381"><time>2021-04-17T10:08:45.507</time></trkpt><trkpt lat="55.8333826" lon="48.9649174"><time>2021-04-17T10:08:47.517</time></trkpt><trkpt lat="55.8334176" lon="48.9649685"><time>2021-04-17T10:08:49.507</time></trkpt><trkpt lat="55.8334487" lon="48.9650528"><time>2021-04-17T10:08:51.477</time></trkpt><trkpt lat="55.8334493" lon="48.9651560"><time>2021-04-17T10:08:53.503</time></trkpt><trkpt lat="55.8334260" lon="48.9652639"><time>2021-04-17T10:08:55.510</time></trkpt><trkpt lat="55.8333995" lon="48.9653386"><time>2021-04-17T10:08:57.527</time></trkpt><trkpt lat="55.8333708" lon="48.9654270"><time>2021-04-17T10:09:00.500</time></trkpt><trkpt lat="55.8333546" lon="48.9655112"><time>2021-04-17T10:09:04.510</time></trkpt><trkpt lat="55.8333293" lon="48.9655809"><time>2021-04-17T10:09:06.510</time></trkpt><trkpt lat="55.8332853" lon="48.9656916"><time>2021-04-17T10:09:08.477</time></trkpt><trkpt lat="55.8332660" lon="48.9657735"><time>2021-04-17T10:09:10.513</time></trkpt><trkpt lat="55.8332486" lon="48.9658648"><time>2021-04-17T10:09:12.507</time></trkpt><trkpt lat="55.8332217" lon="48.9659664"><time>2021-04-17T10:09:14.500</time></trkpt><trkpt lat="55.8331856" lon="48.9660774"><time>2021-04-17T10:09:16.513</time></trkpt><trkpt lat="55.8331634" lon="48.9661747"><time>2021-04-17T10:09:18.497</time></trkpt><trkpt lat="55.8331485" lon="48.9662539"><time>2021-04-17T10:09:20.517</time></trkpt><trkpt lat="55.8331240" lon="48.9663754"><time>2021-04-17T10:09:22.503</time></trkpt><trkpt lat="55.8331064" lon="48.9664591"><time>2021-04-17T10:09:24.500</time></trkpt><trkpt lat="55.8330953" lon="48.9665386"><time>2021-04-17T10:09:26.497</time></trkpt><trkpt lat="55.8330745" lon="48.9666518"><time>2021-04-17T10:09:29.513</time></trkpt><trkpt lat="55.8330589" lon="48.9667318"><time>2021-04-17T10:09:31.527</time></trkpt><trkpt lat="55.8330511" lon="48.9668166"><time>2021-04-17T10:09:33.513</time></trkpt><trkpt lat="55.8330467" lon="48.9669014"><time>2021-04-17T10:09:35.487</time></trkpt><trkpt lat="55.8330382" lon="48.9669945"><time>2021-04-17T10:09:37.503</time></trkpt><trkpt lat="55.8330159" lon="48.9670859"><time>2021-04-17T10:09:39.497</time></trkpt><trkpt lat="55.8329975" lon="48.9671624"><time>2021-04-17T10:09:41.520</time></trkpt><trkpt lat="55.8329917" lon="48.9672836"><time>2021-04-17T10:09:44.513</time></trkpt><trkpt lat="55.8329783" lon="48.9674019"><time>2021-04-17T10:09:47.507</time></trkpt><trkpt lat="55.8329598" lon="48.9674869"><time>2021-04-17T10:09:49.473</time></trkpt><trkpt lat="55.8329600" lon="48.9675863"><time>2021-04-17T10:09:51.517</time></trkpt><trkpt lat="55.8329691" lon="48.9676810"><time>2021-04-17T10:09:53.517</time></trkpt><trkpt lat="55.8329762" lon="48.9677690"><time>2021-04-17T10:09:55.500</time></trkpt><trkpt lat="55.8329855" lon="48.9678516"><time>2021-04-17T10:09:57.503</time></trkpt><trkpt lat="55.8329883" lon="48.9679411"><time>2021-04-17T10:09:59.483</time></trkpt><trkpt lat="55.8329776" lon="48.9680404"><time>2021-04-17T10:10:02.507</time></trkpt><trkpt lat="55.8329650" lon="48.9681580"><time>2021-04-17T10:10:05.500</time></trkpt><trkpt lat="55.8329581" lon="48.9682658"><time>2021-04-17T10:10:08.500</time></trkpt><trkpt lat="55.8329448" lon="48.9683504"><time>2021-04-17T10:10:10.503</time></trkpt><trkpt lat="55.8329249" lon="48.9684528"><time>2021-04-17T10:10:13.500</time></trkpt><trkpt lat="55.8329110" lon="48.9685410"><time>2021-04-17T10:10:15.537</time></trkpt><trkpt lat="55.8328931" lon="48.9686488"><time>2021-04-17T10:10:18.473</time></trkpt><trkpt lat="55.8328646" lon="48.9687301"><time>2021-04-17T10:10:20.517</time></trkpt><trkpt lat="55.8328528" lon="48.9688133"><time>2021-04-17T10:10:22.513</time></trkpt><trkpt lat="55.8328392" lon="48.9689163"><time>2021-04-17T10:10:24.503</time></trkpt><trkpt lat="55.8328209" lon="48.9689922"><time>2021-04-17T10:10:26.503</time></trkpt><trkpt lat="55.8327931" lon="48.9690653"><time>2021-04-17T10:10:28.507</time></trkpt><trkpt lat="55.8327878" lon="48.9691478"><time>2021-04-17T10:10:32.477</time></trkpt><trkpt lat="55.8327428" lon="48.9691587"><time>2021-04-17T10:10:35.507</time></trkpt><trkpt lat="55.8326911" lon="48.9691492"><time>2021-04-17T10:10:39.507</time></trkpt><trkpt lat="55.8326337" lon="48.9691444"><time>2021-04-17T10:10:42.517</time></trkpt><trkpt lat="55.8325841" lon="48.9691360"><time>2021-04-17T10:10:45.507</time></trkpt><trkpt lat="55.8325279" lon="48.9691512"><time>2021-04-17T10:10:50.523</time></trkpt><trkpt lat="55.8324785" lon="48.9691678"><time>2021-04-17T10:10:54.507</time></trkpt><trkpt lat="55.8324306" lon="48.9692000"><time>2021-04-17T10:10:58.473</time></trkpt><trkpt lat="55.8323983" lon="48.9692806"><time>2021-04-17T10:11:02.507</time></trkpt><trkpt lat="55.8323480" lon="48.9692823"><time>2021-04-17T10:11:10.507</time></trkpt><trkpt lat="55.8323945" lon="48.9693584"><time>2021-04-17T10:11:24.493</time></trkpt><trkpt lat="55.8324371" lon="48.9694415"><time>2021-04-17T10:11:27.487</time></trkpt><trkpt lat="55.8324686" lon="48.9695177"><time>2021-04-17T10:11:29.497</time></trkpt><trkpt lat="55.8324831" lon="48.9696168"><time>2021-04-17T10:11:31.513</time></trkpt><trkpt lat="55.8325009" lon="48.9697037"><time>2021-04-17T10:11:34.487</time></trkpt><trkpt lat="55.8325495" lon="48.9696455"><time>2021-04-17T10:11:38.480</time></trkpt><trkpt lat="55.8325495" lon="48.9696455"><time>2021-04-17T10:11:38.747</time></trkpt><trkpt lat="55.8326210" lon="48.9696325"><time>2021-04-17T10:11:43.490</time></trkpt><trkpt lat="55.8326386" lon="48.9697114"><time>2021-04-17T10:11:46.477</time></trkpt><trkpt lat="55.8325942" lon="48.9697393"><time>2021-04-17T10:11:48.510</time></trkpt><trkpt lat="55.8326380" lon="48.9696872"><time>2021-04-17T10:11:57.517</time></trkpt><trkpt lat="55.8326829" lon="48.9696632"><time>2021-04-17T10:12:01.487</time></trkpt><trkpt lat="55.8327266" lon="48.9697189"><time>2021-04-17T10:12:03.500</time></trkpt><trkpt lat="55.8327657" lon="48.9698274"><time>2021-04-17T10:12:05.497</time></trkpt><trkpt lat="55.8327715" lon="48.9699475"><time>2021-04-17T10:12:07.510</time></trkpt><trkpt lat="55.8327643" lon="48.9700581"><time>2021-04-17T10:12:09.517</time></trkpt><trkpt lat="55.8327648" lon="48.9701749"><time>2021-04-17T10:12:12.493</time></trkpt><trkpt lat="55.8327527" lon="48.9702893"><time>2021-04-17T10:12:15.473</time></trkpt><trkpt lat="55.8327493" lon="48.9703902"><time>2021-04-17T10:12:18.503</time></trkpt><trkpt lat="55.8327669" lon="48.9704794"><time>2021-04-17T10:12:21.507</time></trkpt><trkpt lat="55.8327731" lon="48.9705853"><time>2021-04-17T10:12:24.493</time></trkpt><trkpt lat="55.8327859" lon="48.9706964"><time>2021-04-17T10:12:27.480</time></trkpt><trkpt lat="55.8328113" lon="48.9707935"><time>2021-04-17T10:12:30.497</time></trkpt><trkpt lat="55.8328155" lon="48.9708869"><time>2021-04-17T10:12:32.507</time></trkpt><trkpt lat="55.8328266" lon="48.9709752"><time>2021-04-17T10:12:34.500</time></trkpt><trkpt lat="55.8328472" lon="48.9710634"><time>2021-04-17T10:12:37.507</time></trkpt><trkpt lat="55.8328861" lon="48.9711425"><time>2021-04-17T10:12:43.507</time></trkpt><trkpt lat="55.8329266" lon="48.9712033"><time>2021-04-17T10:12:45.507</time></trkpt><trkpt lat="55.8329745" lon="48.9712504"><time>2021-04-17T10:12:47.510</time></trkpt><trkpt lat="55.8330294" lon="48.9713213"><time>2021-04-17T10:12:50.507</time></trkpt><trkpt lat="55.8330837" lon="48.9713959"><time>2021-04-17T10:12:53.500</time></trkpt><trkpt lat="55.8331219" lon="48.9714868"><time>2021-04-17T10:12:55.497</time></trkpt><trkpt lat="55.8331589" lon="48.9715652"><time>2021-04-17T10:12:57.513</time></trkpt><trkpt lat="55.8332047" lon="48.9716051"><time>2021-04-17T10:12:59.500</time></trkpt><trkpt lat="55.8332499" lon="48.9716448"><time>2021-04-17T10:13:01.490</time></trkpt><trkpt lat="55.8332920" lon="48.9716866"><time>2021-04-17T10:13:03.500</time></trkpt><trkpt lat="55.8333305" lon="48.9717541"><time>2021-04-17T10:13:05.503</time></trkpt><trkpt lat="55.8333652" lon="48.9718213"><time>2021-04-17T10:13:07.520</time></trkpt><trkpt lat="55.8333949" lon="48.9718882"><time>2021-04-17T10:13:09.517</time></trkpt><trkpt lat="55.8334451" lon="48.9719539"><time>2021-04-17T10:13:12.500</time></trkpt><trkpt lat="55.8335054" lon="48.9719838"><time>2021-04-17T10:13:15.473</time></trkpt><trkpt lat="55.8335410" lon="48.9720716"><time>2021-04-17T10:13:18.480</time></trkpt><trkpt lat="55.8335690" lon="48.9721662"><time>2021-04-17T10:13:20.493</time></trkpt><trkpt lat="55.8335986" lon="48.9722602"><time>2021-04-17T10:13:22.517</time></trkpt><trkpt lat="55.8336338" lon="48.9723254"><time>2021-04-17T10:13:24.517</time></trkpt><trkpt lat="55.8336682" lon="48.9724117"><time>2021-04-17T10:13:27.500</time></trkpt><trkpt lat="55.8336868" lon="48.9725012"><time>2021-04-17T10:13:30.513</time></trkpt><trkpt lat="55.8337103" lon="48.9725855"><time>2021-04-17T10:13:34.497</time></trkpt><trkpt lat="55.8337172" lon="48.9726949"><time>2021-04-17T10:13:37.497</time></trkpt><trkpt lat="55.8337053" lon="48.9727954"><time>2021-04-17T10:13:40.473</time></trkpt><trkpt lat="55.8336950" lon="48.9728734"><time>2021-04-17T10:13:42.503</time></trkpt><trkpt lat="55.8336895" lon="48.9729801"><time>2021-04-17T10:13:45.493</time></trkpt><trkpt lat="55.8337027" lon="48.9730609"><time>2021-04-17T10:13:48.497</time></trkpt><trkpt lat="55.8336683" lon="48.9731207"><time>2021-04-17T10:13:52.497</time></trkpt><trkpt lat="55.8336370" lon="48.9731248"><time>2021-04-17T10:13:59.357</time></trkpt><trkpt lat="55.8336183" lon="48.9731052"><time>2021-04-17T10:14:10.503</time></trkpt><trkpt lat="55.8335765" lon="48.9731763"><time>2021-04-17T10:14:20.497</time></trkpt><trkpt lat="55.8335825" lon="48.9733020"><time>2021-04-17T10:14:24.493</time></trkpt><trkpt lat="55.8336070" lon="48.9733904"><time>2021-04-17T10:14:26.500</time></trkpt><trkpt lat="55.8336380" lon="48.9734855"><time>2021-04-17T10:14:28.513</time></trkpt><trkpt lat="55.8336517" lon="48.9735788"><time>2021-04-17T10:14:30.497</time></trkpt><trkpt lat="55.8336490" lon="48.9736850"><time>2021-04-17T10:14:32.493</time></trkpt><trkpt lat="55.8336416" lon="48.9738092"><time>2021-04-17T10:14:34.497</time></trkpt><trkpt lat="55.8336259" lon="48.9738877"><time>2021-04-17T10:14:35.497</time></trkpt><trkpt lat="55.8336019" lon="48.9740095"><time>2021-04-17T10:14:37.483</time></trkpt><trkpt lat="55.8335937" lon="48.9741184"><time>2021-04-17T10:14:39.513</time></trkpt><trkpt lat="55.8335757" lon="48.9742140"><time>2021-04-17T10:14:41.500</time></trkpt><trkpt lat="55.8335621" lon="48.9743012"><time>2021-04-17T10:14:43.483</time></trkpt><trkpt lat="55.8335617" lon="48.9744094"><time>2021-04-17T10:14:46.517</time></trkpt><trkpt lat="55.8335535" lon="48.9745185"><time>2021-04-17T10:14:49.497</time></trkpt><trkpt lat="55.8335429" lon="48.9746166"><time>2021-04-17T10:14:52.513</time></trkpt><trkpt lat="55.8335216" lon="48.9747247"><time>2021-04-17T10:14:55.513</time></trkpt><trkpt lat="55.8335064" lon="48.9748166"><time>2021-04-17T10:14:57.480</time></trkpt><trkpt lat="55.8334962" lon="48.9749280"><time>2021-04-17T10:15:00.513</time></trkpt><trkpt lat="55.8335003" lon="48.9750474"><time>2021-04-17T10:15:03.510</time></trkpt><trkpt lat="55.8334936" lon="48.9751460"><time>2021-04-17T10:15:06.500</time></trkpt><trkpt lat="55.8334763" lon="48.9752682"><time>2021-04-17T10:15:09.507</time></trkpt><trkpt lat="55.8334593" lon="48.9753764"><time>2021-04-17T10:15:11.503</time></trkpt><trkpt lat="55.8334385" lon="48.9754790"><time>2021-04-17T10:15:13.503</time></trkpt><trkpt lat="55.8334264" lon="48.9755844"><time>2021-04-17T10:15:16.500</time></trkpt><trkpt lat="55.8334172" lon="48.9756745"><time>2021-04-17T10:15:18.540</time></trkpt><trkpt lat="55.8334209" lon="48.9757899"><time>2021-04-17T10:15:21.473</time></trkpt><trkpt lat="55.8334224" lon="48.9758802"><time>2021-04-17T10:15:23.500</time></trkpt><trkpt lat="55.8334168" lon="48.9760076"><time>2021-04-17T10:15:25.500</time></trkpt><trkpt lat="55.8334038" lon="48.9761487"><time>2021-04-17T10:15:27.503</time></trkpt><trkpt lat="55.8334046" lon="48.9762563"><time>2021-04-17T10:15:29.503</time></trkpt><trkpt lat="55.8334096" lon="48.9763464"><time>2021-04-17T10:15:31.503</time></trkpt><trkpt lat="55.8334138" lon="48.9764659"><time>2021-04-17T10:15:34.503</time></trkpt><trkpt lat="55.8334295" lon="48.9765614"><time>2021-04-17T10:15:37.503</time></trkpt><trkpt lat="55.8334548" lon="48.9766339"><time>2021-04-17T10:15:40.507</time></trkpt><trkpt lat="55.8334735" lon="48.9767142"><time>2021-04-17T10:15:43.503</time></trkpt><trkpt lat="55.8334713" lon="48.9768153"><time>2021-04-17T10:15:46.517</time></trkpt><trkpt lat="55.8334980" lon="48.9769183"><time>2021-04-17T10:15:49.497</time></trkpt><trkpt lat="55.8335174" lon="48.9770196"><time>2021-04-17T10:15:52.507</time></trkpt><trkpt lat="55.8335092" lon="48.9771142"><time>2021-04-17T10:15:54.503</time></trkpt><trkpt lat="55.8334994" lon="48.9772058"><time>2021-04-17T10:15:56.500</time></trkpt><trkpt lat="55.8334923" lon="48.9772886"><time>2021-04-17T10:15:58.507</time></trkpt><trkpt lat="55.8335013" lon="48.9773904"><time>2021-04-17T10:16:02.503</time></trkpt><trkpt lat="55.8335006" lon="48.9775011"><time>2021-04-17T10:16:05.490</time></trkpt><trkpt lat="55.8334971" lon="48.9776112"><time>2021-04-17T10:16:08.503</time></trkpt><trkpt lat="55.8334979" lon="48.9777291"><time>2021-04-17T10:16:11.500</time></trkpt><trkpt lat="55.8335121" lon="48.9778074"><time>2021-04-17T10:16:13.543</time></trkpt><trkpt lat="55.8335052" lon="48.9779262"><time>2021-04-17T10:16:16.480</time></trkpt><trkpt lat="55.8334877" lon="48.9780252"><time>2021-04-17T10:16:18.497</time></trkpt><trkpt lat="55.8334811" lon="48.9781387"><time>2021-04-17T10:16:20.513</time></trkpt><trkpt lat="55.8334780" lon="48.9782364"><time>2021-04-17T10:16:22.497</time></trkpt><trkpt lat="55.8334776" lon="48.9783309"><time>2021-04-17T10:16:24.530</time></trkpt><trkpt lat="55.8335030" lon="48.9784337"><time>2021-04-17T10:16:27.487</time></trkpt><trkpt lat="55.8335273" lon="48.9785349"><time>2021-04-17T10:16:30.487</time></trkpt><trkpt lat="55.8335324" lon="48.9786279"><time>2021-04-17T10:16:32.517</time></trkpt><trkpt lat="55.8335428" lon="48.9787144"><time>2021-04-17T10:16:34.480</time></trkpt><trkpt lat="55.8335520" lon="48.9787993"><time>2021-04-17T10:16:36.493</time></trkpt><trkpt lat="55.8335617" lon="48.9788907"><time>2021-04-17T10:16:38.503</time></trkpt><trkpt lat="55.8335841" lon="48.9789812"><time>2021-04-17T10:16:40.513</time></trkpt><trkpt lat="55.8336029" lon="48.9790789"><time>2021-04-17T10:16:42.507</time></trkpt><trkpt lat="55.8336292" lon="48.9792043"><time>2021-04-17T10:16:44.550</time></trkpt><trkpt lat="55.8336784" lon="48.9792437"><time>2021-04-17T10:16:46.480</time></trkpt><trkpt lat="55.8337452" lon="48.9792829"><time>2021-04-17T10:16:49.500</time></trkpt><trkpt lat="55.8337986" lon="48.9793250"><time>2021-04-17T10:16:51.520</time></trkpt><trkpt lat="55.8338559" lon="48.9793902"><time>2021-04-17T10:16:54.520</time></trkpt><trkpt lat="55.8339161" lon="48.9794365"><time>2021-04-17T10:16:56.503</time></trkpt><trkpt lat="55.8339749" lon="48.9794453"><time>2021-04-17T10:16:59.503</time></trkpt><trkpt lat="55.8340234" lon="48.9794419"><time>2021-04-17T10:17:01.507</time></trkpt><trkpt lat="55.8340731" lon="48.9794551"><time>2021-04-17T10:17:03.513</time></trkpt><trkpt lat="55.8341310" lon="48.9794740"><time>2021-04-17T10:17:06.510</time></trkpt><trkpt lat="55.8341970" lon="48.9794994"><time>2021-04-17T10:17:09.530</time></trkpt><trkpt lat="55.8342595" lon="48.9794678"><time>2021-04-17T10:17:12.507</time></trkpt><trkpt lat="55.8343066" lon="48.9794588"><time>2021-04-17T10:17:14.523</time></trkpt><trkpt lat="55.8343463" lon="48.9794125"><time>2021-04-17T10:17:16.537</time></trkpt><trkpt lat="55.8343812" lon="48.9793609"><time>2021-04-17T10:17:18.493</time></trkpt><trkpt lat="55.8344247" lon="48.9792981"><time>2021-04-17T10:17:20.480</time></trkpt><trkpt lat="55.8344813" lon="48.9792626"><time>2021-04-17T10:17:22.480</time></trkpt><trkpt lat="55.8344813" lon="48.9792626"><time>2021-04-17T10:17:23.120</time></trkpt><trkpt lat="55.8345339" lon="48.9792310"><time>2021-04-17T10:17:24.473</time></trkpt><trkpt lat="55.8345723" lon="48.9791406"><time>2021-04-17T10:17:27.520</time></trkpt><trkpt lat="55.8345911" lon="48.9790647"><time>2021-04-17T10:17:30.520</time></trkpt><trkpt lat="55.8345685" lon="48.9789786"><time>2021-04-17T10:17:36.487</time></trkpt><trkpt lat="55.8345875" lon="48.9788945"><time>2021-04-17T10:17:39.550</time></trkpt><trkpt lat="55.8346263" lon="48.9788459"><time>2021-04-17T10:17:42.523</time></trkpt><trkpt lat="55.8346797" lon="48.9787811"><time>2021-04-17T10:17:45.500</time></trkpt><trkpt lat="55.8347249" lon="48.9786994"><time>2021-04-17T10:17:49.507</time></trkpt><trkpt lat="55.8347505" lon="48.9786088"><time>2021-04-17T10:17:53.497</time></trkpt><trkpt lat="55.8347767" lon="48.9785156"><time>2021-04-17T10:17:56.533</time></trkpt><trkpt lat="55.8348051" lon="48.9784336"><time>2021-04-17T10:17:58.500</time></trkpt><trkpt lat="55.8348438" lon="48.9783645"><time>2021-04-17T10:18:00.510</time></trkpt><trkpt lat="55.8348717" lon="48.9782934"><time>2021-04-17T10:18:02.527</time></trkpt><trkpt lat="55.8348913" lon="48.9781858"><time>2021-04-17T10:18:05.527</time></trkpt><trkpt lat="55.8349065" lon="48.9781092"><time>2021-04-17T10:18:07.510</time></trkpt><trkpt lat="55.8349249" lon="48.9780233"><time>2021-04-17T10:18:09.510</time></trkpt><trkpt lat="55.8349438" lon="48.9779210"><time>2021-04-17T10:18:11.507</time></trkpt><trkpt lat="55.8349551" lon="48.9778364"><time>2021-04-17T10:18:13.493</time></trkpt><trkpt lat="55.8349731" lon="48.9777590"><time>2021-04-17T10:18:15.527</time></trkpt><trkpt lat="55.8349948" lon="48.9776772"><time>2021-04-17T10:18:17.493</time></trkpt><trkpt lat="55.8350212" lon="48.9775909"><time>2021-04-17T10:18:19.507</time></trkpt><trkpt lat="55.8350454" lon="48.9774941"><time>2021-04-17T10:18:21.510</time></trkpt><trkpt lat="55.8350648" lon="48.9773981"><time>2021-04-17T10:18:23.497</time></trkpt><trkpt lat="55.8350793" lon="48.9773196"><time>2021-04-17T10:18:25.510</time></trkpt><trkpt lat="55.8351050" lon="48.9772383"><time>2021-04-17T10:18:27.527</time></trkpt><trkpt lat="55.8351222" lon="48.9771578"><time>2021-04-17T10:18:29.507</time></trkpt><trkpt lat="55.8351484" lon="48.9770593"><time>2021-04-17T10:18:32.527</time></trkpt><trkpt lat="55.8351820" lon="48.9769949"><time>2021-04-17T10:18:34.473</time></trkpt><trkpt lat="55.8352138" lon="48.9769156"><time>2021-04-17T10:18:36.477</time></trkpt><trkpt lat="55.8352370" lon="48.9768365"><time>2021-04-17T10:18:38.527</time></trkpt><trkpt lat="55.8352559" lon="48.9767559"><time>2021-04-17T10:18:40.507</time></trkpt><trkpt lat="55.8352758" lon="48.9766799"><time>2021-04-17T10:18:42.503</time></trkpt><trkpt lat="55.8353075" lon="48.9766025"><time>2021-04-17T10:18:44.497</time></trkpt><trkpt lat="55.8353293" lon="48.9765279"><time>2021-04-17T10:18:46.500</time></trkpt><trkpt lat="55.8353501" lon="48.9764541"><time>2021-04-17T10:18:48.477</time></trkpt><trkpt lat="55.8353646" lon="48.9763758"><time>2021-04-17T10:18:50.503</time></trkpt><trkpt lat="55.8353664" lon="48.9762937"><time>2021-04-17T10:18:52.500</time></trkpt><trkpt lat="55.8353671" lon="48.9762080"><time>2021-04-17T10:18:54.513</time></trkpt><trkpt lat="55.8353792" lon="48.9760913"><time>2021-04-17T10:18:57.513</time></trkpt><trkpt lat="55.8353934" lon="48.9760153"><time>2021-04-17T10:18:59.477</time></trkpt><trkpt lat="55.8354085" lon="48.9759341"><time>2021-04-17T10:19:01.503</time></trkpt><trkpt lat="55.8354235" lon="48.9758517"><time>2021-04-17T10:19:03.510</time></trkpt><trkpt lat="55.8354483" lon="48.9757677"><time>2021-04-17T10:19:05.503</time></trkpt><trkpt lat="55.8354664" lon="48.9756863"><time>2021-04-17T10:19:07.487</time></trkpt><trkpt lat="55.8354899" lon="48.9756020"><time>2021-04-17T10:19:09.520</time></trkpt><trkpt lat="55.8355100" lon="48.9755160"><time>2021-04-17T10:19:11.507</time></trkpt><trkpt lat="55.8355252" lon="48.9754284"><time>2021-04-17T10:19:13.507</time></trkpt><trkpt lat="55.8355395" lon="48.9753457"><time>2021-04-17T10:19:15.507</time></trkpt><trkpt lat="55.8355554" lon="48.9752569"><time>2021-04-17T10:19:17.520</time></trkpt><trkpt lat="55.8355802" lon="48.9751685"><time>2021-04-17T10:19:19.507</time></trkpt><trkpt lat="55.8355905" lon="48.9750839"><time>2021-04-17T10:19:21.503</time></trkpt><trkpt lat="55.8356016" lon="48.9750017"><time>2021-04-17T10:19:23.490</time></trkpt><trkpt lat="55.8356220" lon="48.9749194"><time>2021-04-17T10:19:25.507</time></trkpt><trkpt lat="55.8356462" lon="48.9748326"><time>2021-04-17T10:19:27.507</time></trkpt><trkpt lat="55.8356764" lon="48.9747537"><time>2021-04-17T10:19:29.520</time></trkpt><trkpt lat="55.8357064" lon="48.9746776"><time>2021-04-17T10:19:31.523</time></trkpt><trkpt lat="55.8357377" lon="48.9746014"><time>2021-04-17T10:19:33.497</time></trkpt><trkpt lat="55.8357606" lon="48.9745253"><time>2021-04-17T10:19:35.503</time></trkpt><trkpt lat="55.8357815" lon="48.9744479"><time>2021-04-17T10:19:37.510</time></trkpt><trkpt lat="55.8358041" lon="48.9743642"><time>2021-04-17T10:19:39.500</time></trkpt><trkpt lat="55.8358195" lon="48.9742839"><time>2021-04-17T10:19:41.510</time></trkpt><trkpt lat="55.8358323" lon="48.9742037"><time>2021-04-17T10:19:43.510</time></trkpt><trkpt lat="55.8358585" lon="48.9741187"><time>2021-04-17T10:19:45.550</time></trkpt><trkpt lat="55.8358722" lon="48.9740359"><time>2021-04-17T10:19:47.510</time></trkpt><trkpt lat="55.8358911" lon="48.9739589"><time>2021-04-17T10:19:49.517</time></trkpt><trkpt lat="55.8359063" lon="48.9738442"><time>2021-04-17T10:19:52.497</time></trkpt><trkpt lat="55.8359168" lon="48.9737633"><time>2021-04-17T10:19:54.507</time></trkpt><trkpt lat="55.8359297" lon="48.9736858"><time>2021-04-17T10:19:56.533</time></trkpt><trkpt lat="55.8359489" lon="48.9735770"><time>2021-04-17T10:19:59.523</time></trkpt><trkpt lat="55.8359648" lon="48.9735014"><time>2021-04-17T10:20:01.480</time></trkpt><trkpt lat="55.8359837" lon="48.9734253"><time>2021-04-17T10:20:03.510</time></trkpt><trkpt lat="55.8360008" lon="48.9733503"><time>2021-04-17T10:20:05.497</time></trkpt><trkpt lat="55.8360114" lon="48.9732331"><time>2021-04-17T10:20:08.497</time></trkpt><trkpt lat="55.8360159" lon="48.9731444"><time>2021-04-17T10:20:10.503</time></trkpt><trkpt lat="55.8360176" lon="48.9730529"><time>2021-04-17T10:20:12.493</time></trkpt><trkpt lat="55.8360218" lon="48.9729661"><time>2021-04-17T10:20:14.527</time></trkpt><trkpt lat="55.8360351" lon="48.9728821"><time>2021-04-17T10:20:16.513</time></trkpt><trkpt lat="55.8360566" lon="48.9727948"><time>2021-04-17T10:20:18.547</time></trkpt><trkpt lat="55.8360809" lon="48.9727049"><time>2021-04-17T10:20:20.497</time></trkpt><trkpt lat="55.8360966" lon="48.9726118"><time>2021-04-17T10:20:22.513</time></trkpt><trkpt lat="55.8361087" lon="48.9725028"><time>2021-04-17T10:20:25.497</time></trkpt><trkpt lat="55.8361236" lon="48.9723862"><time>2021-04-17T10:20:28.500</time></trkpt><trkpt lat="55.8361011" lon="48.9722929"><time>2021-04-17T10:20:32.500</time></trkpt><trkpt lat="55.8360489" lon="48.9722626"><time>2021-04-17T10:20:36.513</time></trkpt><trkpt lat="55.8360420" lon="48.9721522"><time>2021-04-17T10:20:39.487</time></trkpt><trkpt lat="55.8360467" lon="48.9720592"><time>2021-04-17T10:20:41.490</time></trkpt><trkpt lat="55.8360485" lon="48.9719702"><time>2021-04-17T10:20:43.497</time></trkpt><trkpt lat="55.8360298" lon="48.9718809"><time>2021-04-17T10:20:46.510</time></trkpt><trkpt lat="55.8359682" lon="48.9718655"><time>2021-04-17T10:20:50.490</time></trkpt><trkpt lat="55.8359169" lon="48.9718211"><time>2021-04-17T10:20:53.490</time></trkpt><trkpt lat="55.8359101" lon="48.9717599"><time>2021-04-17T10:21:01.443</time></trkpt><trkpt lat="55.8359653" lon="48.9717426"><time>2021-04-17T10:21:01.550</time></trkpt><trkpt lat="55.8360198" lon="48.9717105"><time>2021-04-17T10:21:04.497</time></trkpt><trkpt lat="55.8359941" lon="48.9717820"><time>2021-04-17T10:21:17.483</time></trkpt><trkpt lat="55.8359443" lon="48.9717424"><time>2021-04-17T10:21:20.490</time></trkpt><trkpt lat="55.8358785" lon="48.9717365"><time>2021-04-17T10:21:23.493</time></trkpt><trkpt lat="55.8358151" lon="48.9717617"><time>2021-04-17T10:21:26.510</time></trkpt><trkpt lat="55.8357664" lon="48.9717976"><time>2021-04-17T10:21:29.490</time></trkpt><trkpt lat="55.8357119" lon="48.9717615"><time>2021-04-17T10:21:32.513</time></trkpt><trkpt lat="55.8356556" lon="48.9717394"><time>2021-04-17T10:21:35.513</time></trkpt><trkpt lat="55.8356195" lon="48.9716873"><time>2021-04-17T10:21:37.500</time></trkpt><trkpt lat="55.8355866" lon="48.9716174"><time>2021-04-17T10:21:39.500</time></trkpt><trkpt lat="55.8355401" lon="48.9715596"><time>2021-04-17T10:21:42.500</time></trkpt><trkpt lat="55.8354940" lon="48.9715506"><time>2021-04-17T10:21:46.513</time></trkpt><trkpt lat="55.8354519" lon="48.9715219"><time>2021-04-17T10:21:49.500</time></trkpt><trkpt lat="55.8354067" lon="48.9714533"><time>2021-04-17T10:21:52.507</time></trkpt><trkpt lat="55.8353508" lon="48.9714227"><time>2021-04-17T10:21:56.503</time></trkpt><trkpt lat="55.8353024" lon="48.9713901"><time>2021-04-17T10:21:59.503</time></trkpt><trkpt lat="55.8352758" lon="48.9713152"><time>2021-04-17T10:22:01.500</time></trkpt><trkpt lat="55.8352492" lon="48.9712164"><time>2021-04-17T10:22:03.517</time></trkpt><trkpt lat="55.8352378" lon="48.9711327"><time>2021-04-17T10:22:05.480</time></trkpt><trkpt lat="55.8352393" lon="48.9710483"><time>2021-04-17T10:22:07.497</time></trkpt><trkpt lat="55.8352398" lon="48.9709529"><time>2021-04-17T10:22:10.520</time></trkpt><trkpt lat="55.8352583" lon="48.9708571"><time>2021-04-17T10:22:13.503</time></trkpt><trkpt lat="55.8352497" lon="48.9707781"><time>2021-04-17T10:22:15.480</time></trkpt><trkpt lat="55.8352315" lon="48.9706710"><time>2021-04-17T10:22:18.477</time></trkpt><trkpt lat="55.8352459" lon="48.9705585"><time>2021-04-17T10:22:21.517</time></trkpt><trkpt lat="55.8352662" lon="48.9704766"><time>2021-04-17T10:22:23.520</time></trkpt><trkpt lat="55.8352816" lon="48.9703973"><time>2021-04-17T10:22:25.507</time></trkpt><trkpt lat="55.8353083" lon="48.9703314"><time>2021-04-17T10:22:27.520</time></trkpt><trkpt lat="55.8353289" lon="48.9702494"><time>2021-04-17T10:22:30.507</time></trkpt><trkpt lat="55.8353496" lon="48.9701783"><time>2021-04-17T10:22:32.507</time></trkpt><trkpt lat="55.8353783" lon="48.9700789"><time>2021-04-17T10:22:34.507</time></trkpt><trkpt lat="55.8353930" lon="48.9699822"><time>2021-04-17T10:22:36.507</time></trkpt><trkpt lat="55.8354061" lon="48.9699029"><time>2021-04-17T10:22:38.507</time></trkpt><trkpt lat="55.8354361" lon="48.9698105"><time>2021-04-17T10:22:40.477</time></trkpt><trkpt lat="55.8354474" lon="48.9697280"><time>2021-04-17T10:22:43.500</time></trkpt><trkpt lat="55.8354274" lon="48.9696379"><time>2021-04-17T10:22:47.510</time></trkpt><trkpt lat="55.8354070" lon="48.9695566"><time>2021-04-17T10:22:50.510</time></trkpt><trkpt lat="55.8353732" lon="48.9694727"><time>2021-04-17T10:22:53.510</time></trkpt><trkpt lat="55.8353471" lon="48.9694052"><time>2021-04-17T10:22:55.510</time></trkpt><trkpt lat="55.8353198" lon="48.9693399"><time>2021-04-17T10:22:57.507</time></trkpt><trkpt lat="55.8352882" lon="48.9692379"><time>2021-04-17T10:22:59.500</time></trkpt><trkpt lat="55.8352834" lon="48.9691387"><time>2021-04-17T10:23:01.507</time></trkpt><trkpt lat="55.8352883" lon="48.9690476"><time>2021-04-17T10:23:03.507</time></trkpt><trkpt lat="55.8352604" lon="48.9689501"><time>2021-04-17T10:23:06.480</time></trkpt><trkpt lat="55.8352589" lon="48.9688547"><time>2021-04-17T10:23:08.480</time></trkpt><trkpt lat="55.8352536" lon="48.9687680"><time>2021-04-17T10:23:10.483</time></trkpt><trkpt lat="55.8352346" lon="48.9686680"><time>2021-04-17T10:23:13.483</time></trkpt><trkpt lat="55.8352330" lon="48.9685485"><time>2021-04-17T10:23:16.513</time></trkpt><trkpt lat="55.8352319" lon="48.9684512"><time>2021-04-17T10:23:18.480</time></trkpt><trkpt lat="55.8352269" lon="48.9683717"><time>2021-04-17T10:23:20.503</time></trkpt><trkpt lat="55.8352054" lon="48.9682927"><time>2021-04-17T10:23:23.517</time></trkpt><trkpt lat="55.8351770" lon="48.9682283"><time>2021-04-17T10:23:25.483</time></trkpt><trkpt lat="55.8351458" lon="48.9681252"><time>2021-04-17T10:23:28.503</time></trkpt><trkpt lat="55.8351212" lon="48.9680150"><time>2021-04-17T10:23:30.517</time></trkpt><trkpt lat="55.8351035" lon="48.9678952"><time>2021-04-17T10:23:32.503</time></trkpt><trkpt lat="55.8350759" lon="48.9677876"><time>2021-04-17T10:23:34.523</time></trkpt><trkpt lat="55.8350305" lon="48.9677059"><time>2021-04-17T10:23:36.517</time></trkpt><trkpt lat="55.8349881" lon="48.9676417"><time>2021-04-17T10:23:38.517</time></trkpt><trkpt lat="55.8349503" lon="48.9675798"><time>2021-04-17T10:23:40.503</time></trkpt><trkpt lat="55.8349254" lon="48.9675086"><time>2021-04-17T10:23:42.520</time></trkpt><trkpt lat="55.8348980" lon="48.9674402"><time>2021-04-17T10:23:44.527</time></trkpt><trkpt lat="55.8348828" lon="48.9673552"><time>2021-04-17T10:23:46.490</time></trkpt><trkpt lat="55.8348794" lon="48.9672509"><time>2021-04-17T10:23:48.517</time></trkpt><trkpt lat="55.8348809" lon="48.9671520"><time>2021-04-17T10:23:50.507</time></trkpt><trkpt lat="55.8348800" lon="48.9670503"><time>2021-04-17T10:23:52.507</time></trkpt><trkpt lat="55.8348767" lon="48.9669540"><time>2021-04-17T10:23:54.507</time></trkpt><trkpt lat="55.8348826" lon="48.9668673"><time>2021-04-17T10:23:56.503</time></trkpt><trkpt lat="55.8348883" lon="48.9667677"><time>2021-04-17T10:23:58.477</time></trkpt><trkpt lat="55.8348936" lon="48.9666769"><time>2021-04-17T10:24:00.477</time></trkpt><trkpt lat="55.8349086" lon="48.9665890"><time>2021-04-17T10:24:02.507</time></trkpt><trkpt lat="55.8349181" lon="48.9665032"><time>2021-04-17T10:24:04.543</time></trkpt><trkpt lat="55.8349260" lon="48.9664143"><time>2021-04-17T10:24:06.503</time></trkpt><trkpt lat="55.8349346" lon="48.9663357"><time>2021-04-17T10:24:08.507</time></trkpt><trkpt lat="55.8349407" lon="48.9662476"><time>2021-04-17T10:24:10.523</time></trkpt><trkpt lat="55.8349485" lon="48.9661538"><time>2021-04-17T10:24:12.497</time></trkpt><trkpt lat="55.8349655" lon="48.9660715"><time>2021-04-17T10:24:14.490</time></trkpt><trkpt lat="55.8349778" lon="48.9659918"><time>2021-04-17T10:24:16.550</time></trkpt><trkpt lat="55.8349851" lon="48.9659099"><time>2021-04-17T10:24:18.477</time></trkpt><trkpt lat="55.8349908" lon="48.9658216"><time>2021-04-17T10:24:20.507</time></trkpt><trkpt lat="55.8349948" lon="48.9657288"><time>2021-04-17T10:24:22.513</time></trkpt><trkpt lat="55.8349934" lon="48.9656442"><time>2021-04-17T10:24:24.510</time></trkpt><trkpt lat="55.8349936" lon="48.9655582"><time>2021-04-17T10:24:26.513</time></trkpt><trkpt lat="55.8349960" lon="48.9654722"><time>2021-04-17T10:24:28.510</time></trkpt><trkpt lat="55.8350037" lon="48.9653906"><time>2021-04-17T10:24:30.513</time></trkpt><trkpt lat="55.8350264" lon="48.9653142"><time>2021-04-17T10:24:32.493</time></trkpt><trkpt lat="55.8350514" lon="48.9652351"><time>2021-04-17T10:24:34.500</time></trkpt><trkpt lat="55.8350288" lon="48.9651639"><time>2021-04-17T10:24:37.493</time></trkpt><trkpt lat="55.8350368" lon="48.9650581"><time>2021-04-17T10:24:40.477</time></trkpt><trkpt lat="55.8350483" lon="48.9649475"><time>2021-04-17T10:24:43.497</time></trkpt><trkpt lat="55.8350556" lon="48.9648247"><time>2021-04-17T10:24:46.493</time></trkpt><trkpt lat="55.8350500" lon="48.9647358"><time>2021-04-17T10:24:48.497</time></trkpt><trkpt lat="55.8350299" lon="48.9646469"><time>2021-04-17T10:24:50.527</time></trkpt><trkpt lat="55.8350094" lon="48.9645624"><time>2021-04-17T10:24:52.510</time></trkpt><trkpt lat="55.8349859" lon="48.9644847"><time>2021-04-17T10:24:54.480</time></trkpt><trkpt lat="55.8349587" lon="48.9644048"><time>2021-04-17T10:24:56.507</time></trkpt><trkpt lat="55.8349342" lon="48.9643230"><time>2021-04-17T10:24:58.503</time></trkpt><trkpt lat="55.8349154" lon="48.9642364"><time>2021-04-17T10:25:00.523</time></trkpt><trkpt lat="55.8349107" lon="48.9641314"><time>2021-04-17T10:25:02.517</time></trkpt><trkpt lat="55.8349033" lon="48.9640331"><time>2021-04-17T10:25:04.507</time></trkpt><trkpt lat="55.8348833" lon="48.9639322"><time>2021-04-17T10:25:06.517</time></trkpt><trkpt lat="55.8348502" lon="48.9638385"><time>2021-04-17T10:25:08.500</time></trkpt><trkpt lat="55.8348128" lon="48.9637587"><time>2021-04-17T10:25:10.500</time></trkpt><trkpt lat="55.8347760" lon="48.9636825"><time>2021-04-17T10:25:12.503</time></trkpt><trkpt lat="55.8347426" lon="48.9635823"><time>2021-04-17T10:25:14.503</time></trkpt><trkpt lat="55.8347170" lon="48.9634636"><time>2021-04-17T10:25:16.503</time></trkpt><trkpt lat="55.8346775" lon="48.9633730"><time>2021-04-17T10:25:18.503</time></trkpt><trkpt lat="55.8346517" lon="48.9632706"><time>2021-04-17T10:25:20.497</time></trkpt><trkpt lat="55.8346250" lon="48.9631820"><time>2021-04-17T10:25:22.540</time></trkpt><trkpt lat="55.8345944" lon="48.9631075"><time>2021-04-17T10:25:24.497</time></trkpt><trkpt lat="55.8345534" lon="48.9630343"><time>2021-04-17T10:25:27.483</time></trkpt><trkpt lat="55.8345243" lon="48.9629664"><time>2021-04-17T10:25:30.517</time></trkpt><trkpt lat="55.8344949" lon="48.9628558"><time>2021-04-17T10:25:33.500</time></trkpt><trkpt lat="55.8344671" lon="48.9627765"><time>2021-04-17T10:25:35.520</time></trkpt><trkpt lat="55.8344366" lon="48.9627145"><time>2021-04-17T10:25:37.480</time></trkpt><trkpt lat="55.8344091" lon="48.9626510"><time>2021-04-17T10:25:39.503</time></trkpt><trkpt lat="55.8343800" lon="48.9625822"><time>2021-04-17T10:25:41.480</time></trkpt><trkpt lat="55.8343521" lon="48.9625086"><time>2021-04-17T10:25:43.477</time></trkpt><trkpt lat="55.8343297" lon="48.9624250"><time>2021-04-17T10:25:45.500</time></trkpt><trkpt lat="55.8343004" lon="48.9623472"><time>2021-04-17T10:25:47.487</time></trkpt><trkpt lat="55.8342701" lon="48.9622784"><time>2021-04-17T10:25:49.507</time></trkpt><trkpt lat="55.8342305" lon="48.9621877"><time>2021-04-17T10:25:52.480</time></trkpt><trkpt lat="55.8342029" lon="48.9621175"><time>2021-04-17T10:25:54.517</time></trkpt><trkpt lat="55.8341697" lon="48.9620354"><time>2021-04-17T10:25:56.503</time></trkpt><trkpt lat="55.8341454" lon="48.9619594"><time>2021-04-17T10:25:58.503</time></trkpt><trkpt lat="55.8341184" lon="48.9618717"><time>2021-04-17T10:26:00.523</time></trkpt><trkpt lat="55.8340971" lon="48.9617932"><time>2021-04-17T10:26:02.510</time></trkpt><trkpt lat="55.8340724" lon="48.9617066"><time>2021-04-17T10:26:04.510</time></trkpt><trkpt lat="55.8340535" lon="48.9616255"><time>2021-04-17T10:26:06.500</time></trkpt><trkpt lat="55.8340330" lon="48.9615519"><time>2021-04-17T10:26:08.523</time></trkpt><trkpt lat="55.8340111" lon="48.9614683"><time>2021-04-17T10:26:10.533</time></trkpt><trkpt lat="55.8340017" lon="48.9613786"><time>2021-04-17T10:26:12.533</time></trkpt><trkpt lat="55.8339851" lon="48.9612675"><time>2021-04-17T10:26:14.517</time></trkpt><trkpt lat="55.8339665" lon="48.9611525"><time>2021-04-17T10:26:16.520</time></trkpt><trkpt lat="55.8339536" lon="48.9610503"><time>2021-04-17T10:26:18.523</time></trkpt><trkpt lat="55.8339444" lon="48.9609585"><time>2021-04-17T10:26:20.503</time></trkpt><trkpt lat="55.8339362" lon="48.9608372"><time>2021-04-17T10:26:23.500</time></trkpt><trkpt lat="55.8339372" lon="48.9607370"><time>2021-04-17T10:26:25.507</time></trkpt><trkpt lat="55.8339415" lon="48.9606279"><time>2021-04-17T10:26:27.493</time></trkpt><trkpt lat="55.8339439" lon="48.9605162"><time>2021-04-17T10:26:29.510</time></trkpt><trkpt lat="55.8339425" lon="48.9604041"><time>2021-04-17T10:26:31.527</time></trkpt><trkpt lat="55.8339411" lon="48.9602950"><time>2021-04-17T10:26:33.500</time></trkpt><trkpt lat="55.8339397" lon="48.9601948"><time>2021-04-17T10:26:35.497</time></trkpt><trkpt lat="55.8339391" lon="48.9600978"><time>2021-04-17T10:26:37.507</time></trkpt><trkpt lat="55.8339361" lon="48.9600053"><time>2021-04-17T10:26:39.513</time></trkpt><trkpt lat="55.8339260" lon="48.9599173"><time>2021-04-17T10:26:41.480</time></trkpt><trkpt lat="55.8339004" lon="48.9598139"><time>2021-04-17T10:26:44.497</time></trkpt><trkpt lat="55.8338811" lon="48.9597383"><time>2021-04-17T10:26:46.497</time></trkpt><trkpt lat="55.8338586" lon="48.9596577"><time>2021-04-17T10:26:48.507</time></trkpt><trkpt lat="55.8338324" lon="48.9595615"><time>2021-04-17T10:26:50.497</time></trkpt><trkpt lat="55.8338106" lon="48.9594646"><time>2021-04-17T10:26:52.500</time></trkpt><trkpt lat="55.8337938" lon="48.9593661"><time>2021-04-17T10:26:54.507</time></trkpt><trkpt lat="55.8337826" lon="48.9592623"><time>2021-04-17T10:26:56.503</time></trkpt><trkpt lat="55.8337673" lon="48.9591631"><time>2021-04-17T10:26:58.503</time></trkpt><trkpt lat="55.8337537" lon="48.9590612"><time>2021-04-17T10:27:00.507</time></trkpt><trkpt lat="55.8337475" lon="48.9589560"><time>2021-04-17T10:27:02.507</time></trkpt><trkpt lat="55.8337646" lon="48.9588594"><time>2021-04-17T10:27:04.507</time></trkpt><trkpt lat="55.8337974" lon="48.9587835"><time>2021-04-17T10:27:06.507</time></trkpt><trkpt lat="55.8338385" lon="48.9587300"><time>2021-04-17T10:27:08.483</time></trkpt><trkpt lat="55.8338864" lon="48.9586859"><time>2021-04-17T10:27:10.503</time></trkpt><trkpt lat="55.8339335" lon="48.9586377"><time>2021-04-17T10:27:12.517</time></trkpt><trkpt lat="55.8339808" lon="48.9585915"><time>2021-04-17T10:27:14.507</time></trkpt><trkpt lat="55.8340307" lon="48.9585566"><time>2021-04-17T10:27:16.513</time></trkpt><trkpt lat="55.8340743" lon="48.9585092"><time>2021-04-17T10:27:18.507</time></trkpt><trkpt lat="55.8341102" lon="48.9584414"><time>2021-04-17T10:27:20.507</time></trkpt><trkpt lat="55.8341356" lon="48.9583669"><time>2021-04-17T10:27:22.497</time></trkpt><trkpt lat="55.8341616" lon="48.9582978"><time>2021-04-17T10:27:24.507</time></trkpt><trkpt lat="55.8342001" lon="48.9582117"><time>2021-04-17T10:27:27.513</time></trkpt><trkpt lat="55.8342581" lon="48.9581608"><time>2021-04-17T10:27:30.503</time></trkpt><trkpt lat="55.8343043" lon="48.9581388"><time>2021-04-17T10:27:32.503</time></trkpt><trkpt lat="55.8343683" lon="48.9581067"><time>2021-04-17T10:27:35.490</time></trkpt></trkseg></trk></gpx>